﻿<?xml version="1.0" encoding="utf-8"?><gpx creator="Garmin Desktop App" version="1.1" xsi:schemaLocation="http://www.topografix.com/GPX/1/1 http://www.topografix.com/GPX/1/1/gpx.xsd http://www.garmin.com/xmlschemas/WaypointExtension/v1 http://www8.garmin.com/xmlschemas/WaypointExtensionv1.xsd http://www.garmin.com/xmlschemas/TrackPointExtension/v1 http://www.garmin.com/xmlschemas/TrackPointExtensionv1.xsd http://www.garmin.com/xmlschemas/GpxExtensions/v3 http://www8.garmin.com/xmlschemas/GpxExtensionsv3.xsd http://www.garmin.com/xmlschemas/ActivityExtension/v1 http://www8.garmin.com/xmlschemas/ActivityExtensionv1.xsd http://www.garmin.com/xmlschemas/AdventuresExtensions/v1 http://www8.garmin.com/xmlschemas/AdventuresExtensionv1.xsd http://www.garmin.com/xmlschemas/PressureExtension/v1 http://www.garmin.com/xmlschemas/PressureExtensionv1.xsd http://www.garmin.com/xmlschemas/TripExtensions/v1 http://www.garmin.com/xmlschemas/TripExtensionsv1.xsd http://www.garmin.com/xmlschemas/TripMetaDataExtensions/v1 http://www.garmin.com/xmlschemas/TripMetaDataExtensionsv1.xsd http://www.garmin.com/xmlschemas/ViaPointTransportationModeExtensions/v1 http://www.garmin.com/xmlschemas/ViaPointTransportationModeExtensionsv1.xsd http://www.garmin.com/xmlschemas/CreationTimeExtension/v1 http://www.garmin.com/xmlschemas/CreationTimeExtensionsv1.xsd http://www.garmin.com/xmlschemas/AccelerationExtension/v1 http://www.garmin.com/xmlschemas/AccelerationExtensionv1.xsd http://www.garmin.com/xmlschemas/PowerExtension/v1 http://www.garmin.com/xmlschemas/PowerExtensionv1.xsd http://www.garmin.com/xmlschemas/VideoExtension/v1 http://www.garmin.com/xmlschemas/VideoExtensionv1.xsd" xmlns="http://www.topografix.com/GPX/1/1" xmlns:xsi="http://www.w3.org/2001/XMLSchema-instance" xmlns:wptx1="http://www.garmin.com/xmlschemas/WaypointExtension/v1" xmlns:gpxtrx="http://www.garmin.com/xmlschemas/GpxExtensions/v3" xmlns:gpxtpx="http://www.garmin.com/xmlschemas/TrackPointExtension/v1" xmlns:gpxx="http://www.garmin.com/xmlschemas/GpxExtensions/v3" xmlns:trp="http://www.garmin.com/xmlschemas/TripExtensions/v1" xmlns:adv="http://www.garmin.com/xmlschemas/AdventuresExtensions/v1" xmlns:prs="http://www.garmin.com/xmlschemas/PressureExtension/v1" xmlns:tmd="http://www.garmin.com/xmlschemas/TripMetaDataExtensions/v1" xmlns:vptm="http://www.garmin.com/xmlschemas/ViaPointTransportationModeExtensions/v1" xmlns:ctx="http://www.garmin.com/xmlschemas/CreationTimeExtension/v1" xmlns:gpxacc="http://www.garmin.com/xmlschemas/AccelerationExtension/v1" xmlns:gpxpx="http://www.garmin.com/xmlschemas/PowerExtension/v1" xmlns:vidx1="http://www.garmin.com/xmlschemas/VideoExtension/v1">

  <metadata>
    <link href="http://www.garmin.com">
      <text>Garmin International</text>
    </link>
    <time>2016-03-14T12:42:59Z</time>
    <bounds maxlat="46.523349797353148" maxlon="8.926587654277682" minlat="46.497972076758742" minlon="8.89436200261116" />
  </metadata>

  <trk>
    <name>capanna gorda punta larescia13marzo16</name>
    <extensions>
      <gpxx:TrackExtension>
        <gpxx:DisplayColor>Yellow</gpxx:DisplayColor>
      </gpxx:TrackExtension>
    </extensions>
    <trkseg>
      <trkpt lat="46.523324986919761" lon="8.911584466695786">
        <ele>1210.9200000000001</ele>
        <time>2016-03-13T07:55:55Z</time>
      </trkpt>
      <trkpt lat="46.523319873958826" lon="8.911578264087439">
        <ele>1210.9200000000001</ele>
        <time>2016-03-13T07:55:56Z</time>
      </trkpt>
      <trkpt lat="46.523300176486373" lon="8.911561751738191">
        <ele>1209.96</ele>
        <time>2016-03-13T07:56:16Z</time>
      </trkpt>
      <trkpt lat="46.523302523419261" lon="8.911549178883433">
        <ele>1209</ele>
        <time>2016-03-13T07:56:18Z</time>
      </trkpt>
      <trkpt lat="46.523302774876356" lon="8.911534594371915">
        <ele>1209</ele>
        <time>2016-03-13T07:56:31Z</time>
      </trkpt>
      <trkpt lat="46.523299170657992" lon="8.911512466147542">
        <ele>1209</ele>
        <time>2016-03-13T07:56:48Z</time>
      </trkpt>
      <trkpt lat="46.523334961384535" lon="8.911489499732852">
        <ele>1209.96</ele>
        <time>2016-03-13T07:57:04Z</time>
      </trkpt>
      <trkpt lat="46.523349797353148" lon="8.911477597430348">
        <ele>1209.96</ele>
        <time>2016-03-13T07:57:14Z</time>
      </trkpt>
      <trkpt lat="46.523347953334451" lon="8.911489332094789">
        <ele>1210.4400000000001</ele>
        <time>2016-03-13T07:57:28Z</time>
      </trkpt>
      <trkpt lat="46.523346360772848" lon="8.911472735926509">
        <ele>1209.96</ele>
        <time>2016-03-13T07:57:38Z</time>
      </trkpt>
      <trkpt lat="46.523336386308074" lon="8.911466365680099">
        <ele>1209.96</ele>
        <time>2016-03-13T07:57:50Z</time>
      </trkpt>
      <trkpt lat="46.523311156779528" lon="8.911487152799964">
        <ele>1210.4400000000001</ele>
        <time>2016-03-13T07:58:15Z</time>
      </trkpt>
      <trkpt lat="46.52332155033946" lon="8.911486985161901">
        <ele>1210.4400000000001</ele>
        <time>2016-03-13T07:58:32Z</time>
      </trkpt>
      <trkpt lat="46.523288358002901" lon="8.911507437005639">
        <ele>1209.96</ele>
        <time>2016-03-13T07:58:45Z</time>
      </trkpt>
      <trkpt lat="46.523296236991882" lon="8.911509700119495">
        <ele>1210.9200000000001</ele>
        <time>2016-03-13T07:58:50Z</time>
      </trkpt>
      <trkpt lat="46.523297242820263" lon="8.911490840837359">
        <ele>1210.4400000000001</ele>
        <time>2016-03-13T07:59:05Z</time>
      </trkpt>
      <trkpt lat="46.523286765441298" lon="8.91150307841599">
        <ele>1210.4400000000001</ele>
        <time>2016-03-13T07:59:21Z</time>
      </trkpt>
      <trkpt lat="46.523310653865337" lon="8.911502659320831">
        <ele>1210.9200000000001</ele>
        <time>2016-03-13T07:59:37Z</time>
      </trkpt>
      <trkpt lat="46.523311240598559" lon="8.911504000425339">
        <ele>1211.4000000000001</ele>
        <time>2016-03-13T07:59:38Z</time>
      </trkpt>
      <trkpt lat="46.523315515369177" lon="8.911488577723503">
        <ele>1209.96</ele>
        <time>2016-03-13T07:59:57Z</time>
      </trkpt>
      <trkpt lat="46.523321466520429" lon="8.911468544974923">
        <ele>1209.96</ele>
        <time>2016-03-13T08:00:20Z</time>
      </trkpt>
      <trkpt lat="46.523301685228944" lon="8.911472400650382">
        <ele>1209.48</ele>
        <time>2016-03-13T08:00:35Z</time>
      </trkpt>
      <trkpt lat="46.523297745734453" lon="8.91149377450347">
        <ele>1209.48</ele>
        <time>2016-03-13T08:00:55Z</time>
      </trkpt>
      <trkpt lat="46.5233005117625" lon="8.911483380943537">
        <ele>1209.96</ele>
        <time>2016-03-13T08:01:11Z</time>
      </trkpt>
      <trkpt lat="46.523289028555155" lon="8.91149721108377">
        <ele>1210.4400000000001</ele>
        <time>2016-03-13T08:01:26Z</time>
      </trkpt>
      <trkpt lat="46.523295063525438" lon="8.911549095064402">
        <ele>1209.96</ele>
        <time>2016-03-13T08:01:35Z</time>
      </trkpt>
      <trkpt lat="46.523297745734453" lon="8.911538533866406">
        <ele>1209.96</ele>
        <time>2016-03-13T08:01:50Z</time>
      </trkpt>
      <trkpt lat="46.523290285840631" lon="8.911553118377924">
        <ele>1210.4400000000001</ele>
        <time>2016-03-13T08:02:08Z</time>
      </trkpt>
      <trkpt lat="46.523283747956157" lon="8.911535516381264">
        <ele>1209.96</ele>
        <time>2016-03-13T08:02:23Z</time>
      </trkpt>
      <trkpt lat="46.523290872573853" lon="8.911531157791615">
        <ele>1209.96</ele>
        <time>2016-03-13T08:02:38Z</time>
      </trkpt>
      <trkpt lat="46.523272264748812" lon="8.911588909104466">
        <ele>1209.48</ele>
        <time>2016-03-13T08:02:50Z</time>
      </trkpt>
      <trkpt lat="46.523261787369847" lon="8.911601481959224">
        <ele>1209.48</ele>
        <time>2016-03-13T08:03:00Z</time>
      </trkpt>
      <trkpt lat="46.523260613903403" lon="8.911604750901461">
        <ele>1209</ele>
        <time>2016-03-13T08:03:14Z</time>
      </trkpt>
      <trkpt lat="46.523238150402904" lon="8.911625789478421">
        <ele>1209.96</ele>
        <time>2016-03-13T08:03:36Z</time>
      </trkpt>
      <trkpt lat="46.523232869803905" lon="8.91166577115655">
        <ele>1208.51</ele>
        <time>2016-03-13T08:03:54Z</time>
      </trkpt>
      <trkpt lat="46.523233121261001" lon="8.911673566326499">
        <ele>1209</ele>
        <time>2016-03-13T08:04:08Z</time>
      </trkpt>
      <trkpt lat="46.523205293342471" lon="8.911670129746199">
        <ele>1208.51</ele>
        <time>2016-03-13T08:04:17Z</time>
      </trkpt>
      <trkpt lat="46.523194815963507" lon="8.911694940179586">
        <ele>1208.03</ele>
        <time>2016-03-13T08:04:22Z</time>
      </trkpt>
      <trkpt lat="46.523136897012591" lon="8.911841455847025">
        <ele>1208.03</ele>
        <time>2016-03-13T08:04:33Z</time>
      </trkpt>
      <trkpt lat="46.523125162348151" lon="8.911854531615973">
        <ele>1208.03</ele>
        <time>2016-03-13T08:04:43Z</time>
      </trkpt>
      <trkpt lat="46.523063220083714" lon="8.91191253438592">
        <ele>1207.55</ele>
        <time>2016-03-13T08:04:54Z</time>
      </trkpt>
      <trkpt lat="46.523015527054667" lon="8.91196969896555">
        <ele>1207.55</ele>
        <time>2016-03-13T08:05:05Z</time>
      </trkpt>
      <trkpt lat="46.52291452512145" lon="8.912037257105112">
        <ele>1207.0699999999999</ele>
        <time>2016-03-13T08:05:17Z</time>
      </trkpt>
      <trkpt lat="46.522851912304759" lon="8.912118226289749">
        <ele>1207.0699999999999</ele>
        <time>2016-03-13T08:05:29Z</time>
      </trkpt>
      <trkpt lat="46.522853085771203" lon="8.912140605971217">
        <ele>1207.0699999999999</ele>
        <time>2016-03-13T08:05:31Z</time>
      </trkpt>
      <trkpt lat="46.522809164598584" lon="8.912355517968535">
        <ele>1206.1099999999999</ele>
        <time>2016-03-13T08:05:47Z</time>
      </trkpt>
      <trkpt lat="46.522774379700422" lon="8.91251158900559">
        <ele>1204.6700000000001</ele>
        <time>2016-03-13T08:05:58Z</time>
      </trkpt>
      <trkpt lat="46.522733811289072" lon="8.912663804367185">
        <ele>1204.6700000000001</ele>
        <time>2016-03-13T08:06:09Z</time>
      </trkpt>
      <trkpt lat="46.522695170715451" lon="8.912836471572518">
        <ele>1204.1900000000001</ele>
        <time>2016-03-13T08:06:20Z</time>
      </trkpt>
      <trkpt lat="46.52265066280961" lon="8.913004947826266">
        <ele>1203.71</ele>
        <time>2016-03-13T08:06:32Z</time>
      </trkpt>
      <trkpt lat="46.522622164338827" lon="8.913137884810567">
        <ele>1202.75</ele>
        <time>2016-03-13T08:06:44Z</time>
      </trkpt>
      <trkpt lat="46.522615710273385" lon="8.913147607818246">
        <ele>1203.23</ele>
        <time>2016-03-13T08:06:45Z</time>
      </trkpt>
      <trkpt lat="46.522558210417628" lon="8.913246933370829">
        <ele>1201.3</ele>
        <time>2016-03-13T08:06:52Z</time>
      </trkpt>
      <trkpt lat="46.522512445226312" lon="8.913464192301035">
        <ele>1201.79</ele>
        <time>2016-03-13T08:07:04Z</time>
      </trkpt>
      <trkpt lat="46.522480342537165" lon="8.913511047139764">
        <ele>1201.79</ele>
        <time>2016-03-13T08:07:14Z</time>
      </trkpt>
      <trkpt lat="46.522450838238001" lon="8.913507862016559">
        <ele>1202.75</ele>
        <time>2016-03-13T08:07:27Z</time>
      </trkpt>
      <trkpt lat="46.522442121058702" lon="8.913558572530747">
        <ele>1201.79</ele>
        <time>2016-03-13T08:07:40Z</time>
      </trkpt>
      <trkpt lat="46.522448994219303" lon="8.913557482883334">
        <ele>1202.27</ele>
        <time>2016-03-13T08:07:51Z</time>
      </trkpt>
      <trkpt lat="46.522448239848018" lon="8.91361397691071">
        <ele>1202.27</ele>
        <time>2016-03-13T08:08:01Z</time>
      </trkpt>
      <trkpt lat="46.522444970905781" lon="8.913609869778156">
        <ele>1202.75</ele>
        <time>2016-03-13T08:08:11Z</time>
      </trkpt>
      <trkpt lat="46.522466512396932" lon="8.913609618321061">
        <ele>1202.75</ele>
        <time>2016-03-13T08:08:25Z</time>
      </trkpt>
      <trkpt lat="46.522438349202275" lon="8.913628980517387">
        <ele>1202.75</ele>
        <time>2016-03-13T08:08:40Z</time>
      </trkpt>
      <trkpt lat="46.52243415825069" lon="8.913623197004199">
        <ele>1201.79</ele>
        <time>2016-03-13T08:08:48Z</time>
      </trkpt>
      <trkpt lat="46.522410437464714" lon="8.913599895313382">
        <ele>1201.79</ele>
        <time>2016-03-13T08:09:04Z</time>
      </trkpt>
      <trkpt lat="46.522413957864046" lon="8.913585813716054">
        <ele>1201.79</ele>
        <time>2016-03-13T08:09:24Z</time>
      </trkpt>
      <trkpt lat="46.522370623424649" lon="8.91361984424293">
        <ele>1202.27</ele>
        <time>2016-03-13T08:09:47Z</time>
      </trkpt>
      <trkpt lat="46.52241412550211" lon="8.913576761260629">
        <ele>1202.27</ele>
        <time>2016-03-13T08:10:08Z</time>
      </trkpt>
      <trkpt lat="46.522451844066381" lon="8.913568882271648">
        <ele>1202.27</ele>
        <time>2016-03-13T08:10:31Z</time>
      </trkpt>
      <trkpt lat="46.522486796602607" lon="8.913618503138423">
        <ele>1203.23</ele>
        <time>2016-03-13T08:10:49Z</time>
      </trkpt>
      <trkpt lat="46.522404402494431" lon="8.913620682433248">
        <ele>1203.71</ele>
        <time>2016-03-13T08:10:57Z</time>
      </trkpt>
      <trkpt lat="46.522422758862376" lon="8.913542311638594">
        <ele>1203.71</ele>
        <time>2016-03-13T08:11:07Z</time>
      </trkpt>
      <trkpt lat="46.522454526275396" lon="8.913457905873656">
        <ele>1203.71</ele>
        <time>2016-03-13T08:11:18Z</time>
      </trkpt>
      <trkpt lat="46.522468104958534" lon="8.913458241149783">
        <ele>1203.23</ele>
        <time>2016-03-13T08:11:33Z</time>
      </trkpt>
      <trkpt lat="46.522472463548183" lon="8.913453547284007">
        <ele>1203.23</ele>
        <time>2016-03-13T08:11:46Z</time>
      </trkpt>
      <trkpt lat="46.52246056124568" lon="8.913407446816564">
        <ele>1203.71</ele>
        <time>2016-03-13T08:12:09Z</time>
      </trkpt>
      <trkpt lat="46.522457962855697" lon="8.913417672738433">
        <ele>1203.71</ele>
        <time>2016-03-13T08:12:28Z</time>
      </trkpt>
      <trkpt lat="46.522503728047013" lon="8.913434017449617">
        <ele>1204.1900000000001</ele>
        <time>2016-03-13T08:12:48Z</time>
      </trkpt>
      <trkpt lat="46.522479169070721" lon="8.913442231714726">
        <ele>1203.71</ele>
        <time>2016-03-13T08:13:10Z</time>
      </trkpt>
      <trkpt lat="46.522442121058702" lon="8.913478944450617">
        <ele>1204.1900000000001</ele>
        <time>2016-03-13T08:13:24Z</time>
      </trkpt>
      <trkpt lat="46.522435834631324" lon="8.913534851744771">
        <ele>1204.1900000000001</ele>
        <time>2016-03-13T08:13:37Z</time>
      </trkpt>
      <trkpt lat="46.522437511011958" lon="8.91355337575078">
        <ele>1203.71</ele>
        <time>2016-03-13T08:13:50Z</time>
      </trkpt>
      <trkpt lat="46.522427620366216" lon="8.913557985797525">
        <ele>1204.1900000000001</ele>
        <time>2016-03-13T08:14:05Z</time>
      </trkpt>
      <trkpt lat="46.522441115230322" lon="8.913551364094019">
        <ele>1204.1900000000001</ele>
        <time>2016-03-13T08:14:17Z</time>
      </trkpt>
      <trkpt lat="46.522462740540504" lon="8.913561590015888">
        <ele>1204.1900000000001</ele>
        <time>2016-03-13T08:14:32Z</time>
      </trkpt>
      <trkpt lat="46.522469026967883" lon="8.913551531732082">
        <ele>1204.1900000000001</ele>
        <time>2016-03-13T08:14:44Z</time>
      </trkpt>
      <trkpt lat="46.522461399435997" lon="8.913562009111047">
        <ele>1204.1900000000001</ele>
        <time>2016-03-13T08:15:07Z</time>
      </trkpt>
      <trkpt lat="46.522438013926148" lon="8.913594614714384">
        <ele>1204.1900000000001</ele>
        <time>2016-03-13T08:15:19Z</time>
      </trkpt>
      <trkpt lat="46.522431056946516" lon="8.913622945547104">
        <ele>1203.71</ele>
        <time>2016-03-13T08:15:33Z</time>
      </trkpt>
      <trkpt lat="46.522416556254029" lon="8.913690419867635">
        <ele>1205.1500000000001</ele>
        <time>2016-03-13T08:15:44Z</time>
      </trkpt>
      <trkpt lat="46.52239996008575" lon="8.913772897794843">
        <ele>1205.1500000000001</ele>
        <time>2016-03-13T08:15:55Z</time>
      </trkpt>
      <trkpt lat="46.522391829639673" lon="8.913867697119713">
        <ele>1205.6300000000001</ele>
        <time>2016-03-13T08:16:06Z</time>
      </trkpt>
      <trkpt lat="46.522414879873395" lon="8.913972722366452">
        <ele>1206.5899999999999</ele>
        <time>2016-03-13T08:16:17Z</time>
      </trkpt>
      <trkpt lat="46.522392081096768" lon="8.914063582196832">
        <ele>1207.55</ele>
        <time>2016-03-13T08:16:26Z</time>
      </trkpt>
      <trkpt lat="46.522390991449356" lon="8.914158549159765">
        <ele>1208.51</ele>
        <time>2016-03-13T08:16:36Z</time>
      </trkpt>
      <trkpt lat="46.522385207936168" lon="8.914189478382468">
        <ele>1209</ele>
        <time>2016-03-13T08:16:40Z</time>
      </trkpt>
      <trkpt lat="46.522391913458705" lon="8.914232309907675">
        <ele>1209</ele>
        <time>2016-03-13T08:16:44Z</time>
      </trkpt>
      <trkpt lat="46.522406665608287" lon="8.914350578561425">
        <ele>1208.51</ele>
        <time>2016-03-13T08:16:55Z</time>
      </trkpt>
      <trkpt lat="46.522411946207285" lon="8.914390476420522">
        <ele>1208.03</ele>
        <time>2016-03-13T08:16:58Z</time>
      </trkpt>
      <trkpt lat="46.522415885701776" lon="8.914430709555745">
        <ele>1207.55</ele>
        <time>2016-03-13T08:17:01Z</time>
      </trkpt>
      <trkpt lat="46.522428374737501" lon="8.91453992575407">
        <ele>1206.5899999999999</ele>
        <time>2016-03-13T08:17:11Z</time>
      </trkpt>
      <trkpt lat="46.52241999283433" lon="8.914611507207155">
        <ele>1207.55</ele>
        <time>2016-03-13T08:17:20Z</time>
      </trkpt>
      <trkpt lat="46.522428290918469" lon="8.914665570482612">
        <ele>1208.03</ele>
        <time>2016-03-13T08:17:29Z</time>
      </trkpt>
      <trkpt lat="46.522443545982242" lon="8.914655596017838">
        <ele>1208.03</ele>
        <time>2016-03-13T08:17:41Z</time>
      </trkpt>
      <trkpt lat="46.52249182574451" lon="8.914672862738371">
        <ele>1208.03</ele>
        <time>2016-03-13T08:17:56Z</time>
      </trkpt>
      <trkpt lat="46.522516133263707" lon="8.914661798626185">
        <ele>1208.51</ele>
        <time>2016-03-13T08:18:10Z</time>
      </trkpt>
      <trkpt lat="46.522533399984241" lon="8.914666576310992">
        <ele>1208.51</ele>
        <time>2016-03-13T08:18:23Z</time>
      </trkpt>
      <trkpt lat="46.522548738867044" lon="8.914644783362746">
        <ele>1208.51</ele>
        <time>2016-03-13T08:18:42Z</time>
      </trkpt>
      <trkpt lat="46.522526945918798" lon="8.914640424773097">
        <ele>1208.51</ele>
        <time>2016-03-13T08:18:58Z</time>
      </trkpt>
      <trkpt lat="46.522506326436996" lon="8.914622571319342">
        <ele>1208.51</ele>
        <time>2016-03-13T08:19:10Z</time>
      </trkpt>
      <trkpt lat="46.522455280646682" lon="8.914546296000481">
        <ele>1207.55</ele>
        <time>2016-03-13T08:19:14Z</time>
      </trkpt>
      <trkpt lat="46.522400211542845" lon="8.914377735927701">
        <ele>1207.55</ele>
        <time>2016-03-13T08:19:25Z</time>
      </trkpt>
      <trkpt lat="46.522348495200276" lon="8.914258209988475">
        <ele>1209</ele>
        <time>2016-03-13T08:19:35Z</time>
      </trkpt>
      <trkpt lat="46.522331312298775" lon="8.914217725396156">
        <ele>1209.96</ele>
        <time>2016-03-13T08:19:38Z</time>
      </trkpt>
      <trkpt lat="46.52232033200562" lon="8.914179001003504">
        <ele>1209.96</ele>
        <time>2016-03-13T08:19:41Z</time>
      </trkpt>
      <trkpt lat="46.522316141054034" lon="8.914085710421205">
        <ele>1209</ele>
        <time>2016-03-13T08:19:47Z</time>
      </trkpt>
      <trkpt lat="46.522324355319142" lon="8.914054445922375">
        <ele>1208.51</ele>
        <time>2016-03-13T08:19:49Z</time>
      </trkpt>
      <trkpt lat="46.522334665060043" lon="8.914033574983478">
        <ele>1208.03</ele>
        <time>2016-03-13T08:19:50Z</time>
      </trkpt>
      <trkpt lat="46.52235503308475" lon="8.913936512544751">
        <ele>1206.5899999999999</ele>
        <time>2016-03-13T08:19:57Z</time>
      </trkpt>
      <trkpt lat="46.52236383408308" lon="8.913825955241919">
        <ele>1205.6300000000001</ele>
        <time>2016-03-13T08:20:08Z</time>
      </trkpt>
      <trkpt lat="46.522367941215634" lon="8.913825284689665">
        <ele>1205.1500000000001</ele>
        <time>2016-03-13T08:20:21Z</time>
      </trkpt>
      <trkpt lat="46.522362912073731" lon="8.91382897272706">
        <ele>1205.1500000000001</ele>
        <time>2016-03-13T08:20:36Z</time>
      </trkpt>
      <trkpt lat="46.52239166200161" lon="8.913875240832567">
        <ele>1206.1099999999999</ele>
        <time>2016-03-13T08:20:49Z</time>
      </trkpt>
      <trkpt lat="46.522443378344178" lon="8.913884796202183">
        <ele>1206.5899999999999</ele>
        <time>2016-03-13T08:20:59Z</time>
      </trkpt>
      <trkpt lat="46.522449161857367" lon="8.913880437612534">
        <ele>1206.1099999999999</ele>
        <time>2016-03-13T08:21:10Z</time>
      </trkpt>
      <trkpt lat="46.522397445514798" lon="8.914053859189153">
        <ele>1208.03</ele>
        <time>2016-03-13T08:21:21Z</time>
      </trkpt>
      <trkpt lat="46.522355619817972" lon="8.914164751768112">
        <ele>1209</ele>
        <time>2016-03-13T08:21:30Z</time>
      </trkpt>
      <trkpt lat="46.522356290370226" lon="8.914174307137728">
        <ele>1209</ele>
        <time>2016-03-13T08:21:31Z</time>
      </trkpt>
      <trkpt lat="46.522357212379575" lon="8.914240188896656">
        <ele>1209</ele>
        <time>2016-03-13T08:21:35Z</time>
      </trkpt>
      <trkpt lat="46.522361990064383" lon="8.914334317669272">
        <ele>1208.51</ele>
        <time>2016-03-13T08:21:40Z</time>
      </trkpt>
      <trkpt lat="46.522398367524147" lon="8.914418136700988">
        <ele>1207.55</ele>
        <time>2016-03-13T08:21:45Z</time>
      </trkpt>
      <trkpt lat="46.522411946207285" lon="8.914434732869268">
        <ele>1207.0699999999999</ele>
        <time>2016-03-13T08:21:46Z</time>
      </trkpt>
      <trkpt lat="46.52241856791079" lon="8.914452502503991">
        <ele>1207.0699999999999</ele>
        <time>2016-03-13T08:21:47Z</time>
      </trkpt>
      <trkpt lat="46.522417645901442" lon="8.914471529424191">
        <ele>1207.0699999999999</ele>
        <time>2016-03-13T08:21:48Z</time>
      </trkpt>
      <trkpt lat="46.522421669214964" lon="8.914489131420851">
        <ele>1206.5899999999999</ele>
        <time>2016-03-13T08:21:49Z</time>
      </trkpt>
      <trkpt lat="46.522426614537835" lon="8.914505979046226">
        <ele>1206.5899999999999</ele>
        <time>2016-03-13T08:21:50Z</time>
      </trkpt>
      <trkpt lat="46.522431811317801" lon="8.914525508880615">
        <ele>1206.5899999999999</ele>
        <time>2016-03-13T08:21:51Z</time>
      </trkpt>
      <trkpt lat="46.522436505183578" lon="8.914567166939378">
        <ele>1207.0699999999999</ele>
        <time>2016-03-13T08:21:54Z</time>
      </trkpt>
      <trkpt lat="46.52242636308074" lon="8.914670767262578">
        <ele>1208.51</ele>
        <time>2016-03-13T08:22:02Z</time>
      </trkpt>
      <trkpt lat="46.522424099966884" lon="8.914683004841209">
        <ele>1208.51</ele>
        <time>2016-03-13T08:22:03Z</time>
      </trkpt>
      <trkpt lat="46.522415466606617" lon="8.914688620716333">
        <ele>1208.51</ele>
        <time>2016-03-13T08:22:12Z</time>
      </trkpt>
      <trkpt lat="46.522428458556533" lon="8.914753329008818">
        <ele>1209</ele>
        <time>2016-03-13T08:22:18Z</time>
      </trkpt>
      <trkpt lat="46.522440109401941" lon="8.914860198274255">
        <ele>1208.51</ele>
        <time>2016-03-13T08:22:25Z</time>
      </trkpt>
      <trkpt lat="46.522438684478402" lon="8.914876962080598">
        <ele>1208.51</ele>
        <time>2016-03-13T08:22:26Z</time>
      </trkpt>
      <trkpt lat="46.5224439650774" lon="8.914911998435855">
        <ele>1209</ele>
        <time>2016-03-13T08:22:28Z</time>
      </trkpt>
      <trkpt lat="46.522473385557532" lon="8.915045773610473">
        <ele>1209</ele>
        <time>2016-03-13T08:22:37Z</time>
      </trkpt>
      <trkpt lat="46.522476486861706" lon="8.915062872692943">
        <ele>1208.51</ele>
        <time>2016-03-13T08:22:38Z</time>
      </trkpt>
      <trkpt lat="46.522474307566881" lon="8.915113750845194">
        <ele>1208.03</ele>
        <time>2016-03-13T08:22:41Z</time>
      </trkpt>
      <trkpt lat="46.522473972290754" lon="8.915128167718649">
        <ele>1208.03</ele>
        <time>2016-03-13T08:22:42Z</time>
      </trkpt>
      <trkpt lat="46.522471876814961" lon="8.915144763886929">
        <ele>1208.03</ele>
        <time>2016-03-13T08:22:43Z</time>
      </trkpt>
      <trkpt lat="46.522471876814961" lon="8.915160270407796">
        <ele>1208.03</ele>
        <time>2016-03-13T08:22:44Z</time>
      </trkpt>
      <trkpt lat="46.522490400820971" lon="8.915203604847193">
        <ele>1208.03</ele>
        <time>2016-03-13T08:22:47Z</time>
      </trkpt>
      <trkpt lat="46.522500542923808" lon="8.915236964821816">
        <ele>1208.51</ele>
        <time>2016-03-13T08:22:49Z</time>
      </trkpt>
      <trkpt lat="46.522507248446345" lon="8.915251046419144">
        <ele>1208.51</ele>
        <time>2016-03-13T08:22:50Z</time>
      </trkpt>
      <trkpt lat="46.522573968395591" lon="8.915352802723646">
        <ele>1209.96</ele>
        <time>2016-03-13T08:22:58Z</time>
      </trkpt>
      <trkpt lat="46.522584864869714" lon="8.915394293144345">
        <ele>1210.9200000000001</ele>
        <time>2016-03-13T08:23:01Z</time>
      </trkpt>
      <trkpt lat="46.522599114105105" lon="8.915434442460537">
        <ele>1210.9200000000001</ele>
        <time>2016-03-13T08:23:04Z</time>
      </trkpt>
      <trkpt lat="46.522612106055021" lon="8.915471155196428">
        <ele>1210.9200000000001</ele>
        <time>2016-03-13T08:23:07Z</time>
      </trkpt>
      <trkpt lat="46.52261302806437" lon="8.915565619245172">
        <ele>1210.4400000000001</ele>
        <time>2016-03-13T08:23:13Z</time>
      </trkpt>
      <trkpt lat="46.522590145468712" lon="8.915696544572711">
        <ele>1210.4400000000001</ele>
        <time>2016-03-13T08:23:23Z</time>
      </trkpt>
      <trkpt lat="46.522556114941835" lon="8.915760833770037">
        <ele>1211.4000000000001</ele>
        <time>2016-03-13T08:23:31Z</time>
      </trkpt>
      <trkpt lat="46.522499788552523" lon="8.915893100202084">
        <ele>1212.3599999999999</ele>
        <time>2016-03-13T08:23:42Z</time>
      </trkpt>
      <trkpt lat="46.522479085251689" lon="8.916053529828787">
        <ele>1213.3199999999999</ele>
        <time>2016-03-13T08:23:54Z</time>
      </trkpt>
      <trkpt lat="46.522475983947515" lon="8.916165512055159">
        <ele>1213.3199999999999</ele>
        <time>2016-03-13T08:24:01Z</time>
      </trkpt>
      <trkpt lat="46.522452849894762" lon="8.916360391303897">
        <ele>1211.8800000000001</ele>
        <time>2016-03-13T08:24:12Z</time>
      </trkpt>
      <trkpt lat="46.522454107180238" lon="8.916449155658484">
        <ele>1211.4000000000001</ele>
        <time>2016-03-13T08:24:17Z</time>
      </trkpt>
      <trkpt lat="46.522462321445346" lon="8.916482431814075">
        <ele>1210.9200000000001</ele>
        <time>2016-03-13T08:24:20Z</time>
      </trkpt>
      <trkpt lat="46.522475481033325" lon="8.91651495359838">
        <ele>1211.4000000000001</ele>
        <time>2016-03-13T08:24:23Z</time>
      </trkpt>
      <trkpt lat="46.522491239011288" lon="8.916591145098209">
        <ele>1211.8800000000001</ele>
        <time>2016-03-13T08:24:29Z</time>
      </trkpt>
      <trkpt lat="46.522518396377563" lon="8.916690051555634">
        <ele>1213.8</ele>
        <time>2016-03-13T08:24:38Z</time>
      </trkpt>
      <trkpt lat="46.522555528208613" lon="8.916755514219403">
        <ele>1214.76</ele>
        <time>2016-03-13T08:24:49Z</time>
      </trkpt>
      <trkpt lat="46.522587379440665" lon="8.916837153956294">
        <ele>1216.6900000000001</ele>
        <time>2016-03-13T08:25:00Z</time>
      </trkpt>
      <trkpt lat="46.522613866254687" lon="8.916920637711883">
        <ele>1218.1300000000001</ele>
        <time>2016-03-13T08:25:08Z</time>
      </trkpt>
      <trkpt lat="46.522595006972551" lon="8.917005797848105">
        <ele>1218.6099999999999</ele>
        <time>2016-03-13T08:25:18Z</time>
      </trkpt>
      <trkpt lat="46.522605316713452" lon="8.917101686820388">
        <ele>1218.6099999999999</ele>
        <time>2016-03-13T08:25:25Z</time>
      </trkpt>
      <trkpt lat="46.522590313106775" lon="8.917267229408026">
        <ele>1219.5699999999999</ele>
        <time>2016-03-13T08:25:36Z</time>
      </trkpt>
      <trkpt lat="46.522555612027645" lon="8.917416762560606">
        <ele>1219.0899999999999</ele>
        <time>2016-03-13T08:25:47Z</time>
      </trkpt>
      <trkpt lat="46.522541027516127" lon="8.917556740343571">
        <ele>1217.6500000000001</ele>
        <time>2016-03-13T08:25:57Z</time>
      </trkpt>
      <trkpt lat="46.522509260103106" lon="8.917635949328542">
        <ele>1217.1700000000001</ele>
        <time>2016-03-13T08:26:08Z</time>
      </trkpt>
      <trkpt lat="46.522462824359536" lon="8.917703088372946">
        <ele>1216.6900000000001</ele>
        <time>2016-03-13T08:26:18Z</time>
      </trkpt>
      <trkpt lat="46.522427201271057" lon="8.917767377570272">
        <ele>1216.6900000000001</ele>
        <time>2016-03-13T08:26:27Z</time>
      </trkpt>
      <trkpt lat="46.522375904023647" lon="8.917851615697146">
        <ele>1216.6900000000001</ele>
        <time>2016-03-13T08:26:38Z</time>
      </trkpt>
      <trkpt lat="46.522323517128825" lon="8.917924873530865">
        <ele>1214.28</ele>
        <time>2016-03-13T08:26:48Z</time>
      </trkpt>
      <trkpt lat="46.522270459681749" lon="8.918005172163248">
        <ele>1212.8399999999999</ele>
        <time>2016-03-13T08:26:56Z</time>
      </trkpt>
      <trkpt lat="46.52224657125771" lon="8.918020008131862">
        <ele>1212.8399999999999</ele>
        <time>2016-03-13T08:26:59Z</time>
      </trkpt>
      <trkpt lat="46.522187143564224" lon="8.918082788586617">
        <ele>1213.3199999999999</ele>
        <time>2016-03-13T08:27:10Z</time>
      </trkpt>
      <trkpt lat="46.52214246802032" lon="8.918165098875761">
        <ele>1213.3199999999999</ele>
        <time>2016-03-13T08:27:19Z</time>
      </trkpt>
      <trkpt lat="46.52207599952817" lon="8.918238859623671">
        <ele>1213.3199999999999</ele>
        <time>2016-03-13T08:27:29Z</time>
      </trkpt>
      <trkpt lat="46.522031994536519" lon="8.91829501837492">
        <ele>1213.3199999999999</ele>
        <time>2016-03-13T08:27:39Z</time>
      </trkpt>
      <trkpt lat="46.52199100703001" lon="8.918355200439692">
        <ele>1213.8</ele>
        <time>2016-03-13T08:27:49Z</time>
      </trkpt>
      <trkpt lat="46.521946750581264" lon="8.918441450223327">
        <ele>1213.8</ele>
        <time>2016-03-13T08:27:59Z</time>
      </trkpt>
      <trkpt lat="46.521944990381598" lon="8.918468775227666">
        <ele>1213.8</ele>
        <time>2016-03-13T08:28:10Z</time>
      </trkpt>
      <trkpt lat="46.521889586001635" lon="8.918510600924492">
        <ele>1213.8</ele>
        <time>2016-03-13T08:28:19Z</time>
      </trkpt>
      <trkpt lat="46.521829320117831" lon="8.918572207912803">
        <ele>1213.8</ele>
        <time>2016-03-13T08:28:29Z</time>
      </trkpt>
      <trkpt lat="46.521770479157567" lon="8.918619062751532">
        <ele>1214.76</ele>
        <time>2016-03-13T08:28:40Z</time>
      </trkpt>
      <trkpt lat="46.521722953766584" lon="8.918703552335501">
        <ele>1215.72</ele>
        <time>2016-03-13T08:28:50Z</time>
      </trkpt>
      <trkpt lat="46.521688587963581" lon="8.918776391074061">
        <ele>1216.21</ele>
        <time>2016-03-13T08:29:00Z</time>
      </trkpt>
      <trkpt lat="46.521672829985619" lon="8.918817210942507">
        <ele>1216.6900000000001</ele>
        <time>2016-03-13T08:29:06Z</time>
      </trkpt>
      <trkpt lat="46.521678697317839" lon="8.91884227283299">
        <ele>1216.21</ele>
        <time>2016-03-13T08:29:08Z</time>
      </trkpt>
      <trkpt lat="46.521690851077437" lon="8.918986693024635">
        <ele>1214.28</ele>
        <time>2016-03-13T08:29:17Z</time>
      </trkpt>
      <trkpt lat="46.521711889654398" lon="8.919088449329138">
        <ele>1214.76</ele>
        <time>2016-03-13T08:29:28Z</time>
      </trkpt>
      <trkpt lat="46.521732928231359" lon="8.919181739911437">
        <ele>1215.24</ele>
        <time>2016-03-13T08:29:39Z</time>
      </trkpt>
      <trkpt lat="46.521774837747216" lon="8.919277964159846">
        <ele>1215.24</ele>
        <time>2016-03-13T08:29:49Z</time>
      </trkpt>
      <trkpt lat="46.521792942658067" lon="8.919427581131458">
        <ele>1215.72</ele>
        <time>2016-03-13T08:30:02Z</time>
      </trkpt>
      <trkpt lat="46.521784225478768" lon="8.919549286365509">
        <ele>1216.21</ele>
        <time>2016-03-13T08:30:13Z</time>
      </trkpt>
      <trkpt lat="46.521746004000306" lon="8.919670153409243">
        <ele>1217.1700000000001</ele>
        <time>2016-03-13T08:30:24Z</time>
      </trkpt>
      <trkpt lat="46.521700993180275" lon="8.919749278575182">
        <ele>1217.1700000000001</ele>
        <time>2016-03-13T08:30:34Z</time>
      </trkpt>
      <trkpt lat="46.52164014056325" lon="8.91984642483294">
        <ele>1218.6099999999999</ele>
        <time>2016-03-13T08:30:47Z</time>
      </trkpt>
      <trkpt lat="46.521622538566589" lon="8.919983049854636">
        <ele>1219.0899999999999</ele>
        <time>2016-03-13T08:31:00Z</time>
      </trkpt>
      <trkpt lat="46.521598063409328" lon="8.920032167807221">
        <ele>1219.5699999999999</ele>
        <time>2016-03-13T08:31:12Z</time>
      </trkpt>
      <trkpt lat="46.521620526909828" lon="8.920155968517065">
        <ele>1219.5699999999999</ele>
        <time>2016-03-13T08:31:23Z</time>
      </trkpt>
      <trkpt lat="46.521641900762916" lon="8.920299047604203">
        <ele>1219.0899999999999</ele>
        <time>2016-03-13T08:31:34Z</time>
      </trkpt>
      <trkpt lat="46.521634189411998" lon="8.920332910493016">
        <ele>1219.0899999999999</ele>
        <time>2016-03-13T08:31:37Z</time>
      </trkpt>
      <trkpt lat="46.521613234654069" lon="8.92047381028533">
        <ele>1218.1300000000001</ele>
        <time>2016-03-13T08:31:47Z</time>
      </trkpt>
      <trkpt lat="46.521562607958913" lon="8.92056274227798">
        <ele>1218.1300000000001</ele>
        <time>2016-03-13T08:31:58Z</time>
      </trkpt>
      <trkpt lat="46.521474597975612" lon="8.920670785009861">
        <ele>1217.6500000000001</ele>
        <time>2016-03-13T08:32:07Z</time>
      </trkpt>
      <trkpt lat="46.521476022899151" lon="8.920803973451257">
        <ele>1217.1700000000001</ele>
        <time>2016-03-13T08:32:19Z</time>
      </trkpt>
      <trkpt lat="46.521480968222022" lon="8.920914111658931">
        <ele>1216.21</ele>
        <time>2016-03-13T08:32:29Z</time>
      </trkpt>
      <trkpt lat="46.521477615460753" lon="8.921028776094317">
        <ele>1215.24</ele>
        <time>2016-03-13T08:32:40Z</time>
      </trkpt>
      <trkpt lat="46.5214769449085" lon="8.921191301196814">
        <ele>1215.24</ele>
        <time>2016-03-13T08:32:50Z</time>
      </trkpt>
      <trkpt lat="46.521447021514177" lon="8.921301104128361">
        <ele>1214.76</ele>
        <time>2016-03-13T08:33:00Z</time>
      </trkpt>
      <trkpt lat="46.521493038162589" lon="8.921435717493296">
        <ele>1214.76</ele>
        <time>2016-03-13T08:33:12Z</time>
      </trkpt>
      <trkpt lat="46.521491780877113" lon="8.921542167663574">
        <ele>1215.24</ele>
        <time>2016-03-13T08:33:22Z</time>
      </trkpt>
      <trkpt lat="46.521481890231371" lon="8.921671248972416">
        <ele>1215.24</ele>
        <time>2016-03-13T08:33:33Z</time>
      </trkpt>
      <trkpt lat="46.521466802805662" lon="8.921799995005131">
        <ele>1215.72</ele>
        <time>2016-03-13T08:33:45Z</time>
      </trkpt>
      <trkpt lat="46.521429251879454" lon="8.921919353306294">
        <ele>1215.72</ele>
        <time>2016-03-13T08:33:56Z</time>
      </trkpt>
      <trkpt lat="46.521416008472443" lon="8.921961011365056">
        <ele>1215.72</ele>
        <time>2016-03-13T08:34:01Z</time>
      </trkpt>
      <trkpt lat="46.52140075340867" lon="8.922059247270227">
        <ele>1215.72</ele>
        <time>2016-03-13T08:34:11Z</time>
      </trkpt>
      <trkpt lat="46.521383905783296" lon="8.922175671905279">
        <ele>1213.8</ele>
        <time>2016-03-13T08:34:21Z</time>
      </trkpt>
      <trkpt lat="46.521352641284466" lon="8.92223484814167">
        <ele>1213.3199999999999</ele>
        <time>2016-03-13T08:34:29Z</time>
      </trkpt>
      <trkpt lat="46.521324729546905" lon="8.922350099310279">
        <ele>1211.4000000000001</ele>
        <time>2016-03-13T08:34:41Z</time>
      </trkpt>
      <trkpt lat="46.521331099793315" lon="8.922474822029471">
        <ele>1210.4400000000001</ele>
        <time>2016-03-13T08:34:52Z</time>
      </trkpt>
      <trkpt lat="46.521345181390643" lon="8.922613793984056">
        <ele>1209</ele>
        <time>2016-03-13T08:35:03Z</time>
      </trkpt>
      <trkpt lat="46.521354066208005" lon="8.922737259417772">
        <ele>1208.51</ele>
        <time>2016-03-13T08:35:13Z</time>
      </trkpt>
      <trkpt lat="46.521348282694817" lon="8.922817474231124">
        <ele>1208.03</ele>
        <time>2016-03-13T08:35:21Z</time>
      </trkpt>
      <trkpt lat="46.521306456997991" lon="8.922935239970684">
        <ele>1205.6300000000001</ele>
        <time>2016-03-13T08:35:31Z</time>
      </trkpt>
      <trkpt lat="46.521250968798995" lon="8.9230034686625">
        <ele>1205.6300000000001</ele>
        <time>2016-03-13T08:35:41Z</time>
      </trkpt>
      <trkpt lat="46.521230852231383" lon="8.92308309674263">
        <ele>1205.6300000000001</ele>
        <time>2016-03-13T08:35:52Z</time>
      </trkpt>
      <trkpt lat="46.521232947707176" lon="8.923164149746299">
        <ele>1206.1099999999999</ele>
        <time>2016-03-13T08:36:02Z</time>
      </trkpt>
      <trkpt lat="46.52124778367579" lon="8.92324143089354">
        <ele>1207.0699999999999</ele>
        <time>2016-03-13T08:36:13Z</time>
      </trkpt>
      <trkpt lat="46.521263876929879" lon="8.923304630443454">
        <ele>1209.48</ele>
        <time>2016-03-13T08:36:24Z</time>
      </trkpt>
      <trkpt lat="46.521278712898493" lon="8.923378391191363">
        <ele>1209.96</ele>
        <time>2016-03-13T08:36:35Z</time>
      </trkpt>
      <trkpt lat="46.521221715956926" lon="8.923495737835765">
        <ele>1210.9200000000001</ele>
        <time>2016-03-13T08:36:46Z</time>
      </trkpt>
      <trkpt lat="46.521213836967945" lon="8.923524487763643">
        <ele>1210.9200000000001</ele>
        <time>2016-03-13T08:36:56Z</time>
      </trkpt>
      <trkpt lat="46.52121995575726" lon="8.923530438914895">
        <ele>1210.4400000000001</ele>
        <time>2016-03-13T08:37:09Z</time>
      </trkpt>
      <trkpt lat="46.52120528742671" lon="8.92351652495563">
        <ele>1209.96</ele>
        <time>2016-03-13T08:37:33Z</time>
      </trkpt>
      <trkpt lat="46.521216267719865" lon="8.923523062840104">
        <ele>1209.96</ele>
        <time>2016-03-13T08:37:56Z</time>
      </trkpt>
      <trkpt lat="46.521263960748911" lon="8.923468245193362">
        <ele>1210.4400000000001</ele>
        <time>2016-03-13T08:38:27Z</time>
      </trkpt>
      <trkpt lat="46.521273264661431" lon="8.923504287377">
        <ele>1210.9200000000001</ele>
        <time>2016-03-13T08:38:46Z</time>
      </trkpt>
      <trkpt lat="46.521192714571953" lon="8.923537395894527">
        <ele>1211.4000000000001</ele>
        <time>2016-03-13T08:39:04Z</time>
      </trkpt>
      <trkpt lat="46.521170334890485" lon="8.923612413927913">
        <ele>1211.8800000000001</ele>
        <time>2016-03-13T08:39:21Z</time>
      </trkpt>
      <trkpt lat="46.521144267171621" lon="8.923748536035419">
        <ele>1214.28</ele>
        <time>2016-03-13T08:39:33Z</time>
      </trkpt>
      <trkpt lat="46.521051311865449" lon="8.923840653151274">
        <ele>1217.6500000000001</ele>
        <time>2016-03-13T08:39:45Z</time>
      </trkpt>
      <trkpt lat="46.520953997969627" lon="8.923983564600349">
        <ele>1220.53</ele>
        <time>2016-03-13T08:40:00Z</time>
      </trkpt>
      <trkpt lat="46.520909825339913" lon="8.924059337005019">
        <ele>1221.97</ele>
        <time>2016-03-13T08:40:08Z</time>
      </trkpt>
      <trkpt lat="46.520816450938582" lon="8.924107784405351">
        <ele>1222.9300000000001</ele>
        <time>2016-03-13T08:40:22Z</time>
      </trkpt>
      <trkpt lat="46.520699523389339" lon="8.924200991168618">
        <ele>1224.3800000000001</ele>
        <time>2016-03-13T08:40:34Z</time>
      </trkpt>
      <trkpt lat="46.520620482042432" lon="8.924255557358265">
        <ele>1225.8199999999999</ele>
        <time>2016-03-13T08:40:44Z</time>
      </trkpt>
      <trkpt lat="46.520544625818729" lon="8.924256730824709">
        <ele>1227.26</ele>
        <time>2016-03-13T08:40:55Z</time>
      </trkpt>
      <trkpt lat="46.520460555329919" lon="8.924311883747578">
        <ele>1228.22</ele>
        <time>2016-03-13T08:41:06Z</time>
      </trkpt>
      <trkpt lat="46.520383860915899" lon="8.924360331147909">
        <ele>1230.6199999999999</ele>
        <time>2016-03-13T08:41:16Z</time>
      </trkpt>
      <trkpt lat="46.520329630002379" lon="8.924375167116523">
        <ele>1232.0699999999999</ele>
        <time>2016-03-13T08:41:27Z</time>
      </trkpt>
      <trkpt lat="46.520280428230762" lon="8.924382207915187">
        <ele>1233.03</ele>
        <time>2016-03-13T08:41:35Z</time>
      </trkpt>
      <trkpt lat="46.520169451832771" lon="8.924403246492147">
        <ele>1234.47</ele>
        <time>2016-03-13T08:41:47Z</time>
      </trkpt>
      <trkpt lat="46.520121423527598" lon="8.924484550952911">
        <ele>1236.3900000000001</ele>
        <time>2016-03-13T08:41:59Z</time>
      </trkpt>
      <trkpt lat="46.520083285868168" lon="8.924520593136549">
        <ele>1237.8299999999999</ele>
        <time>2016-03-13T08:42:09Z</time>
      </trkpt>
      <trkpt lat="46.519990833476186" lon="8.924514474347234">
        <ele>1240.72</ele>
        <time>2016-03-13T08:42:23Z</time>
      </trkpt>
      <trkpt lat="46.519928723573685" lon="8.924516653642058">
        <ele>1242.6400000000001</ele>
        <time>2016-03-13T08:42:35Z</time>
      </trkpt>
      <trkpt lat="46.519848005846143" lon="8.924537943676114">
        <ele>1245.04</ele>
        <time>2016-03-13T08:42:51Z</time>
      </trkpt>
      <trkpt lat="46.519787488505244" lon="8.924601478502154">
        <ele>1246.97</ele>
        <time>2016-03-13T08:43:02Z</time>
      </trkpt>
      <trkpt lat="46.519736861810088" lon="8.924610447138548">
        <ele>1249.3699999999999</ele>
        <time>2016-03-13T08:43:13Z</time>
      </trkpt>
      <trkpt lat="46.519709536805749" lon="8.924539033323526">
        <ele>1251.29</ele>
        <time>2016-03-13T08:43:27Z</time>
      </trkpt>
      <trkpt lat="46.519718253985047" lon="8.92452210187912">
        <ele>1250.8099999999999</ele>
        <time>2016-03-13T08:43:36Z</time>
      </trkpt>
      <trkpt lat="46.519715236499906" lon="8.924549678340554">
        <ele>1250.8099999999999</ele>
        <time>2016-03-13T08:44:00Z</time>
      </trkpt>
      <trkpt lat="46.519698891788721" lon="8.924490166828036">
        <ele>1252.25</ele>
        <time>2016-03-13T08:44:28Z</time>
      </trkpt>
      <trkpt lat="46.519770808517933" lon="8.924455298110843">
        <ele>1251.77</ele>
        <time>2016-03-13T08:44:57Z</time>
      </trkpt>
      <trkpt lat="46.519742142409086" lon="8.924504918977618">
        <ele>1252.25</ele>
        <time>2016-03-13T08:45:05Z</time>
      </trkpt>
      <trkpt lat="46.519692856818438" lon="8.924456723034382">
        <ele>1252.74</ele>
        <time>2016-03-13T08:45:24Z</time>
      </trkpt>
      <trkpt lat="46.519610546529293" lon="8.924519419670105">
        <ele>1254.6600000000001</ele>
        <time>2016-03-13T08:45:37Z</time>
      </trkpt>
      <trkpt lat="46.519553968682885" lon="8.924452280625701">
        <ele>1255.6199999999999</ele>
        <time>2016-03-13T08:45:48Z</time>
      </trkpt>
      <trkpt lat="46.519495379179716" lon="8.924508355557919">
        <ele>1258.02</ele>
        <time>2016-03-13T08:46:00Z</time>
      </trkpt>
      <trkpt lat="46.519452044740319" lon="8.92460223287344">
        <ele>1260.4300000000001</ele>
        <time>2016-03-13T08:46:14Z</time>
      </trkpt>
      <trkpt lat="46.519372332841158" lon="8.924647746607661">
        <ele>1263.3099999999999</ele>
        <time>2016-03-13T08:46:27Z</time>
      </trkpt>
      <trkpt lat="46.519352216273546" lon="8.924661744385958">
        <ele>1264.75</ele>
        <time>2016-03-13T08:46:30Z</time>
      </trkpt>
      <trkpt lat="46.519297566264868" lon="8.924709018319845">
        <ele>1266.6700000000001</ele>
        <time>2016-03-13T08:46:41Z</time>
      </trkpt>
      <trkpt lat="46.519233277067542" lon="8.924673227593303">
        <ele>1268.5999999999999</ele>
        <time>2016-03-13T08:46:52Z</time>
      </trkpt>
      <trkpt lat="46.519244341179729" lon="8.924496956169605">
        <ele>1270.04</ele>
        <time>2016-03-13T08:47:04Z</time>
      </trkpt>
      <trkpt lat="46.519256830215454" lon="8.924324624240398">
        <ele>1272.4400000000001</ele>
        <time>2016-03-13T08:47:19Z</time>
      </trkpt>
      <trkpt lat="46.519244341179729" lon="8.924193782731891">
        <ele>1274.3599999999999</ele>
        <time>2016-03-13T08:47:33Z</time>
      </trkpt>
      <trkpt lat="46.519325813278556" lon="8.924141814932227">
        <ele>1275.3299999999999</ele>
        <time>2016-03-13T08:47:47Z</time>
      </trkpt>
      <trkpt lat="46.519248699769378" lon="8.924126056954265">
        <ele>1276.77</ele>
        <time>2016-03-13T08:48:02Z</time>
      </trkpt>
      <trkpt lat="46.519238138571382" lon="8.924184730276465">
        <ele>1277.25</ele>
        <time>2016-03-13T08:48:14Z</time>
      </trkpt>
      <trkpt lat="46.51922095566988" lon="8.924194034188986">
        <ele>1277.25</ele>
        <time>2016-03-13T08:48:27Z</time>
      </trkpt>
      <trkpt lat="46.519219866022468" lon="8.924187663942576">
        <ele>1276.77</ele>
        <time>2016-03-13T08:48:46Z</time>
      </trkpt>
      <trkpt lat="46.519233612343669" lon="8.924125051125884">
        <ele>1278.6900000000001</ele>
        <time>2016-03-13T08:48:59Z</time>
      </trkpt>
      <trkpt lat="46.519216932356358" lon="8.924075849354267">
        <ele>1278.6900000000001</ele>
        <time>2016-03-13T08:49:18Z</time>
      </trkpt>
      <trkpt lat="46.519238976761699" lon="8.924062186852098">
        <ele>1278.6900000000001</ele>
        <time>2016-03-13T08:49:38Z</time>
      </trkpt>
      <trkpt lat="46.51920628733933" lon="8.924005525186658">
        <ele>1281.0899999999999</ele>
        <time>2016-03-13T08:49:48Z</time>
      </trkpt>
      <trkpt lat="46.519198659807444" lon="8.923897314816713">
        <ele>1283.02</ele>
        <time>2016-03-13T08:50:00Z</time>
      </trkpt>
      <trkpt lat="46.519167898222804" lon="8.923935117200017">
        <ele>1285.4200000000001</ele>
        <time>2016-03-13T08:50:15Z</time>
      </trkpt>
      <trkpt lat="46.519118864089251" lon="8.924046847969294">
        <ele>1287.3399999999999</ele>
        <time>2016-03-13T08:50:27Z</time>
      </trkpt>
      <trkpt lat="46.519114170223475" lon="8.924108538776636">
        <ele>1289.27</ele>
        <time>2016-03-13T08:50:39Z</time>
      </trkpt>
      <trkpt lat="46.519073601812124" lon="8.924145922064781">
        <ele>1290.71</ele>
        <time>2016-03-13T08:50:54Z</time>
      </trkpt>
      <trkpt lat="46.519083576276898" lon="8.924233932048082">
        <ele>1291.1900000000001</ele>
        <time>2016-03-13T08:51:12Z</time>
      </trkpt>
      <trkpt lat="46.519021885469556" lon="8.924258658662438">
        <ele>1293.1099999999999</ele>
        <time>2016-03-13T08:51:23Z</time>
      </trkpt>
      <trkpt lat="46.518926247954369" lon="8.924325713887811">
        <ele>1295.03</ele>
        <time>2016-03-13T08:51:36Z</time>
      </trkpt>
      <trkpt lat="46.518911747261882" lon="8.924342561513186">
        <ele>1296.96</ele>
        <time>2016-03-13T08:51:47Z</time>
      </trkpt>
      <trkpt lat="46.518842848017812" lon="8.924396876245737">
        <ele>1299.3599999999999</ele>
        <time>2016-03-13T08:51:59Z</time>
      </trkpt>
      <trkpt lat="46.518763471394777" lon="8.924422692507505">
        <ele>1300.8</ele>
        <time>2016-03-13T08:52:11Z</time>
      </trkpt>
      <trkpt lat="46.518744779750705" lon="8.924425877630711">
        <ele>1302.24</ele>
        <time>2016-03-13T08:52:22Z</time>
      </trkpt>
      <trkpt lat="46.51871326379478" lon="8.924454459920526">
        <ele>1303.2</ele>
        <time>2016-03-13T08:52:31Z</time>
      </trkpt>
      <trkpt lat="46.518651824444532" lon="8.924448257312179">
        <ele>1304.6500000000001</ele>
        <time>2016-03-13T08:52:46Z</time>
      </trkpt>
      <trkpt lat="46.51860186830163" lon="8.924396792426705">
        <ele>1306.0899999999999</ele>
        <time>2016-03-13T08:52:56Z</time>
      </trkpt>
      <trkpt lat="46.518536992371082" lon="8.924335269257426">
        <ele>1307.53</ele>
        <time>2016-03-13T08:53:10Z</time>
      </trkpt>
      <trkpt lat="46.518501620739698" lon="8.924334179610014">
        <ele>1307.53</ele>
        <time>2016-03-13T08:53:22Z</time>
      </trkpt>
      <trkpt lat="46.518462812528014" lon="8.924452783539891">
        <ele>1308.97</ele>
        <time>2016-03-13T08:53:34Z</time>
      </trkpt>
      <trkpt lat="46.518419645726681" lon="8.924566777423024">
        <ele>1310.9000000000001</ele>
        <time>2016-03-13T08:53:44Z</time>
      </trkpt>
      <trkpt lat="46.518374467268586" lon="8.924634838476777">
        <ele>1311.3800000000001</ele>
        <time>2016-03-13T08:53:55Z</time>
      </trkpt>
      <trkpt lat="46.518319565802813" lon="8.924696361646056">
        <ele>1312.3399999999999</ele>
        <time>2016-03-13T08:54:09Z</time>
      </trkpt>
      <trkpt lat="46.518299030140042" lon="8.924736846238375">
        <ele>1313.3</ele>
        <time>2016-03-13T08:54:19Z</time>
      </trkpt>
      <trkpt lat="46.518291067332029" lon="8.924726452678442">
        <ele>1313.78</ele>
        <time>2016-03-13T08:54:35Z</time>
      </trkpt>
      <trkpt lat="46.518292324617505" lon="8.924728464335203">
        <ele>1312.8199999999999</ele>
        <time>2016-03-13T08:54:51Z</time>
      </trkpt>
      <trkpt lat="46.518281511962414" lon="8.924729973077774">
        <ele>1313.3</ele>
        <time>2016-03-13T08:55:04Z</time>
      </trkpt>
      <trkpt lat="46.518281763419509" lon="8.924733744934201">
        <ele>1313.3</ele>
        <time>2016-03-13T08:55:18Z</time>
      </trkpt>
      <trkpt lat="46.51825737208128" lon="8.924735588952899">
        <ele>1312.8199999999999</ele>
        <time>2016-03-13T08:55:35Z</time>
      </trkpt>
      <trkpt lat="46.518204649910331" lon="8.924845727160573">
        <ele>1314.26</ele>
        <time>2016-03-13T08:55:46Z</time>
      </trkpt>
      <trkpt lat="46.518129464238882" lon="8.924911273643374">
        <ele>1315.7</ele>
        <time>2016-03-13T08:55:57Z</time>
      </trkpt>
      <trkpt lat="46.518102223053575" lon="8.924933318048716">
        <ele>1316.1800000000001</ele>
        <time>2016-03-13T08:56:08Z</time>
      </trkpt>
      <trkpt lat="46.518039358779788" lon="8.924964750185609">
        <ele>1317.6199999999999</ele>
        <time>2016-03-13T08:56:19Z</time>
      </trkpt>
      <trkpt lat="46.517973896116018" lon="8.924971288070083">
        <ele>1320.51</ele>
        <time>2016-03-13T08:56:31Z</time>
      </trkpt>
      <trkpt lat="46.517909774556756" lon="8.924989309161902">
        <ele>1321.95</ele>
        <time>2016-03-13T08:56:43Z</time>
      </trkpt>
      <trkpt lat="46.517861327156425" lon="8.924989979714155">
        <ele>1324.3499999999999</ele>
        <time>2016-03-13T08:56:52Z</time>
      </trkpt>
      <trkpt lat="46.517806090414524" lon="8.925002552568913">
        <ele>1324.8299999999999</ele>
        <time>2016-03-13T08:57:04Z</time>
      </trkpt>
      <trkpt lat="46.517743226140738" lon="8.924997691065073">
        <ele>1325.3099999999999</ele>
        <time>2016-03-13T08:57:13Z</time>
      </trkpt>
      <trkpt lat="46.517742890864611" lon="8.925014706328511">
        <ele>1324.8299999999999</ele>
        <time>2016-03-13T08:57:25Z</time>
      </trkpt>
      <trkpt lat="46.517770132049918" lon="8.925011437386274">
        <ele>1324.3499999999999</ele>
        <time>2016-03-13T08:57:37Z</time>
      </trkpt>
      <trkpt lat="46.517771892249584" lon="8.925000708550215">
        <ele>1324.8299999999999</ele>
        <time>2016-03-13T08:57:55Z</time>
      </trkpt>
      <trkpt lat="46.517782201990485" lon="8.92500925809145">
        <ele>1325.3099999999999</ele>
        <time>2016-03-13T08:58:10Z</time>
      </trkpt>
      <trkpt lat="46.517750099301338" lon="8.925031805410981">
        <ele>1324.8299999999999</ele>
        <time>2016-03-13T08:58:24Z</time>
      </trkpt>
      <trkpt lat="46.517693437635899" lon="8.924986878409982">
        <ele>1325.3099999999999</ele>
        <time>2016-03-13T08:58:31Z</time>
      </trkpt>
      <trkpt lat="46.517648259177804" lon="8.924970533698797">
        <ele>1326.28</ele>
        <time>2016-03-13T08:58:36Z</time>
      </trkpt>
      <trkpt lat="46.5175586566329" lon="8.924990817904472">
        <ele>1325.3099999999999</ele>
        <time>2016-03-13T08:58:46Z</time>
      </trkpt>
      <trkpt lat="46.517507275566459" lon="8.925006911158562">
        <ele>1325.8</ele>
        <time>2016-03-13T08:58:57Z</time>
      </trkpt>
      <trkpt lat="46.517400993034244" lon="8.925014538690448">
        <ele>1326.28</ele>
        <time>2016-03-13T08:59:09Z</time>
      </trkpt>
      <trkpt lat="46.517297644168139" lon="8.925024177879095">
        <ele>1327.72</ele>
        <time>2016-03-13T08:59:20Z</time>
      </trkpt>
      <trkpt lat="46.517221201211214" lon="8.925017053261399">
        <ele>1328.6800000000001</ele>
        <time>2016-03-13T08:59:30Z</time>
      </trkpt>
      <trkpt lat="46.517141992226243" lon="8.925018813461065">
        <ele>1329.6400000000001</ele>
        <time>2016-03-13T08:59:41Z</time>
      </trkpt>
      <trkpt lat="46.517057754099369" lon="8.925022082403302">
        <ele>1331.0799999999999</ele>
        <time>2016-03-13T08:59:51Z</time>
      </trkpt>
      <trkpt lat="46.516979802399874" lon="8.925016215071082">
        <ele>1332.52</ele>
        <time>2016-03-13T09:00:02Z</time>
      </trkpt>
      <trkpt lat="46.516928421333432" lon="8.924979418516159">
        <ele>1333.97</ele>
        <time>2016-03-13T09:00:13Z</time>
      </trkpt>
      <trkpt lat="46.516891708597541" lon="8.924890654161573">
        <ele>1335.8900000000001</ele>
        <time>2016-03-13T09:00:26Z</time>
      </trkpt>
      <trkpt lat="46.516842674463987" lon="8.924843044951558">
        <ele>1337.8099999999999</ele>
        <time>2016-03-13T09:00:39Z</time>
      </trkpt>
      <trkpt lat="46.516745192930102" lon="8.924853103235364">
        <ele>1338.77</ele>
        <time>2016-03-13T09:00:51Z</time>
      </trkpt>
      <trkpt lat="46.516683753579855" lon="8.924920745193958">
        <ele>1340.22</ele>
        <time>2016-03-13T09:01:04Z</time>
      </trkpt>
      <trkpt lat="46.516652991995215" lon="8.924970449879766">
        <ele>1341.1800000000001</ele>
        <time>2016-03-13T09:01:10Z</time>
      </trkpt>
      <trkpt lat="46.51658576913178" lon="8.92504102550447">
        <ele>1341.6600000000001</ele>
        <time>2016-03-13T09:01:20Z</time>
      </trkpt>
      <trkpt lat="46.516519635915756" lon="8.92509626224637">
        <ele>1342.6199999999999</ele>
        <time>2016-03-13T09:01:31Z</time>
      </trkpt>
      <trkpt lat="46.516465321183205" lon="8.92517102882266">
        <ele>1344.54</ele>
        <time>2016-03-13T09:01:41Z</time>
      </trkpt>
      <trkpt lat="46.516419807448983" lon="8.925179829820991">
        <ele>1345.98</ele>
        <time>2016-03-13T09:01:50Z</time>
      </trkpt>
      <trkpt lat="46.516378652304411" lon="8.925224840641022">
        <ele>1346.46</ele>
        <time>2016-03-13T09:02:04Z</time>
      </trkpt>
      <trkpt lat="46.516313524916768" lon="8.925286112353206">
        <ele>1347.9100000000001</ele>
        <time>2016-03-13T09:02:15Z</time>
      </trkpt>
      <trkpt lat="46.516290474683046" lon="8.925329195335507">
        <ele>1348.8699999999999</ele>
        <time>2016-03-13T09:02:26Z</time>
      </trkpt>
      <trkpt lat="46.516225850209594" lon="8.925397340208292">
        <ele>1350.3099999999999</ele>
        <time>2016-03-13T09:02:37Z</time>
      </trkpt>
      <trkpt lat="46.516161393374205" lon="8.925440926104784">
        <ele>1351.27</ele>
        <time>2016-03-13T09:02:49Z</time>
      </trkpt>
      <trkpt lat="46.516064833849669" lon="8.925505885854363">
        <ele>1353.6700000000001</ele>
        <time>2016-03-13T09:03:02Z</time>
      </trkpt>
      <trkpt lat="46.515990402549505" lon="8.925593560561538">
        <ele>1354.6300000000001</ele>
        <time>2016-03-13T09:03:15Z</time>
      </trkpt>
      <trkpt lat="46.515922844409943" lon="8.925673356279731">
        <ele>1356.0799999999999</ele>
        <time>2016-03-13T09:03:26Z</time>
      </trkpt>
      <trkpt lat="46.51582938618958" lon="8.925720378756523">
        <ele>1356.0799999999999</ele>
        <time>2016-03-13T09:03:37Z</time>
      </trkpt>
      <trkpt lat="46.515726959332824" lon="8.925773939117789">
        <ele>1356.5599999999999</ele>
        <time>2016-03-13T09:03:47Z</time>
      </trkpt>
      <trkpt lat="46.515634590759873" lon="8.925835965201259">
        <ele>1357.04</ele>
        <time>2016-03-13T09:03:58Z</time>
      </trkpt>
      <trkpt lat="46.515571055933833" lon="8.925917856395245">
        <ele>1358</ele>
        <time>2016-03-13T09:04:08Z</time>
      </trkpt>
      <trkpt lat="46.515519758686423" lon="8.926012655720115">
        <ele>1358</ele>
        <time>2016-03-13T09:04:19Z</time>
      </trkpt>
      <trkpt lat="46.51547072455287" lon="8.926104856655002">
        <ele>1358.48</ele>
        <time>2016-03-13T09:04:28Z</time>
      </trkpt>
      <trkpt lat="46.515421187505126" lon="8.92618297599256">
        <ele>1359.9200000000001</ele>
        <time>2016-03-13T09:04:38Z</time>
      </trkpt>
      <trkpt lat="46.515374751761556" lon="8.926289174705744">
        <ele>1360.4000000000001</ele>
        <time>2016-03-13T09:04:49Z</time>
      </trkpt>
      <trkpt lat="46.515360251069069" lon="8.926313985139132">
        <ele>1360.8800000000001</ele>
        <time>2016-03-13T09:04:57Z</time>
      </trkpt>
      <trkpt lat="46.515346756204963" lon="8.926304597407579">
        <ele>1361.3599999999999</ele>
        <time>2016-03-13T09:05:11Z</time>
      </trkpt>
      <trkpt lat="46.515357736498117" lon="8.926230249926448">
        <ele>1361.8399999999999</ele>
        <time>2016-03-13T09:05:24Z</time>
      </trkpt>
      <trkpt lat="46.51533585973084" lon="8.926276601850987">
        <ele>1360.8800000000001</ele>
        <time>2016-03-13T09:05:35Z</time>
      </trkpt>
      <trkpt lat="46.515331333503127" lon="8.926238548010588">
        <ele>1360.8800000000001</ele>
        <time>2016-03-13T09:05:54Z</time>
      </trkpt>
      <trkpt lat="46.51533636264503" lon="8.926245672628284">
        <ele>1360.8800000000001</ele>
        <time>2016-03-13T09:06:12Z</time>
      </trkpt>
      <trkpt lat="46.515333596616983" lon="8.926217928528786">
        <ele>1361.3599999999999</ele>
        <time>2016-03-13T09:06:30Z</time>
      </trkpt>
      <trkpt lat="46.515329573303461" lon="8.926234692335129">
        <ele>1361.3599999999999</ele>
        <time>2016-03-13T09:06:50Z</time>
      </trkpt>
      <trkpt lat="46.51533879339695" lon="8.926199236884713">
        <ele>1361.3599999999999</ele>
        <time>2016-03-13T09:07:08Z</time>
      </trkpt>
      <trkpt lat="46.515310127288103" lon="8.926254976540804">
        <ele>1361.3599999999999</ele>
        <time>2016-03-13T09:07:21Z</time>
      </trkpt>
      <trkpt lat="46.515301410108805" lon="8.926295377314091">
        <ele>1361.8399999999999</ele>
        <time>2016-03-13T09:07:35Z</time>
      </trkpt>
      <trkpt lat="46.515293531119823" lon="8.926285989582539">
        <ele>1361.8399999999999</ele>
        <time>2016-03-13T09:07:47Z</time>
      </trkpt>
      <trkpt lat="46.515282467007637" lon="8.926296466961503">
        <ele>1361.8399999999999</ele>
        <time>2016-03-13T09:08:02Z</time>
      </trkpt>
      <trkpt lat="46.515287077054381" lon="8.926287079229951">
        <ele>1361.3599999999999</ele>
        <time>2016-03-13T09:08:15Z</time>
      </trkpt>
      <trkpt lat="46.51528992690146" lon="8.926262855529785">
        <ele>1362.3299999999999</ele>
        <time>2016-03-13T09:08:34Z</time>
      </trkpt>
      <trkpt lat="46.515313815325499" lon="8.926247097551823">
        <ele>1361.8399999999999</ele>
        <time>2016-03-13T09:08:47Z</time>
      </trkpt>
      <trkpt lat="46.515333512797952" lon="8.92624894157052">
        <ele>1360.8800000000001</ele>
        <time>2016-03-13T09:08:55Z</time>
      </trkpt>
      <trkpt lat="46.515336027368903" lon="8.926268052309752">
        <ele>1360.8800000000001</ele>
        <time>2016-03-13T09:09:17Z</time>
      </trkpt>
      <trkpt lat="46.515389000996947" lon="8.92627920024097">
        <ele>1360.8800000000001</ele>
        <time>2016-03-13T09:09:45Z</time>
      </trkpt>
      <trkpt lat="46.515390677377582" lon="8.926294958218932">
        <ele>1361.3599999999999</ele>
        <time>2016-03-13T09:10:07Z</time>
      </trkpt>
      <trkpt lat="46.515355054289103" lon="8.926318259909749">
        <ele>1361.8399999999999</ele>
        <time>2016-03-13T09:10:29Z</time>
      </trkpt>
      <trkpt lat="46.515397801995277" lon="8.92625380307436">
        <ele>1361.8399999999999</ele>
        <time>2016-03-13T09:10:53Z</time>
      </trkpt>
      <trkpt lat="46.515380283817649" lon="8.926287414506078">
        <ele>1361.8399999999999</ele>
        <time>2016-03-13T09:11:17Z</time>
      </trkpt>
      <trkpt lat="46.515381373465061" lon="8.926300909370184">
        <ele>1362.8099999999999</ele>
        <time>2016-03-13T09:11:27Z</time>
      </trkpt>
      <trkpt lat="46.515363603830338" lon="8.926274925470352">
        <ele>1362.8099999999999</ele>
        <time>2016-03-13T09:11:36Z</time>
      </trkpt>
      <trkpt lat="46.515339212492108" lon="8.926259838044643">
        <ele>1363.29</ele>
        <time>2016-03-13T09:11:52Z</time>
      </trkpt>
      <trkpt lat="46.515291268005967" lon="8.926274087280035">
        <ele>1363.29</ele>
        <time>2016-03-13T09:11:57Z</time>
      </trkpt>
      <trkpt lat="46.515200911089778" lon="8.926380788907409">
        <ele>1364.25</ele>
        <time>2016-03-13T09:12:07Z</time>
      </trkpt>
      <trkpt lat="46.515096724033356" lon="8.926477516070008">
        <ele>1364.73</ele>
        <time>2016-03-13T09:12:18Z</time>
      </trkpt>
      <trkpt lat="46.515019359067082" lon="8.926528980955482">
        <ele>1365.6900000000001</ele>
        <time>2016-03-13T09:12:28Z</time>
      </trkpt>
      <trkpt lat="46.514980467036366" lon="8.926546247676015">
        <ele>1366.1700000000001</ele>
        <time>2016-03-13T09:12:31Z</time>
      </trkpt>
      <trkpt lat="46.514870328828692" lon="8.926585977897048">
        <ele>1367.6099999999999</ele>
        <time>2016-03-13T09:12:42Z</time>
      </trkpt>
      <trkpt lat="46.514769997447729" lon="8.926587654277682">
        <ele>1368.0899999999999</ele>
        <time>2016-03-13T09:12:53Z</time>
      </trkpt>
      <trkpt lat="46.514675868675113" lon="8.926574075594544">
        <ele>1369.54</ele>
        <time>2016-03-13T09:13:04Z</time>
      </trkpt>
      <trkpt lat="46.514563215896487" lon="8.92654599621892">
        <ele>1370.02</ele>
        <time>2016-03-13T09:13:17Z</time>
      </trkpt>
      <trkpt lat="46.514470931142569" lon="8.926524370908737">
        <ele>1371.46</ele>
        <time>2016-03-13T09:13:29Z</time>
      </trkpt>
      <trkpt lat="46.514476295560598" lon="8.92650106921792">
        <ele>1370.02</ele>
        <time>2016-03-13T09:13:32Z</time>
      </trkpt>
      <trkpt lat="46.514447629451752" lon="8.926489166915417">
        <ele>1371.9400000000001</ele>
        <time>2016-03-13T09:13:38Z</time>
      </trkpt>
      <trkpt lat="46.514358948916197" lon="8.926495285704732">
        <ele>1372.4200000000001</ele>
        <time>2016-03-13T09:13:48Z</time>
      </trkpt>
      <trkpt lat="46.514316201210022" lon="8.926484305411577">
        <ele>1373.3800000000001</ele>
        <time>2016-03-13T09:13:54Z</time>
      </trkpt>
      <trkpt lat="46.514215702190995" lon="8.926472822204232">
        <ele>1374.3399999999999</ele>
        <time>2016-03-13T09:14:05Z</time>
      </trkpt>
      <trkpt lat="46.514122663065791" lon="8.926454382017255">
        <ele>1375.78</ele>
        <time>2016-03-13T09:14:15Z</time>
      </trkpt>
      <trkpt lat="46.51400925591588" lon="8.926364779472351">
        <ele>1377.23</ele>
        <time>2016-03-13T09:14:28Z</time>
      </trkpt>
      <trkpt lat="46.513939183205366" lon="8.926233435049653">
        <ele>1377.71</ele>
        <time>2016-03-13T09:14:39Z</time>
      </trkpt>
      <trkpt lat="46.513866763561964" lon="8.926107371225953">
        <ele>1378.1900000000001</ele>
        <time>2016-03-13T09:14:51Z</time>
      </trkpt>
      <trkpt lat="46.513781603425741" lon="8.926020115613937">
        <ele>1378.6700000000001</ele>
        <time>2016-03-13T09:15:03Z</time>
      </trkpt>
      <trkpt lat="46.513688564300537" lon="8.926014835014939">
        <ele>1377.71</ele>
        <time>2016-03-13T09:15:13Z</time>
      </trkpt>
      <trkpt lat="46.513650342822075" lon="8.926018355414271">
        <ele>1377.71</ele>
        <time>2016-03-13T09:15:17Z</time>
      </trkpt>
      <trkpt lat="46.513512209057808" lon="8.9260358735919">
        <ele>1378.1900000000001</ele>
        <time>2016-03-13T09:15:30Z</time>
      </trkpt>
      <trkpt lat="46.513398885726929" lon="8.926051380112767">
        <ele>1378.1900000000001</ele>
        <time>2016-03-13T09:15:41Z</time>
      </trkpt>
      <trkpt lat="46.513314982876182" lon="8.926048949360848">
        <ele>1378.1900000000001</ele>
        <time>2016-03-13T09:15:51Z</time>
      </trkpt>
      <trkpt lat="46.513273660093546" lon="8.92603050917387">
        <ele>1378.1900000000001</ele>
        <time>2016-03-13T09:16:01Z</time>
      </trkpt>
      <trkpt lat="46.513257483020425" lon="8.925927244126797">
        <ele>1379.6300000000001</ele>
        <time>2016-03-13T09:16:11Z</time>
      </trkpt>
      <trkpt lat="46.513206688687205" lon="8.925860859453678">
        <ele>1382.03</ele>
        <time>2016-03-13T09:16:24Z</time>
      </trkpt>
      <trkpt lat="46.513108620420098" lon="8.925884328782558">
        <ele>1383.96</ele>
        <time>2016-03-13T09:16:37Z</time>
      </trkpt>
      <trkpt lat="46.513049276545644" lon="8.925945851951838">
        <ele>1385.4000000000001</ele>
        <time>2016-03-13T09:16:49Z</time>
      </trkpt>
      <trkpt lat="46.512958249077201" lon="8.925971332937479">
        <ele>1387.8</ele>
        <time>2016-03-13T09:17:01Z</time>
      </trkpt>
      <trkpt lat="46.512896558269858" lon="8.92594107426703">
        <ele>1389.72</ele>
        <time>2016-03-13T09:17:11Z</time>
      </trkpt>
      <trkpt lat="46.512841824442148" lon="8.925908803939819">
        <ele>1391.6500000000001</ele>
        <time>2016-03-13T09:17:22Z</time>
      </trkpt>
      <trkpt lat="46.512781893834472" lon="8.925952641293407">
        <ele>1393.0899999999999</ele>
        <time>2016-03-13T09:17:35Z</time>
      </trkpt>
      <trkpt lat="46.512703020125628" lon="8.925980804488063">
        <ele>1394.53</ele>
        <time>2016-03-13T09:17:46Z</time>
      </trkpt>
      <trkpt lat="46.512608723714948" lon="8.926016176119447">
        <ele>1395.97</ele>
        <time>2016-03-13T09:17:59Z</time>
      </trkpt>
      <trkpt lat="46.51251744478941" lon="8.92605590634048">
        <ele>1397.4100000000001</ele>
        <time>2016-03-13T09:18:12Z</time>
      </trkpt>
      <trkpt lat="46.512430524453521" lon="8.92608130350709">
        <ele>1399.8199999999999</ele>
        <time>2016-03-13T09:18:26Z</time>
      </trkpt>
      <trkpt lat="46.512361709028482" lon="8.926121536642313">
        <ele>1401.26</ele>
        <time>2016-03-13T09:18:39Z</time>
      </trkpt>
      <trkpt lat="46.512250313535333" lon="8.926183898001909">
        <ele>1403.1800000000001</ele>
        <time>2016-03-13T09:18:52Z</time>
      </trkpt>
      <trkpt lat="46.512156436219811" lon="8.926222203299403">
        <ele>1404.6199999999999</ele>
        <time>2016-03-13T09:19:05Z</time>
      </trkpt>
      <trkpt lat="46.512078735977411" lon="8.926178868860006">
        <ele>1407.03</ele>
        <time>2016-03-13T09:19:21Z</time>
      </trkpt>
      <trkpt lat="46.512003634124994" lon="8.926177192479372">
        <ele>1408.95</ele>
        <time>2016-03-13T09:19:33Z</time>
      </trkpt>
      <trkpt lat="46.511937081813812" lon="8.926141988486052">
        <ele>1410.8699999999999</ele>
        <time>2016-03-13T09:19:46Z</time>
      </trkpt>
      <trkpt lat="46.511874804273248" lon="8.926066718995571">
        <ele>1412.3099999999999</ele>
        <time>2016-03-13T09:19:59Z</time>
      </trkpt>
      <trkpt lat="46.511830044910312" lon="8.925964878872037">
        <ele>1414.72</ele>
        <time>2016-03-13T09:20:13Z</time>
      </trkpt>
      <trkpt lat="46.511759972199798" lon="8.925910228863359">
        <ele>1417.1199999999999</ele>
        <time>2016-03-13T09:20:27Z</time>
      </trkpt>
      <trkpt lat="46.511682691052556" lon="8.925930429250002">
        <ele>1419.04</ele>
        <time>2016-03-13T09:20:39Z</time>
      </trkpt>
      <trkpt lat="46.511621922254562" lon="8.925898997113109">
        <ele>1420.97</ele>
        <time>2016-03-13T09:20:52Z</time>
      </trkpt>
      <trkpt lat="46.511564673855901" lon="8.925890447571874">
        <ele>1423.3699999999999</ele>
        <time>2016-03-13T09:21:03Z</time>
      </trkpt>
      <trkpt lat="46.511470293626189" lon="8.925864296033979">
        <ele>1426.25</ele>
        <time>2016-03-13T09:21:18Z</time>
      </trkpt>
      <trkpt lat="46.511398628354073" lon="8.925839988514781">
        <ele>1427.7</ele>
        <time>2016-03-13T09:21:32Z</time>
      </trkpt>
      <trkpt lat="46.511329896748066" lon="8.925799252465367">
        <ele>1429.6199999999999</ele>
        <time>2016-03-13T09:21:48Z</time>
      </trkpt>
      <trkpt lat="46.511326041072607" lon="8.925729095935822">
        <ele>1431.0599999999999</ele>
        <time>2016-03-13T09:22:01Z</time>
      </trkpt>
      <trkpt lat="46.511245323345065" lon="8.925729934126139">
        <ele>1432.98</ele>
        <time>2016-03-13T09:22:12Z</time>
      </trkpt>
      <trkpt lat="46.511186733841896" lon="8.925671931356192">
        <ele>1435.3900000000001</ele>
        <time>2016-03-13T09:22:24Z</time>
      </trkpt>
      <trkpt lat="46.51114247739315" lon="8.925626249983907">
        <ele>1437.79</ele>
        <time>2016-03-13T09:22:37Z</time>
      </trkpt>
      <trkpt lat="46.511114230379462" lon="8.925569672137499">
        <ele>1439.71</ele>
        <time>2016-03-13T09:22:51Z</time>
      </trkpt>
      <trkpt lat="46.511066537350416" lon="8.925521643832326">
        <ele>1441.6300000000001</ele>
        <time>2016-03-13T09:23:05Z</time>
      </trkpt>
      <trkpt lat="46.511033847928047" lon="8.925444865599275">
        <ele>1443.0799999999999</ele>
        <time>2016-03-13T09:23:19Z</time>
      </trkpt>
      <trkpt lat="46.510996213182807" lon="8.925365321338177">
        <ele>1444.52</ele>
        <time>2016-03-13T09:23:32Z</time>
      </trkpt>
      <trkpt lat="46.511043906211853" lon="8.92531268298626">
        <ele>1445.96</ele>
        <time>2016-03-13T09:23:45Z</time>
      </trkpt>
      <trkpt lat="46.511147087439895" lon="8.925205729901791">
        <ele>1447.4000000000001</ele>
        <time>2016-03-13T09:23:59Z</time>
      </trkpt>
      <trkpt lat="46.51119570247829" lon="8.925169017165899">
        <ele>1448.8399999999999</ele>
        <time>2016-03-13T09:24:09Z</time>
      </trkpt>
      <trkpt lat="46.511277174577117" lon="8.925086539238691">
        <ele>1450.29</ele>
        <time>2016-03-13T09:24:23Z</time>
      </trkpt>
      <trkpt lat="46.511361245065928" lon="8.925019819289446">
        <ele>1451.25</ele>
        <time>2016-03-13T09:24:33Z</time>
      </trkpt>
      <trkpt lat="46.511405082419515" lon="8.92498335801065">
        <ele>1452.6900000000001</ele>
        <time>2016-03-13T09:24:44Z</time>
      </trkpt>
      <trkpt lat="46.511442549526691" lon="8.924957206472755">
        <ele>1453.6500000000001</ele>
        <time>2016-03-13T09:24:56Z</time>
      </trkpt>
      <trkpt lat="46.511507928371429" lon="8.924911692738533">
        <ele>1455.0899999999999</ele>
        <time>2016-03-13T09:25:09Z</time>
      </trkpt>
      <trkpt lat="46.51159786619246" lon="8.924805661663413">
        <ele>1456.53</ele>
        <time>2016-03-13T09:25:25Z</time>
      </trkpt>
      <trkpt lat="46.51166869327426" lon="8.924753190949559">
        <ele>1457.98</ele>
        <time>2016-03-13T09:25:39Z</time>
      </trkpt>
      <trkpt lat="46.511739771813154" lon="8.924698624759913">
        <ele>1459.9000000000001</ele>
        <time>2016-03-13T09:25:51Z</time>
      </trkpt>
      <trkpt lat="46.511807329952717" lon="8.924610782414675">
        <ele>1461.3399999999999</ele>
        <time>2016-03-13T09:26:03Z</time>
      </trkpt>
      <trkpt lat="46.511844880878925" lon="8.924554288387299">
        <ele>1462.78</ele>
        <time>2016-03-13T09:26:12Z</time>
      </trkpt>
      <trkpt lat="46.511866757646203" lon="8.924475582316518">
        <ele>1464.71</ele>
        <time>2016-03-13T09:26:24Z</time>
      </trkpt>
      <trkpt lat="46.511915288865566" lon="8.924387320876122">
        <ele>1466.1500000000001</ele>
        <time>2016-03-13T09:26:39Z</time>
      </trkpt>
      <trkpt lat="46.51192132383585" lon="8.924314398318529">
        <ele>1468.55</ele>
        <time>2016-03-13T09:26:53Z</time>
      </trkpt>
      <trkpt lat="46.511939596384764" lon="8.924310375005007">
        <ele>1469.99</ele>
        <time>2016-03-13T09:27:05Z</time>
      </trkpt>
      <trkpt lat="46.512048561125994" lon="8.924238374456763">
        <ele>1471.9200000000001</ele>
        <time>2016-03-13T09:27:18Z</time>
      </trkpt>
      <trkpt lat="46.5120879560709" lon="8.924185484647751">
        <ele>1473.3599999999999</ele>
        <time>2016-03-13T09:27:30Z</time>
      </trkpt>
      <trkpt lat="46.512119052931666" lon="8.924136199057102">
        <ele>1475.28</ele>
        <time>2016-03-13T09:27:42Z</time>
      </trkpt>
      <trkpt lat="46.512144031003118" lon="8.924159249290824">
        <ele>1475.28</ele>
        <time>2016-03-13T09:27:54Z</time>
      </trkpt>
      <trkpt lat="46.512195412069559" lon="8.924113148823381">
        <ele>1476.72</ele>
        <time>2016-03-13T09:28:09Z</time>
      </trkpt>
      <trkpt lat="46.512260790914297" lon="8.924056738615036">
        <ele>1478.1600000000001</ele>
        <time>2016-03-13T09:28:21Z</time>
      </trkpt>
      <trkpt lat="46.512288535013795" lon="8.923953557386994">
        <ele>1481.05</ele>
        <time>2016-03-13T09:28:33Z</time>
      </trkpt>
      <trkpt lat="46.512295659631491" lon="8.923885747790337">
        <ele>1483.45</ele>
        <time>2016-03-13T09:28:44Z</time>
      </trkpt>
      <trkpt lat="46.512372856959701" lon="8.923826068639755">
        <ele>1484.8900000000001</ele>
        <time>2016-03-13T09:28:55Z</time>
      </trkpt>
      <trkpt lat="46.51240068487823" lon="8.923735208809376">
        <ele>1486.8199999999999</ele>
        <time>2016-03-13T09:29:07Z</time>
      </trkpt>
      <trkpt lat="46.512433541938663" lon="8.923694053664804">
        <ele>1488.26</ele>
        <time>2016-03-13T09:29:19Z</time>
      </trkpt>
      <trkpt lat="46.512457430362701" lon="8.923714756965637">
        <ele>1489.22</ele>
        <time>2016-03-13T09:29:31Z</time>
      </trkpt>
      <trkpt lat="46.512504788115621" lon="8.923662202432752">
        <ele>1490.6600000000001</ele>
        <time>2016-03-13T09:29:40Z</time>
      </trkpt>
      <trkpt lat="46.512545440346003" lon="8.92359271645546">
        <ele>1492.5799999999999</ele>
        <time>2016-03-13T09:29:53Z</time>
      </trkpt>
      <trkpt lat="46.512589361518621" lon="8.923516944050789">
        <ele>1493.55</ele>
        <time>2016-03-13T09:30:05Z</time>
      </trkpt>
      <trkpt lat="46.512635378167033" lon="8.923422060906887">
        <ele>1495.47</ele>
        <time>2016-03-13T09:30:17Z</time>
      </trkpt>
      <trkpt lat="46.512681813910604" lon="8.923339582979679">
        <ele>1497.3900000000001</ele>
        <time>2016-03-13T09:30:29Z</time>
      </trkpt>
      <trkpt lat="46.512715006247163" lon="8.923285352066159">
        <ele>1498.8299999999999</ele>
        <time>2016-03-13T09:30:41Z</time>
      </trkpt>
      <trkpt lat="46.512744929641485" lon="8.923239335417748">
        <ele>1499.79</ele>
        <time>2016-03-13T09:30:51Z</time>
      </trkpt>
      <trkpt lat="46.512765968218446" lon="8.923174124211073">
        <ele>1500.76</ele>
        <time>2016-03-13T09:31:03Z</time>
      </trkpt>
      <trkpt lat="46.51279647834599" lon="8.923086281865835">
        <ele>1502.2</ele>
        <time>2016-03-13T09:31:14Z</time>
      </trkpt>
      <trkpt lat="46.512812906876206" lon="8.923023333773017">
        <ele>1503.1600000000001</ele>
        <time>2016-03-13T09:31:24Z</time>
      </trkpt>
      <trkpt lat="46.512825647369027" lon="8.922954685986042">
        <ele>1504.5999999999999</ele>
        <time>2016-03-13T09:31:36Z</time>
      </trkpt>
      <trkpt lat="46.512794969603419" lon="8.92289056442678">
        <ele>1505.5599999999999</ele>
        <time>2016-03-13T09:31:46Z</time>
      </trkpt>
      <trkpt lat="46.512754652649164" lon="8.922851840034127">
        <ele>1506.04</ele>
        <time>2016-03-13T09:31:59Z</time>
      </trkpt>
      <trkpt lat="46.5127476118505" lon="8.922802219167352">
        <ele>1507.48</ele>
        <time>2016-03-13T09:32:09Z</time>
      </trkpt>
      <trkpt lat="46.512763286009431" lon="8.922769529744983">
        <ele>1507.97</ele>
        <time>2016-03-13T09:32:17Z</time>
      </trkpt>
      <trkpt lat="46.512751216068864" lon="8.922817558050156">
        <ele>1507.48</ele>
        <time>2016-03-13T09:32:32Z</time>
      </trkpt>
      <trkpt lat="46.512737385928631" lon="8.9228187315166">
        <ele>1507.48</ele>
        <time>2016-03-13T09:32:45Z</time>
      </trkpt>
      <trkpt lat="46.512755071744323" lon="8.92281286418438">
        <ele>1507.97</ele>
        <time>2016-03-13T09:33:00Z</time>
      </trkpt>
      <trkpt lat="46.512748366221786" lon="8.922795094549656">
        <ele>1507.97</ele>
        <time>2016-03-13T09:33:19Z</time>
      </trkpt>
      <trkpt lat="46.512770745903254" lon="8.922809595242143">
        <ele>1507.48</ele>
        <time>2016-03-13T09:33:33Z</time>
      </trkpt>
      <trkpt lat="46.51275834068656" lon="8.922788556665182">
        <ele>1507.97</ele>
        <time>2016-03-13T09:33:46Z</time>
      </trkpt>
      <trkpt lat="46.512772087007761" lon="8.922730134800077">
        <ele>1509.8900000000001</ele>
        <time>2016-03-13T09:33:57Z</time>
      </trkpt>
      <trkpt lat="46.512739900499582" lon="8.922757878899574">
        <ele>1509.8900000000001</ele>
        <time>2016-03-13T09:34:10Z</time>
      </trkpt>
      <trkpt lat="46.512659434229136" lon="8.9227962680161">
        <ele>1510.8499999999999</ele>
        <time>2016-03-13T09:34:21Z</time>
      </trkpt>
      <trkpt lat="46.512541919946671" lon="8.92280850559473">
        <ele>1513.25</ele>
        <time>2016-03-13T09:34:36Z</time>
      </trkpt>
      <trkpt lat="46.512473355978727" lon="8.922804482281208">
        <ele>1514.21</ele>
        <time>2016-03-13T09:34:49Z</time>
      </trkpt>
      <trkpt lat="46.512352824211121" lon="8.922795010730624">
        <ele>1517.0999999999999</ele>
        <time>2016-03-13T09:35:05Z</time>
      </trkpt>
      <trkpt lat="46.512266155332327" lon="8.922780845314264">
        <ele>1518.0599999999999</ele>
        <time>2016-03-13T09:35:14Z</time>
      </trkpt>
      <trkpt lat="46.512159872800112" lon="8.922722255811095">
        <ele>1517.5799999999999</ele>
        <time>2016-03-13T09:35:25Z</time>
      </trkpt>
      <trkpt lat="46.512104887515306" lon="8.922651428729296">
        <ele>1517.5799999999999</ele>
        <time>2016-03-13T09:35:39Z</time>
      </trkpt>
      <trkpt lat="46.512073874473572" lon="8.922647153958678">
        <ele>1520.46</ele>
        <time>2016-03-13T09:35:44Z</time>
      </trkpt>
      <trkpt lat="46.512067168951035" lon="8.922646986320615">
        <ele>1520.9400000000001</ele>
        <time>2016-03-13T09:35:45Z</time>
      </trkpt>
      <trkpt lat="46.512019140645862" lon="8.922646064311266">
        <ele>1522.8699999999999</ele>
        <time>2016-03-13T09:35:57Z</time>
      </trkpt>
      <trkpt lat="46.511963820084929" lon="8.92263256944716">
        <ele>1524.79</ele>
        <time>2016-03-13T09:36:07Z</time>
      </trkpt>
      <trkpt lat="46.511911517009139" lon="8.922596275806427">
        <ele>1525.27</ele>
        <time>2016-03-13T09:36:18Z</time>
      </trkpt>
      <trkpt lat="46.511851334944367" lon="8.922605747357011">
        <ele>1526.71</ele>
        <time>2016-03-13T09:36:30Z</time>
      </trkpt>
      <trkpt lat="46.511762151494622" lon="8.922615302726626">
        <ele>1527.6700000000001</ele>
        <time>2016-03-13T09:36:43Z</time>
      </trkpt>
      <trkpt lat="46.511694760993123" lon="8.922620248049498">
        <ele>1529.1099999999999</ele>
        <time>2016-03-13T09:36:53Z</time>
      </trkpt>
      <trkpt lat="46.511623514816165" lon="8.922626869753003">
        <ele>1530.5599999999999</ele>
        <time>2016-03-13T09:37:04Z</time>
      </trkpt>
      <trkpt lat="46.511552017182112" lon="8.922662828117609">
        <ele>1531.52</ele>
        <time>2016-03-13T09:37:15Z</time>
      </trkpt>
      <trkpt lat="46.511439867317677" lon="8.922692751511931">
        <ele>1533.4400000000001</ele>
        <time>2016-03-13T09:37:29Z</time>
      </trkpt>
      <trkpt lat="46.511351857334375" lon="8.922672215849161">
        <ele>1534.8800000000001</ele>
        <time>2016-03-13T09:37:41Z</time>
      </trkpt>
      <trkpt lat="46.511272313073277" lon="8.922631815075874">
        <ele>1536.8</ele>
        <time>2016-03-13T09:37:55Z</time>
      </trkpt>
      <trkpt lat="46.511251693591475" lon="8.922642376273871">
        <ele>1537.29</ele>
        <time>2016-03-13T09:38:04Z</time>
      </trkpt>
      <trkpt lat="46.511219423264265" lon="8.922621924430132">
        <ele>1538.25</ele>
        <time>2016-03-13T09:38:09Z</time>
      </trkpt>
      <trkpt lat="46.511178771033883" lon="8.922603651881218">
        <ele>1538.25</ele>
        <time>2016-03-13T09:38:14Z</time>
      </trkpt>
      <trkpt lat="46.51109067723155" lon="8.92258177511394">
        <ele>1539.21</ele>
        <time>2016-03-13T09:38:26Z</time>
      </trkpt>
      <trkpt lat="46.51100467890501" lon="8.922576997429133">
        <ele>1541.1300000000001</ele>
        <time>2016-03-13T09:38:39Z</time>
      </trkpt>
      <trkpt lat="46.510939635336399" lon="8.922537518665195">
        <ele>1542.0899999999999</ele>
        <time>2016-03-13T09:38:50Z</time>
      </trkpt>
      <trkpt lat="46.510928655043244" lon="8.922520084306598">
        <ele>1542.0899999999999</ele>
        <time>2016-03-13T09:39:05Z</time>
      </trkpt>
      <trkpt lat="46.510871239006519" lon="8.922498961910605">
        <ele>1543.53</ele>
        <time>2016-03-13T09:39:15Z</time>
      </trkpt>
      <trkpt lat="46.510802926495671" lon="8.922444060444832">
        <ele>1544.98</ele>
        <time>2016-03-13T09:39:26Z</time>
      </trkpt>
      <trkpt lat="46.510738469660282" lon="8.922384129837155">
        <ele>1546.4200000000001</ele>
        <time>2016-03-13T09:39:38Z</time>
      </trkpt>
      <trkpt lat="46.510664205998182" lon="8.922307854518294">
        <ele>1547.8599999999999</ele>
        <time>2016-03-13T09:39:50Z</time>
      </trkpt>
      <trkpt lat="46.510598408058286" lon="8.922236189246178">
        <ele>1549.3</ele>
        <time>2016-03-13T09:40:01Z</time>
      </trkpt>
      <trkpt lat="46.510559264570475" lon="8.922188244760037">
        <ele>1550.74</ele>
        <time>2016-03-13T09:40:10Z</time>
      </trkpt>
      <trkpt lat="46.510486844927073" lon="8.92213904298842">
        <ele>1553.1500000000001</ele>
        <time>2016-03-13T09:40:23Z</time>
      </trkpt>
      <trkpt lat="46.51043982245028" lon="8.922098139300942">
        <ele>1554.5899999999999</ele>
        <time>2016-03-13T09:40:35Z</time>
      </trkpt>
      <trkpt lat="46.510384501889348" lon="8.922057654708624">
        <ele>1556.99</ele>
        <time>2016-03-13T09:40:46Z</time>
      </trkpt>
      <trkpt lat="46.510327840223908" lon="8.92203108407557">
        <ele>1558.9200000000001</ele>
        <time>2016-03-13T09:40:59Z</time>
      </trkpt>
      <trkpt lat="46.510248547419906" lon="8.921972578391433">
        <ele>1561.3199999999999</ele>
        <time>2016-03-13T09:41:12Z</time>
      </trkpt>
      <trkpt lat="46.51018132455647" lon="8.921957407146692">
        <ele>1563.24</ele>
        <time>2016-03-13T09:41:24Z</time>
      </trkpt>
      <trkpt lat="46.510126171633601" lon="8.921890268102288">
        <ele>1565.6400000000001</ele>
        <time>2016-03-13T09:41:39Z</time>
      </trkpt>
      <trkpt lat="46.510079232975841" lon="8.921876773238182">
        <ele>1567.5699999999999</ele>
        <time>2016-03-13T09:41:52Z</time>
      </trkpt>
      <trkpt lat="46.510094655677676" lon="8.921881467103958">
        <ele>1567.0899999999999</ele>
        <time>2016-03-13T09:42:06Z</time>
      </trkpt>
      <trkpt lat="46.510091805830598" lon="8.921836707741022">
        <ele>1567.5699999999999</ele>
        <time>2016-03-13T09:42:18Z</time>
      </trkpt>
      <trkpt lat="46.510053416714072" lon="8.921811981126666">
        <ele>1567.5699999999999</ele>
        <time>2016-03-13T09:42:34Z</time>
      </trkpt>
      <trkpt lat="46.509996168315411" lon="8.921749535948038">
        <ele>1569.97</ele>
        <time>2016-03-13T09:42:46Z</time>
      </trkpt>
      <trkpt lat="46.509920228272676" lon="8.921643504872918">
        <ele>1572.8499999999999</ele>
        <time>2016-03-13T09:43:01Z</time>
      </trkpt>
      <trkpt lat="46.509882090613246" lon="8.92159472219646">
        <ele>1574.78</ele>
        <time>2016-03-13T09:43:13Z</time>
      </trkpt>
      <trkpt lat="46.509836409240961" lon="8.921551052480936">
        <ele>1576.22</ele>
        <time>2016-03-13T09:43:24Z</time>
      </trkpt>
      <trkpt lat="46.509797014296055" lon="8.921507885679603">
        <ele>1577.1800000000001</ele>
        <time>2016-03-13T09:43:39Z</time>
      </trkpt>
      <trkpt lat="46.509731886908412" lon="8.921472430229187">
        <ele>1578.6199999999999</ele>
        <time>2016-03-13T09:43:54Z</time>
      </trkpt>
      <trkpt lat="46.50969123467803" lon="8.921388946473599">
        <ele>1580.0599999999999</ele>
        <time>2016-03-13T09:44:07Z</time>
      </trkpt>
      <trkpt lat="46.509648403152823" lon="8.921299511566758">
        <ele>1581.51</ele>
        <time>2016-03-13T09:44:19Z</time>
      </trkpt>
      <trkpt lat="46.509637674316764" lon="8.921215441077948">
        <ele>1581.99</ele>
        <time>2016-03-13T09:44:31Z</time>
      </trkpt>
      <trkpt lat="46.509580258280039" lon="8.921203454956412">
        <ele>1582.95</ele>
        <time>2016-03-13T09:44:42Z</time>
      </trkpt>
      <trkpt lat="46.509501552209258" lon="8.921229774132371">
        <ele>1584.3900000000001</ele>
        <time>2016-03-13T09:44:51Z</time>
      </trkpt>
      <trkpt lat="46.509439442306757" lon="8.921233965083957">
        <ele>1584.8699999999999</ele>
        <time>2016-03-13T09:45:02Z</time>
      </trkpt>
      <trkpt lat="46.509398873895407" lon="8.921249555423856">
        <ele>1585.3499999999999</ele>
        <time>2016-03-13T09:45:17Z</time>
      </trkpt>
      <trkpt lat="46.509401891380548" lon="8.921271935105324">
        <ele>1585.8299999999999</ele>
        <time>2016-03-13T09:45:21Z</time>
      </trkpt>
      <trkpt lat="46.509317234158516" lon="8.921332033351064">
        <ele>1586.3099999999999</ele>
        <time>2016-03-13T09:45:33Z</time>
      </trkpt>
      <trkpt lat="46.509243473410606" lon="8.921373439952731">
        <ele>1587.75</ele>
        <time>2016-03-13T09:45:46Z</time>
      </trkpt>
      <trkpt lat="46.509193768724799" lon="8.921390874311328">
        <ele>1588.72</ele>
        <time>2016-03-13T09:45:55Z</time>
      </trkpt>
      <trkpt lat="46.509124869480729" lon="8.921427670866251">
        <ele>1590.6400000000001</ele>
        <time>2016-03-13T09:46:06Z</time>
      </trkpt>
      <trkpt lat="46.509072985500097" lon="8.921466479077935">
        <ele>1590.6400000000001</ele>
        <time>2016-03-13T09:46:16Z</time>
      </trkpt>
      <trkpt lat="46.509043062105775" lon="8.921498833224177">
        <ele>1590.1600000000001</ele>
        <time>2016-03-13T09:46:29Z</time>
      </trkpt>
      <trkpt lat="46.50900961831212" lon="8.921516519039869">
        <ele>1590.6400000000001</ele>
        <time>2016-03-13T09:46:33Z</time>
      </trkpt>
      <trkpt lat="46.50894658640027" lon="8.921568319201469">
        <ele>1591.5999999999999</ele>
        <time>2016-03-13T09:46:43Z</time>
      </trkpt>
      <trkpt lat="46.508881878107786" lon="8.921638811007142">
        <ele>1592.5599999999999</ele>
        <time>2016-03-13T09:46:54Z</time>
      </trkpt>
      <trkpt lat="46.508821444585919" lon="8.921675607562065">
        <ele>1593.04</ele>
        <time>2016-03-13T09:47:04Z</time>
      </trkpt>
      <trkpt lat="46.508754305541515" lon="8.921681055799127">
        <ele>1594</ele>
        <time>2016-03-13T09:47:14Z</time>
      </trkpt>
      <trkpt lat="46.508687250316143" lon="8.921703016385436">
        <ele>1594</ele>
        <time>2016-03-13T09:47:23Z</time>
      </trkpt>
      <trkpt lat="46.508604269474745" lon="8.921717181801796">
        <ele>1593.52</ele>
        <time>2016-03-13T09:47:33Z</time>
      </trkpt>
      <trkpt lat="46.508530927821994" lon="8.92174618318677">
        <ele>1594</ele>
        <time>2016-03-13T09:47:43Z</time>
      </trkpt>
      <trkpt lat="46.508425567299128" lon="8.92178189009428">
        <ele>1594</ele>
        <time>2016-03-13T09:47:55Z</time>
      </trkpt>
      <trkpt lat="46.508347950875759" lon="8.921810807660222">
        <ele>1594.48</ele>
        <time>2016-03-13T09:48:05Z</time>
      </trkpt>
      <trkpt lat="46.508292211219668" lon="8.921847604215145">
        <ele>1595.45</ele>
        <time>2016-03-13T09:48:13Z</time>
      </trkpt>
      <trkpt lat="46.508210906758904" lon="8.92187518067658">
        <ele>1595.9300000000001</ele>
        <time>2016-03-13T09:48:24Z</time>
      </trkpt>
      <trkpt lat="46.508123483508825" lon="8.921890016645193">
        <ele>1597.3699999999999</ele>
        <time>2016-03-13T09:48:36Z</time>
      </trkpt>
      <trkpt lat="46.508057685568929" lon="8.921893034130335">
        <ele>1598.8099999999999</ele>
        <time>2016-03-13T09:48:47Z</time>
      </trkpt>
      <trkpt lat="46.507973363623023" lon="8.921922706067562">
        <ele>1600.25</ele>
        <time>2016-03-13T09:48:59Z</time>
      </trkpt>
      <trkpt lat="46.507872026413679" lon="8.921930333599448">
        <ele>1600.25</ele>
        <time>2016-03-13T09:49:12Z</time>
      </trkpt>
      <trkpt lat="46.507791224867105" lon="8.921940308064222">
        <ele>1599.77</ele>
        <time>2016-03-13T09:49:24Z</time>
      </trkpt>
      <trkpt lat="46.507745627313852" lon="8.921947181224823">
        <ele>1600.25</ele>
        <time>2016-03-13T09:49:32Z</time>
      </trkpt>
      <trkpt lat="46.507656695321202" lon="8.921965034678578">
        <ele>1601.21</ele>
        <time>2016-03-13T09:49:45Z</time>
      </trkpt>
      <trkpt lat="46.507589388638735" lon="8.922019014135003">
        <ele>1602.1700000000001</ele>
        <time>2016-03-13T09:49:55Z</time>
      </trkpt>
      <trkpt lat="46.50750414468348" lon="8.922013314440846">
        <ele>1602.6600000000001</ele>
        <time>2016-03-13T09:50:05Z</time>
      </trkpt>
      <trkpt lat="46.507445219904184" lon="8.922019517049193">
        <ele>1604.5799999999999</ele>
        <time>2016-03-13T09:50:16Z</time>
      </trkpt>
      <trkpt lat="46.507386546581984" lon="8.922017253935337">
        <ele>1606.02</ele>
        <time>2016-03-13T09:50:28Z</time>
      </trkpt>
      <trkpt lat="46.507354443892837" lon="8.922044998034835">
        <ele>1606.5</ele>
        <time>2016-03-13T09:50:39Z</time>
      </trkpt>
      <trkpt lat="46.507343463599682" lon="8.922054888680577">
        <ele>1607.9400000000001</ele>
        <time>2016-03-13T09:50:58Z</time>
      </trkpt>
      <trkpt lat="46.507248999550939" lon="8.922081794589758">
        <ele>1609.8599999999999</ele>
        <time>2016-03-13T09:51:11Z</time>
      </trkpt>
      <trkpt lat="46.507171131670475" lon="8.922052709385753">
        <ele>1611.3099999999999</ele>
        <time>2016-03-13T09:51:23Z</time>
      </trkpt>
      <trkpt lat="46.50706727989018" lon="8.922075340524316">
        <ele>1613.71</ele>
        <time>2016-03-13T09:51:36Z</time>
      </trkpt>
      <trkpt lat="46.506995279341936" lon="8.922042567282915">
        <ele>1615.6300000000001</ele>
        <time>2016-03-13T09:51:48Z</time>
      </trkpt>
      <trkpt lat="46.506956806406379" lon="8.921996802091599">
        <ele>1617.0699999999999</ele>
        <time>2016-03-13T09:51:59Z</time>
      </trkpt>
      <trkpt lat="46.506914393976331" lon="8.922013649716973">
        <ele>1619</ele>
        <time>2016-03-13T09:52:15Z</time>
      </trkpt>
      <trkpt lat="46.506836777552962" lon="8.922014655545354">
        <ele>1620.9200000000001</ele>
        <time>2016-03-13T09:52:27Z</time>
      </trkpt>
      <trkpt lat="46.506767207756639" lon="8.92198515124619">
        <ele>1622.3599999999999</ele>
        <time>2016-03-13T09:52:41Z</time>
      </trkpt>
      <trkpt lat="46.506728567183018" lon="8.921953300014138">
        <ele>1623.8</ele>
        <time>2016-03-13T09:52:53Z</time>
      </trkpt>
      <trkpt lat="46.506703002378345" lon="8.921951875090599">
        <ele>1625.73</ele>
        <time>2016-03-13T09:53:06Z</time>
      </trkpt>
      <trkpt lat="46.506634689867496" lon="8.921950869262219">
        <ele>1627.6500000000001</ele>
        <time>2016-03-13T09:53:20Z</time>
      </trkpt>
      <trkpt lat="46.506577609106898" lon="8.921921867877245">
        <ele>1628.6099999999999</ele>
        <time>2016-03-13T09:53:32Z</time>
      </trkpt>
      <trkpt lat="46.506548272445798" lon="8.921881299465895">
        <ele>1630.53</ele>
        <time>2016-03-13T09:53:43Z</time>
      </trkpt>
      <trkpt lat="46.506486246362329" lon="8.921863110736013">
        <ele>1631.98</ele>
        <time>2016-03-13T09:53:57Z</time>
      </trkpt>
      <trkpt lat="46.506423046812415" lon="8.921807371079922">
        <ele>1632.46</ele>
        <time>2016-03-13T09:54:07Z</time>
      </trkpt>
      <trkpt lat="46.506421370431781" lon="8.921806029975414">
        <ele>1632.46</ele>
        <time>2016-03-13T09:54:08Z</time>
      </trkpt>
      <trkpt lat="46.506378035992384" lon="8.921727742999792">
        <ele>1633.4200000000001</ele>
        <time>2016-03-13T09:54:21Z</time>
      </trkpt>
      <trkpt lat="46.506409635767341" lon="8.921659933403134">
        <ele>1634.8599999999999</ele>
        <time>2016-03-13T09:54:30Z</time>
      </trkpt>
      <trkpt lat="46.506366888061166" lon="8.921633530408144">
        <ele>1635.3399999999999</ele>
        <time>2016-03-13T09:54:41Z</time>
      </trkpt>
      <trkpt lat="46.506299916654825" lon="8.921602433547378">
        <ele>1636.3</ele>
        <time>2016-03-13T09:54:52Z</time>
      </trkpt>
      <trkpt lat="46.506282733753324" lon="8.921612743288279">
        <ele>1636.78</ele>
        <time>2016-03-13T09:55:06Z</time>
      </trkpt>
      <trkpt lat="46.506273597478867" lon="8.921588184311986">
        <ele>1636.78</ele>
        <time>2016-03-13T09:55:22Z</time>
      </trkpt>
      <trkpt lat="46.506279800087214" lon="8.921635793522">
        <ele>1635.8199999999999</ele>
        <time>2016-03-13T09:55:32Z</time>
      </trkpt>
      <trkpt lat="46.50628893636167" lon="8.921634955331683">
        <ele>1635.3399999999999</ele>
        <time>2016-03-13T09:55:40Z</time>
      </trkpt>
      <trkpt lat="46.506318273022771" lon="8.921598410233855">
        <ele>1635.3399999999999</ele>
        <time>2016-03-13T09:56:02Z</time>
      </trkpt>
      <trkpt lat="46.506349872797728" lon="8.921610228717327">
        <ele>1635.3399999999999</ele>
        <time>2016-03-13T09:56:32Z</time>
      </trkpt>
      <trkpt lat="46.506329085677862" lon="8.921670997515321">
        <ele>1634.8599999999999</ele>
        <time>2016-03-13T09:57:05Z</time>
      </trkpt>
      <trkpt lat="46.506256414577365" lon="8.921688934788108">
        <ele>1634.8599999999999</ele>
        <time>2016-03-13T09:57:32Z</time>
      </trkpt>
      <trkpt lat="46.506308550015092" lon="8.92167778685689">
        <ele>1635.3399999999999</ele>
        <time>2016-03-13T09:58:02Z</time>
      </trkpt>
      <trkpt lat="46.506316429004073" lon="8.921707458794117">
        <ele>1634.8599999999999</ele>
        <time>2016-03-13T09:58:30Z</time>
      </trkpt>
      <trkpt lat="46.506361439824104" lon="8.921620370820165">
        <ele>1634.8599999999999</ele>
        <time>2016-03-13T09:58:57Z</time>
      </trkpt>
      <trkpt lat="46.506326654925942" lon="8.921641828492284">
        <ele>1635.3399999999999</ele>
        <time>2016-03-13T09:59:15Z</time>
      </trkpt>
      <trkpt lat="46.506318189203739" lon="8.92164115794003">
        <ele>1635.3399999999999</ele>
        <time>2016-03-13T09:59:18Z</time>
      </trkpt>
      <trkpt lat="46.506312070414424" lon="8.921650042757392">
        <ele>1636.3</ele>
        <time>2016-03-13T09:59:26Z</time>
      </trkpt>
      <trkpt lat="46.50631039403379" lon="8.921618945896626">
        <ele>1636.3</ele>
        <time>2016-03-13T09:59:40Z</time>
      </trkpt>
      <trkpt lat="46.506315087899566" lon="8.921636715531349">
        <ele>1636.3</ele>
        <time>2016-03-13T09:59:55Z</time>
      </trkpt>
      <trkpt lat="46.506322212517262" lon="8.921645935624838">
        <ele>1636.3</ele>
        <time>2016-03-13T10:00:11Z</time>
      </trkpt>
      <trkpt lat="46.506274435669184" lon="8.921632692217827">
        <ele>1636.78</ele>
        <time>2016-03-13T10:00:29Z</time>
      </trkpt>
      <trkpt lat="46.506217774003744" lon="8.921632943674922">
        <ele>1637.26</ele>
        <time>2016-03-13T10:00:39Z</time>
      </trkpt>
      <trkpt lat="46.506151892244816" lon="8.921567816287279">
        <ele>1638.22</ele>
        <time>2016-03-13T10:00:52Z</time>
      </trkpt>
      <trkpt lat="46.506061619147658" lon="8.921542754396796">
        <ele>1638.7</ele>
        <time>2016-03-13T10:01:04Z</time>
      </trkpt>
      <trkpt lat="46.505975620821118" lon="8.921465808525682">
        <ele>1640.1500000000001</ele>
        <time>2016-03-13T10:01:17Z</time>
      </trkpt>
      <trkpt lat="46.505897250026464" lon="8.921379642561078">
        <ele>1642.0699999999999</ele>
        <time>2016-03-13T10:01:30Z</time>
      </trkpt>
      <trkpt lat="46.505846288055182" lon="8.921303618699312">
        <ele>1643.03</ele>
        <time>2016-03-13T10:01:39Z</time>
      </trkpt>
      <trkpt lat="46.50577194057405" lon="8.921198341995478">
        <ele>1643.99</ele>
        <time>2016-03-13T10:01:51Z</time>
      </trkpt>
      <trkpt lat="46.505711674690247" lon="8.921105051413178">
        <ele>1645.4300000000001</ele>
        <time>2016-03-13T10:02:04Z</time>
      </trkpt>
      <trkpt lat="46.505653923377395" lon="8.921000948175788">
        <ele>1647.3599999999999</ele>
        <time>2016-03-13T10:02:16Z</time>
      </trkpt>
      <trkpt lat="46.505582509562373" lon="8.92091260291636">
        <ele>1649.28</ele>
        <time>2016-03-13T10:02:29Z</time>
      </trkpt>
      <trkpt lat="46.505538420751691" lon="8.920846302062273">
        <ele>1651.2</ele>
        <time>2016-03-13T10:02:45Z</time>
      </trkpt>
      <trkpt lat="46.505497936159372" lon="8.92080657184124">
        <ele>1652.6400000000001</ele>
        <time>2016-03-13T10:02:57Z</time>
      </trkpt>
      <trkpt lat="46.505492404103279" lon="8.920798525214195">
        <ele>1652.6400000000001</ele>
        <time>2016-03-13T10:03:12Z</time>
      </trkpt>
      <trkpt lat="46.505487123504281" lon="8.920819731429219">
        <ele>1652.6400000000001</ele>
        <time>2016-03-13T10:03:27Z</time>
      </trkpt>
      <trkpt lat="46.505486201494932" lon="8.920796848833561">
        <ele>1652.1600000000001</ele>
        <time>2016-03-13T10:03:46Z</time>
      </trkpt>
      <trkpt lat="46.505483351647854" lon="8.920790143311024">
        <ele>1652.6400000000001</ele>
        <time>2016-03-13T10:04:08Z</time>
      </trkpt>
      <trkpt lat="46.505478490144014" lon="8.920811600983143">
        <ele>1652.6400000000001</ele>
        <time>2016-03-13T10:04:24Z</time>
      </trkpt>
      <trkpt lat="46.505465749651194" lon="8.920798525214195">
        <ele>1652.6400000000001</ele>
        <time>2016-03-13T10:04:39Z</time>
      </trkpt>
      <trkpt lat="46.505470778793097" lon="8.920810678973794">
        <ele>1652.6400000000001</ele>
        <time>2016-03-13T10:04:57Z</time>
      </trkpt>
      <trkpt lat="46.505496092140675" lon="8.920802967622876">
        <ele>1652.1600000000001</ele>
        <time>2016-03-13T10:05:16Z</time>
      </trkpt>
      <trkpt lat="46.505501959472895" lon="8.920807996764779">
        <ele>1652.1600000000001</ele>
        <time>2016-03-13T10:05:29Z</time>
      </trkpt>
      <trkpt lat="46.505504474043846" lon="8.920809254050255">
        <ele>1652.1600000000001</ele>
        <time>2016-03-13T10:05:38Z</time>
      </trkpt>
      <trkpt lat="46.505501875653863" lon="8.920803470537067">
        <ele>1652.6400000000001</ele>
        <time>2016-03-13T10:05:59Z</time>
      </trkpt>
      <trkpt lat="46.505497936159372" lon="8.920800872147083">
        <ele>1652.6400000000001</ele>
        <time>2016-03-13T10:06:11Z</time>
      </trkpt>
      <trkpt lat="46.505488716065884" lon="8.920801375061274">
        <ele>1652.6400000000001</ele>
        <time>2016-03-13T10:06:29Z</time>
      </trkpt>
      <trkpt lat="46.505475807934999" lon="8.920794501900673">
        <ele>1653.1199999999999</ele>
        <time>2016-03-13T10:06:47Z</time>
      </trkpt>
      <trkpt lat="46.505472455173731" lon="8.920808332040906">
        <ele>1652.6400000000001</ele>
        <time>2016-03-13T10:07:03Z</time>
      </trkpt>
      <trkpt lat="46.50547631084919" lon="8.920815791934729">
        <ele>1652.6400000000001</ele>
        <time>2016-03-13T10:07:15Z</time>
      </trkpt>
      <trkpt lat="46.505472371354699" lon="8.920837081968784">
        <ele>1652.6400000000001</ele>
        <time>2016-03-13T10:07:30Z</time>
      </trkpt>
      <trkpt lat="46.505495002493262" lon="8.920839177444577">
        <ele>1652.6400000000001</ele>
        <time>2016-03-13T10:07:46Z</time>
      </trkpt>
      <trkpt lat="46.505506653338671" lon="8.92081294208765">
        <ele>1652.6400000000001</ele>
        <time>2016-03-13T10:08:05Z</time>
      </trkpt>
      <trkpt lat="46.505515538156033" lon="8.920827526599169">
        <ele>1652.6400000000001</ele>
        <time>2016-03-13T10:08:25Z</time>
      </trkpt>
      <trkpt lat="46.505522998049855" lon="8.920822748914361">
        <ele>1652.6400000000001</ele>
        <time>2016-03-13T10:08:44Z</time>
      </trkpt>
      <trkpt lat="46.505519393831491" lon="8.920824760571122">
        <ele>1652.6400000000001</ele>
        <time>2016-03-13T10:09:07Z</time>
      </trkpt>
      <trkpt lat="46.505495170131326" lon="8.920788299292326">
        <ele>1653.1199999999999</ele>
        <time>2016-03-13T10:09:23Z</time>
      </trkpt>
      <trkpt lat="46.505491230636835" lon="8.920799279585481">
        <ele>1651.6800000000001</ele>
        <time>2016-03-13T10:09:28Z</time>
      </trkpt>
      <trkpt lat="46.505485447123647" lon="8.920814618468285">
        <ele>1653.1199999999999</ele>
        <time>2016-03-13T10:09:40Z</time>
      </trkpt>
      <trkpt lat="46.505481256172061" lon="8.920825095847249">
        <ele>1653.1199999999999</ele>
        <time>2016-03-13T10:09:52Z</time>
      </trkpt>
      <trkpt lat="46.50547094643116" lon="8.920819144695997">
        <ele>1653.1199999999999</ele>
        <time>2016-03-13T10:10:04Z</time>
      </trkpt>
      <trkpt lat="46.505440687760711" lon="8.920779582113028">
        <ele>1653.5999999999999</ele>
        <time>2016-03-13T10:10:15Z</time>
      </trkpt>
      <trkpt lat="46.50541135109961" lon="8.920770194381475">
        <ele>1654.0899999999999</ele>
        <time>2016-03-13T10:10:26Z</time>
      </trkpt>
      <trkpt lat="46.505367178469896" lon="8.920660810545087">
        <ele>1655.05</ele>
        <time>2016-03-13T10:10:38Z</time>
      </trkpt>
      <trkpt lat="46.505339602008462" lon="8.920538350939751">
        <ele>1656.97</ele>
        <time>2016-03-13T10:10:50Z</time>
      </trkpt>
      <trkpt lat="46.505279755219817" lon="8.920478839427233">
        <ele>1658.8900000000001</ele>
        <time>2016-03-13T10:11:03Z</time>
      </trkpt>
      <trkpt lat="46.505231391638517" lon="8.920449838042259">
        <ele>1659.8499999999999</ele>
        <time>2016-03-13T10:11:13Z</time>
      </trkpt>
      <trkpt lat="46.505166934803128" lon="8.920429553836584">
        <ele>1660.8099999999999</ele>
        <time>2016-03-13T10:11:22Z</time>
      </trkpt>
      <trkpt lat="46.505091246217489" lon="8.920430559664965">
        <ele>1661.3</ele>
        <time>2016-03-13T10:11:31Z</time>
      </trkpt>
      <trkpt lat="46.504977000877261" lon="8.920410610735416">
        <ele>1661.3</ele>
        <time>2016-03-13T10:11:44Z</time>
      </trkpt>
      <trkpt lat="46.504905167967081" lon="8.92038881778717">
        <ele>1662.26</ele>
        <time>2016-03-13T10:11:55Z</time>
      </trkpt>
      <trkpt lat="46.504857558757067" lon="8.920370796695352">
        <ele>1663.7</ele>
        <time>2016-03-13T10:12:02Z</time>
      </trkpt>
      <trkpt lat="46.504811374470592" lon="8.920288737863302">
        <ele>1665.1400000000001</ele>
        <time>2016-03-13T10:12:15Z</time>
      </trkpt>
      <trkpt lat="46.504769213497639" lon="8.920186562463641">
        <ele>1667.0599999999999</ele>
        <time>2016-03-13T10:12:27Z</time>
      </trkpt>
      <trkpt lat="46.50474046356976" lon="8.920114059001207">
        <ele>1668.99</ele>
        <time>2016-03-13T10:12:38Z</time>
      </trkpt>
      <trkpt lat="46.504692938178778" lon="8.919987073168159">
        <ele>1669.47</ele>
        <time>2016-03-13T10:12:51Z</time>
      </trkpt>
      <trkpt lat="46.504651783034205" lon="8.919889340177178">
        <ele>1671.3900000000001</ele>
        <time>2016-03-13T10:13:04Z</time>
      </trkpt>
      <trkpt lat="46.504614483565092" lon="8.919754140079022">
        <ele>1673.79</ele>
        <time>2016-03-13T10:13:20Z</time>
      </trkpt>
      <trkpt lat="46.504569472745061" lon="8.919634027406573">
        <ele>1674.75</ele>
        <time>2016-03-13T10:13:34Z</time>
      </trkpt>
      <trkpt lat="46.504537034779787" lon="8.919503856450319">
        <ele>1675.72</ele>
        <time>2016-03-13T10:13:48Z</time>
      </trkpt>
      <trkpt lat="46.504498058930039" lon="8.919383324682713">
        <ele>1677.6400000000001</ele>
        <time>2016-03-13T10:14:02Z</time>
      </trkpt>
      <trkpt lat="46.504435446113348" lon="8.919277293607593">
        <ele>1679.5599999999999</ele>
        <time>2016-03-13T10:14:15Z</time>
      </trkpt>
      <trkpt lat="46.50434173643589" lon="8.919224739074707">
        <ele>1681</ele>
        <time>2016-03-13T10:14:29Z</time>
      </trkpt>
      <trkpt lat="46.504255905747414" lon="8.919217446818948">
        <ele>1682.4400000000001</ele>
        <time>2016-03-13T10:14:40Z</time>
      </trkpt>
      <trkpt lat="46.504152808338404" lon="8.919182661920786">
        <ele>1683.8900000000001</ele>
        <time>2016-03-13T10:14:54Z</time>
      </trkpt>
      <trkpt lat="46.50406563654542" lon="8.919158270582557">
        <ele>1685.3299999999999</ele>
        <time>2016-03-13T10:15:07Z</time>
      </trkpt>
      <trkpt lat="46.504019955173135" lon="8.919130442664027">
        <ele>1686.77</ele>
        <time>2016-03-13T10:15:16Z</time>
      </trkpt>
      <trkpt lat="46.503927754238248" lon="8.919113175943494">
        <ele>1688.21</ele>
        <time>2016-03-13T10:15:30Z</time>
      </trkpt>
      <trkpt lat="46.503826919943094" lon="8.919045198708773">
        <ele>1690.1400000000001</ele>
        <time>2016-03-13T10:15:45Z</time>
      </trkpt>
      <trkpt lat="46.503721391782165" lon="8.919067746028304">
        <ele>1691.5799999999999</ele>
        <time>2016-03-13T10:15:58Z</time>
      </trkpt>
      <trkpt lat="46.503641176968813" lon="8.919107560068369">
        <ele>1693.02</ele>
        <time>2016-03-13T10:16:09Z</time>
      </trkpt>
      <trkpt lat="46.503556268289685" lon="8.919061962515116">
        <ele>1694.46</ele>
        <time>2016-03-13T10:16:23Z</time>
      </trkpt>
      <trkpt lat="46.503510922193527" lon="8.918954338878393">
        <ele>1695.9000000000001</ele>
        <time>2016-03-13T10:16:36Z</time>
      </trkpt>
      <trkpt lat="46.503475047647953" lon="8.918803129345179">
        <ele>1698.3099999999999</ele>
        <time>2016-03-13T10:16:50Z</time>
      </trkpt>
      <trkpt lat="46.503450572490692" lon="8.918671365827322">
        <ele>1700.71</ele>
        <time>2016-03-13T10:17:05Z</time>
      </trkpt>
      <trkpt lat="46.503408830612898" lon="8.91854764893651">
        <ele>1702.6300000000001</ele>
        <time>2016-03-13T10:17:18Z</time>
      </trkpt>
      <trkpt lat="46.503403298556805" lon="8.918523341417313">
        <ele>1702.6300000000001</ele>
        <time>2016-03-13T10:17:21Z</time>
      </trkpt>
      <trkpt lat="46.503363735973835" lon="8.918364839628339">
        <ele>1704.55</ele>
        <time>2016-03-13T10:17:37Z</time>
      </trkpt>
      <trkpt lat="46.503341943025589" lon="8.918247241526842">
        <ele>1706</ele>
        <time>2016-03-13T10:17:48Z</time>
      </trkpt>
      <trkpt lat="46.503301793709397" lon="8.918149592354894">
        <ele>1706.96</ele>
        <time>2016-03-13T10:17:59Z</time>
      </trkpt>
      <trkpt lat="46.503261057659984" lon="8.918018499389291">
        <ele>1708.8800000000001</ele>
        <time>2016-03-13T10:18:13Z</time>
      </trkpt>
      <trkpt lat="46.503187129274011" lon="8.91790509223938">
        <ele>1710.8</ele>
        <time>2016-03-13T10:18:27Z</time>
      </trkpt>
      <trkpt lat="46.503151338547468" lon="8.917809287086129">
        <ele>1711.76</ele>
        <time>2016-03-13T10:18:36Z</time>
      </trkpt>
      <trkpt lat="46.503053186461329" lon="8.91769889742136">
        <ele>1713.6900000000001</ele>
        <time>2016-03-13T10:18:52Z</time>
      </trkpt>
      <trkpt lat="46.502974899485707" lon="8.917639972642064">
        <ele>1714.6500000000001</ele>
        <time>2016-03-13T10:19:03Z</time>
      </trkpt>
      <trkpt lat="46.502910694107413" lon="8.91759873367846">
        <ele>1717.05</ele>
        <time>2016-03-13T10:19:14Z</time>
      </trkpt>
      <trkpt lat="46.502902479842305" lon="8.917599907144904">
        <ele>1716.5699999999999</ele>
        <time>2016-03-13T10:19:15Z</time>
      </trkpt>
      <trkpt lat="46.502798041328788" lon="8.917574090883136">
        <ele>1717.05</ele>
        <time>2016-03-13T10:19:26Z</time>
      </trkpt>
      <trkpt lat="46.502742301672697" lon="8.91753570176661">
        <ele>1718.49</ele>
        <time>2016-03-13T10:19:37Z</time>
      </trkpt>
      <trkpt lat="46.502694776281714" lon="8.917470909655094">
        <ele>1719.46</ele>
        <time>2016-03-13T10:19:47Z</time>
      </trkpt>
      <trkpt lat="46.502710534259677" lon="8.917423887178302">
        <ele>1719.9400000000001</ele>
        <time>2016-03-13T10:19:57Z</time>
      </trkpt>
      <trkpt lat="46.502745235338807" lon="8.9173773676157">
        <ele>1720.9000000000001</ele>
        <time>2016-03-13T10:20:09Z</time>
      </trkpt>
      <trkpt lat="46.50279963389039" lon="8.917372757568955">
        <ele>1721.3800000000001</ele>
        <time>2016-03-13T10:20:15Z</time>
      </trkpt>
      <trkpt lat="46.502905245870352" lon="8.917369823902845">
        <ele>1723.3</ele>
        <time>2016-03-13T10:20:26Z</time>
      </trkpt>
      <trkpt lat="46.502981772646308" lon="8.917322549968958">
        <ele>1724.26</ele>
        <time>2016-03-13T10:20:35Z</time>
      </trkpt>
      <trkpt lat="46.502929888665676" lon="8.91730017028749">
        <ele>1725.22</ele>
        <time>2016-03-13T10:20:44Z</time>
      </trkpt>
      <trkpt lat="46.502851434051991" lon="8.917257506400347">
        <ele>1726.6700000000001</ele>
        <time>2016-03-13T10:20:56Z</time>
      </trkpt>
      <trkpt lat="46.502812961116433" lon="8.917166395112872">
        <ele>1729.55</ele>
        <time>2016-03-13T10:21:09Z</time>
      </trkpt>
      <trkpt lat="46.502784127369523" lon="8.917078133672476">
        <ele>1730.99</ele>
        <time>2016-03-13T10:21:22Z</time>
      </trkpt>
      <trkpt lat="46.502773398533463" lon="8.916986184194684">
        <ele>1732.4300000000001</ele>
        <time>2016-03-13T10:21:34Z</time>
      </trkpt>
      <trkpt lat="46.502753617241979" lon="8.916917033493519">
        <ele>1734.3599999999999</ele>
        <time>2016-03-13T10:21:46Z</time>
      </trkpt>
      <trkpt lat="46.502708774060011" lon="8.916877890005708">
        <ele>1735.8</ele>
        <time>2016-03-13T10:21:57Z</time>
      </trkpt>
      <trkpt lat="46.502656219527125" lon="8.91687554307282">
        <ele>1736.28</ele>
        <time>2016-03-13T10:22:08Z</time>
      </trkpt>
      <trkpt lat="46.502611041069031" lon="8.916814438998699">
        <ele>1738.2</ele>
        <time>2016-03-13T10:22:19Z</time>
      </trkpt>
      <trkpt lat="46.502605341374874" lon="8.916717125102878">
        <ele>1739.6400000000001</ele>
        <time>2016-03-13T10:22:29Z</time>
      </trkpt>
      <trkpt lat="46.502573406323791" lon="8.916599275544286">
        <ele>1741.0799999999999</ele>
        <time>2016-03-13T10:22:40Z</time>
      </trkpt>
      <trkpt lat="46.502573406323791" lon="8.916523670777679">
        <ele>1742.05</ele>
        <time>2016-03-13T10:22:49Z</time>
      </trkpt>
      <trkpt lat="46.502571562305093" lon="8.916431721299887">
        <ele>1743.49</ele>
        <time>2016-03-13T10:22:59Z</time>
      </trkpt>
      <trkpt lat="46.502569802105427" lon="8.916320325806737">
        <ele>1744.9300000000001</ele>
        <time>2016-03-13T10:23:10Z</time>
      </trkpt>
      <trkpt lat="46.502559240907431" lon="8.91620222479105">
        <ele>1744.9300000000001</ele>
        <time>2016-03-13T10:23:21Z</time>
      </trkpt>
      <trkpt lat="46.502510039135814" lon="8.916085632517934">
        <ele>1745.4100000000001</ele>
        <time>2016-03-13T10:23:32Z</time>
      </trkpt>
      <trkpt lat="46.502491515129805" lon="8.916057050228119">
        <ele>1745.8900000000001</ele>
        <time>2016-03-13T10:23:36Z</time>
      </trkpt>
      <trkpt lat="46.502426052466035" lon="8.915974320843816">
        <ele>1746.8499999999999</ele>
        <time>2016-03-13T10:23:48Z</time>
      </trkpt>
      <trkpt lat="46.5023725759238" lon="8.915910115465522">
        <ele>1748.29</ele>
        <time>2016-03-13T10:23:58Z</time>
      </trkpt>
      <trkpt lat="46.502283476293087" lon="8.915856219828129">
        <ele>1749.74</ele>
        <time>2016-03-13T10:24:10Z</time>
      </trkpt>
      <trkpt lat="46.502195382490754" lon="8.915813304483891">
        <ele>1751.1800000000001</ele>
        <time>2016-03-13T10:24:22Z</time>
      </trkpt>
      <trkpt lat="46.502160597592592" lon="8.915813975036144">
        <ele>1751.1800000000001</ele>
        <time>2016-03-13T10:24:26Z</time>
      </trkpt>
      <trkpt lat="46.502130003646016" lon="8.915831744670868">
        <ele>1752.1400000000001</ele>
        <time>2016-03-13T10:24:38Z</time>
      </trkpt>
      <trkpt lat="46.502128075808287" lon="8.915834510698915">
        <ele>1752.1400000000001</ele>
        <time>2016-03-13T10:24:52Z</time>
      </trkpt>
      <trkpt lat="46.502074263989925" lon="8.915851693600416">
        <ele>1753.0999999999999</ele>
        <time>2016-03-13T10:25:01Z</time>
      </trkpt>
      <trkpt lat="46.501998407766223" lon="8.915877928957343">
        <ele>1754.54</ele>
        <time>2016-03-13T10:25:11Z</time>
      </trkpt>
      <trkpt lat="46.501920120790601" lon="8.915875414386392">
        <ele>1755.5</ele>
        <time>2016-03-13T10:25:22Z</time>
      </trkpt>
      <trkpt lat="46.501894472166896" lon="8.915853118523955">
        <ele>1755.99</ele>
        <time>2016-03-13T10:25:29Z</time>
      </trkpt>
      <trkpt lat="46.501797409728169" lon="8.915794026106596">
        <ele>1757.4300000000001</ele>
        <time>2016-03-13T10:25:40Z</time>
      </trkpt>
      <trkpt lat="46.501733623445034" lon="8.915760666131973">
        <ele>1758.3900000000001</ele>
        <time>2016-03-13T10:25:50Z</time>
      </trkpt>
      <trkpt lat="46.501650894060731" lon="8.915734682232142">
        <ele>1759.3499999999999</ele>
        <time>2016-03-13T10:26:01Z</time>
      </trkpt>
      <trkpt lat="46.501548970118165" lon="8.915710207074881">
        <ele>1760.3099999999999</ele>
        <time>2016-03-13T10:26:12Z</time>
      </trkpt>
      <trkpt lat="46.501546036452055" lon="8.915709368884563">
        <ele>1760.79</ele>
        <time>2016-03-13T10:26:14Z</time>
      </trkpt>
      <trkpt lat="46.501523572951555" lon="8.915701489895582">
        <ele>1760.3099999999999</ele>
        <time>2016-03-13T10:26:17Z</time>
      </trkpt>
      <trkpt lat="46.501448890194297" lon="8.915674416348338">
        <ele>1761.75</ele>
        <time>2016-03-13T10:26:28Z</time>
      </trkpt>
      <trkpt lat="46.501385858282447" lon="8.915656814351678">
        <ele>1762.23</ele>
        <time>2016-03-13T10:26:40Z</time>
      </trkpt>
      <trkpt lat="46.501362221315503" lon="8.91565446741879">
        <ele>1762.23</ele>
        <time>2016-03-13T10:26:55Z</time>
      </trkpt>
      <trkpt lat="46.501355851069093" lon="8.91565689817071">
        <ele>1761.75</ele>
        <time>2016-03-13T10:26:56Z</time>
      </trkpt>
      <trkpt lat="46.501229200512171" lon="8.915644912049174">
        <ele>1762.71</ele>
        <time>2016-03-13T10:27:09Z</time>
      </trkpt>
      <trkpt lat="46.501128617674112" lon="8.915635189041495">
        <ele>1763.6800000000001</ele>
        <time>2016-03-13T10:27:19Z</time>
      </trkpt>
      <trkpt lat="46.501007582992315" lon="8.915560422465205">
        <ele>1763.6800000000001</ele>
        <time>2016-03-13T10:27:31Z</time>
      </trkpt>
      <trkpt lat="46.500917812809348" lon="8.915443411096931">
        <ele>1762.71</ele>
        <time>2016-03-13T10:27:43Z</time>
      </trkpt>
      <trkpt lat="46.500811614096165" lon="8.915364537388086">
        <ele>1763.2</ele>
        <time>2016-03-13T10:27:55Z</time>
      </trkpt>
      <trkpt lat="46.500709941610694" lon="8.915290357545018">
        <ele>1763.6800000000001</ele>
        <time>2016-03-13T10:28:06Z</time>
      </trkpt>
      <trkpt lat="46.500609945505857" lon="8.915173346176744">
        <ele>1763.2</ele>
        <time>2016-03-13T10:28:18Z</time>
      </trkpt>
      <trkpt lat="46.500527719035745" lon="8.915039571002126">
        <ele>1763.6800000000001</ele>
        <time>2016-03-13T10:28:29Z</time>
      </trkpt>
      <trkpt lat="46.500448761507869" lon="8.91492985188961">
        <ele>1763.6800000000001</ele>
        <time>2016-03-13T10:28:39Z</time>
      </trkpt>
      <trkpt lat="46.500365193933249" lon="8.91486681997776">
        <ele>1763.2</ele>
        <time>2016-03-13T10:28:49Z</time>
      </trkpt>
      <trkpt lat="46.500324625521898" lon="8.914849972352386">
        <ele>1763.6800000000001</ele>
        <time>2016-03-13T10:28:53Z</time>
      </trkpt>
      <trkpt lat="46.500308029353619" lon="8.914847206324339">
        <ele>1763.2</ele>
        <time>2016-03-13T10:28:55Z</time>
      </trkpt>
      <trkpt lat="46.500190012156963" lon="8.91481501981616">
        <ele>1764.6400000000001</ele>
        <time>2016-03-13T10:29:07Z</time>
      </trkpt>
      <trkpt lat="46.500109629705548" lon="8.914712760597467">
        <ele>1765.1199999999999</ele>
        <time>2016-03-13T10:29:17Z</time>
      </trkpt>
      <trkpt lat="46.500034108757973" lon="8.914591977372766">
        <ele>1765.5999999999999</ele>
        <time>2016-03-13T10:29:28Z</time>
      </trkpt>
      <trkpt lat="46.49995825253427" lon="8.914477983489633">
        <ele>1766.5599999999999</ele>
        <time>2016-03-13T10:29:39Z</time>
      </trkpt>
      <trkpt lat="46.499890442937613" lon="8.914370024576783">
        <ele>1767.04</ele>
        <time>2016-03-13T10:29:50Z</time>
      </trkpt>
      <trkpt lat="46.499835876747966" lon="8.914251672104001">
        <ele>1768.48</ele>
        <time>2016-03-13T10:30:02Z</time>
      </trkpt>
      <trkpt lat="46.499835038557649" lon="8.914256533607841">
        <ele>1768.48</ele>
        <time>2016-03-13T10:30:13Z</time>
      </trkpt>
      <trkpt lat="46.499818107113242" lon="8.914219988510013">
        <ele>1768.48</ele>
        <time>2016-03-13T10:30:23Z</time>
      </trkpt>
      <trkpt lat="46.499779298901558" lon="8.914063246920705">
        <ele>1768.96</ele>
        <time>2016-03-13T10:30:34Z</time>
      </trkpt>
      <trkpt lat="46.499743508175015" lon="8.913916982710362">
        <ele>1769.4400000000001</ele>
        <time>2016-03-13T10:30:44Z</time>
      </trkpt>
      <trkpt lat="46.499730348587036" lon="8.913786225020886">
        <ele>1770.4100000000001</ele>
        <time>2016-03-13T10:30:54Z</time>
      </trkpt>
      <trkpt lat="46.499690618366003" lon="8.91366183757782">
        <ele>1770.8900000000001</ele>
        <time>2016-03-13T10:31:04Z</time>
      </trkpt>
      <trkpt lat="46.499681230634451" lon="8.913652030751109">
        <ele>1771.3699999999999</ele>
        <time>2016-03-13T10:31:14Z</time>
      </trkpt>
      <trkpt lat="46.499668238684535" lon="8.913619257509708">
        <ele>1771.3699999999999</ele>
        <time>2016-03-13T10:31:31Z</time>
      </trkpt>
      <trkpt lat="46.499642422422767" lon="8.913444243371487">
        <ele>1772.3299999999999</ele>
        <time>2016-03-13T10:31:43Z</time>
      </trkpt>
      <trkpt lat="46.499631190672517" lon="8.913389928638935">
        <ele>1772.8099999999999</ele>
        <time>2016-03-13T10:31:47Z</time>
      </trkpt>
      <trkpt lat="46.499617528170347" lon="8.913245089352131">
        <ele>1774.73</ele>
        <time>2016-03-13T10:31:58Z</time>
      </trkpt>
      <trkpt lat="46.499585844576359" lon="8.913078540936112">
        <ele>1776.1700000000001</ele>
        <time>2016-03-13T10:32:11Z</time>
      </trkpt>
      <trkpt lat="46.499559944495559" lon="8.912967899814248">
        <ele>1778.5799999999999</ele>
        <time>2016-03-13T10:32:21Z</time>
      </trkpt>
      <trkpt lat="46.499538067728281" lon="8.912840662524104">
        <ele>1779.0599999999999</ele>
        <time>2016-03-13T10:32:33Z</time>
      </trkpt>
      <trkpt lat="46.499528177082539" lon="8.912799758836627">
        <ele>1779.54</ele>
        <time>2016-03-13T10:32:44Z</time>
      </trkpt>
      <trkpt lat="46.499540163204074" lon="8.91275642439723">
        <ele>1780.02</ele>
        <time>2016-03-13T10:32:57Z</time>
      </trkpt>
      <trkpt lat="46.499514849856496" lon="8.912658775225282">
        <ele>1780.5</ele>
        <time>2016-03-13T10:33:06Z</time>
      </trkpt>
      <trkpt lat="46.499476796016097" lon="8.912516534328461">
        <ele>1780.98</ele>
        <time>2016-03-13T10:33:17Z</time>
      </trkpt>
      <trkpt lat="46.499440250918269" lon="8.912404049187899">
        <ele>1781.46</ele>
        <time>2016-03-13T10:33:26Z</time>
      </trkpt>
      <trkpt lat="46.499419044703245" lon="8.912395164370537">
        <ele>1781.9400000000001</ele>
        <time>2016-03-13T10:33:37Z</time>
      </trkpt>
      <trkpt lat="46.499411249533296" lon="8.912388291209936">
        <ele>1782.4200000000001</ele>
        <time>2016-03-13T10:33:40Z</time>
      </trkpt>
      <trkpt lat="46.499348888173699" lon="8.912342190742493">
        <ele>1784.3399999999999</ele>
        <time>2016-03-13T10:33:52Z</time>
      </trkpt>
      <trkpt lat="46.499291807413101" lon="8.912272620946169">
        <ele>1786.75</ele>
        <time>2016-03-13T10:34:05Z</time>
      </trkpt>
      <trkpt lat="46.499239420518279" lon="8.912203218787909">
        <ele>1788.1900000000001</ele>
        <time>2016-03-13T10:34:17Z</time>
      </trkpt>
      <trkpt lat="46.499180914834142" lon="8.912164578214288">
        <ele>1789.6300000000001</ele>
        <time>2016-03-13T10:34:27Z</time>
      </trkpt>
      <trkpt lat="46.499137161299586" lon="8.912127697840333">
        <ele>1791.55</ele>
        <time>2016-03-13T10:34:40Z</time>
      </trkpt>
      <trkpt lat="46.499062813818455" lon="8.912064163014293">
        <ele>1793.48</ele>
        <time>2016-03-13T10:34:52Z</time>
      </trkpt>
      <trkpt lat="46.499040769413114" lon="8.912053937092423">
        <ele>1793.48</ele>
        <time>2016-03-13T10:34:55Z</time>
      </trkpt>
      <trkpt lat="46.49896533228457" lon="8.9120137039572">
        <ele>1794.9200000000001</ele>
        <time>2016-03-13T10:35:06Z</time>
      </trkpt>
      <trkpt lat="46.498895008116961" lon="8.91195117495954">
        <ele>1796.3599999999999</ele>
        <time>2016-03-13T10:35:18Z</time>
      </trkpt>
      <trkpt lat="46.498824851587415" lon="8.911863332614303">
        <ele>1797.3199999999999</ele>
        <time>2016-03-13T10:35:30Z</time>
      </trkpt>
      <trkpt lat="46.498780762776732" lon="8.911758055910468">
        <ele>1798.28</ele>
        <time>2016-03-13T10:35:42Z</time>
      </trkpt>
      <trkpt lat="46.498757628723979" lon="8.911640960723162">
        <ele>1799.73</ele>
        <time>2016-03-13T10:35:54Z</time>
      </trkpt>
      <trkpt lat="46.498744804412127" lon="8.911561416462064">
        <ele>1801.1700000000001</ele>
        <time>2016-03-13T10:36:05Z</time>
      </trkpt>
      <trkpt lat="46.498725190758705" lon="8.911539623513818">
        <ele>1801.6500000000001</ele>
        <time>2016-03-13T10:36:14Z</time>
      </trkpt>
      <trkpt lat="46.498729968443513" lon="8.911526799201965">
        <ele>1801.6500000000001</ele>
        <time>2016-03-13T10:36:21Z</time>
      </trkpt>
      <trkpt lat="46.498662913218141" lon="8.911408195272088">
        <ele>1802.1300000000001</ele>
        <time>2016-03-13T10:36:33Z</time>
      </trkpt>
      <trkpt lat="46.498587476089597" lon="8.911331249400973">
        <ele>1802.6099999999999</ele>
        <time>2016-03-13T10:36:43Z</time>
      </trkpt>
      <trkpt lat="46.498516900464892" lon="8.911286909133196">
        <ele>1804.05</ele>
        <time>2016-03-13T10:36:54Z</time>
      </trkpt>
      <trkpt lat="46.498431488871574" lon="8.911249777302146">
        <ele>1805.97</ele>
        <time>2016-03-13T10:37:06Z</time>
      </trkpt>
      <trkpt lat="46.498355213552713" lon="8.911212310194969">
        <ele>1807.4200000000001</ele>
        <time>2016-03-13T10:37:18Z</time>
      </trkpt>
      <trkpt lat="46.498358566313982" lon="8.911192277446389">
        <ele>1807.9000000000001</ele>
        <time>2016-03-13T10:37:37Z</time>
      </trkpt>
      <trkpt lat="46.498283632099628" lon="8.911152128130198">
        <ele>1809.3399999999999</ele>
        <time>2016-03-13T10:37:47Z</time>
      </trkpt>
      <trkpt lat="46.498190509155393" lon="8.911108542233706">
        <ele>1810.3</ele>
        <time>2016-03-13T10:37:59Z</time>
      </trkpt>
      <trkpt lat="46.498200986534357" lon="8.911112984642386">
        <ele>1810.3</ele>
        <time>2016-03-13T10:38:08Z</time>
      </trkpt>
      <trkpt lat="46.498210458084941" lon="8.911108206957579">
        <ele>1810.3</ele>
        <time>2016-03-13T10:38:18Z</time>
      </trkpt>
      <trkpt lat="46.498197466135025" lon="8.911103932186961">
        <ele>1810.3</ele>
        <time>2016-03-13T10:38:28Z</time>
      </trkpt>
      <trkpt lat="46.498192185536027" lon="8.911116421222687">
        <ele>1810.78</ele>
        <time>2016-03-13T10:38:43Z</time>
      </trkpt>
      <trkpt lat="46.498153964057565" lon="8.911188254132867">
        <ele>1809.8199999999999</ele>
        <time>2016-03-13T10:38:49Z</time>
      </trkpt>
      <trkpt lat="46.498130243271589" lon="8.911164700984955">
        <ele>1809.3399999999999</ele>
        <time>2016-03-13T10:39:01Z</time>
      </trkpt>
      <trkpt lat="46.498122699558735" lon="8.911167215555906">
        <ele>1808.8599999999999</ele>
        <time>2016-03-13T10:39:16Z</time>
      </trkpt>
      <trkpt lat="46.498153544962406" lon="8.91111901961267">
        <ele>1809.8199999999999</ele>
        <time>2016-03-13T10:39:31Z</time>
      </trkpt>
      <trkpt lat="46.498176930472255" lon="8.911087084561586">
        <ele>1810.3</ele>
        <time>2016-03-13T10:39:41Z</time>
      </trkpt>
      <trkpt lat="46.498166956007481" lon="8.911123713478446">
        <ele>1810.3</ele>
        <time>2016-03-13T10:39:59Z</time>
      </trkpt>
      <trkpt lat="46.498167626559734" lon="8.911124719306827">
        <ele>1810.3</ele>
        <time>2016-03-13T10:40:15Z</time>
      </trkpt>
      <trkpt lat="46.498170644044876" lon="8.911133101209998">
        <ele>1811.74</ele>
        <time>2016-03-13T10:40:25Z</time>
      </trkpt>
      <trkpt lat="46.49817525409162" lon="8.91111851669848">
        <ele>1809.8199999999999</ele>
        <time>2016-03-13T10:40:40Z</time>
      </trkpt>
      <trkpt lat="46.498175924643874" lon="8.911127736791968">
        <ele>1810.3</ele>
        <time>2016-03-13T10:41:00Z</time>
      </trkpt>
      <trkpt lat="46.49817961268127" lon="8.911084989085794">
        <ele>1810.78</ele>
        <time>2016-03-13T10:41:16Z</time>
      </trkpt>
      <trkpt lat="46.498113814741373" lon="8.911076942458749">
        <ele>1810.78</ele>
        <time>2016-03-13T10:41:27Z</time>
      </trkpt>
      <trkpt lat="46.498098727315664" lon="8.911092197522521">
        <ele>1810.3</ele>
        <time>2016-03-13T10:41:29Z</time>
      </trkpt>
      <trkpt lat="46.498023876920342" lon="8.911067554727197">
        <ele>1810.3</ele>
        <time>2016-03-13T10:41:39Z</time>
      </trkpt>
      <trkpt lat="46.498008705675602" lon="8.911048695445061">
        <ele>1810.3</ele>
        <time>2016-03-13T10:41:47Z</time>
      </trkpt>
      <trkpt lat="46.498012980446219" lon="8.911014413461089">
        <ele>1810.3</ele>
        <time>2016-03-13T10:42:00Z</time>
      </trkpt>
      <trkpt lat="46.497993618249893" lon="8.911017011851072">
        <ele>1810.3</ele>
        <time>2016-03-13T10:42:07Z</time>
      </trkpt>
      <trkpt lat="46.497972076758742" lon="8.911005025729537">
        <ele>1809.3399999999999</ele>
        <time>2016-03-13T10:42:13Z</time>
      </trkpt>
      <trkpt lat="46.497988421469927" lon="8.911025645211339">
        <ele>1809.3399999999999</ele>
        <time>2016-03-13T10:42:31Z</time>
      </trkpt>
      <trkpt lat="46.497974507510662" lon="8.911036876961589">
        <ele>1808.8599999999999</ele>
        <time>2016-03-13T10:43:00Z</time>
      </trkpt>
      <trkpt lat="46.497981632128358" lon="8.911039223894477">
        <ele>1809.3399999999999</ele>
        <time>2016-03-13T10:43:28Z</time>
      </trkpt>
      <trkpt lat="46.4979846496135" lon="8.911035787314177">
        <ele>1808.8599999999999</ele>
        <time>2016-03-13T10:43:52Z</time>
      </trkpt>
      <trkpt lat="46.49799638427794" lon="8.911030003800988">
        <ele>1808.8599999999999</ele>
        <time>2016-03-13T10:44:12Z</time>
      </trkpt>
      <trkpt lat="46.497986074537039" lon="8.911019777879119">
        <ele>1808.8599999999999</ele>
        <time>2016-03-13T10:44:40Z</time>
      </trkpt>
      <trkpt lat="46.497995797544718" lon="8.911020280793309">
        <ele>1808.8599999999999</ele>
        <time>2016-03-13T10:45:17Z</time>
      </trkpt>
      <trkpt lat="46.497981967404485" lon="8.911022711545229">
        <ele>1808.3800000000001</ele>
        <time>2016-03-13T10:45:56Z</time>
      </trkpt>
      <trkpt lat="46.497989511117339" lon="8.911019107326865">
        <ele>1808.3800000000001</ele>
        <time>2016-03-13T10:46:24Z</time>
      </trkpt>
      <trkpt lat="46.497997641563416" lon="8.911013994365931">
        <ele>1808.3800000000001</ele>
        <time>2016-03-13T10:46:55Z</time>
      </trkpt>
      <trkpt lat="46.498000994324684" lon="8.911013072356582">
        <ele>1808.3800000000001</ele>
        <time>2016-03-13T10:47:35Z</time>
      </trkpt>
      <trkpt lat="46.497990433126688" lon="8.911014162003994">
        <ele>1807.9000000000001</ele>
        <time>2016-03-13T10:48:05Z</time>
      </trkpt>
      <trkpt lat="46.497982470318675" lon="8.911024555563927">
        <ele>1807.9000000000001</ele>
        <time>2016-03-13T10:48:37Z</time>
      </trkpt>
      <trkpt lat="46.497985068708658" lon="8.911026734858751">
        <ele>1808.3800000000001</ele>
        <time>2016-03-13T10:49:08Z</time>
      </trkpt>
      <trkpt lat="46.497993115335703" lon="8.911009719595313">
        <ele>1807.9000000000001</ele>
        <time>2016-03-13T10:49:43Z</time>
      </trkpt>
      <trkpt lat="46.497993115335703" lon="8.911016508936882">
        <ele>1807.9000000000001</ele>
        <time>2016-03-13T10:50:12Z</time>
      </trkpt>
      <trkpt lat="46.498001245781779" lon="8.911002092063427">
        <ele>1807.9000000000001</ele>
        <time>2016-03-13T10:50:34Z</time>
      </trkpt>
      <trkpt lat="46.497996635735035" lon="8.911006869748235">
        <ele>1807.9000000000001</ele>
        <time>2016-03-13T10:51:05Z</time>
      </trkpt>
      <trkpt lat="46.497993199154735" lon="8.911012401804328">
        <ele>1807.9000000000001</ele>
        <time>2016-03-13T10:51:36Z</time>
      </trkpt>
      <trkpt lat="46.497981296852231" lon="8.911008546128869">
        <ele>1807.4200000000001</ele>
        <time>2016-03-13T10:52:02Z</time>
      </trkpt>
      <trkpt lat="46.497978949919343" lon="8.911018269136548">
        <ele>1807.4200000000001</ele>
        <time>2016-03-13T10:52:34Z</time>
      </trkpt>
      <trkpt lat="46.497986325994134" lon="8.911018101498485">
        <ele>1807.4200000000001</ele>
        <time>2016-03-13T10:53:07Z</time>
      </trkpt>
      <trkpt lat="46.497993115335703" lon="8.91102178953588">
        <ele>1807.4200000000001</ele>
        <time>2016-03-13T10:53:24Z</time>
      </trkpt>
      <trkpt lat="46.498007448390126" lon="8.911008797585964">
        <ele>1807.4200000000001</ele>
        <time>2016-03-13T10:53:31Z</time>
      </trkpt>
      <trkpt lat="46.49802035652101" lon="8.911025477573276">
        <ele>1808.3800000000001</ele>
        <time>2016-03-13T10:53:43Z</time>
      </trkpt>
      <trkpt lat="46.498004095628858" lon="8.911020448431373">
        <ele>1808.3800000000001</ele>
        <time>2016-03-13T10:54:01Z</time>
      </trkpt>
      <trkpt lat="46.4980174228549" lon="8.911008629947901">
        <ele>1808.3800000000001</ele>
        <time>2016-03-13T10:54:12Z</time>
      </trkpt>
      <trkpt lat="46.498023960739374" lon="8.910997062921524">
        <ele>1807.9000000000001</ele>
        <time>2016-03-13T10:54:30Z</time>
      </trkpt>
      <trkpt lat="46.498046591877937" lon="8.911019023507834">
        <ele>1808.3800000000001</ele>
        <time>2016-03-13T10:54:42Z</time>
      </trkpt>
      <trkpt lat="46.498090093955398" lon="8.911052215844393">
        <ele>1807.9000000000001</ele>
        <time>2016-03-13T10:54:51Z</time>
      </trkpt>
      <trkpt lat="46.498126219958067" lon="8.911045761778951">
        <ele>1808.3800000000001</ele>
        <time>2016-03-13T10:54:59Z</time>
      </trkpt>
      <trkpt lat="46.498137367889285" lon="8.911030506715179">
        <ele>1808.8599999999999</ele>
        <time>2016-03-13T10:55:07Z</time>
      </trkpt>
      <trkpt lat="46.498163770884275" lon="8.911004271358252">
        <ele>1808.8599999999999</ele>
        <time>2016-03-13T10:55:19Z</time>
      </trkpt>
      <trkpt lat="46.498166704550385" lon="8.910917351022363">
        <ele>1809.8199999999999</ele>
        <time>2016-03-13T10:55:30Z</time>
      </trkpt>
      <trkpt lat="46.498165363445878" lon="8.910853145644069">
        <ele>1810.78</ele>
        <time>2016-03-13T10:55:40Z</time>
      </trkpt>
      <trkpt lat="46.49817181751132" lon="8.910827999934554">
        <ele>1810.78</ele>
        <time>2016-03-13T10:55:51Z</time>
      </trkpt>
      <trkpt lat="46.498162262141705" lon="8.910756502300501">
        <ele>1811.74</ele>
        <time>2016-03-13T10:56:01Z</time>
      </trkpt>
      <trkpt lat="46.498160921037197" lon="8.910681065171957">
        <ele>1812.7</ele>
        <time>2016-03-13T10:56:11Z</time>
      </trkpt>
      <trkpt lat="46.498159663751721" lon="8.910668911412358">
        <ele>1812.7</ele>
        <time>2016-03-13T10:56:13Z</time>
      </trkpt>
      <trkpt lat="46.49821481667459" lon="8.910587355494499">
        <ele>1813.1800000000001</ele>
        <time>2016-03-13T10:56:22Z</time>
      </trkpt>
      <trkpt lat="46.498265191912651" lon="8.910500770434737">
        <ele>1815.1099999999999</ele>
        <time>2016-03-13T10:56:33Z</time>
      </trkpt>
      <trkpt lat="46.498295702040195" lon="8.910379903391004">
        <ele>1814.6300000000001</ele>
        <time>2016-03-13T10:56:44Z</time>
      </trkpt>
      <trkpt lat="46.498311879113317" lon="8.910324582830071">
        <ele>1814.6300000000001</ele>
        <time>2016-03-13T10:56:52Z</time>
      </trkpt>
      <trkpt lat="46.498359236866236" lon="8.91019064001739">
        <ele>1815.1099999999999</ele>
        <time>2016-03-13T10:57:04Z</time>
      </trkpt>
      <trkpt lat="46.498358063399792" lon="8.910173289477825">
        <ele>1815.1099999999999</ele>
        <time>2016-03-13T10:57:13Z</time>
      </trkpt>
      <trkpt lat="46.498407684266567" lon="8.910055607557297">
        <ele>1814.6300000000001</ele>
        <time>2016-03-13T10:57:23Z</time>
      </trkpt>
      <trkpt lat="46.498459232971072" lon="8.909923508763313">
        <ele>1813.6600000000001</ele>
        <time>2016-03-13T10:57:33Z</time>
      </trkpt>
      <trkpt lat="46.498501310124993" lon="8.90979970805347">
        <ele>1812.7</ele>
        <time>2016-03-13T10:57:46Z</time>
      </trkpt>
      <trkpt lat="46.498540872707963" lon="8.909687390550971">
        <ele>1812.7</ele>
        <time>2016-03-13T10:57:55Z</time>
      </trkpt>
      <trkpt lat="46.498555121943355" lon="8.909591669216752">
        <ele>1812.22</ele>
        <time>2016-03-13T10:58:02Z</time>
      </trkpt>
      <trkpt lat="46.498580854386091" lon="8.909487733617425">
        <ele>1812.22</ele>
        <time>2016-03-13T10:58:14Z</time>
      </trkpt>
      <trkpt lat="46.498572556301951" lon="8.909471388906241">
        <ele>1813.1800000000001</ele>
        <time>2016-03-13T10:58:34Z</time>
      </trkpt>
      <trkpt lat="46.498587979003787" lon="8.909300481900573">
        <ele>1811.74</ele>
        <time>2016-03-13T10:58:45Z</time>
      </trkpt>
      <trkpt lat="46.498593259602785" lon="8.909159665927291">
        <ele>1812.7</ele>
        <time>2016-03-13T10:58:55Z</time>
      </trkpt>
      <trkpt lat="46.498592253774405" lon="8.909009378403425">
        <ele>1813.6600000000001</ele>
        <time>2016-03-13T10:59:08Z</time>
      </trkpt>
      <trkpt lat="46.498594097793102" lon="8.908872334286571">
        <ele>1814.6300000000001</ele>
        <time>2016-03-13T10:59:19Z</time>
      </trkpt>
      <trkpt lat="46.498599126935005" lon="8.908755406737328">
        <ele>1815.5899999999999</ele>
        <time>2016-03-13T10:59:29Z</time>
      </trkpt>
      <trkpt lat="46.498601390048862" lon="8.908608136698604">
        <ele>1816.55</ele>
        <time>2016-03-13T10:59:42Z</time>
      </trkpt>
      <trkpt lat="46.498609017580748" lon="8.908472852781415">
        <ele>1817.03</ele>
        <time>2016-03-13T10:59:53Z</time>
      </trkpt>
      <trkpt lat="46.498629301786423" lon="8.908359277993441">
        <ele>1817.99</ele>
        <time>2016-03-13T11:00:04Z</time>
      </trkpt>
      <trkpt lat="46.498635085299611" lon="8.908245032653213">
        <ele>1818.47</ele>
        <time>2016-03-13T11:00:14Z</time>
      </trkpt>
      <trkpt lat="46.498653274029493" lon="8.908111089840531">
        <ele>1819.4300000000001</ele>
        <time>2016-03-13T11:00:26Z</time>
      </trkpt>
      <trkpt lat="46.498671462759376" lon="8.907998604699969">
        <ele>1820.3900000000001</ele>
        <time>2016-03-13T11:00:37Z</time>
      </trkpt>
      <trkpt lat="46.498688478022814" lon="8.907864997163415">
        <ele>1821.3499999999999</ele>
        <time>2016-03-13T11:00:50Z</time>
      </trkpt>
      <trkpt lat="46.498690657317638" lon="8.907857034355402">
        <ele>1821.8399999999999</ele>
        <time>2016-03-13T11:00:59Z</time>
      </trkpt>
      <trkpt lat="46.498690908774734" lon="8.907739436253905">
        <ele>1822.8</ele>
        <time>2016-03-13T11:01:15Z</time>
      </trkpt>
      <trkpt lat="46.498686131089926" lon="8.907611612230539">
        <ele>1823.76</ele>
        <time>2016-03-13T11:01:27Z</time>
      </trkpt>
      <trkpt lat="46.498683365061879" lon="8.907488146796823">
        <ele>1826.1600000000001</ele>
        <time>2016-03-13T11:01:41Z</time>
      </trkpt>
      <trkpt lat="46.498686969280243" lon="8.907406255602837">
        <ele>1828.0799999999999</ele>
        <time>2016-03-13T11:01:52Z</time>
      </trkpt>
      <trkpt lat="46.498672887682915" lon="8.907323190942407">
        <ele>1830.49</ele>
        <time>2016-03-13T11:02:05Z</time>
      </trkpt>
      <trkpt lat="46.498675486072898" lon="8.907270720228553">
        <ele>1832.4100000000001</ele>
        <time>2016-03-13T11:02:16Z</time>
      </trkpt>
      <trkpt lat="46.498670289292932" lon="8.90721975825727">
        <ele>1833.8499999999999</ele>
        <time>2016-03-13T11:02:24Z</time>
      </trkpt>
      <trkpt lat="46.498663416132331" lon="8.907183045521379">
        <ele>1835.29</ele>
        <time>2016-03-13T11:02:34Z</time>
      </trkpt>
      <trkpt lat="46.498655872419477" lon="8.907109033316374">
        <ele>1837.22</ele>
        <time>2016-03-13T11:02:45Z</time>
      </trkpt>
      <trkpt lat="46.498660817742348" lon="8.907039044424892">
        <ele>1838.1800000000001</ele>
        <time>2016-03-13T11:02:55Z</time>
      </trkpt>
      <trkpt lat="46.498666601255536" lon="8.906967882066965">
        <ele>1839.6199999999999</ele>
        <time>2016-03-13T11:03:05Z</time>
      </trkpt>
      <trkpt lat="46.498656878247857" lon="8.906908705830574">
        <ele>1841.0599999999999</ele>
        <time>2016-03-13T11:03:16Z</time>
      </trkpt>
      <trkpt lat="46.498660314828157" lon="8.906825054436922">
        <ele>1842.98</ele>
        <time>2016-03-13T11:03:28Z</time>
      </trkpt>
      <trkpt lat="46.498663667589426" lon="8.906750287860632">
        <ele>1844.4300000000001</ele>
        <time>2016-03-13T11:03:38Z</time>
      </trkpt>
      <trkpt lat="46.498674480244517" lon="8.906733188778162">
        <ele>1845.3900000000001</ele>
        <time>2016-03-13T11:03:47Z</time>
      </trkpt>
      <trkpt lat="46.498710857704282" lon="8.906681723892689">
        <ele>1845.8699999999999</ele>
        <time>2016-03-13T11:03:57Z</time>
      </trkpt>
      <trkpt lat="46.498761065304279" lon="8.906609555706382">
        <ele>1847.79</ele>
        <time>2016-03-13T11:04:09Z</time>
      </trkpt>
      <trkpt lat="46.498805405572057" lon="8.906561443582177">
        <ele>1849.23</ele>
        <time>2016-03-13T11:04:20Z</time>
      </trkpt>
      <trkpt lat="46.4988515060395" lon="8.906502015888691">
        <ele>1850.1900000000001</ele>
        <time>2016-03-13T11:04:30Z</time>
      </trkpt>
      <trkpt lat="46.498862151056528" lon="8.906450634822249">
        <ele>1852.1199999999999</ele>
        <time>2016-03-13T11:04:42Z</time>
      </trkpt>
      <trkpt lat="46.498867431655526" lon="8.90637343749404">
        <ele>1854.04</ele>
        <time>2016-03-13T11:04:52Z</time>
      </trkpt>
      <trkpt lat="46.498866509646177" lon="8.906341753900051">
        <ele>1855.48</ele>
        <time>2016-03-13T11:05:01Z</time>
      </trkpt>
      <trkpt lat="46.498876316472888" lon="8.906258773058653">
        <ele>1856.9200000000001</ele>
        <time>2016-03-13T11:05:12Z</time>
      </trkpt>
      <trkpt lat="46.498899031430483" lon="8.906208146363497">
        <ele>1858.8499999999999</ele>
        <time>2016-03-13T11:05:23Z</time>
      </trkpt>
      <trkpt lat="46.498955776914954" lon="8.90617704950273">
        <ele>1859.8099999999999</ele>
        <time>2016-03-13T11:05:34Z</time>
      </trkpt>
      <trkpt lat="46.499029789119959" lon="8.906119046732783">
        <ele>1861.25</ele>
        <time>2016-03-13T11:05:48Z</time>
      </trkpt>
      <trkpt lat="46.499074548482895" lon="8.90602114610374">
        <ele>1862.6900000000001</ele>
        <time>2016-03-13T11:06:01Z</time>
      </trkpt>
      <trkpt lat="46.49908066727221" lon="8.90600354410708">
        <ele>1863.1700000000001</ele>
        <time>2016-03-13T11:06:16Z</time>
      </trkpt>
      <trkpt lat="46.49908946827054" lon="8.905933555215597">
        <ele>1864.6099999999999</ele>
        <time>2016-03-13T11:06:26Z</time>
      </trkpt>
      <trkpt lat="46.499099275097251" lon="8.905857028439641">
        <ele>1866.54</ele>
        <time>2016-03-13T11:06:36Z</time>
      </trkpt>
      <trkpt lat="46.499098185449839" lon="8.905807407572866">
        <ele>1868.46</ele>
        <time>2016-03-13T11:06:46Z</time>
      </trkpt>
      <trkpt lat="46.499094413593411" lon="8.905761139467359">
        <ele>1870.3800000000001</ele>
        <time>2016-03-13T11:06:56Z</time>
      </trkpt>
      <trkpt lat="46.49907479993999" lon="8.905743537470698">
        <ele>1871.3399999999999</ele>
        <time>2016-03-13T11:07:04Z</time>
      </trkpt>
      <trkpt lat="46.499078655615449" lon="8.905690647661686">
        <ele>1873.27</ele>
        <time>2016-03-13T11:07:15Z</time>
      </trkpt>
      <trkpt lat="46.499094748869538" lon="8.905669273808599">
        <ele>1873.75</ele>
        <time>2016-03-13T11:07:25Z</time>
      </trkpt>
      <trkpt lat="46.499085780233145" lon="8.905682098120451">
        <ele>1874.23</ele>
        <time>2016-03-13T11:07:43Z</time>
      </trkpt>
      <trkpt lat="46.499068010598421" lon="8.905642535537481">
        <ele>1875.6700000000001</ele>
        <time>2016-03-13T11:07:51Z</time>
      </trkpt>
      <trkpt lat="46.499071279540658" lon="8.905572546645999">
        <ele>1877.5899999999999</ele>
        <time>2016-03-13T11:08:02Z</time>
      </trkpt>
      <trkpt lat="46.499058958142996" lon="8.905543042346835">
        <ele>1879.51</ele>
        <time>2016-03-13T11:08:13Z</time>
      </trkpt>
      <trkpt lat="46.499044541269541" lon="8.905496522784233">
        <ele>1881.4400000000001</ele>
        <time>2016-03-13T11:08:24Z</time>
      </trkpt>
      <trkpt lat="46.499041859060526" lon="8.90543969348073">
        <ele>1882.8800000000001</ele>
        <time>2016-03-13T11:08:32Z</time>
      </trkpt>
      <trkpt lat="46.499039260670543" lon="8.905386636033654">
        <ele>1884.3199999999999</ele>
        <time>2016-03-13T11:08:42Z</time>
      </trkpt>
      <trkpt lat="46.499013863503933" lon="8.905326286330819">
        <ele>1885.76</ele>
        <time>2016-03-13T11:08:53Z</time>
      </trkpt>
      <trkpt lat="46.499018641188741" lon="8.905243976041675">
        <ele>1887.6900000000001</ele>
        <time>2016-03-13T11:09:05Z</time>
      </trkpt>
      <trkpt lat="46.499019730836153" lon="8.905177256092429">
        <ele>1889.1300000000001</ele>
        <time>2016-03-13T11:09:16Z</time>
      </trkpt>
      <trkpt lat="46.499035991728306" lon="8.905134340748191">
        <ele>1890.5699999999999</ele>
        <time>2016-03-13T11:09:25Z</time>
      </trkpt>
      <trkpt lat="46.499072536826134" lon="8.905104584991932">
        <ele>1892.01</ele>
        <time>2016-03-13T11:09:36Z</time>
      </trkpt>
      <trkpt lat="46.499116122722626" lon="8.905068878084421">
        <ele>1893.9300000000001</ele>
        <time>2016-03-13T11:09:48Z</time>
      </trkpt>
      <trkpt lat="46.499146465212107" lon="8.905041133984923">
        <ele>1895.8599999999999</ele>
        <time>2016-03-13T11:09:58Z</time>
      </trkpt>
      <trkpt lat="46.499173287302256" lon="8.905006013810635">
        <ele>1896.8199999999999</ele>
        <time>2016-03-13T11:10:08Z</time>
      </trkpt>
      <trkpt lat="46.499216537922621" lon="8.90495496802032">
        <ele>1898.26</ele>
        <time>2016-03-13T11:10:21Z</time>
      </trkpt>
      <trkpt lat="46.499242605641484" lon="8.904901407659054">
        <ele>1900.1800000000001</ele>
        <time>2016-03-13T11:10:31Z</time>
      </trkpt>
      <trkpt lat="46.499273283407092" lon="8.904878860339522">
        <ele>1900.6600000000001</ele>
        <time>2016-03-13T11:10:46Z</time>
      </trkpt>
      <trkpt lat="46.49930203333497" lon="8.904852960258722">
        <ele>1901.1400000000001</ele>
        <time>2016-03-13T11:10:55Z</time>
      </trkpt>
      <trkpt lat="46.499345870688558" lon="8.904827814549208">
        <ele>1903.0699999999999</ele>
        <time>2016-03-13T11:11:05Z</time>
      </trkpt>
      <trkpt lat="46.499388786032796" lon="8.904792107641697">
        <ele>1904.51</ele>
        <time>2016-03-13T11:11:17Z</time>
      </trkpt>
      <trkpt lat="46.499423906207085" lon="8.904763190075755">
        <ele>1905.95</ele>
        <time>2016-03-13T11:11:28Z</time>
      </trkpt>
      <trkpt lat="46.4994300249964" lon="8.904769979417324">
        <ele>1905.47</ele>
        <time>2016-03-13T11:11:38Z</time>
      </trkpt>
      <trkpt lat="46.499421391636133" lon="8.904783139005303">
        <ele>1905.95</ele>
        <time>2016-03-13T11:11:59Z</time>
      </trkpt>
      <trkpt lat="46.499442514032125" lon="8.904778277501464">
        <ele>1905.47</ele>
        <time>2016-03-13T11:12:23Z</time>
      </trkpt>
      <trkpt lat="46.499440418556333" lon="8.904783977195621">
        <ele>1905.95</ele>
        <time>2016-03-13T11:12:42Z</time>
      </trkpt>
      <trkpt lat="46.499442430213094" lon="8.904791353270412">
        <ele>1906.4300000000001</ele>
        <time>2016-03-13T11:12:54Z</time>
      </trkpt>
      <trkpt lat="46.499441340565681" lon="8.904749192297459">
        <ele>1905.95</ele>
        <time>2016-03-13T11:13:12Z</time>
      </trkpt>
      <trkpt lat="46.499470509588718" lon="8.904692614451051">
        <ele>1907.8699999999999</ele>
        <time>2016-03-13T11:13:23Z</time>
      </trkpt>
      <trkpt lat="46.499499008059502" lon="8.904650202021003">
        <ele>1909.3199999999999</ele>
        <time>2016-03-13T11:13:34Z</time>
      </trkpt>
      <trkpt lat="46.499534044414759" lon="8.904589014127851">
        <ele>1910.76</ele>
        <time>2016-03-13T11:13:46Z</time>
      </trkpt>
      <trkpt lat="46.499571176245809" lon="8.904532184824348">
        <ele>1912.6800000000001</ele>
        <time>2016-03-13T11:13:56Z</time>
      </trkpt>
      <trkpt lat="46.499578384682536" lon="8.904509637504816">
        <ele>1914.1199999999999</ele>
        <time>2016-03-13T11:14:06Z</time>
      </trkpt>
      <trkpt lat="46.499603530392051" lon="8.904491616412997">
        <ele>1915.0799999999999</ele>
        <time>2016-03-13T11:14:26Z</time>
      </trkpt>
      <trkpt lat="46.499640243127942" lon="8.904450377449393">
        <ele>1917.01</ele>
        <time>2016-03-13T11:14:38Z</time>
      </trkpt>
      <trkpt lat="46.499669076874852" lon="8.904410563409329">
        <ele>1918.45</ele>
        <time>2016-03-13T11:14:48Z</time>
      </trkpt>
      <trkpt lat="46.499682487919927" lon="8.904364965856075">
        <ele>1920.3699999999999</ele>
        <time>2016-03-13T11:14:59Z</time>
      </trkpt>
      <trkpt lat="46.499731773510575" lon="8.904333282262087">
        <ele>1921.8099999999999</ele>
        <time>2016-03-13T11:15:09Z</time>
      </trkpt>
      <trkpt lat="46.499763960018754" lon="8.904272597283125">
        <ele>1923.74</ele>
        <time>2016-03-13T11:15:21Z</time>
      </trkpt>
      <trkpt lat="46.499775191769004" lon="8.904237309470773">
        <ele>1924.7</ele>
        <time>2016-03-13T11:15:30Z</time>
      </trkpt>
      <trkpt lat="46.499783154577017" lon="8.904208056628704">
        <ele>1925.6600000000001</ele>
        <time>2016-03-13T11:15:39Z</time>
      </trkpt>
      <trkpt lat="46.499804193153977" lon="8.904155502095819">
        <ele>1927.5799999999999</ele>
        <time>2016-03-13T11:15:50Z</time>
      </trkpt>
      <trkpt lat="46.499810982495546" lon="8.904092637822032">
        <ele>1929.02</ele>
        <time>2016-03-13T11:16:02Z</time>
      </trkpt>
      <trkpt lat="46.499833781272173" lon="8.904019379988313">
        <ele>1930.95</ele>
        <time>2016-03-13T11:16:14Z</time>
      </trkpt>
      <trkpt lat="46.49986831471324" lon="8.903958946466446">
        <ele>1932.3900000000001</ele>
        <time>2016-03-13T11:16:24Z</time>
      </trkpt>
      <trkpt lat="46.499902429059148" lon="8.903938494622707">
        <ele>1933.3499999999999</ele>
        <time>2016-03-13T11:16:33Z</time>
      </trkpt>
      <trkpt lat="46.499928580597043" lon="8.903887867927551">
        <ele>1935.27</ele>
        <time>2016-03-13T11:16:44Z</time>
      </trkpt>
      <trkpt lat="46.499964371323586" lon="8.903809078037739">
        <ele>1936.71</ele>
        <time>2016-03-13T11:16:55Z</time>
      </trkpt>
      <trkpt lat="46.49996311403811" lon="8.90380036085844">
        <ele>1936.71</ele>
        <time>2016-03-13T11:17:01Z</time>
      </trkpt>
      <trkpt lat="46.499986331909895" lon="8.903815448284149">
        <ele>1935.75</ele>
        <time>2016-03-13T11:17:08Z</time>
      </trkpt>
      <trkpt lat="46.499970154836774" lon="8.903812766075134">
        <ele>1935.27</ele>
        <time>2016-03-13T11:17:31Z</time>
      </trkpt>
      <trkpt lat="46.499969316646457" lon="8.903832631185651">
        <ele>1935.75</ele>
        <time>2016-03-13T11:17:37Z</time>
      </trkpt>
      <trkpt lat="46.49994601495564" lon="8.903814358636737">
        <ele>1936.71</ele>
        <time>2016-03-13T11:17:46Z</time>
      </trkpt>
      <trkpt lat="46.499949200078845" lon="8.903805473819375">
        <ele>1936.23</ele>
        <time>2016-03-13T11:17:55Z</time>
      </trkpt>
      <trkpt lat="46.499959342181683" lon="8.903772197663784">
        <ele>1936.71</ele>
        <time>2016-03-13T11:18:12Z</time>
      </trkpt>
      <trkpt lat="46.500002173706889" lon="8.903719894587994">
        <ele>1938.1600000000001</ele>
        <time>2016-03-13T11:18:23Z</time>
      </trkpt>
      <trkpt lat="46.500002006068826" lon="8.903703801333904">
        <ele>1937.6700000000001</ele>
        <time>2016-03-13T11:18:36Z</time>
      </trkpt>
      <trkpt lat="46.500001419335604" lon="8.903704807162285">
        <ele>1937.6700000000001</ele>
        <time>2016-03-13T11:18:47Z</time>
      </trkpt>
      <trkpt lat="46.500026313588023" lon="8.903692653402686">
        <ele>1937.6700000000001</ele>
        <time>2016-03-13T11:18:59Z</time>
      </trkpt>
      <trkpt lat="46.500065121799707" lon="8.903658790513873">
        <ele>1938.6400000000001</ele>
        <time>2016-03-13T11:19:08Z</time>
      </trkpt>
      <trkpt lat="46.500079371035099" lon="8.903615120798349">
        <ele>1940.5599999999999</ele>
        <time>2016-03-13T11:19:22Z</time>
      </trkpt>
      <trkpt lat="46.500110635533929" lon="8.903608918190002">
        <ele>1940.0799999999999</ele>
        <time>2016-03-13T11:19:33Z</time>
      </trkpt>
      <trkpt lat="46.500125974416733" lon="8.903623754158616">
        <ele>1940.5599999999999</ele>
        <time>2016-03-13T11:19:48Z</time>
      </trkpt>
      <trkpt lat="46.500118263065815" lon="8.903629621490836">
        <ele>1940.0799999999999</ele>
        <time>2016-03-13T11:19:58Z</time>
      </trkpt>
      <trkpt lat="46.500119855627418" lon="8.903607074171305">
        <ele>1940.5599999999999</ele>
        <time>2016-03-13T11:20:10Z</time>
      </trkpt>
      <trkpt lat="46.500110970810056" lon="8.90360833145678">
        <ele>1940.5599999999999</ele>
        <time>2016-03-13T11:20:31Z</time>
      </trkpt>
      <trkpt lat="46.500125555321574" lon="8.903583521023393">
        <ele>1941.04</ele>
        <time>2016-03-13T11:20:45Z</time>
      </trkpt>
      <trkpt lat="46.500150365754962" lon="8.903517387807369">
        <ele>1942.48</ele>
        <time>2016-03-13T11:20:58Z</time>
      </trkpt>
      <trkpt lat="46.500187581405044" lon="8.903459804132581">
        <ele>1944.4000000000001</ele>
        <time>2016-03-13T11:21:09Z</time>
      </trkpt>
      <trkpt lat="46.500217672437429" lon="8.903420744463801">
        <ele>1945.8499999999999</ele>
        <time>2016-03-13T11:21:18Z</time>
      </trkpt>
      <trkpt lat="46.500260252505541" lon="8.903368609026074">
        <ele>1947.77</ele>
        <time>2016-03-13T11:21:30Z</time>
      </trkpt>
      <trkpt lat="46.500291684642434" lon="8.903313456103206">
        <ele>1949.21</ele>
        <time>2016-03-13T11:21:41Z</time>
      </trkpt>
      <trkpt lat="46.500291349366307" lon="8.903238857164979">
        <ele>1951.1300000000001</ele>
        <time>2016-03-13T11:21:53Z</time>
      </trkpt>
      <trkpt lat="46.500299563631415" lon="8.903172975406051">
        <ele>1952.5699999999999</ele>
        <time>2016-03-13T11:22:05Z</time>
      </trkpt>
      <trkpt lat="46.500316243618727" lon="8.903117654845119">
        <ele>1954.5</ele>
        <time>2016-03-13T11:22:16Z</time>
      </trkpt>
      <trkpt lat="46.500328565016389" lon="8.903074488043785">
        <ele>1955.9400000000001</ele>
        <time>2016-03-13T11:22:27Z</time>
      </trkpt>
      <trkpt lat="46.500316327437758" lon="8.903047163039446">
        <ele>1957.3800000000001</ele>
        <time>2016-03-13T11:22:37Z</time>
      </trkpt>
      <trkpt lat="46.500327223911881" lon="8.903004750609398">
        <ele>1958.8199999999999</ele>
        <time>2016-03-13T11:22:49Z</time>
      </trkpt>
      <trkpt lat="46.500333175063133" lon="8.902961919084191">
        <ele>1960.75</ele>
        <time>2016-03-13T11:23:01Z</time>
      </trkpt>
      <trkpt lat="46.500337198376656" lon="8.90290567651391">
        <ele>1962.1900000000001</ele>
        <time>2016-03-13T11:23:11Z</time>
      </trkpt>
      <trkpt lat="46.500328229740262" lon="8.902846248820424">
        <ele>1963.6300000000001</ele>
        <time>2016-03-13T11:23:21Z</time>
      </trkpt>
      <trkpt lat="46.500327559188008" lon="8.902810458093882">
        <ele>1964.5899999999999</ele>
        <time>2016-03-13T11:23:32Z</time>
      </trkpt>
      <trkpt lat="46.500334767624736" lon="8.902753964066505">
        <ele>1966.51</ele>
        <time>2016-03-13T11:23:42Z</time>
      </trkpt>
      <trkpt lat="46.500354297459126" lon="8.902696631848812">
        <ele>1967.96</ele>
        <time>2016-03-13T11:23:53Z</time>
      </trkpt>
      <trkpt lat="46.500385729596019" lon="8.902644664049149">
        <ele>1969.8800000000001</ele>
        <time>2016-03-13T11:24:06Z</time>
      </trkpt>
      <trkpt lat="46.500399056822062" lon="8.902600239962339">
        <ele>1971.3199999999999</ele>
        <time>2016-03-13T11:24:15Z</time>
      </trkpt>
      <trkpt lat="46.500418167561293" lon="8.902541985735297">
        <ele>1972.76</ele>
        <time>2016-03-13T11:24:25Z</time>
      </trkpt>
      <trkpt lat="46.500418586656451" lon="8.902520276606083">
        <ele>1974.2</ele>
        <time>2016-03-13T11:24:35Z</time>
      </trkpt>
      <trkpt lat="46.500443313270807" lon="8.90250988304615">
        <ele>1973.24</ele>
        <time>2016-03-13T11:24:51Z</time>
      </trkpt>
      <trkpt lat="46.500452617183328" lon="8.902533436194062">
        <ele>1973.72</ele>
        <time>2016-03-13T11:25:04Z</time>
      </trkpt>
      <trkpt lat="46.500452281907201" lon="8.902542823925614">
        <ele>1974.2</ele>
        <time>2016-03-13T11:25:26Z</time>
      </trkpt>
      <trkpt lat="46.500426633283496" lon="8.902530921623111">
        <ele>1974.2</ele>
        <time>2016-03-13T11:25:43Z</time>
      </trkpt>
      <trkpt lat="46.500437362119555" lon="8.902473170310259">
        <ele>1975.1700000000001</ele>
        <time>2016-03-13T11:25:54Z</time>
      </trkpt>
      <trkpt lat="46.50047323666513" lon="8.902401085942984">
        <ele>1976.6099999999999</ele>
        <time>2016-03-13T11:26:06Z</time>
      </trkpt>
      <trkpt lat="46.500514894723892" lon="8.902348279953003">
        <ele>1978.53</ele>
        <time>2016-03-13T11:26:17Z</time>
      </trkpt>
      <trkpt lat="46.500539537519217" lon="8.902288684621453">
        <ele>1979.97</ele>
        <time>2016-03-13T11:26:27Z</time>
      </trkpt>
      <trkpt lat="46.50055487640202" lon="8.902222216129303">
        <ele>1981.4100000000001</ele>
        <time>2016-03-13T11:26:38Z</time>
      </trkpt>
      <trkpt lat="46.500563928857446" lon="8.902158346027136">
        <ele>1982.8599999999999</ele>
        <time>2016-03-13T11:26:49Z</time>
      </trkpt>
      <trkpt lat="46.50056803599" lon="8.902055080980063">
        <ele>1984.3</ele>
        <time>2016-03-13T11:27:01Z</time>
      </trkpt>
      <trkpt lat="46.500565772876143" lon="8.901985846459866">
        <ele>1986.22</ele>
        <time>2016-03-13T11:27:12Z</time>
      </trkpt>
      <trkpt lat="46.50056216865778" lon="8.901957096531987">
        <ele>1986.7</ele>
        <time>2016-03-13T11:27:22Z</time>
      </trkpt>
      <trkpt lat="46.500606592744589" lon="8.901959946379066">
        <ele>1987.6600000000001</ele>
        <time>2016-03-13T11:27:34Z</time>
      </trkpt>
      <trkpt lat="46.500660572201014" lon="8.901957096531987">
        <ele>1989.0999999999999</ele>
        <time>2016-03-13T11:27:45Z</time>
      </trkpt>
      <trkpt lat="46.500685969367623" lon="8.901938907802105">
        <ele>1990.55</ele>
        <time>2016-03-13T11:27:55Z</time>
      </trkpt>
      <trkpt lat="46.500742631033063" lon="8.901936644688249">
        <ele>1991.99</ele>
        <time>2016-03-13T11:28:06Z</time>
      </trkpt>
      <trkpt lat="46.500781858339906" lon="8.901924742385745">
        <ele>1993.4300000000001</ele>
        <time>2016-03-13T11:28:18Z</time>
      </trkpt>
      <trkpt lat="46.500823264941573" lon="8.901907056570053">
        <ele>1994.8699999999999</ele>
        <time>2016-03-13T11:28:28Z</time>
      </trkpt>
      <trkpt lat="46.500843968242407" lon="8.901888281106949">
        <ele>1995.8299999999999</ele>
        <time>2016-03-13T11:28:40Z</time>
      </trkpt>
      <trkpt lat="46.500862827524543" lon="8.901841845363379">
        <ele>1996.8</ele>
        <time>2016-03-13T11:28:56Z</time>
      </trkpt>
      <trkpt lat="46.500884871929884" lon="8.901755344122648">
        <ele>1998.72</ele>
        <time>2016-03-13T11:29:09Z</time>
      </trkpt>
      <trkpt lat="46.500907251611352" lon="8.901695916429162">
        <ele>2000.1600000000001</ele>
        <time>2016-03-13T11:29:20Z</time>
      </trkpt>
      <trkpt lat="46.500952178612351" lon="8.901664735749364">
        <ele>2001.5999999999999</ele>
        <time>2016-03-13T11:29:31Z</time>
      </trkpt>
      <trkpt lat="46.500982688739896" lon="8.901647133752704">
        <ele>2003.04</ele>
        <time>2016-03-13T11:29:41Z</time>
      </trkpt>
      <trkpt lat="46.501013701781631" lon="8.901590807363391">
        <ele>2004.49</ele>
        <time>2016-03-13T11:29:53Z</time>
      </trkpt>
      <trkpt lat="46.501045972108841" lon="8.901545042172074">
        <ele>2005.9300000000001</ele>
        <time>2016-03-13T11:30:04Z</time>
      </trkpt>
      <trkpt lat="46.501080505549908" lon="8.901510927826166">
        <ele>2007.3699999999999</ele>
        <time>2016-03-13T11:30:16Z</time>
      </trkpt>
      <trkpt lat="46.501110764220357" lon="8.90148083679378">
        <ele>2008.3299999999999</ele>
        <time>2016-03-13T11:30:30Z</time>
      </trkpt>
      <trkpt lat="46.501156948506832" lon="8.901407662779093">
        <ele>2010.25</ele>
        <time>2016-03-13T11:30:42Z</time>
      </trkpt>
      <trkpt lat="46.50119106285274" lon="8.901350749656558">
        <ele>2011.7</ele>
        <time>2016-03-13T11:30:54Z</time>
      </trkpt>
      <trkpt lat="46.501227943226695" lon="8.901304397732019">
        <ele>2013.1400000000001</ele>
        <time>2016-03-13T11:31:05Z</time>
      </trkpt>
      <trkpt lat="46.501258285716176" lon="8.901256453245878">
        <ele>2015.0599999999999</ele>
        <time>2016-03-13T11:31:17Z</time>
      </trkpt>
      <trkpt lat="46.501274798065424" lon="8.901215465739369">
        <ele>2016.5</ele>
        <time>2016-03-13T11:31:27Z</time>
      </trkpt>
      <trkpt lat="46.501291813328862" lon="8.901208592578769">
        <ele>2016.5</ele>
        <time>2016-03-13T11:31:43Z</time>
      </trkpt>
      <trkpt lat="46.501314612105489" lon="8.901165844872594">
        <ele>2017.9400000000001</ele>
        <time>2016-03-13T11:31:53Z</time>
      </trkpt>
      <trkpt lat="46.501329196617007" lon="8.901169616729021">
        <ele>2018.4300000000001</ele>
        <time>2016-03-13T11:32:11Z</time>
      </trkpt>
      <trkpt lat="46.501363981515169" lon="8.901106417179108">
        <ele>2020.3499999999999</ele>
        <time>2016-03-13T11:32:23Z</time>
      </trkpt>
      <trkpt lat="46.501382673159242" lon="8.901056544855237">
        <ele>2021.79</ele>
        <time>2016-03-13T11:32:34Z</time>
      </trkpt>
      <trkpt lat="46.501406310126185" lon="8.901025364175439">
        <ele>2023.23</ele>
        <time>2016-03-13T11:32:45Z</time>
      </trkpt>
      <trkpt lat="46.501439837738872" lon="8.90100734308362">
        <ele>2024.6700000000001</ele>
        <time>2016-03-13T11:32:55Z</time>
      </trkpt>
      <trkpt lat="46.501475460827351" lon="8.900982281193137">
        <ele>2026.5999999999999</ele>
        <time>2016-03-13T11:33:08Z</time>
      </trkpt>
      <trkpt lat="46.501504797488451" lon="8.900955710560083">
        <ele>2027.5599999999999</ele>
        <time>2016-03-13T11:33:18Z</time>
      </trkpt>
      <trkpt lat="46.501530529931188" lon="8.900904580950737">
        <ele>2029</ele>
        <time>2016-03-13T11:33:30Z</time>
      </trkpt>
      <trkpt lat="46.501567745581269" lon="8.900857726112008">
        <ele>2030.4400000000001</ele>
        <time>2016-03-13T11:33:40Z</time>
      </trkpt>
      <trkpt lat="46.501599177718163" lon="8.900826210156083">
        <ele>2031.8800000000001</ele>
        <time>2016-03-13T11:33:51Z</time>
      </trkpt>
      <trkpt lat="46.501643685624003" lon="8.90078010968864">
        <ele>2032.8399999999999</ele>
        <time>2016-03-13T11:34:02Z</time>
      </trkpt>
      <trkpt lat="46.501658940687776" lon="8.900747168809176">
        <ele>2033.8099999999999</ele>
        <time>2016-03-13T11:34:11Z</time>
      </trkpt>
      <trkpt lat="46.501653995364904" lon="8.900743145495653">
        <ele>2033.8099999999999</ele>
        <time>2016-03-13T11:34:24Z</time>
      </trkpt>
      <trkpt lat="46.501650642603636" lon="8.900733925402165">
        <ele>2033.8099999999999</ele>
        <time>2016-03-13T11:34:44Z</time>
      </trkpt>
      <trkpt lat="46.501682074740529" lon="8.900662092491984">
        <ele>2035.25</ele>
        <time>2016-03-13T11:34:54Z</time>
      </trkpt>
      <trkpt lat="46.501722224056721" lon="8.900608196854591">
        <ele>2036.6900000000001</ele>
        <time>2016-03-13T11:35:07Z</time>
      </trkpt>
      <trkpt lat="46.501759691163898" lon="8.900548433884978">
        <ele>2038.1300000000001</ele>
        <time>2016-03-13T11:35:17Z</time>
      </trkpt>
      <trkpt lat="46.501800594851375" lon="8.900477774441242">
        <ele>2039.5699999999999</ele>
        <time>2016-03-13T11:35:28Z</time>
      </trkpt>
      <trkpt lat="46.501820376142859" lon="8.900420693680644">
        <ele>2040.54</ele>
        <time>2016-03-13T11:35:39Z</time>
      </trkpt>
      <trkpt lat="46.501828506588936" lon="8.90040191821754">
        <ele>2041.5</ele>
        <time>2016-03-13T11:35:49Z</time>
      </trkpt>
      <trkpt lat="46.501849042251706" lon="8.900349615141749">
        <ele>2042.46</ele>
        <time>2016-03-13T11:36:04Z</time>
      </trkpt>
      <trkpt lat="46.501885587349534" lon="8.90027099289">
        <ele>2043.9000000000001</ele>
        <time>2016-03-13T11:36:16Z</time>
      </trkpt>
      <trkpt lat="46.501891035586596" lon="8.900253055617213">
        <ele>2044.3800000000001</ele>
        <time>2016-03-13T11:36:27Z</time>
      </trkpt>
      <trkpt lat="46.501920288428664" lon="8.900200668722391">
        <ele>2045.3399999999999</ele>
        <time>2016-03-13T11:36:37Z</time>
      </trkpt>
      <trkpt lat="46.501939734444022" lon="8.90011802315712">
        <ele>2046.78</ele>
        <time>2016-03-13T11:36:47Z</time>
      </trkpt>
      <trkpt lat="46.501966221258044" lon="8.900059517472982">
        <ele>2047.75</ele>
        <time>2016-03-13T11:36:58Z</time>
      </trkpt>
      <trkpt lat="46.501992037519813" lon="8.899978632107377">
        <ele>2049.6700000000001</ele>
        <time>2016-03-13T11:37:09Z</time>
      </trkpt>
      <trkpt lat="46.502024307847023" lon="8.899903111159802">
        <ele>2050.6300000000001</ele>
        <time>2016-03-13T11:37:19Z</time>
      </trkpt>
      <trkpt lat="46.502037048339844" lon="8.899852735921741">
        <ele>2052.0700000000002</ele>
        <time>2016-03-13T11:37:29Z</time>
      </trkpt>
      <trkpt lat="46.502060936763883" lon="8.899791715666652">
        <ele>2053.5100000000002</ele>
        <time>2016-03-13T11:37:40Z</time>
      </trkpt>
      <trkpt lat="46.50208281353116" lon="8.899722648784518">
        <ele>2054.96</ele>
        <time>2016-03-13T11:37:50Z</time>
      </trkpt>
      <trkpt lat="46.502085411921144" lon="8.89970219694078">
        <ele>2055.4400000000001</ele>
        <time>2016-03-13T11:37:59Z</time>
      </trkpt>
      <trkpt lat="46.502090273424983" lon="8.899694988504052">
        <ele>2054.4699999999998</ele>
        <time>2016-03-13T11:38:10Z</time>
      </trkpt>
      <trkpt lat="46.502108629792929" lon="8.899722145870328">
        <ele>2055.4400000000001</ele>
        <time>2016-03-13T11:38:28Z</time>
      </trkpt>
      <trkpt lat="46.502117766067386" lon="8.89963430352509">
        <ele>2056.4000000000001</ele>
        <time>2016-03-13T11:38:39Z</time>
      </trkpt>
      <trkpt lat="46.50211407802999" lon="8.89954830519855">
        <ele>2057.8400000000001</ele>
        <time>2016-03-13T11:38:51Z</time>
      </trkpt>
      <trkpt lat="46.502119190990925" lon="8.899486949667335">
        <ele>2059.2800000000002</ele>
        <time>2016-03-13T11:39:00Z</time>
      </trkpt>
      <trkpt lat="46.502123884856701" lon="8.899420564994216">
        <ele>2060.7199999999998</ele>
        <time>2016-03-13T11:39:10Z</time>
      </trkpt>
      <trkpt lat="46.502130338922143" lon="8.899364154785872">
        <ele>2062.6500000000001</ele>
        <time>2016-03-13T11:39:21Z</time>
      </trkpt>
      <trkpt lat="46.50214240886271" lon="8.899325933307409">
        <ele>2064.0900000000001</ele>
        <time>2016-03-13T11:39:31Z</time>
      </trkpt>
      <trkpt lat="46.502158585935831" lon="8.899285364896059">
        <ele>2065.5300000000002</ele>
        <time>2016-03-13T11:39:41Z</time>
      </trkpt>
      <trkpt lat="46.502160429954529" lon="8.899247730150819">
        <ele>2066.0100000000002</ele>
        <time>2016-03-13T11:39:51Z</time>
      </trkpt>
      <trkpt lat="46.502170655876398" lon="8.899191655218601">
        <ele>2067.9299999999998</ele>
        <time>2016-03-13T11:40:02Z</time>
      </trkpt>
      <trkpt lat="46.502198651432991" lon="8.89919794164598">
        <ele>2068.4099999999999</ele>
        <time>2016-03-13T11:40:11Z</time>
      </trkpt>
      <trkpt lat="46.502209715545177" lon="8.899197354912758">
        <ele>2068.4099999999999</ele>
        <time>2016-03-13T11:40:24Z</time>
      </trkpt>
      <trkpt lat="46.502204686403275" lon="8.899207580834627">
        <ele>2068.4099999999999</ele>
        <time>2016-03-13T11:40:41Z</time>
      </trkpt>
      <trkpt lat="46.502201501280069" lon="8.899207413196564">
        <ele>2069.8600000000001</ele>
        <time>2016-03-13T11:40:55Z</time>
      </trkpt>
      <trkpt lat="46.502194544300437" lon="8.899188553914428">
        <ele>2068.8899999999999</ele>
        <time>2016-03-13T11:41:06Z</time>
      </trkpt>
      <trkpt lat="46.502217259258032" lon="8.89910121448338">
        <ele>2070.3400000000001</ele>
        <time>2016-03-13T11:41:16Z</time>
      </trkpt>
      <trkpt lat="46.502245087176561" lon="8.899058885872364">
        <ele>2071.7800000000002</ele>
        <time>2016-03-13T11:41:25Z</time>
      </trkpt>
      <trkpt lat="46.502272663637996" lon="8.898995099589229">
        <ele>2073.2199999999998</ele>
        <time>2016-03-13T11:41:35Z</time>
      </trkpt>
      <trkpt lat="46.502286661416292" lon="8.898943467065692">
        <ele>2074.1799999999998</ele>
        <time>2016-03-13T11:41:46Z</time>
      </trkpt>
      <trkpt lat="46.502308622002602" lon="8.898878507316113">
        <ele>2075.6199999999999</ele>
        <time>2016-03-13T11:41:56Z</time>
      </trkpt>
      <trkpt lat="46.502329912036657" lon="8.898870795965195">
        <ele>2075.6199999999999</ele>
        <time>2016-03-13T11:42:05Z</time>
      </trkpt>
      <trkpt lat="46.502341479063034" lon="8.898860989138484">
        <ele>2076.0999999999999</ele>
        <time>2016-03-13T11:42:23Z</time>
      </trkpt>
      <trkpt lat="46.502325050532818" lon="8.898848500102758">
        <ele>2076.0999999999999</ele>
        <time>2016-03-13T11:42:35Z</time>
      </trkpt>
      <trkpt lat="46.502342652529478" lon="8.898831401020289">
        <ele>2076.0999999999999</ele>
        <time>2016-03-13T11:42:47Z</time>
      </trkpt>
      <trkpt lat="46.502341814339161" lon="8.898825282230973">
        <ele>2076.5900000000001</ele>
        <time>2016-03-13T11:43:02Z</time>
      </trkpt>
      <trkpt lat="46.502349693328142" lon="8.898817235603929">
        <ele>2076.5900000000001</ele>
        <time>2016-03-13T11:43:16Z</time>
      </trkpt>
      <trkpt lat="46.502353716641665" lon="8.898827796801925">
        <ele>2076.5900000000001</ele>
        <time>2016-03-13T11:43:33Z</time>
      </trkpt>
      <trkpt lat="46.502346927300096" lon="8.898821342736483">
        <ele>2076.0999999999999</ele>
        <time>2016-03-13T11:43:48Z</time>
      </trkpt>
      <trkpt lat="46.502350028604269" lon="8.898819833993912">
        <ele>2076.5900000000001</ele>
        <time>2016-03-13T11:44:04Z</time>
      </trkpt>
      <trkpt lat="46.502343909814954" lon="8.898849673569202">
        <ele>2076.5900000000001</ele>
        <time>2016-03-13T11:44:17Z</time>
      </trkpt>
      <trkpt lat="46.502371821552515" lon="8.898772476240993">
        <ele>2077.5500000000002</ele>
        <time>2016-03-13T11:44:28Z</time>
      </trkpt>
      <trkpt lat="46.502383975312114" lon="8.898723777383566">
        <ele>2078.9899999999998</ele>
        <time>2016-03-13T11:44:37Z</time>
      </trkpt>
      <trkpt lat="46.502415994182229" lon="8.898662338033319">
        <ele>2080.9099999999999</ele>
        <time>2016-03-13T11:44:49Z</time>
      </trkpt>
      <trkpt lat="46.502425298094749" lon="8.898630738258362">
        <ele>2081.3899999999999</ele>
        <time>2016-03-13T11:44:52Z</time>
      </trkpt>
      <trkpt lat="46.502454467117786" lon="8.898528059944511">
        <ele>2082.8299999999999</ele>
        <time>2016-03-13T11:45:04Z</time>
      </trkpt>
      <trkpt lat="46.502484809607267" lon="8.898444157093763">
        <ele>2083.79</ele>
        <time>2016-03-13T11:45:15Z</time>
      </trkpt>
      <trkpt lat="46.502502579241991" lon="8.898400906473398">
        <ele>2085.2399999999998</ele>
        <time>2016-03-13T11:45:25Z</time>
      </trkpt>
      <trkpt lat="46.502521773800254" lon="8.898357320576906">
        <ele>2086.6799999999998</ele>
        <time>2016-03-13T11:45:34Z</time>
      </trkpt>
      <trkpt lat="46.502534011378884" lon="8.898287331685424">
        <ele>2088.1199999999999</ele>
        <time>2016-03-13T11:45:45Z</time>
      </trkpt>
      <trkpt lat="46.502554295584559" lon="8.898204937577248">
        <ele>2089.5599999999999</ele>
        <time>2016-03-13T11:45:56Z</time>
      </trkpt>
      <trkpt lat="46.502573657780886" lon="8.898150706663728">
        <ele>2090.52</ele>
        <time>2016-03-13T11:46:06Z</time>
      </trkpt>
      <trkpt lat="46.502604419365525" lon="8.898100331425667">
        <ele>2091.9699999999998</ele>
        <time>2016-03-13T11:46:15Z</time>
      </trkpt>
      <trkpt lat="46.502617327496409" lon="8.898048950359225">
        <ele>2092.9299999999998</ele>
        <time>2016-03-13T11:46:24Z</time>
      </trkpt>
      <trkpt lat="46.502623194828629" lon="8.898033024743199">
        <ele>2093.8899999999999</ele>
        <time>2016-03-13T11:46:33Z</time>
      </trkpt>
      <trkpt lat="46.502650268375874" lon="8.897984242066741">
        <ele>2095.3299999999999</ele>
        <time>2016-03-13T11:46:43Z</time>
      </trkpt>
      <trkpt lat="46.502682873979211" lon="8.897921042516828">
        <ele>2097.25</ele>
        <time>2016-03-13T11:46:54Z</time>
      </trkpt>
      <trkpt lat="46.502717407420278" lon="8.897865051403642">
        <ele>2098.6999999999998</ele>
        <time>2016-03-13T11:47:05Z</time>
      </trkpt>
      <trkpt lat="46.50273073464632" lon="8.897820375859737">
        <ele>2100.1399999999999</ele>
        <time>2016-03-13T11:47:14Z</time>
      </trkpt>
      <trkpt lat="46.502761412411928" lon="8.897781986743212">
        <ele>2101.5799999999999</ele>
        <time>2016-03-13T11:47:24Z</time>
      </trkpt>
      <trkpt lat="46.502782786265016" lon="8.897750386968255">
        <ele>2102.54</ele>
        <time>2016-03-13T11:47:33Z</time>
      </trkpt>
      <trkpt lat="46.502790413796902" lon="8.89772180467844">
        <ele>2103.02</ele>
        <time>2016-03-13T11:47:43Z</time>
      </trkpt>
      <trkpt lat="46.502817906439304" lon="8.89764460735023">
        <ele>2104.9400000000001</ele>
        <time>2016-03-13T11:47:55Z</time>
      </trkpt>
      <trkpt lat="46.502847410738468" lon="8.897583251819015">
        <ele>2106.3899999999999</ele>
        <time>2016-03-13T11:48:06Z</time>
      </trkpt>
      <trkpt lat="46.502879597246647" lon="8.897521644830704">
        <ele>2107.3499999999999</ele>
        <time>2016-03-13T11:48:16Z</time>
      </trkpt>
      <trkpt lat="46.502900719642639" lon="8.89744863845408">
        <ele>2108.3099999999999</ele>
        <time>2016-03-13T11:48:28Z</time>
      </trkpt>
      <trkpt lat="46.502935085445642" lon="8.897372279316187">
        <ele>2109.75</ele>
        <time>2016-03-13T11:48:39Z</time>
      </trkpt>
      <trkpt lat="46.502955704927444" lon="8.897317880764604">
        <ele>2111.1900000000001</ele>
        <time>2016-03-13T11:48:49Z</time>
      </trkpt>
      <trkpt lat="46.502976072952151" lon="8.897245628759265">
        <ele>2112.6300000000001</ele>
        <time>2016-03-13T11:49:00Z</time>
      </trkpt>
      <trkpt lat="46.503001721575856" lon="8.897162983193994">
        <ele>2114.0799999999999</ele>
        <time>2016-03-13T11:49:13Z</time>
      </trkpt>
      <trkpt lat="46.503041535615921" lon="8.897038428112865">
        <ele>2115.04</ele>
        <time>2016-03-13T11:49:27Z</time>
      </trkpt>
      <trkpt lat="46.503077829256654" lon="8.896972043439746">
        <ele>2116.48</ele>
        <time>2016-03-13T11:49:38Z</time>
      </trkpt>
      <trkpt lat="46.503103729337454" lon="8.896911609917879">
        <ele>2117.4400000000001</ele>
        <time>2016-03-13T11:49:47Z</time>
      </trkpt>
      <trkpt lat="46.503134910017252" lon="8.896856792271137">
        <ele>2118.8800000000001</ele>
        <time>2016-03-13T11:49:57Z</time>
      </trkpt>
      <trkpt lat="46.50314555503428" lon="8.896821420639753">
        <ele>2119.3600000000001</ele>
        <time>2016-03-13T11:50:05Z</time>
      </trkpt>
      <trkpt lat="46.50316365994513" lon="8.89678462408483">
        <ele>2119.8400000000001</ele>
        <time>2016-03-13T11:50:10Z</time>
      </trkpt>
      <trkpt lat="46.503196600824594" lon="8.896692423149943">
        <ele>2121.29</ele>
        <time>2016-03-13T11:50:23Z</time>
      </trkpt>
      <trkpt lat="46.50321252644062" lon="8.896618997678161">
        <ele>2122.73</ele>
        <time>2016-03-13T11:50:32Z</time>
      </trkpt>
      <trkpt lat="46.503220153972507" lon="8.896569795906544">
        <ele>2124.1700000000001</ele>
        <time>2016-03-13T11:50:42Z</time>
      </trkpt>
      <trkpt lat="46.503218142315745" lon="8.896536016836762">
        <ele>2125.6100000000001</ele>
        <time>2016-03-13T11:50:53Z</time>
      </trkpt>
      <trkpt lat="46.503221411257982" lon="8.896524030715227">
        <ele>2125.6100000000001</ele>
        <time>2016-03-13T11:51:06Z</time>
      </trkpt>
      <trkpt lat="46.503209676593542" lon="8.896525455638766">
        <ele>2125.6100000000001</ele>
        <time>2016-03-13T11:51:28Z</time>
      </trkpt>
      <trkpt lat="46.503219986334443" lon="8.896476086229086">
        <ele>2127.0500000000002</ele>
        <time>2016-03-13T11:51:39Z</time>
      </trkpt>
      <trkpt lat="46.503248820081353" lon="8.896399894729257">
        <ele>2128.98</ele>
        <time>2016-03-13T11:51:49Z</time>
      </trkpt>
      <trkpt lat="46.503279749304056" lon="8.896371563896537">
        <ele>2130.4200000000001</ele>
        <time>2016-03-13T11:52:01Z</time>
      </trkpt>
      <trkpt lat="46.503317300230265" lon="8.896339377388358">
        <ele>2132.3400000000001</ele>
        <time>2016-03-13T11:52:12Z</time>
      </trkpt>
      <trkpt lat="46.503322161734104" lon="8.896292438730598">
        <ele>2133.3000000000002</ele>
        <time>2016-03-13T11:52:20Z</time>
      </trkpt>
      <trkpt lat="46.503348983824253" lon="8.896267544478178">
        <ele>2134.7399999999998</ele>
        <time>2016-03-13T11:52:29Z</time>
      </trkpt>
      <trkpt lat="46.503355856984854" lon="8.896225467324257">
        <ele>2136.1900000000001</ele>
        <time>2016-03-13T11:52:38Z</time>
      </trkpt>
      <trkpt lat="46.503355940803885" lon="8.896190850064158">
        <ele>2137.1500000000001</ele>
        <time>2016-03-13T11:52:47Z</time>
      </trkpt>
      <trkpt lat="46.503382595255971" lon="8.896154472604394">
        <ele>2138.1100000000001</ele>
        <time>2016-03-13T11:52:56Z</time>
      </trkpt>
      <trkpt lat="46.503386283293366" lon="8.896124800667167">
        <ele>2139.5500000000002</ele>
        <time>2016-03-13T11:53:05Z</time>
      </trkpt>
      <trkpt lat="46.503397095948458" lon="8.896077275276184">
        <ele>2140.9899999999998</ele>
        <time>2016-03-13T11:53:15Z</time>
      </trkpt>
      <trkpt lat="46.503422660753131" lon="8.896055733785033">
        <ele>2142.4400000000001</ele>
        <time>2016-03-13T11:53:24Z</time>
      </trkpt>
      <trkpt lat="46.503438502550125" lon="8.896012315526605">
        <ele>2142.9200000000001</ele>
        <time>2016-03-13T11:53:42Z</time>
      </trkpt>
      <trkpt lat="46.503443196415901" lon="8.895937548950315">
        <ele>2144.3600000000001</ele>
        <time>2016-03-13T11:53:55Z</time>
      </trkpt>
      <trkpt lat="46.503480412065983" lon="8.895863369107246">
        <ele>2146.2800000000002</ele>
        <time>2016-03-13T11:54:08Z</time>
      </trkpt>
      <trkpt lat="46.503488542512059" lon="8.895888514816761">
        <ele>2145.3200000000002</ele>
        <time>2016-03-13T11:54:18Z</time>
      </trkpt>
      <trkpt lat="46.503485189750791" lon="8.895893711596727">
        <ele>2146.7600000000002</ele>
        <time>2016-03-13T11:54:23Z</time>
      </trkpt>
      <trkpt lat="46.503533637151122" lon="8.895888514816761">
        <ele>2146.7600000000002</ele>
        <time>2016-03-13T11:54:34Z</time>
      </trkpt>
      <trkpt lat="46.503542521968484" lon="8.895890023559332">
        <ele>2146.7600000000002</ele>
        <time>2016-03-13T11:54:35Z</time>
      </trkpt>
      <trkpt lat="46.503602536395192" lon="8.895883318036795">
        <ele>2148.1999999999998</ele>
        <time>2016-03-13T11:54:45Z</time>
      </trkpt>
      <trkpt lat="46.503657354041934" lon="8.89584694057703">
        <ele>2150.1300000000001</ele>
        <time>2016-03-13T11:54:56Z</time>
      </trkpt>
      <trkpt lat="46.503714770078659" lon="8.895828751847148">
        <ele>2152.0500000000002</ele>
        <time>2016-03-13T11:55:07Z</time>
      </trkpt>
      <trkpt lat="46.503769420087337" lon="8.895808970555663">
        <ele>2153.9699999999998</ele>
        <time>2016-03-13T11:55:19Z</time>
      </trkpt>
      <trkpt lat="46.503808060660958" lon="8.895824644714594">
        <ele>2155.4099999999999</ele>
        <time>2016-03-13T11:55:27Z</time>
      </trkpt>
      <trkpt lat="46.503850137814879" lon="8.895836295560002">
        <ele>2156.3699999999999</ele>
        <time>2016-03-13T11:55:38Z</time>
      </trkpt>
      <trkpt lat="46.503897914662957" lon="8.895786423236132">
        <ele>2157.3400000000001</ele>
        <time>2016-03-13T11:55:48Z</time>
      </trkpt>
      <trkpt lat="46.503916103392839" lon="8.895726408809423">
        <ele>2158.3000000000002</ele>
        <time>2016-03-13T11:55:59Z</time>
      </trkpt>
      <trkpt lat="46.503962455317378" lon="8.895699502900243">
        <ele>2159.7399999999998</ele>
        <time>2016-03-13T11:56:10Z</time>
      </trkpt>
      <trkpt lat="46.504014171659946" lon="8.895665388554335">
        <ele>2161.6599999999999</ele>
        <time>2016-03-13T11:56:21Z</time>
      </trkpt>
      <trkpt lat="46.504039652645588" lon="8.895635884255171">
        <ele>2162.1399999999999</ele>
        <time>2016-03-13T11:56:31Z</time>
      </trkpt>
      <trkpt lat="46.504109809175134" lon="8.895627669990063">
        <ele>2163.5799999999999</ele>
        <time>2016-03-13T11:56:42Z</time>
      </trkpt>
      <trkpt lat="46.504149790853262" lon="8.895621132105589">
        <ele>2163.5799999999999</ele>
        <time>2016-03-13T11:56:48Z</time>
      </trkpt>
      <trkpt lat="46.504175774753094" lon="8.895588861778379">
        <ele>2163.5799999999999</ele>
        <time>2016-03-13T11:57:00Z</time>
      </trkpt>
      <trkpt lat="46.50417217053473" lon="8.895591460168362">
        <ele>2165.0300000000002</ele>
        <time>2016-03-13T11:57:03Z</time>
      </trkpt>
      <trkpt lat="46.504189856350422" lon="8.895591124892235">
        <ele>2163.0999999999999</ele>
        <time>2016-03-13T11:57:06Z</time>
      </trkpt>
      <trkpt lat="46.504183737561107" lon="8.89558793976903">
        <ele>2162.6199999999999</ele>
        <time>2016-03-13T11:57:17Z</time>
      </trkpt>
      <trkpt lat="46.504168901592493" lon="8.895564135164022">
        <ele>2162.6199999999999</ele>
        <time>2016-03-13T11:57:43Z</time>
      </trkpt>
      <trkpt lat="46.504163034260273" lon="8.895582240074873">
        <ele>2162.6199999999999</ele>
        <time>2016-03-13T11:57:49Z</time>
      </trkpt>
      <trkpt lat="46.504171751439571" lon="8.895586095750332">
        <ele>2163.0999999999999</ele>
        <time>2016-03-13T11:57:56Z</time>
      </trkpt>
      <trkpt lat="46.504207709804177" lon="8.895571595057845">
        <ele>2163.0999999999999</ele>
        <time>2016-03-13T11:58:08Z</time>
      </trkpt>
      <trkpt lat="46.504275938495994" lon="8.895530020818114">
        <ele>2163.0999999999999</ele>
        <time>2016-03-13T11:58:18Z</time>
      </trkpt>
      <trkpt lat="46.504274178296328" lon="8.895524656400085">
        <ele>2163.0999999999999</ele>
        <time>2016-03-13T11:58:32Z</time>
      </trkpt>
      <trkpt lat="46.504253810271621" lon="8.895486015826464">
        <ele>2163.0999999999999</ele>
        <time>2016-03-13T11:58:51Z</time>
      </trkpt>
      <trkpt lat="46.504291025921702" lon="8.895490458235145">
        <ele>2164.0599999999999</ele>
        <time>2016-03-13T11:59:07Z</time>
      </trkpt>
      <trkpt lat="46.504322290420532" lon="8.895427510142326">
        <ele>2165.0300000000002</ele>
        <time>2016-03-13T11:59:17Z</time>
      </trkpt>
      <trkpt lat="46.504361601546407" lon="8.895355341956019">
        <ele>2165.9899999999998</ele>
        <time>2016-03-13T11:59:26Z</time>
      </trkpt>
      <trkpt lat="46.50440233759582" lon="8.895294573158026">
        <ele>2166.4699999999998</ele>
        <time>2016-03-13T11:59:35Z</time>
      </trkpt>
      <trkpt lat="46.504478612914681" lon="8.895193319767714">
        <ele>2167.4299999999998</ele>
        <time>2016-03-13T11:59:49Z</time>
      </trkpt>
      <trkpt lat="46.504485988989472" lon="8.895181082189083">
        <ele>2167.4299999999998</ele>
        <time>2016-03-13T11:59:51Z</time>
      </trkpt>
      <trkpt lat="46.504526808857918" lon="8.895108830183744">
        <ele>2168.3899999999999</ele>
        <time>2016-03-13T12:00:02Z</time>
      </trkpt>
      <trkpt lat="46.504582045599818" lon="8.895051749423146">
        <ele>2169.3499999999999</ele>
        <time>2016-03-13T12:00:13Z</time>
      </trkpt>
      <trkpt lat="46.504607442766428" lon="8.894982766360045">
        <ele>2170.3099999999999</ele>
        <time>2016-03-13T12:00:23Z</time>
      </trkpt>
      <trkpt lat="46.504620099440217" lon="8.894954267889261">
        <ele>2170.79</ele>
        <time>2016-03-13T12:00:27Z</time>
      </trkpt>
      <trkpt lat="46.504664104431868" lon="8.894873047247529">
        <ele>2171.27</ele>
        <time>2016-03-13T12:00:36Z</time>
      </trkpt>
      <trkpt lat="46.504707355052233" lon="8.894824348390102">
        <ele>2172.2399999999998</ele>
        <time>2016-03-13T12:00:46Z</time>
      </trkpt>
      <trkpt lat="46.504767956212163" lon="8.894792497158051">
        <ele>2173.6799999999998</ele>
        <time>2016-03-13T12:00:58Z</time>
      </trkpt>
      <trkpt lat="46.504793018102646" lon="8.894736086949706">
        <ele>2175.5999999999999</ele>
        <time>2016-03-13T12:01:09Z</time>
      </trkpt>
      <trkpt lat="46.504810117185116" lon="8.894708175212145">
        <ele>2177.04</ele>
        <time>2016-03-13T12:01:19Z</time>
      </trkpt>
      <trkpt lat="46.504843896254897" lon="8.894666684791446">
        <ele>2178.9699999999998</ele>
        <time>2016-03-13T12:01:30Z</time>
      </trkpt>
      <trkpt lat="46.504864851012826" lon="8.8946673553437">
        <ele>2179.9299999999998</ele>
        <time>2016-03-13T12:01:38Z</time>
      </trkpt>
      <trkpt lat="46.504897875711322" lon="8.894682610407472">
        <ele>2181.3699999999999</ele>
        <time>2016-03-13T12:01:47Z</time>
      </trkpt>
      <trkpt lat="46.504914052784443" lon="8.894653022289276">
        <ele>2182.3299999999999</ele>
        <time>2016-03-13T12:01:56Z</time>
      </trkpt>
      <trkpt lat="46.504934253171086" lon="8.894633911550045">
        <ele>2183.77</ele>
        <time>2016-03-13T12:02:04Z</time>
      </trkpt>
      <trkpt lat="46.504964092746377" lon="8.894634665921331">
        <ele>2185.21</ele>
        <time>2016-03-13T12:02:15Z</time>
      </trkpt>
      <trkpt lat="46.504984376952052" lon="8.894645478576422">
        <ele>2185.6900000000001</ele>
        <time>2016-03-13T12:02:26Z</time>
      </trkpt>
      <trkpt lat="46.504982868209481" lon="8.894651597365737">
        <ele>2185.6900000000001</ele>
        <time>2016-03-13T12:02:34Z</time>
      </trkpt>
      <trkpt lat="46.505011366680264" lon="8.894666014239192">
        <ele>2186.6599999999999</ele>
        <time>2016-03-13T12:02:45Z</time>
      </trkpt>
      <trkpt lat="46.5050526894629" lon="8.894685711711645">
        <ele>2188.5799999999999</ele>
        <time>2016-03-13T12:02:57Z</time>
      </trkpt>
      <trkpt lat="46.505082361400127" lon="8.894689986482263">
        <ele>2189.54</ele>
        <time>2016-03-13T12:03:06Z</time>
      </trkpt>
      <trkpt lat="46.505127204582095" lon="8.894625110551715">
        <ele>2190.5</ele>
        <time>2016-03-13T12:03:18Z</time>
      </trkpt>
      <trkpt lat="46.505162827670574" lon="8.894555121660233">
        <ele>2191.9400000000001</ele>
        <time>2016-03-13T12:03:29Z</time>
      </trkpt>
      <trkpt lat="46.505201887339354" lon="8.894483372569084">
        <ele>2193.8699999999999</ele>
        <time>2016-03-13T12:03:41Z</time>
      </trkpt>
      <trkpt lat="46.505236336961389" lon="8.894413132220507">
        <ele>2194.3499999999999</ele>
        <time>2016-03-13T12:03:52Z</time>
      </trkpt>
      <trkpt lat="46.505229212343693" lon="8.894404834136367">
        <ele>2194.3499999999999</ele>
        <time>2016-03-13T12:04:06Z</time>
      </trkpt>
      <trkpt lat="46.505245892331004" lon="8.894403409212828">
        <ele>2194.3499999999999</ele>
        <time>2016-03-13T12:04:23Z</time>
      </trkpt>
      <trkpt lat="46.505273887887597" lon="8.894366445019841">
        <ele>2195.3099999999999</ele>
        <time>2016-03-13T12:04:39Z</time>
      </trkpt>
      <trkpt lat="46.505326861515641" lon="8.89436200261116">
        <ele>2197.23</ele>
        <time>2016-03-13T12:04:47Z</time>
      </trkpt>
      <trkpt lat="46.505373464897275" lon="8.89440399594605">
        <ele>2199.1500000000001</ele>
        <time>2016-03-13T12:04:56Z</time>
      </trkpt>
      <trkpt lat="46.505385786294937" lon="8.894507847726345">
        <ele>2201.0799999999999</ele>
        <time>2016-03-13T12:05:07Z</time>
      </trkpt>
      <trkpt lat="46.505381427705288" lon="8.894513715058565">
        <ele>2200.1100000000001</ele>
        <time>2016-03-13T12:05:20Z</time>
      </trkpt>
      <trkpt lat="46.505373297259212" lon="8.894497957080603">
        <ele>2200.1100000000001</ele>
        <time>2016-03-13T12:05:28Z</time>
      </trkpt>
      <trkpt lat="46.505366759374738" lon="8.894511871039867">
        <ele>2200.5900000000001</ele>
        <time>2016-03-13T12:05:39Z</time>
      </trkpt>
      <trkpt lat="46.505359634757042" lon="8.894535508006811">
        <ele>2200.5900000000001</ele>
        <time>2016-03-13T12:05:41Z</time>
      </trkpt>
      <trkpt lat="46.505349827930331" lon="8.894627206027508">
        <ele>2200.5900000000001</ele>
        <time>2016-03-13T12:05:47Z</time>
      </trkpt>
      <trkpt lat="46.505342032760382" lon="8.89480565674603">
        <ele>2198.1900000000001</ele>
        <time>2016-03-13T12:05:58Z</time>
      </trkpt>
      <trkpt lat="46.505309427157044" lon="8.894908167421818">
        <ele>2198.1900000000001</ele>
        <time>2016-03-13T12:06:06Z</time>
      </trkpt>
      <trkpt lat="46.505299955606461" lon="8.894955944269896">
        <ele>2197.23</ele>
        <time>2016-03-13T12:06:10Z</time>
      </trkpt>
      <trkpt lat="46.5053272806108" lon="8.895145207643509">
        <ele>2197.23</ele>
        <time>2016-03-13T12:06:23Z</time>
      </trkpt>
      <trkpt lat="46.505334908142686" lon="8.895269092172384">
        <ele>2197.71</ele>
        <time>2016-03-13T12:06:33Z</time>
      </trkpt>
      <trkpt lat="46.505321748554707" lon="8.895310331135988">
        <ele>2198.1900000000001</ele>
        <time>2016-03-13T12:06:36Z</time>
      </trkpt>
      <trkpt lat="46.505279168486595" lon="8.895396580919623">
        <ele>2196.75</ele>
        <time>2016-03-13T12:06:44Z</time>
      </trkpt>
      <trkpt lat="46.50527841411531" lon="8.895443603396416">
        <ele>2196.27</ele>
        <time>2016-03-13T12:06:47Z</time>
      </trkpt>
      <trkpt lat="46.505291238427162" lon="8.895535888150334">
        <ele>2196.27</ele>
        <time>2016-03-13T12:06:57Z</time>
      </trkpt>
      <trkpt lat="46.505270954221487" lon="8.895628424361348">
        <ele>2196.75</ele>
        <time>2016-03-13T12:07:05Z</time>
      </trkpt>
      <trkpt lat="46.50524714961648" lon="8.895694892853499">
        <ele>2197.23</ele>
        <time>2016-03-13T12:07:15Z</time>
      </trkpt>
      <trkpt lat="46.505252178758383" lon="8.895757170394063">
        <ele>2197.23</ele>
        <time>2016-03-13T12:07:23Z</time>
      </trkpt>
      <trkpt lat="46.505242120474577" lon="8.895850796252489">
        <ele>2196.27</ele>
        <time>2016-03-13T12:07:33Z</time>
      </trkpt>
      <trkpt lat="46.50524371303618" lon="8.895889855921269">
        <ele>2195.3099999999999</ele>
        <time>2016-03-13T12:07:36Z</time>
      </trkpt>
      <trkpt lat="46.505230972543359" lon="8.896020110696554">
        <ele>2194.8299999999999</ele>
        <time>2016-03-13T12:07:48Z</time>
      </trkpt>
      <trkpt lat="46.505294926464558" lon="8.896117508411408">
        <ele>2196.27</ele>
        <time>2016-03-13T12:08:00Z</time>
      </trkpt>
      <trkpt lat="46.505340775474906" lon="8.896152293309569">
        <ele>2197.23</ele>
        <time>2016-03-13T12:08:11Z</time>
      </trkpt>
      <trkpt lat="46.505395760759711" lon="8.896189844235778">
        <ele>2198.1900000000001</ele>
        <time>2016-03-13T12:08:29Z</time>
      </trkpt>
      <trkpt lat="46.505403555929661" lon="8.896195124834776">
        <ele>2198.6700000000001</ele>
        <time>2016-03-13T12:08:30Z</time>
      </trkpt>
      <trkpt lat="46.505471365526319" lon="8.896299311891198">
        <ele>2197.71</ele>
        <time>2016-03-13T12:08:40Z</time>
      </trkpt>
      <trkpt lat="46.505479495972395" lon="8.896310795098543">
        <ele>2197.71</ele>
        <time>2016-03-13T12:08:41Z</time>
      </trkpt>
      <trkpt lat="46.505544371902943" lon="8.896381035447121">
        <ele>2196.27</ele>
        <time>2016-03-13T12:08:50Z</time>
      </trkpt>
      <trkpt lat="46.505556777119637" lon="8.896543141454458">
        <ele>2197.23</ele>
        <time>2016-03-13T12:09:04Z</time>
      </trkpt>
      <trkpt lat="46.505566164851189" lon="8.896582452580333">
        <ele>2195.79</ele>
        <time>2016-03-13T12:09:11Z</time>
      </trkpt>
      <trkpt lat="46.505630621686578" lon="8.896669121459127">
        <ele>2194.8299999999999</ele>
        <time>2016-03-13T12:09:22Z</time>
      </trkpt>
      <trkpt lat="46.505676805973053" lon="8.896737266331911">
        <ele>2197.23</ele>
        <time>2016-03-13T12:09:33Z</time>
      </trkpt>
      <trkpt lat="46.505709076300263" lon="8.896761573851109">
        <ele>2197.71</ele>
        <time>2016-03-13T12:09:45Z</time>
      </trkpt>
      <trkpt lat="46.505719888955355" lon="8.896762495860457">
        <ele>2197.71</ele>
        <time>2016-03-13T12:09:59Z</time>
      </trkpt>
      <trkpt lat="46.505744950845838" lon="8.896844387054443">
        <ele>2198.6700000000001</ele>
        <time>2016-03-13T12:10:14Z</time>
      </trkpt>
      <trkpt lat="46.505755260586739" lon="8.896879004314542">
        <ele>2200.1100000000001</ele>
        <time>2016-03-13T12:10:23Z</time>
      </trkpt>
      <trkpt lat="46.505717122927308" lon="8.896884620189667">
        <ele>2199.1500000000001</ele>
        <time>2016-03-13T12:10:39Z</time>
      </trkpt>
      <trkpt lat="46.505729360505939" lon="8.896915800869465">
        <ele>2199.1500000000001</ele>
        <time>2016-03-13T12:10:57Z</time>
      </trkpt>
      <trkpt lat="46.505732713267207" lon="8.896930888295174">
        <ele>2198.6700000000001</ele>
        <time>2016-03-13T12:10:59Z</time>
      </trkpt>
      <trkpt lat="46.505753081291914" lon="8.896978748962283">
        <ele>2197.23</ele>
        <time>2016-03-13T12:11:03Z</time>
      </trkpt>
      <trkpt lat="46.505776802077889" lon="8.897139765322208">
        <ele>2196.27</ele>
        <time>2016-03-13T12:11:15Z</time>
      </trkpt>
      <trkpt lat="46.505777891725302" lon="8.897216711193323">
        <ele>2197.23</ele>
        <time>2016-03-13T12:11:22Z</time>
      </trkpt>
      <trkpt lat="46.505768001079559" lon="8.89729080721736">
        <ele>2197.71</ele>
        <time>2016-03-13T12:11:32Z</time>
      </trkpt>
      <trkpt lat="46.505734054371715" lon="8.897361885756254">
        <ele>2199.1500000000001</ele>
        <time>2016-03-13T12:11:41Z</time>
      </trkpt>
      <trkpt lat="46.50569424033165" lon="8.897431790828705">
        <ele>2200.1100000000001</ele>
        <time>2016-03-13T12:11:52Z</time>
      </trkpt>
      <trkpt lat="46.505695916712284" lon="8.897490045055747">
        <ele>2199.1500000000001</ele>
        <time>2016-03-13T12:11:59Z</time>
      </trkpt>
      <trkpt lat="46.50569424033165" lon="8.897543270140886">
        <ele>2198.6700000000001</ele>
        <time>2016-03-13T12:12:03Z</time>
      </trkpt>
      <trkpt lat="46.505704130977392" lon="8.897562213242054">
        <ele>2197.71</ele>
        <time>2016-03-13T12:12:05Z</time>
      </trkpt>
      <trkpt lat="46.505756014958024" lon="8.897668914869428">
        <ele>2198.1900000000001</ele>
        <time>2016-03-13T12:12:17Z</time>
      </trkpt>
      <trkpt lat="46.505770850926638" lon="8.897678554058075">
        <ele>2198.1900000000001</ele>
        <time>2016-03-13T12:12:25Z</time>
      </trkpt>
      <trkpt lat="46.505784681066871" lon="8.897674446925521">
        <ele>2198.1900000000001</ele>
        <time>2016-03-13T12:12:44Z</time>
      </trkpt>
      <trkpt lat="46.505825081840158" lon="8.897735383361578">
        <ele>2198.1900000000001</ele>
        <time>2016-03-13T12:13:00Z</time>
      </trkpt>
      <trkpt lat="46.505844946950674" lon="8.897756338119507">
        <ele>2198.1900000000001</ele>
        <time>2016-03-13T12:13:10Z</time>
      </trkpt>
      <trkpt lat="46.505856849253178" lon="8.897734880447388">
        <ele>2198.1900000000001</ele>
        <time>2016-03-13T12:13:27Z</time>
      </trkpt>
      <trkpt lat="46.505852909758687" lon="8.897753236815333">
        <ele>2198.1900000000001</ele>
        <time>2016-03-13T12:13:50Z</time>
      </trkpt>
      <trkpt lat="46.505849054083228" lon="8.897760277613998">
        <ele>2198.1900000000001</ele>
        <time>2016-03-13T12:14:01Z</time>
      </trkpt>
      <trkpt lat="46.505864476785064" lon="8.897760277613998">
        <ele>2198.1900000000001</ele>
        <time>2016-03-13T12:14:25Z</time>
      </trkpt>
      <trkpt lat="46.505880653858185" lon="8.897797241806984">
        <ele>2198.6700000000001</ele>
        <time>2016-03-13T12:14:33Z</time>
      </trkpt>
      <trkpt lat="46.505883000791073" lon="8.89785323292017">
        <ele>2199.6300000000001</ele>
        <time>2016-03-13T12:14:45Z</time>
      </trkpt>
      <trkpt lat="46.505874451249838" lon="8.897857340052724">
        <ele>2200.1100000000001</ele>
        <time>2016-03-13T12:14:57Z</time>
      </trkpt>
      <trkpt lat="46.505852909758687" lon="8.897895980626345">
        <ele>2199.1500000000001</ele>
        <time>2016-03-13T12:15:09Z</time>
      </trkpt>
      <trkpt lat="46.505835726857185" lon="8.897890197113156">
        <ele>2198.6700000000001</ele>
        <time>2016-03-13T12:15:27Z</time>
      </trkpt>
      <trkpt lat="46.505849054083228" lon="8.897890029475093">
        <ele>2199.1500000000001</ele>
        <time>2016-03-13T12:15:39Z</time>
      </trkpt>
      <trkpt lat="46.505840588361025" lon="8.89789866283536">
        <ele>2198.1900000000001</ele>
        <time>2016-03-13T12:15:51Z</time>
      </trkpt>
      <trkpt lat="46.505843522027135" lon="8.897910313680768">
        <ele>2198.6700000000001</ele>
        <time>2016-03-13T12:16:04Z</time>
      </trkpt>
      <trkpt lat="46.505855843424797" lon="8.897906206548214">
        <ele>2198.1900000000001</ele>
        <time>2016-03-13T12:16:20Z</time>
      </trkpt>
      <trkpt lat="46.505816113203764" lon="8.897884078323841">
        <ele>2197.71</ele>
        <time>2016-03-13T12:16:38Z</time>
      </trkpt>
      <trkpt lat="46.505806893110275" lon="8.897876869887114">
        <ele>2197.71</ele>
        <time>2016-03-13T12:16:55Z</time>
      </trkpt>
      <trkpt lat="46.505800019949675" lon="8.897866224870086">
        <ele>2198.6700000000001</ele>
        <time>2016-03-13T12:17:15Z</time>
      </trkpt>
      <trkpt lat="46.50579784065485" lon="8.897874606773257">
        <ele>2197.71</ele>
        <time>2016-03-13T12:17:30Z</time>
      </trkpt>
      <trkpt lat="46.505809156224132" lon="8.897865889593959">
        <ele>2197.71</ele>
        <time>2016-03-13T12:18:01Z</time>
      </trkpt>
      <trkpt lat="46.505801780149341" lon="8.897863961756229">
        <ele>2197.71</ele>
        <time>2016-03-13T12:18:24Z</time>
      </trkpt>
      <trkpt lat="46.505798930302262" lon="8.897872846573591">
        <ele>2197.71</ele>
        <time>2016-03-13T12:18:48Z</time>
      </trkpt>
      <trkpt lat="46.505802785977721" lon="8.897864548489451">
        <ele>2197.71</ele>
        <time>2016-03-13T12:19:08Z</time>
      </trkpt>
      <trkpt lat="46.505815694108605" lon="8.89786790125072">
        <ele>2197.71</ele>
        <time>2016-03-13T12:19:26Z</time>
      </trkpt>
      <trkpt lat="46.505827344954014" lon="8.897860189899802">
        <ele>2197.71</ele>
        <time>2016-03-13T12:19:47Z</time>
      </trkpt>
      <trkpt lat="46.505822567269206" lon="8.897853903472424">
        <ele>2198.1900000000001</ele>
        <time>2016-03-13T12:20:02Z</time>
      </trkpt>
      <trkpt lat="46.505801528692245" lon="8.89784149825573">
        <ele>2197.71</ele>
        <time>2016-03-13T12:20:23Z</time>
      </trkpt>
      <trkpt lat="46.505809240043163" lon="8.897843426093459">
        <ele>2197.71</ele>
        <time>2016-03-13T12:20:55Z</time>
      </trkpt>
      <trkpt lat="46.505836229771376" lon="8.8978585973382">
        <ele>2197.71</ele>
        <time>2016-03-13T12:21:28Z</time>
      </trkpt>
      <trkpt lat="46.505843354389071" lon="8.897854490205646">
        <ele>2197.71</ele>
        <time>2016-03-13T12:21:57Z</time>
      </trkpt>
      <trkpt lat="46.505853496491909" lon="8.897849125787616">
        <ele>2197.71</ele>
        <time>2016-03-13T12:22:26Z</time>
      </trkpt>
      <trkpt lat="46.505853831768036" lon="8.897863877937198">
        <ele>2197.71</ele>
        <time>2016-03-13T12:22:55Z</time>
      </trkpt>
      <trkpt lat="46.505843438208103" lon="8.897871673107147">
        <ele>2197.23</ele>
        <time>2016-03-13T12:23:37Z</time>
      </trkpt>
      <trkpt lat="46.505815777927637" lon="8.89786446467042">
        <ele>2197.23</ele>
        <time>2016-03-13T12:24:11Z</time>
      </trkpt>
      <trkpt lat="46.505813347175717" lon="8.897872678935528">
        <ele>2197.71</ele>
        <time>2016-03-13T12:24:36Z</time>
      </trkpt>
      <trkpt lat="46.505817789584398" lon="8.897884665057063">
        <ele>2197.23</ele>
        <time>2016-03-13T12:25:01Z</time>
      </trkpt>
      <trkpt lat="46.505822651088238" lon="8.897880557924509">
        <ele>2197.23</ele>
        <time>2016-03-13T12:25:40Z</time>
      </trkpt>
      <trkpt lat="46.505817957222462" lon="8.897886006161571">
        <ele>2197.23</ele>
        <time>2016-03-13T12:26:21Z</time>
      </trkpt>
      <trkpt lat="46.505818460136652" lon="8.89788843691349">
        <ele>2197.23</ele>
        <time>2016-03-13T12:27:02Z</time>
      </trkpt>
      <trkpt lat="46.505803372710943" lon="8.897895645350218">
        <ele>2196.75</ele>
        <time>2016-03-13T12:27:38Z</time>
      </trkpt>
      <trkpt lat="46.505793817341328" lon="8.89790260232985">
        <ele>2197.23</ele>
        <time>2016-03-13T12:28:07Z</time>
      </trkpt>
      <trkpt lat="46.505799181759357" lon="8.897902350872755">
        <ele>2196.75</ele>
        <time>2016-03-13T12:28:37Z</time>
      </trkpt>
      <trkpt lat="46.50578853674233" lon="8.897907380014658">
        <ele>2197.23</ele>
        <time>2016-03-13T12:29:06Z</time>
      </trkpt>
      <trkpt lat="46.50578367523849" lon="8.897897992283106">
        <ele>2196.75</ele>
        <time>2016-03-13T12:29:32Z</time>
      </trkpt>
      <trkpt lat="46.505780573934317" lon="8.897902434691787">
        <ele>2196.75</ele>
        <time>2016-03-13T12:29:59Z</time>
      </trkpt>
      <trkpt lat="46.505783423781395" lon="8.897908218204975">
        <ele>2196.75</ele>
        <time>2016-03-13T12:30:30Z</time>
      </trkpt>
      <trkpt lat="46.505782166495919" lon="8.897906374186277">
        <ele>2196.75</ele>
        <time>2016-03-13T12:30:55Z</time>
      </trkpt>
      <trkpt lat="46.505776634439826" lon="8.897900087758899">
        <ele>2196.75</ele>
        <time>2016-03-13T12:31:21Z</time>
      </trkpt>
      <trkpt lat="46.505784597247839" lon="8.89791090041399">
        <ele>2196.75</ele>
        <time>2016-03-13T12:31:51Z</time>
      </trkpt>
      <trkpt lat="46.505782920867205" lon="8.897907715290785">
        <ele>2196.27</ele>
        <time>2016-03-13T12:32:17Z</time>
      </trkpt>
      <trkpt lat="46.505779568105936" lon="8.897902686148882">
        <ele>2196.27</ele>
        <time>2016-03-13T12:32:38Z</time>
      </trkpt>
      <trkpt lat="46.505777053534985" lon="8.897905116900802">
        <ele>2196.27</ele>
        <time>2016-03-13T12:32:58Z</time>
      </trkpt>
      <trkpt lat="46.505780406296253" lon="8.897892460227013">
        <ele>2197.23</ele>
        <time>2016-03-13T12:33:12Z</time>
      </trkpt>
      <trkpt lat="46.505783256143332" lon="8.897895310074091">
        <ele>2197.23</ele>
        <time>2016-03-13T12:33:21Z</time>
      </trkpt>
      <trkpt lat="46.5057831723243" lon="8.897921126335859">
        <ele>2196.27</ele>
        <time>2016-03-13T12:33:34Z</time>
      </trkpt>
      <trkpt lat="46.505787698552012" lon="8.897900674492121">
        <ele>2196.27</ele>
        <time>2016-03-13T12:33:46Z</time>
      </trkpt>
      <trkpt lat="46.50578853674233" lon="8.897886592894793">
        <ele>2197.23</ele>
        <time>2016-03-13T12:33:57Z</time>
      </trkpt>
      <trkpt lat="46.505793901160359" lon="8.897891202941537">
        <ele>2197.23</ele>
        <time>2016-03-13T12:34:07Z</time>
      </trkpt>
      <trkpt lat="46.505788955837488" lon="8.897894388064742">
        <ele>2197.23</ele>
        <time>2016-03-13T12:34:15Z</time>
      </trkpt>
      <trkpt lat="46.505766827613115" lon="8.897926658391953">
        <ele>2196.75</ele>
        <time>2016-03-13T12:34:25Z</time>
      </trkpt>
      <trkpt lat="46.505709160119295" lon="8.897990947589278">
        <ele>2195.3099999999999</ele>
        <time>2016-03-13T12:34:34Z</time>
      </trkpt>
      <trkpt lat="46.505702873691916" lon="8.897942416369915">
        <ele>2194.3499999999999</ele>
        <time>2016-03-13T12:34:44Z</time>
      </trkpt>
      <trkpt lat="46.505704214796424" lon="8.897939566522837">
        <ele>2194.3499999999999</ele>
        <time>2016-03-13T12:34:57Z</time>
      </trkpt>
      <trkpt lat="46.505674626678228" lon="8.897963119670749">
        <ele>2193.8699999999999</ele>
        <time>2016-03-13T12:35:13Z</time>
      </trkpt>
      <trkpt lat="46.505651492625475" lon="8.897989187389612">
        <ele>2192.9000000000001</ele>
        <time>2016-03-13T12:35:21Z</time>
      </trkpt>
      <trkpt lat="46.50564830750227" lon="8.898038389161229">
        <ele>2192.9000000000001</ele>
        <time>2016-03-13T12:35:32Z</time>
      </trkpt>
      <trkpt lat="46.505649983882904" lon="8.898019948974252">
        <ele>2191.9400000000001</ele>
        <time>2016-03-13T12:35:43Z</time>
      </trkpt>
      <trkpt lat="46.505656186491251" lon="8.898024894297123">
        <ele>2191.9400000000001</ele>
        <time>2016-03-13T12:36:00Z</time>
      </trkpt>
      <trkpt lat="46.505652414634824" lon="8.898047776892781">
        <ele>2192.4200000000001</ele>
        <time>2016-03-13T12:36:15Z</time>
      </trkpt>
      <trkpt lat="46.50564000941813" lon="8.898075520992279">
        <ele>2191.9400000000001</ele>
        <time>2016-03-13T12:36:29Z</time>
      </trkpt>
      <trkpt lat="46.50563221424818" lon="8.898127153515816">
        <ele>2190.98</ele>
        <time>2016-03-13T12:36:37Z</time>
      </trkpt>
      <trkpt lat="46.505590975284576" lon="8.898203931748867">
        <ele>2189.0599999999999</ele>
        <time>2016-03-13T12:36:46Z</time>
      </trkpt>
      <trkpt lat="46.505556860938668" lon="8.898315746337175">
        <ele>2186.1799999999998</ele>
        <time>2016-03-13T12:36:56Z</time>
      </trkpt>
      <trkpt lat="46.505527859553695" lon="8.898421945050359">
        <ele>2182.8099999999999</ele>
        <time>2016-03-13T12:37:05Z</time>
      </trkpt>
      <trkpt lat="46.505483267828822" lon="8.898515403270721">
        <ele>2180.8899999999999</ele>
        <time>2016-03-13T12:37:15Z</time>
      </trkpt>
      <trkpt lat="46.505455859005451" lon="8.89856225810945">
        <ele>2179.9299999999998</ele>
        <time>2016-03-13T12:37:20Z</time>
      </trkpt>
      <trkpt lat="46.505437921732664" lon="8.898633504286408">
        <ele>2179.9299999999998</ele>
        <time>2016-03-13T12:37:27Z</time>
      </trkpt>
      <trkpt lat="46.505417972803116" lon="8.898684633895755">
        <ele>2177.52</ele>
        <time>2016-03-13T12:37:31Z</time>
      </trkpt>
      <trkpt lat="46.505366843193769" lon="8.898779265582562">
        <ele>2174.6399999999999</ele>
        <time>2016-03-13T12:37:41Z</time>
      </trkpt>
      <trkpt lat="46.505342870950699" lon="8.898845063522458">
        <ele>2172.7199999999998</ele>
        <time>2016-03-13T12:37:48Z</time>
      </trkpt>
      <trkpt lat="46.505295764654875" lon="8.898954447358847">
        <ele>2169.8299999999999</ele>
        <time>2016-03-13T12:37:57Z</time>
      </trkpt>
      <trkpt lat="46.505265505984426" lon="8.899024100974202">
        <ele>2167.9099999999999</ele>
        <time>2016-03-13T12:38:04Z</time>
      </trkpt>
      <trkpt lat="46.505247568711638" lon="8.899121666327119">
        <ele>2165.5100000000002</ele>
        <time>2016-03-13T12:38:11Z</time>
      </trkpt>
      <trkpt lat="46.505219405516982" lon="8.899170532822609">
        <ele>2164.0599999999999</ele>
        <time>2016-03-13T12:38:15Z</time>
      </trkpt>
      <trkpt lat="46.505196774378419" lon="8.899205066263676">
        <ele>2163.0999999999999</ele>
        <time>2016-03-13T12:38:18Z</time>
      </trkpt>
      <trkpt lat="46.505146734416485" lon="8.899302463978529">
        <ele>2160.2199999999998</ele>
        <time>2016-03-13T12:38:27Z</time>
      </trkpt>
      <trkpt lat="46.505155200138688" lon="8.899339344352484">
        <ele>2159.7399999999998</ele>
        <time>2016-03-13T12:38:30Z</time>
      </trkpt>
      <trkpt lat="46.505153691396117" lon="8.899399694055319">
        <ele>2159.2600000000002</ele>
        <time>2016-03-13T12:38:34Z</time>
      </trkpt>
      <trkpt lat="46.505146650597453" lon="8.899429365992546">
        <ele>2158.7800000000002</ele>
        <time>2016-03-13T12:38:36Z</time>
      </trkpt>
      <trkpt lat="46.505133742466569" lon="8.899524165317416">
        <ele>2156.8600000000001</ele>
        <time>2016-03-13T12:38:43Z</time>
      </trkpt>
      <trkpt lat="46.505132401362062" lon="8.899568002671003">
        <ele>2156.3699999999999</ele>
        <time>2016-03-13T12:38:46Z</time>
      </trkpt>
      <trkpt lat="46.50512745603919" lon="8.899596752598882">
        <ele>2156.3699999999999</ele>
        <time>2016-03-13T12:38:48Z</time>
      </trkpt>
      <trkpt lat="46.505055790767074" lon="8.899705801159143">
        <ele>2152.5300000000002</ele>
        <time>2016-03-13T12:38:57Z</time>
      </trkpt>
      <trkpt lat="46.505048247054219" lon="8.899709489196539">
        <ele>2152.0500000000002</ele>
        <time>2016-03-13T12:38:58Z</time>
      </trkpt>
      <trkpt lat="46.505011953413486" lon="8.899784339591861">
        <ele>2150.6100000000001</ele>
        <time>2016-03-13T12:39:07Z</time>
      </trkpt>
      <trkpt lat="46.504987729713321" lon="8.899839073419571">
        <ele>2149.1599999999999</ele>
        <time>2016-03-13T12:39:11Z</time>
      </trkpt>
      <trkpt lat="46.504978761076927" lon="8.899904536083341">
        <ele>2148.6799999999998</ele>
        <time>2016-03-13T12:39:16Z</time>
      </trkpt>
      <trkpt lat="46.504930481314659" lon="8.899997072294354">
        <ele>2145.3200000000002</ele>
        <time>2016-03-13T12:39:24Z</time>
      </trkpt>
      <trkpt lat="46.504889409989119" lon="8.900099834427238">
        <ele>2142.9200000000001</ele>
        <time>2016-03-13T12:39:32Z</time>
      </trkpt>
      <trkpt lat="46.504854960367084" lon="8.900143085047603">
        <ele>2141.4699999999998</ele>
        <time>2016-03-13T12:39:36Z</time>
      </trkpt>
      <trkpt lat="46.504848590120673" lon="8.900154819712043">
        <ele>2141.4699999999998</ele>
        <time>2016-03-13T12:39:37Z</time>
      </trkpt>
      <trkpt lat="46.504840459674597" lon="8.900192873552442">
        <ele>2140.0300000000002</ele>
        <time>2016-03-13T12:39:40Z</time>
      </trkpt>
      <trkpt lat="46.504792599007487" lon="8.900293037295342">
        <ele>2136.6700000000001</ele>
        <time>2016-03-13T12:39:48Z</time>
      </trkpt>
      <trkpt lat="46.504779858514667" lon="8.900334360077977">
        <ele>2135.71</ele>
        <time>2016-03-13T12:39:53Z</time>
      </trkpt>
      <trkpt lat="46.504784552380443" lon="8.900390937924385">
        <ele>2133.7800000000002</ele>
        <time>2016-03-13T12:39:58Z</time>
      </trkpt>
      <trkpt lat="46.504788240417838" lon="8.900458831340075">
        <ele>2132.8200000000002</ele>
        <time>2016-03-13T12:40:04Z</time>
      </trkpt>
      <trkpt lat="46.50477516464889" lon="8.900492275133729">
        <ele>2132.3400000000001</ele>
        <time>2016-03-13T12:40:07Z</time>
      </trkpt>
      <trkpt lat="46.504731494933367" lon="8.900642143562436">
        <ele>2129.9400000000001</ele>
        <time>2016-03-13T12:40:19Z</time>
      </trkpt>
      <trkpt lat="46.504710372537374" lon="8.900743145495653">
        <ele>2129.9400000000001</ele>
        <time>2016-03-13T12:40:28Z</time>
      </trkpt>
      <trkpt lat="46.504704840481281" lon="8.900776086375117">
        <ele>2129.46</ele>
        <time>2016-03-13T12:40:30Z</time>
      </trkpt>
      <trkpt lat="46.504678688943386" lon="8.90092771500349">
        <ele>2127.0500000000002</ele>
        <time>2016-03-13T12:40:42Z</time>
      </trkpt>
      <trkpt lat="46.504675922915339" lon="8.900949843227863">
        <ele>2125.6100000000001</ele>
        <time>2016-03-13T12:40:49Z</time>
      </trkpt>
      <trkpt lat="46.504677850753069" lon="8.900951435789466">
        <ele>2125.6100000000001</ele>
        <time>2016-03-13T12:41:04Z</time>
      </trkpt>
      <trkpt lat="46.504682125523686" lon="8.900948083028197">
        <ele>2125.6100000000001</ele>
        <time>2016-03-13T12:41:27Z</time>
      </trkpt>
      <trkpt lat="46.504676258191466" lon="8.900945652276278">
        <ele>2125.6100000000001</ele>
        <time>2016-03-13T12:41:47Z</time>
      </trkpt>
      <trkpt lat="46.504657985642552" lon="8.900950010865927">
        <ele>2126.0900000000001</ele>
        <time>2016-03-13T12:41:58Z</time>
      </trkpt>
      <trkpt lat="46.504642479121685" lon="8.900997703894973">
        <ele>2124.1700000000001</ele>
        <time>2016-03-13T12:42:07Z</time>
      </trkpt>
      <trkpt lat="46.504643987864256" lon="8.901005499064922">
        <ele>2124.6500000000001</ele>
        <time>2016-03-13T12:42:10Z</time>
      </trkpt>
      <trkpt lat="46.504619596526027" lon="8.901193337514997">
        <ele>2121.29</ele>
        <time>2016-03-13T12:42:21Z</time>
      </trkpt>
      <trkpt lat="46.504626972600818" lon="8.901182105764747">
        <ele>2121.77</ele>
        <time>2016-03-13T12:42:31Z</time>
      </trkpt>
      <trkpt lat="46.504619009792805" lon="8.901186631992459">
        <ele>2121.29</ele>
        <time>2016-03-13T12:42:46Z</time>
      </trkpt>
      <trkpt lat="46.504624960944057" lon="8.901193253695965">
        <ele>2121.29</ele>
        <time>2016-03-13T12:42:50Z</time>
      </trkpt>
      <trkpt lat="46.504572993144393" lon="8.901364663615823">
        <ele>2117.9200000000001</ele>
        <time>2016-03-13T12:43:00Z</time>
      </trkpt>
      <trkpt lat="46.504552122205496" lon="8.901399113237858">
        <ele>2116.48</ele>
        <time>2016-03-13T12:43:03Z</time>
      </trkpt>
      <trkpt lat="46.504518175497651" lon="8.901470694690943">
        <ele>2114.0799999999999</ele>
        <time>2016-03-13T12:43:09Z</time>
      </trkpt>
      <trkpt lat="46.504513481631875" lon="8.901488464325666">
        <ele>2113.5999999999999</ele>
        <time>2016-03-13T12:43:10Z</time>
      </trkpt>
      <trkpt lat="46.50446243584156" lon="8.901628945022821">
        <ele>2109.75</ele>
        <time>2016-03-13T12:43:20Z</time>
      </trkpt>
      <trkpt lat="46.504431841894984" lon="8.901745285838842">
        <ele>2107.3499999999999</ele>
        <time>2016-03-13T12:43:28Z</time>
      </trkpt>
      <trkpt lat="46.504412395879626" lon="8.901787614449859">
        <ele>2107.3499999999999</ele>
        <time>2016-03-13T12:43:31Z</time>
      </trkpt>
      <trkpt lat="46.50438230484724" lon="8.901895321905613">
        <ele>2103.02</ele>
        <time>2016-03-13T12:43:39Z</time>
      </trkpt>
      <trkpt lat="46.5043705701828" lon="8.901914935559034">
        <ele>2102.54</ele>
        <time>2016-03-13T12:43:41Z</time>
      </trkpt>
      <trkpt lat="46.504312148317695" lon="8.902013758197427">
        <ele>2098.6999999999998</ele>
        <time>2016-03-13T12:43:50Z</time>
      </trkpt>
      <trkpt lat="46.504304688423872" lon="8.902031108736992">
        <ele>2098.21</ele>
        <time>2016-03-13T12:43:52Z</time>
      </trkpt>
      <trkpt lat="46.504245679825544" lon="8.902118448168039">
        <ele>2096.29</ele>
        <time>2016-03-13T12:44:00Z</time>
      </trkpt>
      <trkpt lat="46.504240985959768" lon="8.902146862819791">
        <ele>2095.8099999999999</ele>
        <time>2016-03-13T12:44:02Z</time>
      </trkpt>
      <trkpt lat="46.504177032038569" lon="8.902299078181386">
        <ele>2091.9699999999998</ele>
        <time>2016-03-13T12:44:13Z</time>
      </trkpt>
      <trkpt lat="46.504162196069956" lon="8.902322631329298">
        <ele>2091.4899999999998</ele>
        <time>2016-03-13T12:44:15Z</time>
      </trkpt>
      <trkpt lat="46.504143672063947" lon="8.902347274124622">
        <ele>2090.52</ele>
        <time>2016-03-13T12:44:17Z</time>
      </trkpt>
      <trkpt lat="46.504074689000845" lon="8.902497813105583">
        <ele>2088.1199999999999</ele>
        <time>2016-03-13T12:44:29Z</time>
      </trkpt>
      <trkpt lat="46.504070162773132" lon="8.902515582740307">
        <ele>2087.6399999999999</ele>
        <time>2016-03-13T12:44:30Z</time>
      </trkpt>
      <trkpt lat="46.504021547734737" lon="8.902638796716929">
        <ele>2084.7600000000002</ele>
        <time>2016-03-13T12:44:39Z</time>
      </trkpt>
      <trkpt lat="46.504023559391499" lon="8.902668720111251">
        <ele>2083.3099999999999</ele>
        <time>2016-03-13T12:44:41Z</time>
      </trkpt>
      <trkpt lat="46.504043089225888" lon="8.902729991823435">
        <ele>2081.8699999999999</ele>
        <time>2016-03-13T12:44:45Z</time>
      </trkpt>
      <trkpt lat="46.504047363996506" lon="8.902878267690539">
        <ele>2077.5500000000002</ele>
        <time>2016-03-13T12:44:55Z</time>
      </trkpt>
      <trkpt lat="46.504029259085655" lon="8.903004080057144">
        <ele>2074.6599999999999</ele>
        <time>2016-03-13T12:45:04Z</time>
      </trkpt>
      <trkpt lat="46.503979805856943" lon="8.903101896867156">
        <ele>2070.8200000000002</ele>
        <time>2016-03-13T12:45:15Z</time>
      </trkpt>
      <trkpt lat="46.503993719816208" lon="8.903122935444117">
        <ele>2068.8899999999999</ele>
        <time>2016-03-13T12:45:24Z</time>
      </trkpt>
      <trkpt lat="46.504013165831566" lon="8.903124611824751">
        <ele>2066.9699999999998</ele>
        <time>2016-03-13T12:45:30Z</time>
      </trkpt>
      <trkpt lat="46.503997659310699" lon="8.903214633464813">
        <ele>2065.0500000000002</ele>
        <time>2016-03-13T12:45:36Z</time>
      </trkpt>
      <trkpt lat="46.504021631553769" lon="8.903250424191356">
        <ele>2062.1700000000001</ele>
        <time>2016-03-13T12:45:44Z</time>
      </trkpt>
      <trkpt lat="46.504016267135739" lon="8.903297279030085">
        <ele>2060.7199999999998</ele>
        <time>2016-03-13T12:45:48Z</time>
      </trkpt>
      <trkpt lat="46.504010651260614" lon="8.903311779722571">
        <ele>2060.7199999999998</ele>
        <time>2016-03-13T12:45:58Z</time>
      </trkpt>
      <trkpt lat="46.503993552178144" lon="8.903315886855125">
        <ele>2060.7199999999998</ele>
        <time>2016-03-13T12:46:03Z</time>
      </trkpt>
      <trkpt lat="46.503950133919716" lon="8.903373638167977">
        <ele>2058.3200000000002</ele>
        <time>2016-03-13T12:46:08Z</time>
      </trkpt>
      <trkpt lat="46.503944182768464" lon="8.903384283185005">
        <ele>2057.8400000000001</ele>
        <time>2016-03-13T12:46:09Z</time>
      </trkpt>
      <trkpt lat="46.503863632678986" lon="8.903465420007706">
        <ele>2054.4699999999998</ele>
        <time>2016-03-13T12:46:20Z</time>
      </trkpt>
      <trkpt lat="46.503827339038253" lon="8.903517303988338">
        <ele>2052.5500000000002</ele>
        <time>2016-03-13T12:46:27Z</time>
      </trkpt>
      <trkpt lat="46.503783920779824" lon="8.903609253466129">
        <ele>2049.6700000000001</ele>
        <time>2016-03-13T12:46:36Z</time>
      </trkpt>
      <trkpt lat="46.503772102296352" lon="8.903635069727898">
        <ele>2049.6700000000001</ele>
        <time>2016-03-13T12:46:39Z</time>
      </trkpt>
      <trkpt lat="46.503714434802532" lon="8.903711261227727">
        <ele>2046.78</ele>
        <time>2016-03-13T12:46:49Z</time>
      </trkpt>
      <trkpt lat="46.503664311021566" lon="8.903807904571295">
        <ele>2043.9000000000001</ele>
        <time>2016-03-13T12:46:58Z</time>
      </trkpt>
      <trkpt lat="46.50366154499352" lon="8.903822153806686">
        <ele>2043.4200000000001</ele>
        <time>2016-03-13T12:47:00Z</time>
      </trkpt>
      <trkpt lat="46.503655593842268" lon="8.903880324214697">
        <ele>2041.5</ele>
        <time>2016-03-13T12:47:04Z</time>
      </trkpt>
      <trkpt lat="46.503633884713054" lon="8.903926340863109">
        <ele>2040.05</ele>
        <time>2016-03-13T12:47:08Z</time>
      </trkpt>
      <trkpt lat="46.503617540001869" lon="8.90402264893055">
        <ele>2037.1700000000001</ele>
        <time>2016-03-13T12:47:15Z</time>
      </trkpt>
      <trkpt lat="46.503594741225243" lon="8.904081573709846">
        <ele>2034.77</ele>
        <time>2016-03-13T12:47:22Z</time>
      </trkpt>
      <trkpt lat="46.503588957712054" lon="8.904123147949576">
        <ele>2032.3599999999999</ele>
        <time>2016-03-13T12:47:27Z</time>
      </trkpt>
      <trkpt lat="46.503584682941437" lon="8.904167069122195">
        <ele>2031.4000000000001</ele>
        <time>2016-03-13T12:47:30Z</time>
      </trkpt>
      <trkpt lat="46.503577390685678" lon="8.904226077720523">
        <ele>2030.4400000000001</ele>
        <time>2016-03-13T12:47:34Z</time>
      </trkpt>
      <trkpt lat="46.503541180863976" lon="8.904275028035045">
        <ele>2028.04</ele>
        <time>2016-03-13T12:47:43Z</time>
      </trkpt>
      <trkpt lat="46.503551993519068" lon="8.904275447130203">
        <ele>2028.52</ele>
        <time>2016-03-13T12:47:54Z</time>
      </trkpt>
      <trkpt lat="46.503549143671989" lon="8.904250133782625">
        <ele>2028.52</ele>
        <time>2016-03-13T12:48:09Z</time>
      </trkpt>
      <trkpt lat="46.503545120358467" lon="8.904267568141222">
        <ele>2028.04</ele>
        <time>2016-03-13T12:48:24Z</time>
      </trkpt>
      <trkpt lat="46.503522908315063" lon="8.904331270605326">
        <ele>2027.0799999999999</ele>
        <time>2016-03-13T12:48:28Z</time>
      </trkpt>
      <trkpt lat="46.503490135073662" lon="8.904443252831698">
        <ele>2023.23</ele>
        <time>2016-03-13T12:48:36Z</time>
      </trkpt>
      <trkpt lat="46.503461804240942" lon="8.904525982216001">
        <ele>2020.3499999999999</ele>
        <time>2016-03-13T12:48:43Z</time>
      </trkpt>
      <trkpt lat="46.503426767885685" lon="8.904606029391289">
        <ele>2017.46</ele>
        <time>2016-03-13T12:48:51Z</time>
      </trkpt>
      <trkpt lat="46.503423498943448" lon="8.904620194807649">
        <ele>2016.98</ele>
        <time>2016-03-13T12:48:52Z</time>
      </trkpt>
      <trkpt lat="46.503400281071663" lon="8.904717424884439">
        <ele>2013.6199999999999</ele>
        <time>2016-03-13T12:49:00Z</time>
      </trkpt>
      <trkpt lat="46.503370860591531" lon="8.904785821214318">
        <ele>2012.1800000000001</ele>
        <time>2016-03-13T12:49:06Z</time>
      </trkpt>
      <trkpt lat="46.503321658819914" lon="8.904859330505133">
        <ele>2010.73</ele>
        <time>2016-03-13T12:49:15Z</time>
      </trkpt>
      <trkpt lat="46.503275893628597" lon="8.904946921393275">
        <ele>2008.8099999999999</ele>
        <time>2016-03-13T12:49:25Z</time>
      </trkpt>
      <trkpt lat="46.503273798152804" lon="8.904933929443359">
        <ele>2008.8099999999999</ele>
        <time>2016-03-13T12:49:35Z</time>
      </trkpt>
      <trkpt lat="46.503266338258982" lon="8.904991261661053">
        <ele>2007.8499999999999</ele>
        <time>2016-03-13T12:49:40Z</time>
      </trkpt>
      <trkpt lat="46.503211101517081" lon="8.905122270807624">
        <ele>2004.97</ele>
        <time>2016-03-13T12:49:51Z</time>
      </trkpt>
      <trkpt lat="46.503183105960488" lon="8.905167952179909">
        <ele>2003.04</ele>
        <time>2016-03-13T12:49:56Z</time>
      </trkpt>
      <trkpt lat="46.503139771521091" lon="8.90526526607573">
        <ele>2000.1600000000001</ele>
        <time>2016-03-13T12:50:06Z</time>
      </trkpt>
      <trkpt lat="46.503098700195551" lon="8.905362328514457">
        <ele>1997.28</ele>
        <time>2016-03-13T12:50:16Z</time>
      </trkpt>
      <trkpt lat="46.503087971359491" lon="8.905385714024305">
        <ele>1996.3199999999999</ele>
        <time>2016-03-13T12:50:18Z</time>
      </trkpt>
      <trkpt lat="46.503038266673684" lon="8.905481938272715">
        <ele>1992.95</ele>
        <time>2016-03-13T12:50:28Z</time>
      </trkpt>
      <trkpt lat="46.503033488988876" lon="8.905493756756187">
        <ele>1992.95</ele>
        <time>2016-03-13T12:50:29Z</time>
      </trkpt>
      <trkpt lat="46.502983365207911" lon="8.905553352087736">
        <ele>1990.0699999999999</ele>
        <time>2016-03-13T12:50:36Z</time>
      </trkpt>
      <trkpt lat="46.502943551167846" lon="8.905658461153507">
        <ele>1987.1800000000001</ele>
        <time>2016-03-13T12:50:45Z</time>
      </trkpt>
      <trkpt lat="46.502932403236628" lon="8.905676817521453">
        <ele>1986.7</ele>
        <time>2016-03-13T12:50:47Z</time>
      </trkpt>
      <trkpt lat="46.502861492335796" lon="8.905803887173533">
        <ele>1983.3399999999999</ele>
        <time>2016-03-13T12:50:58Z</time>
      </trkpt>
      <trkpt lat="46.502841291949153" lon="8.905838755890727">
        <ele>1982.3800000000001</ele>
        <time>2016-03-13T12:51:01Z</time>
      </trkpt>
      <trkpt lat="46.5027991309762" lon="8.905926682054997">
        <ele>1979.97</ele>
        <time>2016-03-13T12:51:09Z</time>
      </trkpt>
      <trkpt lat="46.502728974446654" lon="8.90603095293045">
        <ele>1975.6500000000001</ele>
        <time>2016-03-13T12:51:19Z</time>
      </trkpt>
      <trkpt lat="46.502707349136472" lon="8.906072862446308">
        <ele>1974.6900000000001</ele>
        <time>2016-03-13T12:51:23Z</time>
      </trkpt>
      <trkpt lat="46.502672983333468" lon="8.906119465827942">
        <ele>1971.8</ele>
        <time>2016-03-13T12:51:32Z</time>
      </trkpt>
      <trkpt lat="46.502673653885722" lon="8.906134469434619">
        <ele>1972.28</ele>
        <time>2016-03-13T12:51:47Z</time>
      </trkpt>
      <trkpt lat="46.502668708562851" lon="8.906115693971515">
        <ele>1972.76</ele>
        <time>2016-03-13T12:51:57Z</time>
      </trkpt>
      <trkpt lat="46.502672145143151" lon="8.906127763912082">
        <ele>1972.76</ele>
        <time>2016-03-13T12:52:11Z</time>
      </trkpt>
      <trkpt lat="46.502664936706424" lon="8.906107898801565">
        <ele>1971.8</ele>
        <time>2016-03-13T12:52:28Z</time>
      </trkpt>
      <trkpt lat="46.502666613087058" lon="8.906118040904403">
        <ele>1972.28</ele>
        <time>2016-03-13T12:52:52Z</time>
      </trkpt>
      <trkpt lat="46.502628810703754" lon="8.906202614307404">
        <ele>1970.3599999999999</ele>
        <time>2016-03-13T12:53:04Z</time>
      </trkpt>
      <trkpt lat="46.502586398273706" lon="8.906282242387533">
        <ele>1966.99</ele>
        <time>2016-03-13T12:53:12Z</time>
      </trkpt>
      <trkpt lat="46.502582039684057" lon="8.906291797757149">
        <ele>1966.51</ele>
        <time>2016-03-13T12:53:13Z</time>
      </trkpt>
      <trkpt lat="46.502538621425629" lon="8.906375113874674">
        <ele>1963.6300000000001</ele>
        <time>2016-03-13T12:53:22Z</time>
      </trkpt>
      <trkpt lat="46.502496460452676" lon="8.906467650085688">
        <ele>1960.27</ele>
        <time>2016-03-13T12:53:31Z</time>
      </trkpt>
      <trkpt lat="46.502491934224963" lon="8.906489359214902">
        <ele>1959.3</ele>
        <time>2016-03-13T12:53:33Z</time>
      </trkpt>
      <trkpt lat="46.50243409909308" lon="8.906559264287353">
        <ele>1957.8599999999999</ele>
        <time>2016-03-13T12:53:40Z</time>
      </trkpt>
      <trkpt lat="46.502394620329142" lon="8.906627828255296">
        <ele>1955.46</ele>
        <time>2016-03-13T12:53:48Z</time>
      </trkpt>
      <trkpt lat="46.502385064959526" lon="8.90665590763092">
        <ele>1954.5</ele>
        <time>2016-03-13T12:54:00Z</time>
      </trkpt>
      <trkpt lat="46.502382298931479" lon="8.906670492142439">
        <ele>1954.98</ele>
        <time>2016-03-13T12:54:16Z</time>
      </trkpt>
      <trkpt lat="46.502359500154853" lon="8.906683484092355">
        <ele>1954.02</ele>
        <time>2016-03-13T12:54:19Z</time>
      </trkpt>
      <trkpt lat="46.502333851531148" lon="8.906696224585176">
        <ele>1953.54</ele>
        <time>2016-03-13T12:54:21Z</time>
      </trkpt>
      <trkpt lat="46.502326391637325" lon="8.906704606488347">
        <ele>1953.0599999999999</ele>
        <time>2016-03-13T12:54:22Z</time>
      </trkpt>
      <trkpt lat="46.502278279513121" lon="8.906780378893018">
        <ele>1949.6900000000001</ele>
        <time>2016-03-13T12:54:29Z</time>
      </trkpt>
      <trkpt lat="46.502245422452688" lon="8.906832681968808">
        <ele>1947.77</ele>
        <time>2016-03-13T12:54:34Z</time>
      </trkpt>
      <trkpt lat="46.50220057927072" lon="8.906926978379488">
        <ele>1944.4000000000001</ele>
        <time>2016-03-13T12:54:43Z</time>
      </trkpt>
      <trkpt lat="46.502123549580574" lon="8.907030830159783">
        <ele>1941.52</ele>
        <time>2016-03-13T12:54:53Z</time>
      </trkpt>
      <trkpt lat="46.502083735540509" lon="8.907124288380146">
        <ele>1939.1199999999999</ele>
        <time>2016-03-13T12:55:03Z</time>
      </trkpt>
      <trkpt lat="46.502084909006953" lon="8.907120851799846">
        <ele>1938.6400000000001</ele>
        <time>2016-03-13T12:55:14Z</time>
      </trkpt>
      <trkpt lat="46.502084489911795" lon="8.907118085771799">
        <ele>1938.6400000000001</ele>
        <time>2016-03-13T12:55:25Z</time>
      </trkpt>
      <trkpt lat="46.502077281475067" lon="8.907141555100679">
        <ele>1938.6400000000001</ele>
        <time>2016-03-13T12:55:42Z</time>
      </trkpt>
      <trkpt lat="46.502074263989925" lon="8.907159492373467">
        <ele>1938.6400000000001</ele>
        <time>2016-03-13T12:56:01Z</time>
      </trkpt>
      <trkpt lat="46.502071162685752" lon="8.907131161540747">
        <ele>1938.1600000000001</ele>
        <time>2016-03-13T12:56:15Z</time>
      </trkpt>
      <trkpt lat="46.502073928713799" lon="8.907140465453267">
        <ele>1938.6400000000001</ele>
        <time>2016-03-13T12:56:31Z</time>
      </trkpt>
      <trkpt lat="46.502068480476737" lon="8.907148009166122">
        <ele>1938.1600000000001</ele>
        <time>2016-03-13T12:56:46Z</time>
      </trkpt>
      <trkpt lat="46.502071414142847" lon="8.907133676111698">
        <ele>1938.1600000000001</ele>
        <time>2016-03-13T12:57:02Z</time>
      </trkpt>
      <trkpt lat="46.502064121887088" lon="8.907127641141415">
        <ele>1938.1600000000001</ele>
        <time>2016-03-13T12:57:16Z</time>
      </trkpt>
      <trkpt lat="46.502063870429993" lon="8.907148092985153">
        <ele>1938.1600000000001</ele>
        <time>2016-03-13T12:57:29Z</time>
      </trkpt>
      <trkpt lat="46.50206278078258" lon="8.907150439918041">
        <ele>1937.6700000000001</ele>
        <time>2016-03-13T12:57:51Z</time>
      </trkpt>
      <trkpt lat="46.50206814520061" lon="8.907155049964786">
        <ele>1938.1600000000001</ele>
        <time>2016-03-13T12:58:14Z</time>
      </trkpt>
      <trkpt lat="46.502062110230327" lon="8.907141052186489">
        <ele>1937.6700000000001</ele>
        <time>2016-03-13T12:58:29Z</time>
      </trkpt>
      <trkpt lat="46.502059511840343" lon="8.907147170975804">
        <ele>1938.1600000000001</ele>
        <time>2016-03-13T12:58:48Z</time>
      </trkpt>
      <trkpt lat="46.502061691135168" lon="8.907131496816874">
        <ele>1937.6700000000001</ele>
        <time>2016-03-13T12:59:04Z</time>
      </trkpt>
      <trkpt lat="46.502068815752864" lon="8.907117415219545">
        <ele>1938.1600000000001</ele>
        <time>2016-03-13T12:59:16Z</time>
      </trkpt>
      <trkpt lat="46.502065546810627" lon="8.907119426876307">
        <ele>1937.6700000000001</ele>
        <time>2016-03-13T12:59:38Z</time>
      </trkpt>
      <trkpt lat="46.502066133543849" lon="8.9071249589324">
        <ele>1937.6700000000001</ele>
        <time>2016-03-13T12:59:54Z</time>
      </trkpt>
      <trkpt lat="46.502062445506454" lon="8.907123534008861">
        <ele>1937.6700000000001</ele>
        <time>2016-03-13T13:00:07Z</time>
      </trkpt>
      <trkpt lat="46.502067223191261" lon="8.90714256092906">
        <ele>1938.1600000000001</ele>
        <time>2016-03-13T13:00:21Z</time>
      </trkpt>
      <trkpt lat="46.502061691135168" lon="8.907129568979144">
        <ele>1937.6700000000001</ele>
        <time>2016-03-13T13:00:40Z</time>
      </trkpt>
      <trkpt lat="46.50204224511981" lon="8.907201737165451">
        <ele>1936.71</ele>
        <time>2016-03-13T13:00:54Z</time>
      </trkpt>
      <trkpt lat="46.501987678930163" lon="8.907300559803844">
        <ele>1933.3499999999999</ele>
        <time>2016-03-13T13:01:04Z</time>
      </trkpt>
      <trkpt lat="46.501974100247025" lon="8.907336769625545">
        <ele>1932.3900000000001</ele>
        <time>2016-03-13T13:01:08Z</time>
      </trkpt>
      <trkpt lat="46.501965550705791" lon="8.907306175678968">
        <ele>1931.4300000000001</ele>
        <time>2016-03-13T13:01:19Z</time>
      </trkpt>
      <trkpt lat="46.501955073326826" lon="8.907287651672959">
        <ele>1931.4300000000001</ele>
        <time>2016-03-13T13:01:35Z</time>
      </trkpt>
      <trkpt lat="46.501930430531502" lon="8.907356970012188">
        <ele>1929.98</ele>
        <time>2016-03-13T13:01:47Z</time>
      </trkpt>
      <trkpt lat="46.501908302307129" lon="8.907403405755758">
        <ele>1928.54</ele>
        <time>2016-03-13T13:01:52Z</time>
      </trkpt>
      <trkpt lat="46.501866392791271" lon="8.907465599477291">
        <ele>1925.1800000000001</ele>
        <time>2016-03-13T13:02:02Z</time>
      </trkpt>
      <trkpt lat="46.501845102757215" lon="8.907539444044232">
        <ele>1923.25</ele>
        <time>2016-03-13T13:02:10Z</time>
      </trkpt>
      <trkpt lat="46.501836469396949" lon="8.907562578096986">
        <ele>1922.29</ele>
        <time>2016-03-13T13:02:13Z</time>
      </trkpt>
      <trkpt lat="46.501826997846365" lon="8.907624436542392">
        <ele>1919.8900000000001</ele>
        <time>2016-03-13T13:02:19Z</time>
      </trkpt>
      <trkpt lat="46.501798667013645" lon="8.907662406563759">
        <ele>1917.49</ele>
        <time>2016-03-13T13:02:30Z</time>
      </trkpt>
      <trkpt lat="46.501771342009306" lon="8.907752679660916">
        <ele>1914.5999999999999</ele>
        <time>2016-03-13T13:02:41Z</time>
      </trkpt>
      <trkpt lat="46.501754745841026" lon="8.907821495085955">
        <ele>1912.6800000000001</ele>
        <time>2016-03-13T13:02:49Z</time>
      </trkpt>
      <trkpt lat="46.501745525747538" lon="8.907854771241546">
        <ele>1911.24</ele>
        <time>2016-03-13T13:02:53Z</time>
      </trkpt>
      <trkpt lat="46.501725157722831" lon="8.907877570018172">
        <ele>1910.28</ele>
        <time>2016-03-13T13:03:04Z</time>
      </trkpt>
      <trkpt lat="46.501728761941195" lon="8.907888634130359">
        <ele>1909.3199999999999</ele>
        <time>2016-03-13T13:03:15Z</time>
      </trkpt>
      <trkpt lat="46.50172901339829" lon="8.907894920557737">
        <ele>1909.8</ele>
        <time>2016-03-13T13:03:28Z</time>
      </trkpt>
      <trkpt lat="46.501734293997288" lon="8.907901290804148">
        <ele>1909.8</ele>
        <time>2016-03-13T13:03:48Z</time>
      </trkpt>
      <trkpt lat="46.501724738627672" lon="8.907924424856901">
        <ele>1909.8</ele>
        <time>2016-03-13T13:04:07Z</time>
      </trkpt>
      <trkpt lat="46.501724403351545" lon="8.907933896407485">
        <ele>1909.8</ele>
        <time>2016-03-13T13:04:08Z</time>
      </trkpt>
      <trkpt lat="46.501737395301461" lon="8.907942613586783">
        <ele>1908.8299999999999</ele>
        <time>2016-03-13T13:04:10Z</time>
      </trkpt>
      <trkpt lat="46.501792129129171" lon="8.908043783158064">
        <ele>1906.4300000000001</ele>
        <time>2016-03-13T13:04:21Z</time>
      </trkpt>
      <trkpt lat="46.501809563487768" lon="8.908139672130346">
        <ele>1904.51</ele>
        <time>2016-03-13T13:04:31Z</time>
      </trkpt>
      <trkpt lat="46.5018096473068" lon="8.908141097053886">
        <ele>1904.51</ele>
        <time>2016-03-13T13:04:34Z</time>
      </trkpt>
      <trkpt lat="46.501833451911807" lon="8.908264478668571">
        <ele>1903.0699999999999</ele>
        <time>2016-03-13T13:04:45Z</time>
      </trkpt>
      <trkpt lat="46.501835212111473" lon="8.908366989344358">
        <ele>1902.1099999999999</ele>
        <time>2016-03-13T13:04:55Z</time>
      </trkpt>
      <trkpt lat="46.501833703368902" lon="8.908418454229832">
        <ele>1902.1099999999999</ele>
        <time>2016-03-13T13:05:10Z</time>
      </trkpt>
      <trkpt lat="46.501839319244027" lon="8.908556001260877">
        <ele>1900.1800000000001</ele>
        <time>2016-03-13T13:05:20Z</time>
      </trkpt>
      <trkpt lat="46.501846527680755" lon="8.908692039549351">
        <ele>1897.78</ele>
        <time>2016-03-13T13:05:31Z</time>
      </trkpt>
      <trkpt lat="46.5018389839679" lon="8.908778121694922">
        <ele>1896.3399999999999</ele>
        <time>2016-03-13T13:05:40Z</time>
      </trkpt>
      <trkpt lat="46.501833368092775" lon="8.908816259354353">
        <ele>1895.8599999999999</ele>
        <time>2016-03-13T13:05:44Z</time>
      </trkpt>
      <trkpt lat="46.501802271232009" lon="8.908923463895917">
        <ele>1892.01</ele>
        <time>2016-03-13T13:05:53Z</time>
      </trkpt>
      <trkpt lat="46.501781651750207" lon="8.908985825255513">
        <ele>1890.0899999999999</ele>
        <time>2016-03-13T13:06:02Z</time>
      </trkpt>
      <trkpt lat="46.50176078081131" lon="8.909100657328963">
        <ele>1886.72</ele>
        <time>2016-03-13T13:06:11Z</time>
      </trkpt>
      <trkpt lat="46.501724487170577" lon="8.909167125821114">
        <ele>1883.8399999999999</ele>
        <time>2016-03-13T13:06:18Z</time>
      </trkpt>
      <trkpt lat="46.501700514927506" lon="8.90918942168355">
        <ele>1882.4000000000001</ele>
        <time>2016-03-13T13:06:22Z</time>
      </trkpt>
      <trkpt lat="46.501696407794952" lon="8.909196378663182">
        <ele>1881.4400000000001</ele>
        <time>2016-03-13T13:06:23Z</time>
      </trkpt>
      <trkpt lat="46.501678554341197" lon="8.909223368391395">
        <ele>1880</ele>
        <time>2016-03-13T13:06:26Z</time>
      </trkpt>
      <trkpt lat="46.501650894060731" lon="8.909275252372026">
        <ele>1878.0699999999999</ele>
        <time>2016-03-13T13:06:30Z</time>
      </trkpt>
      <trkpt lat="46.501633375883102" lon="8.909303164109588">
        <ele>1875.6700000000001</ele>
        <time>2016-03-13T13:06:35Z</time>
      </trkpt>
      <trkpt lat="46.501606721431017" lon="8.909371811896563">
        <ele>1873.27</ele>
        <time>2016-03-13T13:06:42Z</time>
      </trkpt>
      <trkpt lat="46.501588616520166" lon="8.909443058073521">
        <ele>1870.8599999999999</ele>
        <time>2016-03-13T13:06:48Z</time>
      </trkpt>
      <trkpt lat="46.501571433618665" lon="8.909516483545303">
        <ele>1869.4200000000001</ele>
        <time>2016-03-13T13:06:57Z</time>
      </trkpt>
      <trkpt lat="46.501551233232021" lon="8.909581610932946">
        <ele>1867.98</ele>
        <time>2016-03-13T13:07:02Z</time>
      </trkpt>
      <trkpt lat="46.50151452049613" lon="8.909698538482189">
        <ele>1865.0899999999999</ele>
        <time>2016-03-13T13:07:11Z</time>
      </trkpt>
      <trkpt lat="46.50149398483336" lon="8.909848323091865">
        <ele>1862.21</ele>
        <time>2016-03-13T13:07:22Z</time>
      </trkpt>
      <trkpt lat="46.50148862041533" lon="8.90988914296031">
        <ele>1860.77</ele>
        <time>2016-03-13T13:07:25Z</time>
      </trkpt>
      <trkpt lat="46.501438999548554" lon="8.910004310309887">
        <ele>1859.8099999999999</ele>
        <time>2016-03-13T13:07:35Z</time>
      </trkpt>
      <trkpt lat="46.501400358974934" lon="8.910110592842102">
        <ele>1856.4400000000001</ele>
        <time>2016-03-13T13:07:46Z</time>
      </trkpt>
      <trkpt lat="46.501400610432029" lon="8.91012073494494">
        <ele>1855.96</ele>
        <time>2016-03-13T13:07:53Z</time>
      </trkpt>
      <trkpt lat="46.501378398388624" lon="8.910197680816054">
        <ele>1854.52</ele>
        <time>2016-03-13T13:08:04Z</time>
      </trkpt>
      <trkpt lat="46.50137772783637" lon="8.910209583118558">
        <ele>1854.04</ele>
        <time>2016-03-13T13:08:05Z</time>
      </trkpt>
      <trkpt lat="46.501373704522848" lon="8.910216456279159">
        <ele>1853.0799999999999</ele>
        <time>2016-03-13T13:08:06Z</time>
      </trkpt>
      <trkpt lat="46.501332549378276" lon="8.910285355523229">
        <ele>1850.1900000000001</ele>
        <time>2016-03-13T13:08:13Z</time>
      </trkpt>
      <trkpt lat="46.501307990401983" lon="8.910333048552275">
        <ele>1847.79</ele>
        <time>2016-03-13T13:08:18Z</time>
      </trkpt>
      <trkpt lat="46.501269433647394" lon="8.910365402698517">
        <ele>1845.8699999999999</ele>
        <time>2016-03-13T13:08:24Z</time>
      </trkpt>
      <trkpt lat="46.501249987632036" lon="8.910422315821052">
        <ele>1843.47</ele>
        <time>2016-03-13T13:08:32Z</time>
      </trkpt>
      <trkpt lat="46.5012311283499" lon="8.910439079627395">
        <ele>1843.95</ele>
        <time>2016-03-13T13:08:40Z</time>
      </trkpt>
      <trkpt lat="46.501232720911503" lon="8.91045743599534">
        <ele>1843.95</ele>
        <time>2016-03-13T13:09:00Z</time>
      </trkpt>
      <trkpt lat="46.501218471676111" lon="8.91046866774559">
        <ele>1843.95</ele>
        <time>2016-03-13T13:09:14Z</time>
      </trkpt>
      <trkpt lat="46.501224339008331" lon="8.910476211458445">
        <ele>1843.95</ele>
        <time>2016-03-13T13:09:30Z</time>
      </trkpt>
      <trkpt lat="46.501232217997313" lon="8.910443689674139">
        <ele>1843.95</ele>
        <time>2016-03-13T13:09:44Z</time>
      </trkpt>
      <trkpt lat="46.50121838785708" lon="8.910460621118546">
        <ele>1843.47</ele>
        <time>2016-03-13T13:09:59Z</time>
      </trkpt>
      <trkpt lat="46.501211263239384" lon="8.910464476794004">
        <ele>1843.47</ele>
        <time>2016-03-13T13:10:01Z</time>
      </trkpt>
      <trkpt lat="46.501175640150905" lon="8.91048769466579">
        <ele>1842.02</ele>
        <time>2016-03-13T13:10:05Z</time>
      </trkpt>
      <trkpt lat="46.501138340681791" lon="8.910558689385653">
        <ele>1838.6600000000001</ele>
        <time>2016-03-13T13:10:14Z</time>
      </trkpt>
      <trkpt lat="46.501125432550907" lon="8.910583583638072">
        <ele>1837.22</ele>
        <time>2016-03-13T13:10:18Z</time>
      </trkpt>
      <trkpt lat="46.501103220507503" lon="8.91061962582171">
        <ele>1835.77</ele>
        <time>2016-03-13T13:10:22Z</time>
      </trkpt>
      <trkpt lat="46.501093581318855" lon="8.910626247525215">
        <ele>1835.29</ele>
        <time>2016-03-13T13:10:23Z</time>
      </trkpt>
      <trkpt lat="46.501074051484466" lon="8.910656254738569">
        <ele>1834.3299999999999</ele>
        <time>2016-03-13T13:10:26Z</time>
      </trkpt>
      <trkpt lat="46.501047564670444" lon="8.910753652453423">
        <ele>1830.01</ele>
        <time>2016-03-13T13:10:35Z</time>
      </trkpt>
      <trkpt lat="46.501043792814016" lon="8.910757843405008">
        <ele>1830.01</ele>
        <time>2016-03-13T13:10:36Z</time>
      </trkpt>
      <trkpt lat="46.501037841662765" lon="8.910769410431385">
        <ele>1829.53</ele>
        <time>2016-03-13T13:10:38Z</time>
      </trkpt>
      <trkpt lat="46.501001548022032" lon="8.910849373787642">
        <ele>1825.6800000000001</ele>
        <time>2016-03-13T13:10:46Z</time>
      </trkpt>
      <trkpt lat="46.500986879691482" lon="8.910874435678124">
        <ele>1824.72</ele>
        <time>2016-03-13T13:10:49Z</time>
      </trkpt>
      <trkpt lat="46.500972211360931" lon="8.910903772339225">
        <ele>1823.28</ele>
        <time>2016-03-13T13:10:52Z</time>
      </trkpt>
      <trkpt lat="46.500940192490816" lon="8.910928415134549">
        <ele>1821.8399999999999</ele>
        <time>2016-03-13T13:10:57Z</time>
      </trkpt>
      <trkpt lat="46.500918986275792" lon="8.910960936918855">
        <ele>1820.3900000000001</ele>
        <time>2016-03-13T13:11:00Z</time>
      </trkpt>
      <trkpt lat="46.500904485583305" lon="8.910972336307168">
        <ele>1819.4300000000001</ele>
        <time>2016-03-13T13:11:02Z</time>
      </trkpt>
      <trkpt lat="46.500834915786982" lon="8.911029668524861">
        <ele>1817.03</ele>
        <time>2016-03-13T13:11:12Z</time>
      </trkpt>
      <trkpt lat="46.500822510570288" lon="8.911051377654076">
        <ele>1816.55</ele>
        <time>2016-03-13T13:11:21Z</time>
      </trkpt>
      <trkpt lat="46.500766770914197" lon="8.911124803125858">
        <ele>1814.1500000000001</ele>
        <time>2016-03-13T13:11:29Z</time>
      </trkpt>
      <trkpt lat="46.500726202502847" lon="8.911222368478775">
        <ele>1810.78</ele>
        <time>2016-03-13T13:11:37Z</time>
      </trkpt>
      <trkpt lat="46.500674402341247" lon="8.911309037357569">
        <ele>1808.8599999999999</ele>
        <time>2016-03-13T13:11:47Z</time>
      </trkpt>
      <trkpt lat="46.500641880556941" lon="8.911364357918501">
        <ele>1805.49</ele>
        <time>2016-03-13T13:11:53Z</time>
      </trkpt>
      <trkpt lat="46.500625619664788" lon="8.911395957693458">
        <ele>1805.01</ele>
        <time>2016-03-13T13:11:56Z</time>
      </trkpt>
      <trkpt lat="46.500588404014707" lon="8.911424959078431">
        <ele>1804.05</ele>
        <time>2016-03-13T13:12:05Z</time>
      </trkpt>
      <trkpt lat="46.500566275790334" lon="8.911455804482102">
        <ele>1804.53</ele>
        <time>2016-03-13T13:12:14Z</time>
      </trkpt>
      <trkpt lat="46.500562839210033" lon="8.911461168900132">
        <ele>1804.05</ele>
        <time>2016-03-13T13:12:15Z</time>
      </trkpt>
      <trkpt lat="46.500520510599017" lon="8.911458319053054">
        <ele>1802.6099999999999</ele>
        <time>2016-03-13T13:12:19Z</time>
      </trkpt>
      <trkpt lat="46.500477930530906" lon="8.911447003483772">
        <ele>1802.1300000000001</ele>
        <time>2016-03-13T13:12:24Z</time>
      </trkpt>
      <trkpt lat="46.500453036278486" lon="8.9114058483392">
        <ele>1801.1700000000001</ele>
        <time>2016-03-13T13:12:34Z</time>
      </trkpt>
      <trkpt lat="46.500462843105197" lon="8.911406435072422">
        <ele>1801.1700000000001</ele>
        <time>2016-03-13T13:12:43Z</time>
      </trkpt>
      <trkpt lat="46.500469716265798" lon="8.911404255777597">
        <ele>1802.1300000000001</ele>
        <time>2016-03-13T13:12:52Z</time>
      </trkpt>
      <trkpt lat="46.500467704609036" lon="8.911418002098799">
        <ele>1802.1300000000001</ele>
        <time>2016-03-13T13:13:01Z</time>
      </trkpt>
      <trkpt lat="46.500459238886833" lon="8.911415571346879">
        <ele>1801.1700000000001</ele>
        <time>2016-03-13T13:13:12Z</time>
      </trkpt>
      <trkpt lat="46.500458568334579" lon="8.911403501406312">
        <ele>1801.6500000000001</ele>
        <time>2016-03-13T13:13:22Z</time>
      </trkpt>
      <trkpt lat="46.500473069027066" lon="8.911376427859068">
        <ele>1801.1700000000001</ele>
        <time>2016-03-13T13:13:37Z</time>
      </trkpt>
      <trkpt lat="46.500468710437417" lon="8.911390090361238">
        <ele>1801.1700000000001</ele>
        <time>2016-03-13T13:13:50Z</time>
      </trkpt>
      <trkpt lat="46.500457311049104" lon="8.911384725943208">
        <ele>1802.1300000000001</ele>
        <time>2016-03-13T13:14:00Z</time>
      </trkpt>
      <trkpt lat="46.500459322705865" lon="8.911382211372256">
        <ele>1802.1300000000001</ele>
        <time>2016-03-13T13:14:13Z</time>
      </trkpt>
      <trkpt lat="46.500472230836749" lon="8.911387994885445">
        <ele>1802.1300000000001</ele>
        <time>2016-03-13T13:14:26Z</time>
      </trkpt>
      <trkpt lat="46.500468626618385" lon="8.911386905238032">
        <ele>1802.1300000000001</ele>
        <time>2016-03-13T13:14:40Z</time>
      </trkpt>
      <trkpt lat="46.500472482293844" lon="8.911389335989952">
        <ele>1802.1300000000001</ele>
        <time>2016-03-13T13:14:56Z</time>
      </trkpt>
      <trkpt lat="46.500450354069471" lon="8.911397382616997">
        <ele>1802.1300000000001</ele>
        <time>2016-03-13T13:15:07Z</time>
      </trkpt>
      <trkpt lat="46.500443900004029" lon="8.911420097574592">
        <ele>1802.1300000000001</ele>
        <time>2016-03-13T13:15:23Z</time>
      </trkpt>
      <trkpt lat="46.50044440291822" lon="8.911429736763239">
        <ele>1802.1300000000001</ele>
        <time>2016-03-13T13:15:33Z</time>
      </trkpt>
      <trkpt lat="46.500452114269137" lon="8.911422360688448">
        <ele>1802.1300000000001</ele>
        <time>2016-03-13T13:15:46Z</time>
      </trkpt>
      <trkpt lat="46.500459825620055" lon="8.911385731771588">
        <ele>1802.6099999999999</ele>
        <time>2016-03-13T13:15:54Z</time>
      </trkpt>
      <trkpt lat="46.500461334362626" lon="8.911388833075762">
        <ele>1801.6500000000001</ele>
        <time>2016-03-13T13:16:06Z</time>
      </trkpt>
      <trkpt lat="46.500453874468803" lon="8.911418588832021">
        <ele>1802.1300000000001</ele>
        <time>2016-03-13T13:16:08Z</time>
      </trkpt>
      <trkpt lat="46.50041707791388" lon="8.911604415625334">
        <ele>1802.1300000000001</ele>
        <time>2016-03-13T13:16:20Z</time>
      </trkpt>
      <trkpt lat="46.500420682132244" lon="8.911749422550201">
        <ele>1800.6900000000001</ele>
        <time>2016-03-13T13:16:31Z</time>
      </trkpt>
      <trkpt lat="46.500418670475483" lon="8.911786805838347">
        <ele>1800.21</ele>
        <time>2016-03-13T13:16:34Z</time>
      </trkpt>
      <trkpt lat="46.500374330207705" lon="8.911982188001275">
        <ele>1800.21</ele>
        <time>2016-03-13T13:16:48Z</time>
      </trkpt>
      <trkpt lat="46.500325966626406" lon="8.912130212411284">
        <ele>1800.21</ele>
        <time>2016-03-13T13:16:59Z</time>
      </trkpt>
      <trkpt lat="46.500325715169311" lon="8.912287876009941">
        <ele>1800.21</ele>
        <time>2016-03-13T13:17:10Z</time>
      </trkpt>
      <trkpt lat="46.500343065708876" lon="8.912441181018949">
        <ele>1800.21</ele>
        <time>2016-03-13T13:17:21Z</time>
      </trkpt>
      <trkpt lat="46.500354381278157" lon="8.912600772455335">
        <ele>1800.21</ele>
        <time>2016-03-13T13:17:33Z</time>
      </trkpt>
      <trkpt lat="46.500353710725904" lon="8.912607226520777">
        <ele>1800.21</ele>
        <time>2016-03-13T13:17:34Z</time>
      </trkpt>
      <trkpt lat="46.500376677140594" lon="8.912663133814931">
        <ele>1800.6900000000001</ele>
        <time>2016-03-13T13:17:38Z</time>
      </trkpt>
      <trkpt lat="46.500437194481492" lon="8.912802692502737">
        <ele>1800.21</ele>
        <time>2016-03-13T13:17:49Z</time>
      </trkpt>
      <trkpt lat="46.500453790649772" lon="8.912982400506735">
        <ele>1798.76</ele>
        <time>2016-03-13T13:18:01Z</time>
      </trkpt>
      <trkpt lat="46.500455550849438" lon="8.913014084100723">
        <ele>1798.76</ele>
        <time>2016-03-13T13:18:03Z</time>
      </trkpt>
      <trkpt lat="46.500459322705865" lon="8.913172837346792">
        <ele>1797.3199999999999</ele>
        <time>2016-03-13T13:18:14Z</time>
      </trkpt>
      <trkpt lat="46.500483294948936" lon="8.91324064694345">
        <ele>1796.8399999999999</ele>
        <time>2016-03-13T13:18:19Z</time>
      </trkpt>
      <trkpt lat="46.500571556389332" lon="8.913387330248952">
        <ele>1794.4400000000001</ele>
        <time>2016-03-13T13:18:32Z</time>
      </trkpt>
      <trkpt lat="46.500569544732571" lon="8.91340191476047">
        <ele>1794.4400000000001</ele>
        <time>2016-03-13T13:18:33Z</time>
      </trkpt>
      <trkpt lat="46.5005490090698" lon="8.913443069905043">
        <ele>1793.96</ele>
        <time>2016-03-13T13:18:36Z</time>
      </trkpt>
      <trkpt lat="46.500506512820721" lon="8.913467964157462">
        <ele>1793.48</ele>
        <time>2016-03-13T13:18:40Z</time>
      </trkpt>
      <trkpt lat="46.500474661588669" lon="8.913463773205876">
        <ele>1793</ele>
        <time>2016-03-13T13:18:43Z</time>
      </trkpt>
      <trkpt lat="46.500422777608037" lon="8.913436364382505">
        <ele>1792.03</ele>
        <time>2016-03-13T13:18:48Z</time>
      </trkpt>
      <trkpt lat="46.500397631898522" lon="8.913414487615228">
        <ele>1791.55</ele>
        <time>2016-03-13T13:18:51Z</time>
      </trkpt>
      <trkpt lat="46.500299060717225" lon="8.913370985537767">
        <ele>1790.1099999999999</ele>
        <time>2016-03-13T13:19:01Z</time>
      </trkpt>
      <trkpt lat="46.500195879489183" lon="8.913324885070324">
        <ele>1788.6700000000001</ele>
        <time>2016-03-13T13:19:11Z</time>
      </trkpt>
      <trkpt lat="46.500093620270491" lon="8.913265708833933">
        <ele>1787.71</ele>
        <time>2016-03-13T13:19:21Z</time>
      </trkpt>
      <trkpt lat="46.500003263354301" lon="8.913096645846963">
        <ele>1785.3099999999999</ele>
        <time>2016-03-13T13:19:35Z</time>
      </trkpt>
      <trkpt lat="46.499967891722918" lon="8.912980388849974">
        <ele>1783.8599999999999</ele>
        <time>2016-03-13T13:19:45Z</time>
      </trkpt>
      <trkpt lat="46.499933945015073" lon="8.912853738293052">
        <ele>1782.4200000000001</ele>
        <time>2016-03-13T13:19:55Z</time>
      </trkpt>
      <trkpt lat="46.499901590868831" lon="8.912747958675027">
        <ele>1780.98</ele>
        <time>2016-03-13T13:20:04Z</time>
      </trkpt>
      <trkpt lat="46.499896058812737" lon="8.91270412132144">
        <ele>1780.5</ele>
        <time>2016-03-13T13:20:07Z</time>
      </trkpt>
      <trkpt lat="46.49985515512526" lon="8.912559365853667">
        <ele>1780.02</ele>
        <time>2016-03-13T13:20:18Z</time>
      </trkpt>
      <trkpt lat="46.499801091849804" lon="8.912482755258679">
        <ele>1779.54</ele>
        <time>2016-03-13T13:20:28Z</time>
      </trkpt>
      <trkpt lat="46.499793715775013" lon="8.912478899583221">
        <ele>1779.54</ele>
        <time>2016-03-13T13:20:29Z</time>
      </trkpt>
      <trkpt lat="46.499737808480859" lon="8.912454172968864">
        <ele>1778.0999999999999</ele>
        <time>2016-03-13T13:20:35Z</time>
      </trkpt>
      <trkpt lat="46.499638063833117" lon="8.912497758865356">
        <ele>1775.21</ele>
        <time>2016-03-13T13:20:44Z</time>
      </trkpt>
      <trkpt lat="46.499575031921268" lon="8.912613512948155">
        <ele>1772.8099999999999</ele>
        <time>2016-03-13T13:20:55Z</time>
      </trkpt>
      <trkpt lat="46.499541336670518" lon="8.912750137969852">
        <ele>1771.3699999999999</ele>
        <time>2016-03-13T13:21:06Z</time>
      </trkpt>
      <trkpt lat="46.499530943110585" lon="8.912830268964171">
        <ele>1770.8900000000001</ele>
        <time>2016-03-13T13:21:15Z</time>
      </trkpt>
      <trkpt lat="46.499553490430117" lon="8.913009557873011">
        <ele>1768.96</ele>
        <time>2016-03-13T13:21:27Z</time>
      </trkpt>
      <trkpt lat="46.49961082264781" lon="8.91318691894412">
        <ele>1767.04</ele>
        <time>2016-03-13T13:21:39Z</time>
      </trkpt>
      <trkpt lat="46.499613923951983" lon="8.913214914500713">
        <ele>1767.04</ele>
        <time>2016-03-13T13:21:41Z</time>
      </trkpt>
      <trkpt lat="46.499638985842466" lon="8.913356987759471">
        <ele>1765.5999999999999</ele>
        <time>2016-03-13T13:21:51Z</time>
      </trkpt>
      <trkpt lat="46.499658431857824" lon="8.913533426821232">
        <ele>1763.6800000000001</ele>
        <time>2016-03-13T13:22:01Z</time>
      </trkpt>
      <trkpt lat="46.499679051339626" lon="8.91360224224627">
        <ele>1763.2</ele>
        <time>2016-03-13T13:22:06Z</time>
      </trkpt>
      <trkpt lat="46.499725738540292" lon="8.913746410980821">
        <ele>1762.23</ele>
        <time>2016-03-13T13:22:16Z</time>
      </trkpt>
      <trkpt lat="46.49973445571959" lon="8.913806341588497">
        <ele>1761.75</ele>
        <time>2016-03-13T13:22:24Z</time>
      </trkpt>
      <trkpt lat="46.4997598528862" lon="8.913945900276303">
        <ele>1760.79</ele>
        <time>2016-03-13T13:22:34Z</time>
      </trkpt>
      <trkpt lat="46.49977938272059" lon="8.91407229937613">
        <ele>1760.3099999999999</ele>
        <time>2016-03-13T13:22:45Z</time>
      </trkpt>
      <trkpt lat="46.499778628349304" lon="8.914122926071286">
        <ele>1759.8299999999999</ele>
        <time>2016-03-13T13:22:57Z</time>
      </trkpt>
      <trkpt lat="46.499806623905897" lon="8.914234321564436">
        <ele>1760.3099999999999</ele>
        <time>2016-03-13T13:23:06Z</time>
      </trkpt>
      <trkpt lat="46.499837888404727" lon="8.91428779810667">
        <ele>1759.3499999999999</ele>
        <time>2016-03-13T13:23:11Z</time>
      </trkpt>
      <trkpt lat="46.499877199530602" lon="8.91432685777545">
        <ele>1759.3499999999999</ele>
        <time>2016-03-13T13:23:15Z</time>
      </trkpt>
      <trkpt lat="46.49994945153594" lon="8.91445392742753">
        <ele>1758.3900000000001</ele>
        <time>2016-03-13T13:23:25Z</time>
      </trkpt>
      <trkpt lat="46.500004772096872" lon="8.91453648917377">
        <ele>1757.4300000000001</ele>
        <time>2016-03-13T13:23:32Z</time>
      </trkpt>
      <trkpt lat="46.500052884221077" lon="8.914623577147722">
        <ele>1756.95</ele>
        <time>2016-03-13T13:23:40Z</time>
      </trkpt>
      <trkpt lat="46.500132847577333" lon="8.914727764204145">
        <ele>1756.95</ele>
        <time>2016-03-13T13:23:51Z</time>
      </trkpt>
      <trkpt lat="46.500230748206377" lon="8.914804123342037">
        <ele>1755.99</ele>
        <time>2016-03-13T13:24:02Z</time>
      </trkpt>
      <trkpt lat="46.500372905284166" lon="8.914841925725341">
        <ele>1755.02</ele>
        <time>2016-03-13T13:24:14Z</time>
      </trkpt>
      <trkpt lat="46.5004195086658" lon="8.914896575734019">
        <ele>1755.02</ele>
        <time>2016-03-13T13:24:23Z</time>
      </trkpt>
      <trkpt lat="46.500432668253779" lon="8.914923816919327">
        <ele>1755.02</ele>
        <time>2016-03-13T13:24:30Z</time>
      </trkpt>
      <trkpt lat="46.500523192808032" lon="8.915044348686934">
        <ele>1755.02</ele>
        <time>2016-03-13T13:24:42Z</time>
      </trkpt>
      <trkpt lat="46.500599551945925" lon="8.915163706988096">
        <ele>1755.02</ele>
        <time>2016-03-13T13:24:53Z</time>
      </trkpt>
      <trkpt lat="46.500615812838078" lon="8.915188014507294">
        <ele>1755.02</ele>
        <time>2016-03-13T13:24:55Z</time>
      </trkpt>
      <trkpt lat="46.500740870833397" lon="8.915282227098942">
        <ele>1755.02</ele>
        <time>2016-03-13T13:25:09Z</time>
      </trkpt>
      <trkpt lat="46.500846482813358" lon="8.915361436083913">
        <ele>1755.02</ele>
        <time>2016-03-13T13:25:21Z</time>
      </trkpt>
      <trkpt lat="46.500900965183973" lon="8.915402926504612">
        <ele>1755.02</ele>
        <time>2016-03-13T13:25:27Z</time>
      </trkpt>
      <trkpt lat="46.500927032902837" lon="8.915429748594761">
        <ele>1755.02</ele>
        <time>2016-03-13T13:25:30Z</time>
      </trkpt>
      <trkpt lat="46.501002386212349" lon="8.915544832125306">
        <ele>1755.02</ele>
        <time>2016-03-13T13:25:41Z</time>
      </trkpt>
      <trkpt lat="46.501082684844732" lon="8.915591184049845">
        <ele>1755.5</ele>
        <time>2016-03-13T13:25:51Z</time>
      </trkpt>
      <trkpt lat="46.501116128638387" lon="8.915587663650513">
        <ele>1755.99</ele>
        <time>2016-03-13T13:25:54Z</time>
      </trkpt>
      <trkpt lat="46.501263566315174" lon="8.915593950077891">
        <ele>1754.54</ele>
        <time>2016-03-13T13:26:08Z</time>
      </trkpt>
      <trkpt lat="46.501270942389965" lon="8.915611719712615">
        <ele>1755.02</ele>
        <time>2016-03-13T13:26:19Z</time>
      </trkpt>
      <trkpt lat="46.501402202993631" lon="8.915625549852848">
        <ele>1754.0599999999999</ele>
        <time>2016-03-13T13:26:30Z</time>
      </trkpt>
      <trkpt lat="46.501445285975933" lon="8.915639547631145">
        <ele>1753.5799999999999</ele>
        <time>2016-03-13T13:26:34Z</time>
      </trkpt>
      <trkpt lat="46.501585347577929" lon="8.915678355842829">
        <ele>1751.6600000000001</ele>
        <time>2016-03-13T13:26:47Z</time>
      </trkpt>
      <trkpt lat="46.501722475513816" lon="8.915708195418119">
        <ele>1750.22</ele>
        <time>2016-03-13T13:26:59Z</time>
      </trkpt>
      <trkpt lat="46.501837223768234" lon="8.915757732465863">
        <ele>1748.78</ele>
        <time>2016-03-13T13:27:10Z</time>
      </trkpt>
      <trkpt lat="46.501858346164227" lon="8.915765443816781">
        <ele>1748.78</ele>
        <time>2016-03-13T13:27:12Z</time>
      </trkpt>
      <trkpt lat="46.501903105527163" lon="8.915825458243489">
        <ele>1747.8099999999999</ele>
        <time>2016-03-13T13:27:20Z</time>
      </trkpt>
      <trkpt lat="46.501912325620651" lon="8.915810873731971">
        <ele>1747.3299999999999</ele>
        <time>2016-03-13T13:27:24Z</time>
      </trkpt>
      <trkpt lat="46.502028750255704" lon="8.915787991136313">
        <ele>1745.8900000000001</ele>
        <time>2016-03-13T13:27:35Z</time>
      </trkpt>
      <trkpt lat="46.502158837392926" lon="8.915762091055512">
        <ele>1743.01</ele>
        <time>2016-03-13T13:27:46Z</time>
      </trkpt>
      <trkpt lat="46.502234945073724" lon="8.91577516682446">
        <ele>1742.05</ele>
        <time>2016-03-13T13:27:52Z</time>
      </trkpt>
      <trkpt lat="46.502320021390915" lon="8.91585479490459">
        <ele>1740.5999999999999</ele>
        <time>2016-03-13T13:28:01Z</time>
      </trkpt>
      <trkpt lat="46.502410881221294" lon="8.915942134335637">
        <ele>1738.6800000000001</ele>
        <time>2016-03-13T13:28:11Z</time>
      </trkpt>
      <trkpt lat="46.502463351935148" lon="8.916024528443813">
        <ele>1738.2</ele>
        <time>2016-03-13T13:28:18Z</time>
      </trkpt>
      <trkpt lat="46.502493023872375" lon="8.916079765185714">
        <ele>1736.76</ele>
        <time>2016-03-13T13:28:22Z</time>
      </trkpt>
      <trkpt lat="46.502543399110436" lon="8.916255366057158">
        <ele>1736.76</ele>
        <time>2016-03-13T13:28:34Z</time>
      </trkpt>
      <trkpt lat="46.502547841519117" lon="8.916303310543299">
        <ele>1736.76</ele>
        <time>2016-03-13T13:28:37Z</time>
      </trkpt>
      <trkpt lat="46.502550775185227" lon="8.916350835934281">
        <ele>1736.28</ele>
        <time>2016-03-13T13:28:40Z</time>
      </trkpt>
      <trkpt lat="46.50255773216486" lon="8.9164655841887">
        <ele>1734.8399999999999</ele>
        <time>2016-03-13T13:28:48Z</time>
      </trkpt>
      <trkpt lat="46.502559240907431" lon="8.916593240574002">
        <ele>1732.9100000000001</ele>
        <time>2016-03-13T13:28:57Z</time>
      </trkpt>
      <trkpt lat="46.502593606710434" lon="8.916733972728252">
        <ele>1731.47</ele>
        <time>2016-03-13T13:29:07Z</time>
      </trkpt>
      <trkpt lat="46.502618584781885" lon="8.916772780939937">
        <ele>1730.99</ele>
        <time>2016-03-13T13:29:18Z</time>
      </trkpt>
      <trkpt lat="46.502631576731801" lon="8.91686238348484">
        <ele>1730.03</ele>
        <time>2016-03-13T13:29:27Z</time>
      </trkpt>
      <trkpt lat="46.502636354416609" lon="8.916874872520566">
        <ele>1729.55</ele>
        <time>2016-03-13T13:29:28Z</time>
      </trkpt>
      <trkpt lat="46.502665523439646" lon="8.916892474517226">
        <ele>1728.5899999999999</ele>
        <time>2016-03-13T13:29:32Z</time>
      </trkpt>
      <trkpt lat="46.502696368843317" lon="8.916899263858795">
        <ele>1727.6300000000001</ele>
        <time>2016-03-13T13:29:35Z</time>
      </trkpt>
      <trkpt lat="46.502717910334468" lon="8.916917117312551">
        <ele>1727.1500000000001</ele>
        <time>2016-03-13T13:29:38Z</time>
      </trkpt>
      <trkpt lat="46.502740709111094" lon="8.916994398459792">
        <ele>1725.22</ele>
        <time>2016-03-13T13:29:44Z</time>
      </trkpt>
      <trkpt lat="46.502752359956503" lon="8.917094143107534">
        <ele>1723.78</ele>
        <time>2016-03-13T13:29:51Z</time>
      </trkpt>
      <trkpt lat="46.502792844548821" lon="8.917200258001685">
        <ele>1720.9000000000001</ele>
        <time>2016-03-13T13:30:01Z</time>
      </trkpt>
      <trkpt lat="46.502854619175196" lon="8.917286926880479">
        <ele>1718.49</ele>
        <time>2016-03-13T13:30:11Z</time>
      </trkpt>
      <trkpt lat="46.502861995249987" lon="8.917293380945921">
        <ele>1718.01</ele>
        <time>2016-03-13T13:30:12Z</time>
      </trkpt>
      <trkpt lat="46.502903401851654" lon="8.917300589382649">
        <ele>1717.53</ele>
        <time>2016-03-13T13:30:16Z</time>
      </trkpt>
      <trkpt lat="46.502930475398898" lon="8.917336380109191">
        <ele>1716.0899999999999</ele>
        <time>2016-03-13T13:30:19Z</time>
      </trkpt>
      <trkpt lat="46.502879178151488" lon="8.917407793924213">
        <ele>1715.6099999999999</ele>
        <time>2016-03-13T13:30:25Z</time>
      </trkpt>
      <trkpt lat="46.502822432667017" lon="8.917403686791658">
        <ele>1714.6500000000001</ele>
        <time>2016-03-13T13:30:31Z</time>
      </trkpt>
      <trkpt lat="46.502699889242649" lon="8.91742623411119">
        <ele>1712.73</ele>
        <time>2016-03-13T13:30:42Z</time>
      </trkpt>
      <trkpt lat="46.502667870372534" lon="8.917492367327213">
        <ele>1711.28</ele>
        <time>2016-03-13T13:30:49Z</time>
      </trkpt>
      <trkpt lat="46.502710450440645" lon="8.917523799464107">
        <ele>1710.8</ele>
        <time>2016-03-13T13:30:54Z</time>
      </trkpt>
      <trkpt lat="46.502854116261005" lon="8.917571995407343">
        <ele>1709.3599999999999</ele>
        <time>2016-03-13T13:31:07Z</time>
      </trkpt>
      <trkpt lat="46.50299166329205" lon="8.917657574638724">
        <ele>1707.4400000000001</ele>
        <time>2016-03-13T13:31:19Z</time>
      </trkpt>
      <trkpt lat="46.503095766529441" lon="8.917787577956915">
        <ele>1705.52</ele>
        <time>2016-03-13T13:31:31Z</time>
      </trkpt>
      <trkpt lat="46.503155445680022" lon="8.917914312332869">
        <ele>1703.1099999999999</ele>
        <time>2016-03-13T13:31:40Z</time>
      </trkpt>
      <trkpt lat="46.503247898072004" lon="8.918071640655398">
        <ele>1701.1900000000001</ele>
        <time>2016-03-13T13:31:52Z</time>
      </trkpt>
      <trkpt lat="46.503280503675342" lon="8.91819728538394">
        <ele>1700.71</ele>
        <time>2016-03-13T13:31:59Z</time>
      </trkpt>
      <trkpt lat="46.50333758443594" lon="8.918408760800958">
        <ele>1696.8599999999999</ele>
        <time>2016-03-13T13:32:13Z</time>
      </trkpt>
      <trkpt lat="46.503368346020579" lon="8.918519569560885">
        <ele>1695.4200000000001</ele>
        <time>2016-03-13T13:32:20Z</time>
      </trkpt>
      <trkpt lat="46.503380667418242" lon="8.9185481518507">
        <ele>1695.4200000000001</ele>
        <time>2016-03-13T13:32:22Z</time>
      </trkpt>
      <trkpt lat="46.503412518650293" lon="8.918631887063384">
        <ele>1693.98</ele>
        <time>2016-03-13T13:32:28Z</time>
      </trkpt>
      <trkpt lat="46.503446716815233" lon="8.918763482943177">
        <ele>1692.54</ele>
        <time>2016-03-13T13:32:39Z</time>
      </trkpt>
      <trkpt lat="46.503446968272328" lon="8.918772535398603">
        <ele>1692.0599999999999</ele>
        <time>2016-03-13T13:32:42Z</time>
      </trkpt>
      <trkpt lat="46.503476472571492" lon="8.918944029137492">
        <ele>1689.6500000000001</ele>
        <time>2016-03-13T13:32:53Z</time>
      </trkpt>
      <trkpt lat="46.50349642150104" lon="8.919017622247338">
        <ele>1688.21</ele>
        <time>2016-03-13T13:32:58Z</time>
      </trkpt>
      <trkpt lat="46.50360974483192" lon="8.919061794877052">
        <ele>1685.8099999999999</ele>
        <time>2016-03-13T13:33:09Z</time>
      </trkpt>
      <trkpt lat="46.503717955201864" lon="8.919021813198924">
        <ele>1683.8900000000001</ele>
        <time>2016-03-13T13:33:19Z</time>
      </trkpt>
      <trkpt lat="46.503794062882662" lon="8.919014101848006">
        <ele>1682.9300000000001</ele>
        <time>2016-03-13T13:33:25Z</time>
      </trkpt>
      <trkpt lat="46.503917025402188" lon="8.919069087132812">
        <ele>1680.04</ele>
        <time>2016-03-13T13:33:37Z</time>
      </trkpt>
      <trkpt lat="46.504037892445922" lon="8.919106386601925">
        <ele>1678.1199999999999</ele>
        <time>2016-03-13T13:33:48Z</time>
      </trkpt>
      <trkpt lat="46.504076449200511" lon="8.919114265590906">
        <ele>1677.1600000000001</ele>
        <time>2016-03-13T13:33:52Z</time>
      </trkpt>
      <trkpt lat="46.504126992076635" lon="8.919125664979219">
        <ele>1676.6800000000001</ele>
        <time>2016-03-13T13:34:00Z</time>
      </trkpt>
      <trkpt lat="46.504252385348082" lon="8.919152235612273">
        <ele>1674.27</ele>
        <time>2016-03-13T13:34:11Z</time>
      </trkpt>
      <trkpt lat="46.504334779456258" lon="8.91918039880693">
        <ele>1673.3099999999999</ele>
        <time>2016-03-13T13:34:18Z</time>
      </trkpt>
      <trkpt lat="46.504442654550076" lon="8.919340996071696">
        <ele>1671.3900000000001</ele>
        <time>2016-03-13T13:34:31Z</time>
      </trkpt>
      <trkpt lat="46.504463022574782" lon="8.919397154822946">
        <ele>1670.4300000000001</ele>
        <time>2016-03-13T13:34:35Z</time>
      </trkpt>
      <trkpt lat="46.504537118598819" lon="8.919581305235624">
        <ele>1668.02</ele>
        <time>2016-03-13T13:34:47Z</time>
      </trkpt>
      <trkpt lat="46.50459285825491" lon="8.919762438163161">
        <ele>1666.0999999999999</ele>
        <time>2016-03-13T13:34:58Z</time>
      </trkpt>
      <trkpt lat="46.504644155502319" lon="8.919913815334439">
        <ele>1664.1800000000001</ele>
        <time>2016-03-13T13:35:08Z</time>
      </trkpt>
      <trkpt lat="46.50469645857811" lon="8.920090841129422">
        <ele>1661.78</ele>
        <time>2016-03-13T13:35:19Z</time>
      </trkpt>
      <trkpt lat="46.504706684499979" lon="8.920123865827918">
        <ele>1661.78</ele>
        <time>2016-03-13T13:35:24Z</time>
      </trkpt>
      <trkpt lat="46.504785809665918" lon="8.92025831155479">
        <ele>1657.9300000000001</ele>
        <time>2016-03-13T13:35:35Z</time>
      </trkpt>
      <trkpt lat="46.504884967580438" lon="8.920341627672315">
        <ele>1655.05</ele>
        <time>2016-03-13T13:35:46Z</time>
      </trkpt>
      <trkpt lat="46.504989573732018" lon="8.920382112264633">
        <ele>1654.0899999999999</ele>
        <time>2016-03-13T13:35:57Z</time>
      </trkpt>
      <trkpt lat="46.505122510716319" lon="8.920415472239256">
        <ele>1653.5999999999999</ele>
        <time>2016-03-13T13:36:09Z</time>
      </trkpt>
      <trkpt lat="46.50518462061882" lon="8.920440869405866">
        <ele>1652.6400000000001</ele>
        <time>2016-03-13T13:36:15Z</time>
      </trkpt>
      <trkpt lat="46.505312193185091" lon="8.920570118352771">
        <ele>1649.76</ele>
        <time>2016-03-13T13:36:29Z</time>
      </trkpt>
      <trkpt lat="46.505394335836172" lon="8.920731637626886">
        <ele>1646.8800000000001</ele>
        <time>2016-03-13T13:36:41Z</time>
      </trkpt>
      <trkpt lat="46.505533810704947" lon="8.920831382274628">
        <ele>1644.47</ele>
        <time>2016-03-13T13:36:55Z</time>
      </trkpt>
      <trkpt lat="46.505618132650852" lon="8.920950153842568">
        <ele>1641.5899999999999</ele>
        <time>2016-03-13T13:37:06Z</time>
      </trkpt>
      <trkpt lat="46.505690719932318" lon="8.921086527407169">
        <ele>1638.7</ele>
        <time>2016-03-13T13:37:16Z</time>
      </trkpt>
      <trkpt lat="46.505809491500258" lon="8.921235976740718">
        <ele>1636.3</ele>
        <time>2016-03-13T13:37:29Z</time>
      </trkpt>
      <trkpt lat="46.505908649414778" lon="8.921372182667255">
        <ele>1635.3399999999999</ele>
        <time>2016-03-13T13:37:41Z</time>
      </trkpt>
      <trkpt lat="46.506036473438144" lon="8.921499252319336">
        <ele>1632.46</ele>
        <time>2016-03-13T13:37:54Z</time>
      </trkpt>
      <trkpt lat="46.506160441786051" lon="8.921571923419833">
        <ele>1630.53</ele>
        <time>2016-03-13T13:38:06Z</time>
      </trkpt>
      <trkpt lat="46.506232023239136" lon="8.921610731631517">
        <ele>1630.05</ele>
        <time>2016-03-13T13:38:12Z</time>
      </trkpt>
      <trkpt lat="46.50633042678237" lon="8.921688767150044">
        <ele>1627.6500000000001</ele>
        <time>2016-03-13T13:38:23Z</time>
      </trkpt>
      <trkpt lat="46.506313076242805" lon="8.921734616160393">
        <ele>1626.21</ele>
        <time>2016-03-13T13:38:27Z</time>
      </trkpt>
      <trkpt lat="46.506410809233785" lon="8.921833354979754">
        <ele>1624.77</ele>
        <time>2016-03-13T13:38:37Z</time>
      </trkpt>
      <trkpt lat="46.506521198898554" lon="8.921865541487932">
        <ele>1622.8399999999999</ele>
        <time>2016-03-13T13:38:47Z</time>
      </trkpt>
      <trkpt lat="46.50660065934062" lon="8.921878868713975">
        <ele>1619.96</ele>
        <time>2016-03-13T13:38:55Z</time>
      </trkpt>
      <trkpt lat="46.506713395938277" lon="8.921862607821822">
        <ele>1617.5599999999999</ele>
        <time>2016-03-13T13:39:05Z</time>
      </trkpt>
      <trkpt lat="46.506814230233431" lon="8.921885909512639">
        <ele>1614.6700000000001</ele>
        <time>2016-03-13T13:39:14Z</time>
      </trkpt>
      <trkpt lat="46.506839711219072" lon="8.921885658055544">
        <ele>1612.75</ele>
        <time>2016-03-13T13:39:19Z</time>
      </trkpt>
      <trkpt lat="46.506958566606045" lon="8.921892531216145">
        <ele>1609.3800000000001</ele>
        <time>2016-03-13T13:39:30Z</time>
      </trkpt>
      <trkpt lat="46.507094269618392" lon="8.921960256993771">
        <ele>1606.02</ele>
        <time>2016-03-13T13:39:41Z</time>
      </trkpt>
      <trkpt lat="46.507165096700191" lon="8.921946594491601">
        <ele>1604.0999999999999</ele>
        <time>2016-03-13T13:39:49Z</time>
      </trkpt>
      <trkpt lat="46.507286299020052" lon="8.922002501785755">
        <ele>1601.6900000000001</ele>
        <time>2016-03-13T13:39:59Z</time>
      </trkpt>
      <trkpt lat="46.507368022575974" lon="8.921987917274237">
        <ele>1599.29</ele>
        <time>2016-03-13T13:40:08Z</time>
      </trkpt>
      <trkpt lat="46.507448991760612" lon="8.921967130154371">
        <ele>1596.8900000000001</ele>
        <time>2016-03-13T13:40:18Z</time>
      </trkpt>
      <trkpt lat="46.507516298443079" lon="8.92195925116539">
        <ele>1594.48</ele>
        <time>2016-03-13T13:40:28Z</time>
      </trkpt>
      <trkpt lat="46.507633561268449" lon="8.921910468488932">
        <ele>1593.04</ele>
        <time>2016-03-13T13:40:37Z</time>
      </trkpt>
      <trkpt lat="46.507748309522867" lon="8.921874091029167">
        <ele>1592.0799999999999</ele>
        <time>2016-03-13T13:40:46Z</time>
      </trkpt>
      <trkpt lat="46.507843611761928" lon="8.921853387728334">
        <ele>1592.5599999999999</ele>
        <time>2016-03-13T13:40:56Z</time>
      </trkpt>
      <trkpt lat="46.507941680029035" lon="8.921856405213475">
        <ele>1592.5599999999999</ele>
        <time>2016-03-13T13:41:07Z</time>
      </trkpt>
      <trkpt lat="46.508058775216341" lon="8.921842155978084">
        <ele>1589.6800000000001</ele>
        <time>2016-03-13T13:41:18Z</time>
      </trkpt>
      <trkpt lat="46.508102277293801" lon="8.921818099915981">
        <ele>1588.72</ele>
        <time>2016-03-13T13:41:22Z</time>
      </trkpt>
      <trkpt lat="46.508184419944882" lon="8.921771496534348">
        <ele>1587.27</ele>
        <time>2016-03-13T13:41:30Z</time>
      </trkpt>
      <trkpt lat="46.508256001397967" lon="8.921692874282599">
        <ele>1585.8299999999999</ele>
        <time>2016-03-13T13:41:39Z</time>
      </trkpt>
      <trkpt lat="46.508332947269082" lon="8.921638811007142">
        <ele>1585.3499999999999</ele>
        <time>2016-03-13T13:41:49Z</time>
      </trkpt>
      <trkpt lat="46.508430177345872" lon="8.921611486002803">
        <ele>1585.3499999999999</ele>
        <time>2016-03-13T13:41:58Z</time>
      </trkpt>
      <trkpt lat="46.508425567299128" lon="8.92178189009428">
        <ele>1594</ele>
        <time>2016-03-13T09:47:55Z</time>
      </trkpt>
      <trkpt lat="46.508530927821994" lon="8.92174618318677">
        <ele>1594</ele>
        <time>2016-03-13T09:47:43Z</time>
      </trkpt>
      <trkpt lat="46.508604269474745" lon="8.921717181801796">
        <ele>1593.52</ele>
        <time>2016-03-13T09:47:33Z</time>
      </trkpt>
      <trkpt lat="46.508687250316143" lon="8.921703016385436">
        <ele>1594</ele>
        <time>2016-03-13T09:47:23Z</time>
      </trkpt>
      <trkpt lat="46.508754305541515" lon="8.921681055799127">
        <ele>1594</ele>
        <time>2016-03-13T09:47:14Z</time>
      </trkpt>
      <trkpt lat="46.508821444585919" lon="8.921675607562065">
        <ele>1593.04</ele>
        <time>2016-03-13T09:47:04Z</time>
      </trkpt>
      <trkpt lat="46.508881878107786" lon="8.921638811007142">
        <ele>1592.5599999999999</ele>
        <time>2016-03-13T09:46:54Z</time>
      </trkpt>
      <trkpt lat="46.50894658640027" lon="8.921568319201469">
        <ele>1591.5999999999999</ele>
        <time>2016-03-13T09:46:43Z</time>
      </trkpt>
      <trkpt lat="46.50900961831212" lon="8.921516519039869">
        <ele>1590.6400000000001</ele>
        <time>2016-03-13T09:46:33Z</time>
      </trkpt>
      <trkpt lat="46.509043062105775" lon="8.921498833224177">
        <ele>1590.1600000000001</ele>
        <time>2016-03-13T09:46:29Z</time>
      </trkpt>
      <trkpt lat="46.509072985500097" lon="8.921466479077935">
        <ele>1590.6400000000001</ele>
        <time>2016-03-13T09:46:16Z</time>
      </trkpt>
      <trkpt lat="46.509124869480729" lon="8.921427670866251">
        <ele>1590.6400000000001</ele>
        <time>2016-03-13T09:46:06Z</time>
      </trkpt>
      <trkpt lat="46.509193768724799" lon="8.921390874311328">
        <ele>1588.72</ele>
        <time>2016-03-13T09:45:55Z</time>
      </trkpt>
      <trkpt lat="46.509243473410606" lon="8.921373439952731">
        <ele>1587.75</ele>
        <time>2016-03-13T09:45:46Z</time>
      </trkpt>
      <trkpt lat="46.509317234158516" lon="8.921332033351064">
        <ele>1586.3099999999999</ele>
        <time>2016-03-13T09:45:33Z</time>
      </trkpt>
      <trkpt lat="46.509401891380548" lon="8.921271935105324">
        <ele>1585.8299999999999</ele>
        <time>2016-03-13T09:45:21Z</time>
      </trkpt>
      <trkpt lat="46.509398873895407" lon="8.921249555423856">
        <ele>1585.3499999999999</ele>
        <time>2016-03-13T09:45:17Z</time>
      </trkpt>
      <trkpt lat="46.509439442306757" lon="8.921233965083957">
        <ele>1584.8699999999999</ele>
        <time>2016-03-13T09:45:02Z</time>
      </trkpt>
      <trkpt lat="46.509501552209258" lon="8.921229774132371">
        <ele>1584.3900000000001</ele>
        <time>2016-03-13T09:44:51Z</time>
      </trkpt>
      <trkpt lat="46.509580258280039" lon="8.921203454956412">
        <ele>1582.95</ele>
        <time>2016-03-13T09:44:42Z</time>
      </trkpt>
      <trkpt lat="46.509637674316764" lon="8.921215441077948">
        <ele>1581.99</ele>
        <time>2016-03-13T09:44:31Z</time>
      </trkpt>
      <trkpt lat="46.509648403152823" lon="8.921299511566758">
        <ele>1581.51</ele>
        <time>2016-03-13T09:44:19Z</time>
      </trkpt>
      <trkpt lat="46.50969123467803" lon="8.921388946473599">
        <ele>1580.0599999999999</ele>
        <time>2016-03-13T09:44:07Z</time>
      </trkpt>
      <trkpt lat="46.509731886908412" lon="8.921472430229187">
        <ele>1578.6199999999999</ele>
        <time>2016-03-13T09:43:54Z</time>
      </trkpt>
      <trkpt lat="46.509797014296055" lon="8.921507885679603">
        <ele>1577.1800000000001</ele>
        <time>2016-03-13T09:43:39Z</time>
      </trkpt>
      <trkpt lat="46.509836409240961" lon="8.921551052480936">
        <ele>1576.22</ele>
        <time>2016-03-13T09:43:24Z</time>
      </trkpt>
      <trkpt lat="46.509882090613246" lon="8.92159472219646">
        <ele>1574.78</ele>
        <time>2016-03-13T09:43:13Z</time>
      </trkpt>
      <trkpt lat="46.509920228272676" lon="8.921643504872918">
        <ele>1572.8499999999999</ele>
        <time>2016-03-13T09:43:01Z</time>
      </trkpt>
      <trkpt lat="46.509996168315411" lon="8.921749535948038">
        <ele>1569.97</ele>
        <time>2016-03-13T09:42:46Z</time>
      </trkpt>
      <trkpt lat="46.510053416714072" lon="8.921811981126666">
        <ele>1567.5699999999999</ele>
        <time>2016-03-13T09:42:34Z</time>
      </trkpt>
      <trkpt lat="46.510091805830598" lon="8.921836707741022">
        <ele>1567.5699999999999</ele>
        <time>2016-03-13T09:42:18Z</time>
      </trkpt>
      <trkpt lat="46.510094655677676" lon="8.921881467103958">
        <ele>1567.0899999999999</ele>
        <time>2016-03-13T09:42:06Z</time>
      </trkpt>
      <trkpt lat="46.510079232975841" lon="8.921876773238182">
        <ele>1567.5699999999999</ele>
        <time>2016-03-13T09:41:52Z</time>
      </trkpt>
      <trkpt lat="46.510126171633601" lon="8.921890268102288">
        <ele>1565.6400000000001</ele>
        <time>2016-03-13T09:41:39Z</time>
      </trkpt>
      <trkpt lat="46.51018132455647" lon="8.921957407146692">
        <ele>1563.24</ele>
        <time>2016-03-13T09:41:24Z</time>
      </trkpt>
      <trkpt lat="46.510248547419906" lon="8.921972578391433">
        <ele>1561.3199999999999</ele>
        <time>2016-03-13T09:41:12Z</time>
      </trkpt>
      <trkpt lat="46.510327840223908" lon="8.92203108407557">
        <ele>1558.9200000000001</ele>
        <time>2016-03-13T09:40:59Z</time>
      </trkpt>
      <trkpt lat="46.510384501889348" lon="8.922057654708624">
        <ele>1556.99</ele>
        <time>2016-03-13T09:40:46Z</time>
      </trkpt>
      <trkpt lat="46.51043982245028" lon="8.922098139300942">
        <ele>1554.5899999999999</ele>
        <time>2016-03-13T09:40:35Z</time>
      </trkpt>
      <trkpt lat="46.510486844927073" lon="8.92213904298842">
        <ele>1553.1500000000001</ele>
        <time>2016-03-13T09:40:23Z</time>
      </trkpt>
      <trkpt lat="46.510559264570475" lon="8.922188244760037">
        <ele>1550.74</ele>
        <time>2016-03-13T09:40:10Z</time>
      </trkpt>
      <trkpt lat="46.510598408058286" lon="8.922236189246178">
        <ele>1549.3</ele>
        <time>2016-03-13T09:40:01Z</time>
      </trkpt>
      <trkpt lat="46.510664205998182" lon="8.922307854518294">
        <ele>1547.8599999999999</ele>
        <time>2016-03-13T09:39:50Z</time>
      </trkpt>
      <trkpt lat="46.510738469660282" lon="8.922384129837155">
        <ele>1546.4200000000001</ele>
        <time>2016-03-13T09:39:38Z</time>
      </trkpt>
      <trkpt lat="46.510802926495671" lon="8.922444060444832">
        <ele>1544.98</ele>
        <time>2016-03-13T09:39:26Z</time>
      </trkpt>
      <trkpt lat="46.510871239006519" lon="8.922498961910605">
        <ele>1543.53</ele>
        <time>2016-03-13T09:39:15Z</time>
      </trkpt>
      <trkpt lat="46.510928655043244" lon="8.922520084306598">
        <ele>1542.0899999999999</ele>
        <time>2016-03-13T09:39:05Z</time>
      </trkpt>
      <trkpt lat="46.510939635336399" lon="8.922537518665195">
        <ele>1542.0899999999999</ele>
        <time>2016-03-13T09:38:50Z</time>
      </trkpt>
      <trkpt lat="46.51100467890501" lon="8.922576997429133">
        <ele>1541.1300000000001</ele>
        <time>2016-03-13T09:38:39Z</time>
      </trkpt>
      <trkpt lat="46.51109067723155" lon="8.92258177511394">
        <ele>1539.21</ele>
        <time>2016-03-13T09:38:26Z</time>
      </trkpt>
      <trkpt lat="46.511178771033883" lon="8.922603651881218">
        <ele>1538.25</ele>
        <time>2016-03-13T09:38:14Z</time>
      </trkpt>
      <trkpt lat="46.511219423264265" lon="8.922621924430132">
        <ele>1538.25</ele>
        <time>2016-03-13T09:38:09Z</time>
      </trkpt>
      <trkpt lat="46.511251693591475" lon="8.922642376273871">
        <ele>1537.29</ele>
        <time>2016-03-13T09:38:04Z</time>
      </trkpt>
      <trkpt lat="46.511272313073277" lon="8.922631815075874">
        <ele>1536.8</ele>
        <time>2016-03-13T09:37:55Z</time>
      </trkpt>
      <trkpt lat="46.511351857334375" lon="8.922672215849161">
        <ele>1534.8800000000001</ele>
        <time>2016-03-13T09:37:41Z</time>
      </trkpt>
      <trkpt lat="46.511439867317677" lon="8.922692751511931">
        <ele>1533.4400000000001</ele>
        <time>2016-03-13T09:37:29Z</time>
      </trkpt>
      <trkpt lat="46.511552017182112" lon="8.922662828117609">
        <ele>1531.52</ele>
        <time>2016-03-13T09:37:15Z</time>
      </trkpt>
      <trkpt lat="46.511623514816165" lon="8.922626869753003">
        <ele>1530.5599999999999</ele>
        <time>2016-03-13T09:37:04Z</time>
      </trkpt>
      <trkpt lat="46.511694760993123" lon="8.922620248049498">
        <ele>1529.1099999999999</ele>
        <time>2016-03-13T09:36:53Z</time>
      </trkpt>
      <trkpt lat="46.511762151494622" lon="8.922615302726626">
        <ele>1527.6700000000001</ele>
        <time>2016-03-13T09:36:43Z</time>
      </trkpt>
      <trkpt lat="46.511851334944367" lon="8.922605747357011">
        <ele>1526.71</ele>
        <time>2016-03-13T09:36:30Z</time>
      </trkpt>
      <trkpt lat="46.511911517009139" lon="8.922596275806427">
        <ele>1525.27</ele>
        <time>2016-03-13T09:36:18Z</time>
      </trkpt>
      <trkpt lat="46.511963820084929" lon="8.92263256944716">
        <ele>1524.79</ele>
        <time>2016-03-13T09:36:07Z</time>
      </trkpt>
      <trkpt lat="46.512019140645862" lon="8.922646064311266">
        <ele>1522.8699999999999</ele>
        <time>2016-03-13T09:35:57Z</time>
      </trkpt>
      <trkpt lat="46.512067168951035" lon="8.922646986320615">
        <ele>1520.9400000000001</ele>
        <time>2016-03-13T09:35:45Z</time>
      </trkpt>
      <trkpt lat="46.512073874473572" lon="8.922647153958678">
        <ele>1520.46</ele>
        <time>2016-03-13T09:35:44Z</time>
      </trkpt>
      <trkpt lat="46.512104887515306" lon="8.922651428729296">
        <ele>1517.5799999999999</ele>
        <time>2016-03-13T09:35:39Z</time>
      </trkpt>
      <trkpt lat="46.512159872800112" lon="8.922722255811095">
        <ele>1517.5799999999999</ele>
        <time>2016-03-13T09:35:25Z</time>
      </trkpt>
      <trkpt lat="46.512266155332327" lon="8.922780845314264">
        <ele>1518.0599999999999</ele>
        <time>2016-03-13T09:35:14Z</time>
      </trkpt>
      <trkpt lat="46.512352824211121" lon="8.922795010730624">
        <ele>1517.0999999999999</ele>
        <time>2016-03-13T09:35:05Z</time>
      </trkpt>
      <trkpt lat="46.512473355978727" lon="8.922804482281208">
        <ele>1514.21</ele>
        <time>2016-03-13T09:34:49Z</time>
      </trkpt>
      <trkpt lat="46.512541919946671" lon="8.92280850559473">
        <ele>1513.25</ele>
        <time>2016-03-13T09:34:36Z</time>
      </trkpt>
      <trkpt lat="46.512659434229136" lon="8.9227962680161">
        <ele>1510.8499999999999</ele>
        <time>2016-03-13T09:34:21Z</time>
      </trkpt>
      <trkpt lat="46.512739900499582" lon="8.922757878899574">
        <ele>1509.8900000000001</ele>
        <time>2016-03-13T09:34:10Z</time>
      </trkpt>
      <trkpt lat="46.512772087007761" lon="8.922730134800077">
        <ele>1509.8900000000001</ele>
        <time>2016-03-13T09:33:57Z</time>
      </trkpt>
      <trkpt lat="46.51275834068656" lon="8.922788556665182">
        <ele>1507.97</ele>
        <time>2016-03-13T09:33:46Z</time>
      </trkpt>
      <trkpt lat="46.512770745903254" lon="8.922809595242143">
        <ele>1507.48</ele>
        <time>2016-03-13T09:33:33Z</time>
      </trkpt>
      <trkpt lat="46.512748366221786" lon="8.922795094549656">
        <ele>1507.97</ele>
        <time>2016-03-13T09:33:19Z</time>
      </trkpt>
      <trkpt lat="46.512755071744323" lon="8.92281286418438">
        <ele>1507.97</ele>
        <time>2016-03-13T09:33:00Z</time>
      </trkpt>
      <trkpt lat="46.512737385928631" lon="8.9228187315166">
        <ele>1507.48</ele>
        <time>2016-03-13T09:32:45Z</time>
      </trkpt>
      <trkpt lat="46.512751216068864" lon="8.922817558050156">
        <ele>1507.48</ele>
        <time>2016-03-13T09:32:32Z</time>
      </trkpt>
      <trkpt lat="46.512763286009431" lon="8.922769529744983">
        <ele>1507.97</ele>
        <time>2016-03-13T09:32:17Z</time>
      </trkpt>
      <trkpt lat="46.5127476118505" lon="8.922802219167352">
        <ele>1507.48</ele>
        <time>2016-03-13T09:32:09Z</time>
      </trkpt>
      <trkpt lat="46.512754652649164" lon="8.922851840034127">
        <ele>1506.04</ele>
        <time>2016-03-13T09:31:59Z</time>
      </trkpt>
      <trkpt lat="46.512794969603419" lon="8.92289056442678">
        <ele>1505.5599999999999</ele>
        <time>2016-03-13T09:31:46Z</time>
      </trkpt>
      <trkpt lat="46.512825647369027" lon="8.922954685986042">
        <ele>1504.5999999999999</ele>
        <time>2016-03-13T09:31:36Z</time>
      </trkpt>
      <trkpt lat="46.512812906876206" lon="8.923023333773017">
        <ele>1503.1600000000001</ele>
        <time>2016-03-13T09:31:24Z</time>
      </trkpt>
      <trkpt lat="46.51279647834599" lon="8.923086281865835">
        <ele>1502.2</ele>
        <time>2016-03-13T09:31:14Z</time>
      </trkpt>
      <trkpt lat="46.512765968218446" lon="8.923174124211073">
        <ele>1500.76</ele>
        <time>2016-03-13T09:31:03Z</time>
      </trkpt>
      <trkpt lat="46.512744929641485" lon="8.923239335417748">
        <ele>1499.79</ele>
        <time>2016-03-13T09:30:51Z</time>
      </trkpt>
      <trkpt lat="46.512715006247163" lon="8.923285352066159">
        <ele>1498.8299999999999</ele>
        <time>2016-03-13T09:30:41Z</time>
      </trkpt>
      <trkpt lat="46.512681813910604" lon="8.923339582979679">
        <ele>1497.3900000000001</ele>
        <time>2016-03-13T09:30:29Z</time>
      </trkpt>
      <trkpt lat="46.512635378167033" lon="8.923422060906887">
        <ele>1495.47</ele>
        <time>2016-03-13T09:30:17Z</time>
      </trkpt>
      <trkpt lat="46.512589361518621" lon="8.923516944050789">
        <ele>1493.55</ele>
        <time>2016-03-13T09:30:05Z</time>
      </trkpt>
      <trkpt lat="46.512545440346003" lon="8.92359271645546">
        <ele>1492.5799999999999</ele>
        <time>2016-03-13T09:29:53Z</time>
      </trkpt>
      <trkpt lat="46.512504788115621" lon="8.923662202432752">
        <ele>1490.6600000000001</ele>
        <time>2016-03-13T09:29:40Z</time>
      </trkpt>
      <trkpt lat="46.512457430362701" lon="8.923714756965637">
        <ele>1489.22</ele>
        <time>2016-03-13T09:29:31Z</time>
      </trkpt>
      <trkpt lat="46.512433541938663" lon="8.923694053664804">
        <ele>1488.26</ele>
        <time>2016-03-13T09:29:19Z</time>
      </trkpt>
      <trkpt lat="46.51240068487823" lon="8.923735208809376">
        <ele>1486.8199999999999</ele>
        <time>2016-03-13T09:29:07Z</time>
      </trkpt>
      <trkpt lat="46.512372856959701" lon="8.923826068639755">
        <ele>1484.8900000000001</ele>
        <time>2016-03-13T09:28:55Z</time>
      </trkpt>
      <trkpt lat="46.512295659631491" lon="8.923885747790337">
        <ele>1483.45</ele>
        <time>2016-03-13T09:28:44Z</time>
      </trkpt>
      <trkpt lat="46.512288535013795" lon="8.923953557386994">
        <ele>1481.05</ele>
        <time>2016-03-13T09:28:33Z</time>
      </trkpt>
      <trkpt lat="46.512260790914297" lon="8.924056738615036">
        <ele>1478.1600000000001</ele>
        <time>2016-03-13T09:28:21Z</time>
      </trkpt>
      <trkpt lat="46.512195412069559" lon="8.924113148823381">
        <ele>1476.72</ele>
        <time>2016-03-13T09:28:09Z</time>
      </trkpt>
      <trkpt lat="46.512144031003118" lon="8.924159249290824">
        <ele>1475.28</ele>
        <time>2016-03-13T09:27:54Z</time>
      </trkpt>
      <trkpt lat="46.512119052931666" lon="8.924136199057102">
        <ele>1475.28</ele>
        <time>2016-03-13T09:27:42Z</time>
      </trkpt>
      <trkpt lat="46.5120879560709" lon="8.924185484647751">
        <ele>1473.3599999999999</ele>
        <time>2016-03-13T09:27:30Z</time>
      </trkpt>
      <trkpt lat="46.512048561125994" lon="8.924238374456763">
        <ele>1471.9200000000001</ele>
        <time>2016-03-13T09:27:18Z</time>
      </trkpt>
      <trkpt lat="46.511939596384764" lon="8.924310375005007">
        <ele>1469.99</ele>
        <time>2016-03-13T09:27:05Z</time>
      </trkpt>
      <trkpt lat="46.51192132383585" lon="8.924314398318529">
        <ele>1468.55</ele>
        <time>2016-03-13T09:26:53Z</time>
      </trkpt>
      <trkpt lat="46.511915288865566" lon="8.924387320876122">
        <ele>1466.1500000000001</ele>
        <time>2016-03-13T09:26:39Z</time>
      </trkpt>
      <trkpt lat="46.511866757646203" lon="8.924475582316518">
        <ele>1464.71</ele>
        <time>2016-03-13T09:26:24Z</time>
      </trkpt>
      <trkpt lat="46.511844880878925" lon="8.924554288387299">
        <ele>1462.78</ele>
        <time>2016-03-13T09:26:12Z</time>
      </trkpt>
      <trkpt lat="46.511807329952717" lon="8.924610782414675">
        <ele>1461.3399999999999</ele>
        <time>2016-03-13T09:26:03Z</time>
      </trkpt>
      <trkpt lat="46.511739771813154" lon="8.924698624759913">
        <ele>1459.9000000000001</ele>
        <time>2016-03-13T09:25:51Z</time>
      </trkpt>
      <trkpt lat="46.51166869327426" lon="8.924753190949559">
        <ele>1457.98</ele>
        <time>2016-03-13T09:25:39Z</time>
      </trkpt>
      <trkpt lat="46.51159786619246" lon="8.924805661663413">
        <ele>1456.53</ele>
        <time>2016-03-13T09:25:25Z</time>
      </trkpt>
      <trkpt lat="46.511507928371429" lon="8.924911692738533">
        <ele>1455.0899999999999</ele>
        <time>2016-03-13T09:25:09Z</time>
      </trkpt>
      <trkpt lat="46.511442549526691" lon="8.924957206472755">
        <ele>1453.6500000000001</ele>
        <time>2016-03-13T09:24:56Z</time>
      </trkpt>
      <trkpt lat="46.511405082419515" lon="8.92498335801065">
        <ele>1452.6900000000001</ele>
        <time>2016-03-13T09:24:44Z</time>
      </trkpt>
      <trkpt lat="46.511361245065928" lon="8.925019819289446">
        <ele>1451.25</ele>
        <time>2016-03-13T09:24:33Z</time>
      </trkpt>
      <trkpt lat="46.511277174577117" lon="8.925086539238691">
        <ele>1450.29</ele>
        <time>2016-03-13T09:24:23Z</time>
      </trkpt>
      <trkpt lat="46.51119570247829" lon="8.925169017165899">
        <ele>1448.8399999999999</ele>
        <time>2016-03-13T09:24:09Z</time>
      </trkpt>
      <trkpt lat="46.511147087439895" lon="8.925205729901791">
        <ele>1447.4000000000001</ele>
        <time>2016-03-13T09:23:59Z</time>
      </trkpt>
      <trkpt lat="46.511043906211853" lon="8.92531268298626">
        <ele>1445.96</ele>
        <time>2016-03-13T09:23:45Z</time>
      </trkpt>
      <trkpt lat="46.510996213182807" lon="8.925365321338177">
        <ele>1444.52</ele>
        <time>2016-03-13T09:23:32Z</time>
      </trkpt>
      <trkpt lat="46.511033847928047" lon="8.925444865599275">
        <ele>1443.0799999999999</ele>
        <time>2016-03-13T09:23:19Z</time>
      </trkpt>
      <trkpt lat="46.511066537350416" lon="8.925521643832326">
        <ele>1441.6300000000001</ele>
        <time>2016-03-13T09:23:05Z</time>
      </trkpt>
      <trkpt lat="46.511114230379462" lon="8.925569672137499">
        <ele>1439.71</ele>
        <time>2016-03-13T09:22:51Z</time>
      </trkpt>
      <trkpt lat="46.51114247739315" lon="8.925626249983907">
        <ele>1437.79</ele>
        <time>2016-03-13T09:22:37Z</time>
      </trkpt>
      <trkpt lat="46.511186733841896" lon="8.925671931356192">
        <ele>1435.3900000000001</ele>
        <time>2016-03-13T09:22:24Z</time>
      </trkpt>
      <trkpt lat="46.511245323345065" lon="8.925729934126139">
        <ele>1432.98</ele>
        <time>2016-03-13T09:22:12Z</time>
      </trkpt>
      <trkpt lat="46.511326041072607" lon="8.925729095935822">
        <ele>1431.0599999999999</ele>
        <time>2016-03-13T09:22:01Z</time>
      </trkpt>
      <trkpt lat="46.511329896748066" lon="8.925799252465367">
        <ele>1429.6199999999999</ele>
        <time>2016-03-13T09:21:48Z</time>
      </trkpt>
      <trkpt lat="46.511398628354073" lon="8.925839988514781">
        <ele>1427.7</ele>
        <time>2016-03-13T09:21:32Z</time>
      </trkpt>
      <trkpt lat="46.511470293626189" lon="8.925864296033979">
        <ele>1426.25</ele>
        <time>2016-03-13T09:21:18Z</time>
      </trkpt>
      <trkpt lat="46.511564673855901" lon="8.925890447571874">
        <ele>1423.3699999999999</ele>
        <time>2016-03-13T09:21:03Z</time>
      </trkpt>
      <trkpt lat="46.511621922254562" lon="8.925898997113109">
        <ele>1420.97</ele>
        <time>2016-03-13T09:20:52Z</time>
      </trkpt>
      <trkpt lat="46.511682691052556" lon="8.925930429250002">
        <ele>1419.04</ele>
        <time>2016-03-13T09:20:39Z</time>
      </trkpt>
      <trkpt lat="46.511759972199798" lon="8.925910228863359">
        <ele>1417.1199999999999</ele>
        <time>2016-03-13T09:20:27Z</time>
      </trkpt>
      <trkpt lat="46.511830044910312" lon="8.925964878872037">
        <ele>1414.72</ele>
        <time>2016-03-13T09:20:13Z</time>
      </trkpt>
      <trkpt lat="46.511874804273248" lon="8.926066718995571">
        <ele>1412.3099999999999</ele>
        <time>2016-03-13T09:19:59Z</time>
      </trkpt>
      <trkpt lat="46.511937081813812" lon="8.926141988486052">
        <ele>1410.8699999999999</ele>
        <time>2016-03-13T09:19:46Z</time>
      </trkpt>
      <trkpt lat="46.512003634124994" lon="8.926177192479372">
        <ele>1408.95</ele>
        <time>2016-03-13T09:19:33Z</time>
      </trkpt>
      <trkpt lat="46.512078735977411" lon="8.926178868860006">
        <ele>1407.03</ele>
        <time>2016-03-13T09:19:21Z</time>
      </trkpt>
      <trkpt lat="46.512156436219811" lon="8.926222203299403">
        <ele>1404.6199999999999</ele>
        <time>2016-03-13T09:19:05Z</time>
      </trkpt>
      <trkpt lat="46.512250313535333" lon="8.926183898001909">
        <ele>1403.1800000000001</ele>
        <time>2016-03-13T09:18:52Z</time>
      </trkpt>
      <trkpt lat="46.512361709028482" lon="8.926121536642313">
        <ele>1401.26</ele>
        <time>2016-03-13T09:18:39Z</time>
      </trkpt>
      <trkpt lat="46.512430524453521" lon="8.92608130350709">
        <ele>1399.8199999999999</ele>
        <time>2016-03-13T09:18:26Z</time>
      </trkpt>
      <trkpt lat="46.51251744478941" lon="8.92605590634048">
        <ele>1397.4100000000001</ele>
        <time>2016-03-13T09:18:12Z</time>
      </trkpt>
      <trkpt lat="46.512608723714948" lon="8.926016176119447">
        <ele>1395.97</ele>
        <time>2016-03-13T09:17:59Z</time>
      </trkpt>
      <trkpt lat="46.512703020125628" lon="8.925980804488063">
        <ele>1394.53</ele>
        <time>2016-03-13T09:17:46Z</time>
      </trkpt>
      <trkpt lat="46.512781893834472" lon="8.925952641293407">
        <ele>1393.0899999999999</ele>
        <time>2016-03-13T09:17:35Z</time>
      </trkpt>
      <trkpt lat="46.512841824442148" lon="8.925908803939819">
        <ele>1391.6500000000001</ele>
        <time>2016-03-13T09:17:22Z</time>
      </trkpt>
      <trkpt lat="46.512896558269858" lon="8.92594107426703">
        <ele>1389.72</ele>
        <time>2016-03-13T09:17:11Z</time>
      </trkpt>
      <trkpt lat="46.512958249077201" lon="8.925971332937479">
        <ele>1387.8</ele>
        <time>2016-03-13T09:17:01Z</time>
      </trkpt>
      <trkpt lat="46.513049276545644" lon="8.925945851951838">
        <ele>1385.4000000000001</ele>
        <time>2016-03-13T09:16:49Z</time>
      </trkpt>
      <trkpt lat="46.513108620420098" lon="8.925884328782558">
        <ele>1383.96</ele>
        <time>2016-03-13T09:16:37Z</time>
      </trkpt>
      <trkpt lat="46.513206688687205" lon="8.925860859453678">
        <ele>1382.03</ele>
        <time>2016-03-13T09:16:24Z</time>
      </trkpt>
      <trkpt lat="46.513257483020425" lon="8.925927244126797">
        <ele>1379.6300000000001</ele>
        <time>2016-03-13T09:16:11Z</time>
      </trkpt>
      <trkpt lat="46.513273660093546" lon="8.92603050917387">
        <ele>1378.1900000000001</ele>
        <time>2016-03-13T09:16:01Z</time>
      </trkpt>
      <trkpt lat="46.513314982876182" lon="8.926048949360848">
        <ele>1378.1900000000001</ele>
        <time>2016-03-13T09:15:51Z</time>
      </trkpt>
      <trkpt lat="46.513398885726929" lon="8.926051380112767">
        <ele>1378.1900000000001</ele>
        <time>2016-03-13T09:15:41Z</time>
      </trkpt>
      <trkpt lat="46.513512209057808" lon="8.9260358735919">
        <ele>1378.1900000000001</ele>
        <time>2016-03-13T09:15:30Z</time>
      </trkpt>
      <trkpt lat="46.513650342822075" lon="8.926018355414271">
        <ele>1377.71</ele>
        <time>2016-03-13T09:15:17Z</time>
      </trkpt>
      <trkpt lat="46.513688564300537" lon="8.926014835014939">
        <ele>1377.71</ele>
        <time>2016-03-13T09:15:13Z</time>
      </trkpt>
      <trkpt lat="46.513781603425741" lon="8.926020115613937">
        <ele>1378.6700000000001</ele>
        <time>2016-03-13T09:15:03Z</time>
      </trkpt>
      <trkpt lat="46.513866763561964" lon="8.926107371225953">
        <ele>1378.1900000000001</ele>
        <time>2016-03-13T09:14:51Z</time>
      </trkpt>
      <trkpt lat="46.513939183205366" lon="8.926233435049653">
        <ele>1377.71</ele>
        <time>2016-03-13T09:14:39Z</time>
      </trkpt>
      <trkpt lat="46.51400925591588" lon="8.926364779472351">
        <ele>1377.23</ele>
        <time>2016-03-13T09:14:28Z</time>
      </trkpt>
      <trkpt lat="46.514122663065791" lon="8.926454382017255">
        <ele>1375.78</ele>
        <time>2016-03-13T09:14:15Z</time>
      </trkpt>
      <trkpt lat="46.514215702190995" lon="8.926472822204232">
        <ele>1374.3399999999999</ele>
        <time>2016-03-13T09:14:05Z</time>
      </trkpt>
      <trkpt lat="46.514316201210022" lon="8.926484305411577">
        <ele>1373.3800000000001</ele>
        <time>2016-03-13T09:13:54Z</time>
      </trkpt>
      <trkpt lat="46.514358948916197" lon="8.926495285704732">
        <ele>1372.4200000000001</ele>
        <time>2016-03-13T09:13:48Z</time>
      </trkpt>
      <trkpt lat="46.514447629451752" lon="8.926489166915417">
        <ele>1371.9400000000001</ele>
        <time>2016-03-13T09:13:38Z</time>
      </trkpt>
      <trkpt lat="46.514476295560598" lon="8.92650106921792">
        <ele>1370.02</ele>
        <time>2016-03-13T09:13:32Z</time>
      </trkpt>
      <trkpt lat="46.514470931142569" lon="8.926524370908737">
        <ele>1371.46</ele>
        <time>2016-03-13T09:13:29Z</time>
      </trkpt>
      <trkpt lat="46.514563215896487" lon="8.92654599621892">
        <ele>1370.02</ele>
        <time>2016-03-13T09:13:17Z</time>
      </trkpt>
      <trkpt lat="46.514675868675113" lon="8.926574075594544">
        <ele>1369.54</ele>
        <time>2016-03-13T09:13:04Z</time>
      </trkpt>
      <trkpt lat="46.514769997447729" lon="8.926587654277682">
        <ele>1368.0899999999999</ele>
        <time>2016-03-13T09:12:53Z</time>
      </trkpt>
      <trkpt lat="46.514870328828692" lon="8.926585977897048">
        <ele>1367.6099999999999</ele>
        <time>2016-03-13T09:12:42Z</time>
      </trkpt>
      <trkpt lat="46.514980467036366" lon="8.926546247676015">
        <ele>1366.1700000000001</ele>
        <time>2016-03-13T09:12:31Z</time>
      </trkpt>
      <trkpt lat="46.515019359067082" lon="8.926528980955482">
        <ele>1365.6900000000001</ele>
        <time>2016-03-13T09:12:28Z</time>
      </trkpt>
      <trkpt lat="46.515096724033356" lon="8.926477516070008">
        <ele>1364.73</ele>
        <time>2016-03-13T09:12:18Z</time>
      </trkpt>
      <trkpt lat="46.515200911089778" lon="8.926380788907409">
        <ele>1364.25</ele>
        <time>2016-03-13T09:12:07Z</time>
      </trkpt>
      <trkpt lat="46.515291268005967" lon="8.926274087280035">
        <ele>1363.29</ele>
        <time>2016-03-13T09:11:57Z</time>
      </trkpt>
      <trkpt lat="46.515339212492108" lon="8.926259838044643">
        <ele>1363.29</ele>
        <time>2016-03-13T09:11:52Z</time>
      </trkpt>
      <trkpt lat="46.515363603830338" lon="8.926274925470352">
        <ele>1362.8099999999999</ele>
        <time>2016-03-13T09:11:36Z</time>
      </trkpt>
      <trkpt lat="46.515381373465061" lon="8.926300909370184">
        <ele>1362.8099999999999</ele>
        <time>2016-03-13T09:11:27Z</time>
      </trkpt>
      <trkpt lat="46.515380283817649" lon="8.926287414506078">
        <ele>1361.8399999999999</ele>
        <time>2016-03-13T09:11:17Z</time>
      </trkpt>
      <trkpt lat="46.515397801995277" lon="8.92625380307436">
        <ele>1361.8399999999999</ele>
        <time>2016-03-13T09:10:53Z</time>
      </trkpt>
      <trkpt lat="46.515355054289103" lon="8.926318259909749">
        <ele>1361.8399999999999</ele>
        <time>2016-03-13T09:10:29Z</time>
      </trkpt>
      <trkpt lat="46.515390677377582" lon="8.926294958218932">
        <ele>1361.3599999999999</ele>
        <time>2016-03-13T09:10:07Z</time>
      </trkpt>
      <trkpt lat="46.515389000996947" lon="8.92627920024097">
        <ele>1360.8800000000001</ele>
        <time>2016-03-13T09:09:45Z</time>
      </trkpt>
      <trkpt lat="46.515336027368903" lon="8.926268052309752">
        <ele>1360.8800000000001</ele>
        <time>2016-03-13T09:09:17Z</time>
      </trkpt>
      <trkpt lat="46.515333512797952" lon="8.92624894157052">
        <ele>1360.8800000000001</ele>
        <time>2016-03-13T09:08:55Z</time>
      </trkpt>
      <trkpt lat="46.515313815325499" lon="8.926247097551823">
        <ele>1361.8399999999999</ele>
        <time>2016-03-13T09:08:47Z</time>
      </trkpt>
      <trkpt lat="46.51528992690146" lon="8.926262855529785">
        <ele>1362.3299999999999</ele>
        <time>2016-03-13T09:08:34Z</time>
      </trkpt>
      <trkpt lat="46.515287077054381" lon="8.926287079229951">
        <ele>1361.3599999999999</ele>
        <time>2016-03-13T09:08:15Z</time>
      </trkpt>
      <trkpt lat="46.515282467007637" lon="8.926296466961503">
        <ele>1361.8399999999999</ele>
        <time>2016-03-13T09:08:02Z</time>
      </trkpt>
      <trkpt lat="46.515293531119823" lon="8.926285989582539">
        <ele>1361.8399999999999</ele>
        <time>2016-03-13T09:07:47Z</time>
      </trkpt>
      <trkpt lat="46.515301410108805" lon="8.926295377314091">
        <ele>1361.8399999999999</ele>
        <time>2016-03-13T09:07:35Z</time>
      </trkpt>
      <trkpt lat="46.515310127288103" lon="8.926254976540804">
        <ele>1361.3599999999999</ele>
        <time>2016-03-13T09:07:21Z</time>
      </trkpt>
      <trkpt lat="46.51533879339695" lon="8.926199236884713">
        <ele>1361.3599999999999</ele>
        <time>2016-03-13T09:07:08Z</time>
      </trkpt>
      <trkpt lat="46.515329573303461" lon="8.926234692335129">
        <ele>1361.3599999999999</ele>
        <time>2016-03-13T09:06:50Z</time>
      </trkpt>
      <trkpt lat="46.515333596616983" lon="8.926217928528786">
        <ele>1361.3599999999999</ele>
        <time>2016-03-13T09:06:30Z</time>
      </trkpt>
      <trkpt lat="46.51533636264503" lon="8.926245672628284">
        <ele>1360.8800000000001</ele>
        <time>2016-03-13T09:06:12Z</time>
      </trkpt>
      <trkpt lat="46.515331333503127" lon="8.926238548010588">
        <ele>1360.8800000000001</ele>
        <time>2016-03-13T09:05:54Z</time>
      </trkpt>
      <trkpt lat="46.51533585973084" lon="8.926276601850987">
        <ele>1360.8800000000001</ele>
        <time>2016-03-13T09:05:35Z</time>
      </trkpt>
      <trkpt lat="46.515357736498117" lon="8.926230249926448">
        <ele>1361.8399999999999</ele>
        <time>2016-03-13T09:05:24Z</time>
      </trkpt>
      <trkpt lat="46.515346756204963" lon="8.926304597407579">
        <ele>1361.3599999999999</ele>
        <time>2016-03-13T09:05:11Z</time>
      </trkpt>
      <trkpt lat="46.515360251069069" lon="8.926313985139132">
        <ele>1360.8800000000001</ele>
        <time>2016-03-13T09:04:57Z</time>
      </trkpt>
      <trkpt lat="46.515374751761556" lon="8.926289174705744">
        <ele>1360.4000000000001</ele>
        <time>2016-03-13T09:04:49Z</time>
      </trkpt>
      <trkpt lat="46.515421187505126" lon="8.92618297599256">
        <ele>1359.9200000000001</ele>
        <time>2016-03-13T09:04:38Z</time>
      </trkpt>
      <trkpt lat="46.51547072455287" lon="8.926104856655002">
        <ele>1358.48</ele>
        <time>2016-03-13T09:04:28Z</time>
      </trkpt>
      <trkpt lat="46.515519758686423" lon="8.926012655720115">
        <ele>1358</ele>
        <time>2016-03-13T09:04:19Z</time>
      </trkpt>
      <trkpt lat="46.515571055933833" lon="8.925917856395245">
        <ele>1358</ele>
        <time>2016-03-13T09:04:08Z</time>
      </trkpt>
      <trkpt lat="46.515634590759873" lon="8.925835965201259">
        <ele>1357.04</ele>
        <time>2016-03-13T09:03:58Z</time>
      </trkpt>
      <trkpt lat="46.515726959332824" lon="8.925773939117789">
        <ele>1356.5599999999999</ele>
        <time>2016-03-13T09:03:47Z</time>
      </trkpt>
      <trkpt lat="46.51582938618958" lon="8.925720378756523">
        <ele>1356.0799999999999</ele>
        <time>2016-03-13T09:03:37Z</time>
      </trkpt>
      <trkpt lat="46.515922844409943" lon="8.925673356279731">
        <ele>1356.0799999999999</ele>
        <time>2016-03-13T09:03:26Z</time>
      </trkpt>
      <trkpt lat="46.515990402549505" lon="8.925593560561538">
        <ele>1354.6300000000001</ele>
        <time>2016-03-13T09:03:15Z</time>
      </trkpt>
      <trkpt lat="46.516064833849669" lon="8.925505885854363">
        <ele>1353.6700000000001</ele>
        <time>2016-03-13T09:03:02Z</time>
      </trkpt>
      <trkpt lat="46.516161393374205" lon="8.925440926104784">
        <ele>1351.27</ele>
        <time>2016-03-13T09:02:49Z</time>
      </trkpt>
      <trkpt lat="46.516225850209594" lon="8.925397340208292">
        <ele>1350.3099999999999</ele>
        <time>2016-03-13T09:02:37Z</time>
      </trkpt>
      <trkpt lat="46.516290474683046" lon="8.925329195335507">
        <ele>1348.8699999999999</ele>
        <time>2016-03-13T09:02:26Z</time>
      </trkpt>
      <trkpt lat="46.516313524916768" lon="8.925286112353206">
        <ele>1347.9100000000001</ele>
        <time>2016-03-13T09:02:15Z</time>
      </trkpt>
      <trkpt lat="46.516378652304411" lon="8.925224840641022">
        <ele>1346.46</ele>
        <time>2016-03-13T09:02:04Z</time>
      </trkpt>
      <trkpt lat="46.516419807448983" lon="8.925179829820991">
        <ele>1345.98</ele>
        <time>2016-03-13T09:01:50Z</time>
      </trkpt>
      <trkpt lat="46.516465321183205" lon="8.92517102882266">
        <ele>1344.54</ele>
        <time>2016-03-13T09:01:41Z</time>
      </trkpt>
      <trkpt lat="46.516519635915756" lon="8.92509626224637">
        <ele>1342.6199999999999</ele>
        <time>2016-03-13T09:01:31Z</time>
      </trkpt>
      <trkpt lat="46.51658576913178" lon="8.92504102550447">
        <ele>1341.6600000000001</ele>
        <time>2016-03-13T09:01:20Z</time>
      </trkpt>
      <trkpt lat="46.516652991995215" lon="8.924970449879766">
        <ele>1341.1800000000001</ele>
        <time>2016-03-13T09:01:10Z</time>
      </trkpt>
      <trkpt lat="46.516683753579855" lon="8.924920745193958">
        <ele>1340.22</ele>
        <time>2016-03-13T09:01:04Z</time>
      </trkpt>
      <trkpt lat="46.516745192930102" lon="8.924853103235364">
        <ele>1338.77</ele>
        <time>2016-03-13T09:00:51Z</time>
      </trkpt>
      <trkpt lat="46.516842674463987" lon="8.924843044951558">
        <ele>1337.8099999999999</ele>
        <time>2016-03-13T09:00:39Z</time>
      </trkpt>
      <trkpt lat="46.516891708597541" lon="8.924890654161573">
        <ele>1335.8900000000001</ele>
        <time>2016-03-13T09:00:26Z</time>
      </trkpt>
      <trkpt lat="46.516928421333432" lon="8.924979418516159">
        <ele>1333.97</ele>
        <time>2016-03-13T09:00:13Z</time>
      </trkpt>
      <trkpt lat="46.516979802399874" lon="8.925016215071082">
        <ele>1332.52</ele>
        <time>2016-03-13T09:00:02Z</time>
      </trkpt>
      <trkpt lat="46.517057754099369" lon="8.925022082403302">
        <ele>1331.0799999999999</ele>
        <time>2016-03-13T08:59:51Z</time>
      </trkpt>
      <trkpt lat="46.517141992226243" lon="8.925018813461065">
        <ele>1329.6400000000001</ele>
        <time>2016-03-13T08:59:41Z</time>
      </trkpt>
      <trkpt lat="46.517221201211214" lon="8.925017053261399">
        <ele>1328.6800000000001</ele>
        <time>2016-03-13T08:59:30Z</time>
      </trkpt>
      <trkpt lat="46.517297644168139" lon="8.925024177879095">
        <ele>1327.72</ele>
        <time>2016-03-13T08:59:20Z</time>
      </trkpt>
      <trkpt lat="46.517400993034244" lon="8.925014538690448">
        <ele>1326.28</ele>
        <time>2016-03-13T08:59:09Z</time>
      </trkpt>
      <trkpt lat="46.517507275566459" lon="8.925006911158562">
        <ele>1325.8</ele>
        <time>2016-03-13T08:58:57Z</time>
      </trkpt>
      <trkpt lat="46.5175586566329" lon="8.924990817904472">
        <ele>1325.3099999999999</ele>
        <time>2016-03-13T08:58:46Z</time>
      </trkpt>
      <trkpt lat="46.517648259177804" lon="8.924970533698797">
        <ele>1326.28</ele>
        <time>2016-03-13T08:58:36Z</time>
      </trkpt>
      <trkpt lat="46.517693437635899" lon="8.924986878409982">
        <ele>1325.3099999999999</ele>
        <time>2016-03-13T08:58:31Z</time>
      </trkpt>
      <trkpt lat="46.517750099301338" lon="8.925031805410981">
        <ele>1324.8299999999999</ele>
        <time>2016-03-13T08:58:24Z</time>
      </trkpt>
      <trkpt lat="46.517782201990485" lon="8.92500925809145">
        <ele>1325.3099999999999</ele>
        <time>2016-03-13T08:58:10Z</time>
      </trkpt>
      <trkpt lat="46.517771892249584" lon="8.925000708550215">
        <ele>1324.8299999999999</ele>
        <time>2016-03-13T08:57:55Z</time>
      </trkpt>
      <trkpt lat="46.517770132049918" lon="8.925011437386274">
        <ele>1324.3499999999999</ele>
        <time>2016-03-13T08:57:37Z</time>
      </trkpt>
      <trkpt lat="46.517742890864611" lon="8.925014706328511">
        <ele>1324.8299999999999</ele>
        <time>2016-03-13T08:57:25Z</time>
      </trkpt>
      <trkpt lat="46.517743226140738" lon="8.924997691065073">
        <ele>1325.3099999999999</ele>
        <time>2016-03-13T08:57:13Z</time>
      </trkpt>
      <trkpt lat="46.517806090414524" lon="8.925002552568913">
        <ele>1324.8299999999999</ele>
        <time>2016-03-13T08:57:04Z</time>
      </trkpt>
      <trkpt lat="46.517861327156425" lon="8.924989979714155">
        <ele>1324.3499999999999</ele>
        <time>2016-03-13T08:56:52Z</time>
      </trkpt>
      <trkpt lat="46.517909774556756" lon="8.924989309161902">
        <ele>1321.95</ele>
        <time>2016-03-13T08:56:43Z</time>
      </trkpt>
      <trkpt lat="46.517973896116018" lon="8.924971288070083">
        <ele>1320.51</ele>
        <time>2016-03-13T08:56:31Z</time>
      </trkpt>
      <trkpt lat="46.518039358779788" lon="8.924964750185609">
        <ele>1317.6199999999999</ele>
        <time>2016-03-13T08:56:19Z</time>
      </trkpt>
      <trkpt lat="46.518102223053575" lon="8.924933318048716">
        <ele>1316.1800000000001</ele>
        <time>2016-03-13T08:56:08Z</time>
      </trkpt>
      <trkpt lat="46.518129464238882" lon="8.924911273643374">
        <ele>1315.7</ele>
        <time>2016-03-13T08:55:57Z</time>
      </trkpt>
      <trkpt lat="46.518204649910331" lon="8.924845727160573">
        <ele>1314.26</ele>
        <time>2016-03-13T08:55:46Z</time>
      </trkpt>
      <trkpt lat="46.51825737208128" lon="8.924735588952899">
        <ele>1312.8199999999999</ele>
        <time>2016-03-13T08:55:35Z</time>
      </trkpt>
      <trkpt lat="46.518281763419509" lon="8.924733744934201">
        <ele>1313.3</ele>
        <time>2016-03-13T08:55:18Z</time>
      </trkpt>
      <trkpt lat="46.518281511962414" lon="8.924729973077774">
        <ele>1313.3</ele>
        <time>2016-03-13T08:55:04Z</time>
      </trkpt>
      <trkpt lat="46.518292324617505" lon="8.924728464335203">
        <ele>1312.8199999999999</ele>
        <time>2016-03-13T08:54:51Z</time>
      </trkpt>
      <trkpt lat="46.518291067332029" lon="8.924726452678442">
        <ele>1313.78</ele>
        <time>2016-03-13T08:54:35Z</time>
      </trkpt>
      <trkpt lat="46.518299030140042" lon="8.924736846238375">
        <ele>1313.3</ele>
        <time>2016-03-13T08:54:19Z</time>
      </trkpt>
      <trkpt lat="46.518319565802813" lon="8.924696361646056">
        <ele>1312.3399999999999</ele>
        <time>2016-03-13T08:54:09Z</time>
      </trkpt>
      <trkpt lat="46.518374467268586" lon="8.924634838476777">
        <ele>1311.3800000000001</ele>
        <time>2016-03-13T08:53:55Z</time>
      </trkpt>
      <trkpt lat="46.518419645726681" lon="8.924566777423024">
        <ele>1310.9000000000001</ele>
        <time>2016-03-13T08:53:44Z</time>
      </trkpt>
      <trkpt lat="46.518462812528014" lon="8.924452783539891">
        <ele>1308.97</ele>
        <time>2016-03-13T08:53:34Z</time>
      </trkpt>
      <trkpt lat="46.518501620739698" lon="8.924334179610014">
        <ele>1307.53</ele>
        <time>2016-03-13T08:53:22Z</time>
      </trkpt>
      <trkpt lat="46.518536992371082" lon="8.924335269257426">
        <ele>1307.53</ele>
        <time>2016-03-13T08:53:10Z</time>
      </trkpt>
      <trkpt lat="46.51860186830163" lon="8.924396792426705">
        <ele>1306.0899999999999</ele>
        <time>2016-03-13T08:52:56Z</time>
      </trkpt>
      <trkpt lat="46.518651824444532" lon="8.924448257312179">
        <ele>1304.6500000000001</ele>
        <time>2016-03-13T08:52:46Z</time>
      </trkpt>
      <trkpt lat="46.51871326379478" lon="8.924454459920526">
        <ele>1303.2</ele>
        <time>2016-03-13T08:52:31Z</time>
      </trkpt>
      <trkpt lat="46.518744779750705" lon="8.924425877630711">
        <ele>1302.24</ele>
        <time>2016-03-13T08:52:22Z</time>
      </trkpt>
      <trkpt lat="46.518763471394777" lon="8.924422692507505">
        <ele>1300.8</ele>
        <time>2016-03-13T08:52:11Z</time>
      </trkpt>
      <trkpt lat="46.518842848017812" lon="8.924396876245737">
        <ele>1299.3599999999999</ele>
        <time>2016-03-13T08:51:59Z</time>
      </trkpt>
      <trkpt lat="46.518911747261882" lon="8.924342561513186">
        <ele>1296.96</ele>
        <time>2016-03-13T08:51:47Z</time>
      </trkpt>
      <trkpt lat="46.518926247954369" lon="8.924325713887811">
        <ele>1295.03</ele>
        <time>2016-03-13T08:51:36Z</time>
      </trkpt>
      <trkpt lat="46.519021885469556" lon="8.924258658662438">
        <ele>1293.1099999999999</ele>
        <time>2016-03-13T08:51:23Z</time>
      </trkpt>
      <trkpt lat="46.519083576276898" lon="8.924233932048082">
        <ele>1291.1900000000001</ele>
        <time>2016-03-13T08:51:12Z</time>
      </trkpt>
      <trkpt lat="46.519073601812124" lon="8.924145922064781">
        <ele>1290.71</ele>
        <time>2016-03-13T08:50:54Z</time>
      </trkpt>
      <trkpt lat="46.519114170223475" lon="8.924108538776636">
        <ele>1289.27</ele>
        <time>2016-03-13T08:50:39Z</time>
      </trkpt>
      <trkpt lat="46.519118864089251" lon="8.924046847969294">
        <ele>1287.3399999999999</ele>
        <time>2016-03-13T08:50:27Z</time>
      </trkpt>
      <trkpt lat="46.519167898222804" lon="8.923935117200017">
        <ele>1285.4200000000001</ele>
        <time>2016-03-13T08:50:15Z</time>
      </trkpt>
      <trkpt lat="46.519198659807444" lon="8.923897314816713">
        <ele>1283.02</ele>
        <time>2016-03-13T08:50:00Z</time>
      </trkpt>
      <trkpt lat="46.51920628733933" lon="8.924005525186658">
        <ele>1281.0899999999999</ele>
        <time>2016-03-13T08:49:48Z</time>
      </trkpt>
      <trkpt lat="46.519238976761699" lon="8.924062186852098">
        <ele>1278.6900000000001</ele>
        <time>2016-03-13T08:49:38Z</time>
      </trkpt>
      <trkpt lat="46.519216932356358" lon="8.924075849354267">
        <ele>1278.6900000000001</ele>
        <time>2016-03-13T08:49:18Z</time>
      </trkpt>
      <trkpt lat="46.519233612343669" lon="8.924125051125884">
        <ele>1278.6900000000001</ele>
        <time>2016-03-13T08:48:59Z</time>
      </trkpt>
      <trkpt lat="46.519219866022468" lon="8.924187663942576">
        <ele>1276.77</ele>
        <time>2016-03-13T08:48:46Z</time>
      </trkpt>
      <trkpt lat="46.51922095566988" lon="8.924194034188986">
        <ele>1277.25</ele>
        <time>2016-03-13T08:48:27Z</time>
      </trkpt>
      <trkpt lat="46.519238138571382" lon="8.924184730276465">
        <ele>1277.25</ele>
        <time>2016-03-13T08:48:14Z</time>
      </trkpt>
      <trkpt lat="46.519248699769378" lon="8.924126056954265">
        <ele>1276.77</ele>
        <time>2016-03-13T08:48:02Z</time>
      </trkpt>
      <trkpt lat="46.519325813278556" lon="8.924141814932227">
        <ele>1275.3299999999999</ele>
        <time>2016-03-13T08:47:47Z</time>
      </trkpt>
      <trkpt lat="46.519244341179729" lon="8.924193782731891">
        <ele>1274.3599999999999</ele>
        <time>2016-03-13T08:47:33Z</time>
      </trkpt>
      <trkpt lat="46.519256830215454" lon="8.924324624240398">
        <ele>1272.4400000000001</ele>
        <time>2016-03-13T08:47:19Z</time>
      </trkpt>
      <trkpt lat="46.519244341179729" lon="8.924496956169605">
        <ele>1270.04</ele>
        <time>2016-03-13T08:47:04Z</time>
      </trkpt>
      <trkpt lat="46.519233277067542" lon="8.924673227593303">
        <ele>1268.5999999999999</ele>
        <time>2016-03-13T08:46:52Z</time>
      </trkpt>
      <trkpt lat="46.519297566264868" lon="8.924709018319845">
        <ele>1266.6700000000001</ele>
        <time>2016-03-13T08:46:41Z</time>
      </trkpt>
      <trkpt lat="46.519352216273546" lon="8.924661744385958">
        <ele>1264.75</ele>
        <time>2016-03-13T08:46:30Z</time>
      </trkpt>
      <trkpt lat="46.519372332841158" lon="8.924647746607661">
        <ele>1263.3099999999999</ele>
        <time>2016-03-13T08:46:27Z</time>
      </trkpt>
      <trkpt lat="46.519452044740319" lon="8.92460223287344">
        <ele>1260.4300000000001</ele>
        <time>2016-03-13T08:46:14Z</time>
      </trkpt>
      <trkpt lat="46.519495379179716" lon="8.924508355557919">
        <ele>1258.02</ele>
        <time>2016-03-13T08:46:00Z</time>
      </trkpt>
      <trkpt lat="46.519553968682885" lon="8.924452280625701">
        <ele>1255.6199999999999</ele>
        <time>2016-03-13T08:45:48Z</time>
      </trkpt>
      <trkpt lat="46.519610546529293" lon="8.924519419670105">
        <ele>1254.6600000000001</ele>
        <time>2016-03-13T08:45:37Z</time>
      </trkpt>
      <trkpt lat="46.519692856818438" lon="8.924456723034382">
        <ele>1252.74</ele>
        <time>2016-03-13T08:45:24Z</time>
      </trkpt>
      <trkpt lat="46.519742142409086" lon="8.924504918977618">
        <ele>1252.25</ele>
        <time>2016-03-13T08:45:05Z</time>
      </trkpt>
      <trkpt lat="46.519770808517933" lon="8.924455298110843">
        <ele>1251.77</ele>
        <time>2016-03-13T08:44:57Z</time>
      </trkpt>
      <trkpt lat="46.519698891788721" lon="8.924490166828036">
        <ele>1252.25</ele>
        <time>2016-03-13T08:44:28Z</time>
      </trkpt>
      <trkpt lat="46.519715236499906" lon="8.924549678340554">
        <ele>1250.8099999999999</ele>
        <time>2016-03-13T08:44:00Z</time>
      </trkpt>
      <trkpt lat="46.519718253985047" lon="8.92452210187912">
        <ele>1250.8099999999999</ele>
        <time>2016-03-13T08:43:36Z</time>
      </trkpt>
      <trkpt lat="46.519709536805749" lon="8.924539033323526">
        <ele>1251.29</ele>
        <time>2016-03-13T08:43:27Z</time>
      </trkpt>
      <trkpt lat="46.519736861810088" lon="8.924610447138548">
        <ele>1249.3699999999999</ele>
        <time>2016-03-13T08:43:13Z</time>
      </trkpt>
      <trkpt lat="46.519787488505244" lon="8.924601478502154">
        <ele>1246.97</ele>
        <time>2016-03-13T08:43:02Z</time>
      </trkpt>
      <trkpt lat="46.519848005846143" lon="8.924537943676114">
        <ele>1245.04</ele>
        <time>2016-03-13T08:42:51Z</time>
      </trkpt>
      <trkpt lat="46.519928723573685" lon="8.924516653642058">
        <ele>1242.6400000000001</ele>
        <time>2016-03-13T08:42:35Z</time>
      </trkpt>
      <trkpt lat="46.519990833476186" lon="8.924514474347234">
        <ele>1240.72</ele>
        <time>2016-03-13T08:42:23Z</time>
      </trkpt>
      <trkpt lat="46.520083285868168" lon="8.924520593136549">
        <ele>1237.8299999999999</ele>
        <time>2016-03-13T08:42:09Z</time>
      </trkpt>
      <trkpt lat="46.520121423527598" lon="8.924484550952911">
        <ele>1236.3900000000001</ele>
        <time>2016-03-13T08:41:59Z</time>
      </trkpt>
      <trkpt lat="46.520169451832771" lon="8.924403246492147">
        <ele>1234.47</ele>
        <time>2016-03-13T08:41:47Z</time>
      </trkpt>
      <trkpt lat="46.520280428230762" lon="8.924382207915187">
        <ele>1233.03</ele>
        <time>2016-03-13T08:41:35Z</time>
      </trkpt>
      <trkpt lat="46.520329630002379" lon="8.924375167116523">
        <ele>1232.0699999999999</ele>
        <time>2016-03-13T08:41:27Z</time>
      </trkpt>
      <trkpt lat="46.520383860915899" lon="8.924360331147909">
        <ele>1230.6199999999999</ele>
        <time>2016-03-13T08:41:16Z</time>
      </trkpt>
      <trkpt lat="46.520460555329919" lon="8.924311883747578">
        <ele>1228.22</ele>
        <time>2016-03-13T08:41:06Z</time>
      </trkpt>
      <trkpt lat="46.520544625818729" lon="8.924256730824709">
        <ele>1227.26</ele>
        <time>2016-03-13T08:40:55Z</time>
      </trkpt>
      <trkpt lat="46.520620482042432" lon="8.924255557358265">
        <ele>1225.8199999999999</ele>
        <time>2016-03-13T08:40:44Z</time>
      </trkpt>
      <trkpt lat="46.520699523389339" lon="8.924200991168618">
        <ele>1224.3800000000001</ele>
        <time>2016-03-13T08:40:34Z</time>
      </trkpt>
      <trkpt lat="46.520816450938582" lon="8.924107784405351">
        <ele>1222.9300000000001</ele>
        <time>2016-03-13T08:40:22Z</time>
      </trkpt>
      <trkpt lat="46.520909825339913" lon="8.924059337005019">
        <ele>1221.97</ele>
        <time>2016-03-13T08:40:08Z</time>
      </trkpt>
      <trkpt lat="46.520953997969627" lon="8.923983564600349">
        <ele>1220.53</ele>
        <time>2016-03-13T08:40:00Z</time>
      </trkpt>
      <trkpt lat="46.521051311865449" lon="8.923840653151274">
        <ele>1217.6500000000001</ele>
        <time>2016-03-13T08:39:45Z</time>
      </trkpt>
      <trkpt lat="46.521144267171621" lon="8.923748536035419">
        <ele>1214.28</ele>
        <time>2016-03-13T08:39:33Z</time>
      </trkpt>
      <trkpt lat="46.521170334890485" lon="8.923612413927913">
        <ele>1211.8800000000001</ele>
        <time>2016-03-13T08:39:21Z</time>
      </trkpt>
      <trkpt lat="46.521192714571953" lon="8.923537395894527">
        <ele>1211.4000000000001</ele>
        <time>2016-03-13T08:39:04Z</time>
      </trkpt>
      <trkpt lat="46.521273264661431" lon="8.923504287377">
        <ele>1210.9200000000001</ele>
        <time>2016-03-13T08:38:46Z</time>
      </trkpt>
      <trkpt lat="46.521263960748911" lon="8.923468245193362">
        <ele>1210.4400000000001</ele>
        <time>2016-03-13T08:38:27Z</time>
      </trkpt>
      <trkpt lat="46.521216267719865" lon="8.923523062840104">
        <ele>1209.96</ele>
        <time>2016-03-13T08:37:56Z</time>
      </trkpt>
      <trkpt lat="46.52120528742671" lon="8.92351652495563">
        <ele>1209.96</ele>
        <time>2016-03-13T08:37:33Z</time>
      </trkpt>
      <trkpt lat="46.52121995575726" lon="8.923530438914895">
        <ele>1210.4400000000001</ele>
        <time>2016-03-13T08:37:09Z</time>
      </trkpt>
      <trkpt lat="46.521213836967945" lon="8.923524487763643">
        <ele>1210.9200000000001</ele>
        <time>2016-03-13T08:36:56Z</time>
      </trkpt>
      <trkpt lat="46.521221715956926" lon="8.923495737835765">
        <ele>1210.9200000000001</ele>
        <time>2016-03-13T08:36:46Z</time>
      </trkpt>
      <trkpt lat="46.521278712898493" lon="8.923378391191363">
        <ele>1209.96</ele>
        <time>2016-03-13T08:36:35Z</time>
      </trkpt>
      <trkpt lat="46.521263876929879" lon="8.923304630443454">
        <ele>1209.48</ele>
        <time>2016-03-13T08:36:24Z</time>
      </trkpt>
      <trkpt lat="46.52124778367579" lon="8.92324143089354">
        <ele>1207.0699999999999</ele>
        <time>2016-03-13T08:36:13Z</time>
      </trkpt>
      <trkpt lat="46.521232947707176" lon="8.923164149746299">
        <ele>1206.1099999999999</ele>
        <time>2016-03-13T08:36:02Z</time>
      </trkpt>
      <trkpt lat="46.521230852231383" lon="8.92308309674263">
        <ele>1205.6300000000001</ele>
        <time>2016-03-13T08:35:52Z</time>
      </trkpt>
      <trkpt lat="46.521250968798995" lon="8.9230034686625">
        <ele>1205.6300000000001</ele>
        <time>2016-03-13T08:35:41Z</time>
      </trkpt>
      <trkpt lat="46.521306456997991" lon="8.922935239970684">
        <ele>1205.6300000000001</ele>
        <time>2016-03-13T08:35:31Z</time>
      </trkpt>
      <trkpt lat="46.521348282694817" lon="8.922817474231124">
        <ele>1208.03</ele>
        <time>2016-03-13T08:35:21Z</time>
      </trkpt>
      <trkpt lat="46.521354066208005" lon="8.922737259417772">
        <ele>1208.51</ele>
        <time>2016-03-13T08:35:13Z</time>
      </trkpt>
      <trkpt lat="46.521345181390643" lon="8.922613793984056">
        <ele>1209</ele>
        <time>2016-03-13T08:35:03Z</time>
      </trkpt>
      <trkpt lat="46.521331099793315" lon="8.922474822029471">
        <ele>1210.4400000000001</ele>
        <time>2016-03-13T08:34:52Z</time>
      </trkpt>
      <trkpt lat="46.521324729546905" lon="8.922350099310279">
        <ele>1211.4000000000001</ele>
        <time>2016-03-13T08:34:41Z</time>
      </trkpt>
      <trkpt lat="46.521352641284466" lon="8.92223484814167">
        <ele>1213.3199999999999</ele>
        <time>2016-03-13T08:34:29Z</time>
      </trkpt>
      <trkpt lat="46.521383905783296" lon="8.922175671905279">
        <ele>1213.8</ele>
        <time>2016-03-13T08:34:21Z</time>
      </trkpt>
      <trkpt lat="46.52140075340867" lon="8.922059247270227">
        <ele>1215.72</ele>
        <time>2016-03-13T08:34:11Z</time>
      </trkpt>
      <trkpt lat="46.521416008472443" lon="8.921961011365056">
        <ele>1215.72</ele>
        <time>2016-03-13T08:34:01Z</time>
      </trkpt>
      <trkpt lat="46.521429251879454" lon="8.921919353306294">
        <ele>1215.72</ele>
        <time>2016-03-13T08:33:56Z</time>
      </trkpt>
      <trkpt lat="46.521466802805662" lon="8.921799995005131">
        <ele>1215.72</ele>
        <time>2016-03-13T08:33:45Z</time>
      </trkpt>
      <trkpt lat="46.521481890231371" lon="8.921671248972416">
        <ele>1215.24</ele>
        <time>2016-03-13T08:33:33Z</time>
      </trkpt>
      <trkpt lat="46.521491780877113" lon="8.921542167663574">
        <ele>1215.24</ele>
        <time>2016-03-13T08:33:22Z</time>
      </trkpt>
      <trkpt lat="46.521493038162589" lon="8.921435717493296">
        <ele>1214.76</ele>
        <time>2016-03-13T08:33:12Z</time>
      </trkpt>
      <trkpt lat="46.521447021514177" lon="8.921301104128361">
        <ele>1214.76</ele>
        <time>2016-03-13T08:33:00Z</time>
      </trkpt>
      <trkpt lat="46.5214769449085" lon="8.921191301196814">
        <ele>1215.24</ele>
        <time>2016-03-13T08:32:50Z</time>
      </trkpt>
      <trkpt lat="46.521477615460753" lon="8.921028776094317">
        <ele>1215.24</ele>
        <time>2016-03-13T08:32:40Z</time>
      </trkpt>
      <trkpt lat="46.521480968222022" lon="8.920914111658931">
        <ele>1216.21</ele>
        <time>2016-03-13T08:32:29Z</time>
      </trkpt>
      <trkpt lat="46.521476022899151" lon="8.920803973451257">
        <ele>1217.1700000000001</ele>
        <time>2016-03-13T08:32:19Z</time>
      </trkpt>
      <trkpt lat="46.521474597975612" lon="8.920670785009861">
        <ele>1217.6500000000001</ele>
        <time>2016-03-13T08:32:07Z</time>
      </trkpt>
      <trkpt lat="46.521562607958913" lon="8.92056274227798">
        <ele>1218.1300000000001</ele>
        <time>2016-03-13T08:31:58Z</time>
      </trkpt>
      <trkpt lat="46.521613234654069" lon="8.92047381028533">
        <ele>1218.1300000000001</ele>
        <time>2016-03-13T08:31:47Z</time>
      </trkpt>
      <trkpt lat="46.521634189411998" lon="8.920332910493016">
        <ele>1219.0899999999999</ele>
        <time>2016-03-13T08:31:37Z</time>
      </trkpt>
      <trkpt lat="46.521641900762916" lon="8.920299047604203">
        <ele>1219.0899999999999</ele>
        <time>2016-03-13T08:31:34Z</time>
      </trkpt>
      <trkpt lat="46.521620526909828" lon="8.920155968517065">
        <ele>1219.5699999999999</ele>
        <time>2016-03-13T08:31:23Z</time>
      </trkpt>
      <trkpt lat="46.521598063409328" lon="8.920032167807221">
        <ele>1219.5699999999999</ele>
        <time>2016-03-13T08:31:12Z</time>
      </trkpt>
      <trkpt lat="46.521622538566589" lon="8.919983049854636">
        <ele>1219.0899999999999</ele>
        <time>2016-03-13T08:31:00Z</time>
      </trkpt>
      <trkpt lat="46.52164014056325" lon="8.91984642483294">
        <ele>1218.6099999999999</ele>
        <time>2016-03-13T08:30:47Z</time>
      </trkpt>
      <trkpt lat="46.521700993180275" lon="8.919749278575182">
        <ele>1217.1700000000001</ele>
        <time>2016-03-13T08:30:34Z</time>
      </trkpt>
      <trkpt lat="46.521746004000306" lon="8.919670153409243">
        <ele>1217.1700000000001</ele>
        <time>2016-03-13T08:30:24Z</time>
      </trkpt>
      <trkpt lat="46.521784225478768" lon="8.919549286365509">
        <ele>1216.21</ele>
        <time>2016-03-13T08:30:13Z</time>
      </trkpt>
      <trkpt lat="46.521792942658067" lon="8.919427581131458">
        <ele>1215.72</ele>
        <time>2016-03-13T08:30:02Z</time>
      </trkpt>
      <trkpt lat="46.521774837747216" lon="8.919277964159846">
        <ele>1215.24</ele>
        <time>2016-03-13T08:29:49Z</time>
      </trkpt>
      <trkpt lat="46.521732928231359" lon="8.919181739911437">
        <ele>1215.24</ele>
        <time>2016-03-13T08:29:39Z</time>
      </trkpt>
      <trkpt lat="46.521711889654398" lon="8.919088449329138">
        <ele>1214.76</ele>
        <time>2016-03-13T08:29:28Z</time>
      </trkpt>
      <trkpt lat="46.521690851077437" lon="8.918986693024635">
        <ele>1214.28</ele>
        <time>2016-03-13T08:29:17Z</time>
      </trkpt>
      <trkpt lat="46.521678697317839" lon="8.91884227283299">
        <ele>1216.21</ele>
        <time>2016-03-13T08:29:08Z</time>
      </trkpt>
      <trkpt lat="46.521672829985619" lon="8.918817210942507">
        <ele>1216.6900000000001</ele>
        <time>2016-03-13T08:29:06Z</time>
      </trkpt>
      <trkpt lat="46.521688587963581" lon="8.918776391074061">
        <ele>1216.21</ele>
        <time>2016-03-13T08:29:00Z</time>
      </trkpt>
      <trkpt lat="46.521722953766584" lon="8.918703552335501">
        <ele>1215.72</ele>
        <time>2016-03-13T08:28:50Z</time>
      </trkpt>
      <trkpt lat="46.521770479157567" lon="8.918619062751532">
        <ele>1214.76</ele>
        <time>2016-03-13T08:28:40Z</time>
      </trkpt>
      <trkpt lat="46.521829320117831" lon="8.918572207912803">
        <ele>1213.8</ele>
        <time>2016-03-13T08:28:29Z</time>
      </trkpt>
      <trkpt lat="46.521889586001635" lon="8.918510600924492">
        <ele>1213.8</ele>
        <time>2016-03-13T08:28:19Z</time>
      </trkpt>
      <trkpt lat="46.521944990381598" lon="8.918468775227666">
        <ele>1213.8</ele>
        <time>2016-03-13T08:28:10Z</time>
      </trkpt>
      <trkpt lat="46.521946750581264" lon="8.918441450223327">
        <ele>1213.8</ele>
        <time>2016-03-13T08:27:59Z</time>
      </trkpt>
      <trkpt lat="46.52199100703001" lon="8.918355200439692">
        <ele>1213.8</ele>
        <time>2016-03-13T08:27:49Z</time>
      </trkpt>
      <trkpt lat="46.522031994536519" lon="8.91829501837492">
        <ele>1213.3199999999999</ele>
        <time>2016-03-13T08:27:39Z</time>
      </trkpt>
      <trkpt lat="46.52207599952817" lon="8.918238859623671">
        <ele>1213.3199999999999</ele>
        <time>2016-03-13T08:27:29Z</time>
      </trkpt>
      <trkpt lat="46.52214246802032" lon="8.918165098875761">
        <ele>1213.3199999999999</ele>
        <time>2016-03-13T08:27:19Z</time>
      </trkpt>
      <trkpt lat="46.522187143564224" lon="8.918082788586617">
        <ele>1213.3199999999999</ele>
        <time>2016-03-13T08:27:10Z</time>
      </trkpt>
      <trkpt lat="46.52224657125771" lon="8.918020008131862">
        <ele>1212.8399999999999</ele>
        <time>2016-03-13T08:26:59Z</time>
      </trkpt>
      <trkpt lat="46.522270459681749" lon="8.918005172163248">
        <ele>1212.8399999999999</ele>
        <time>2016-03-13T08:26:56Z</time>
      </trkpt>
      <trkpt lat="46.522323517128825" lon="8.917924873530865">
        <ele>1214.28</ele>
        <time>2016-03-13T08:26:48Z</time>
      </trkpt>
      <trkpt lat="46.522375904023647" lon="8.917851615697146">
        <ele>1216.6900000000001</ele>
        <time>2016-03-13T08:26:38Z</time>
      </trkpt>
      <trkpt lat="46.522427201271057" lon="8.917767377570272">
        <ele>1216.6900000000001</ele>
        <time>2016-03-13T08:26:27Z</time>
      </trkpt>
      <trkpt lat="46.522462824359536" lon="8.917703088372946">
        <ele>1216.6900000000001</ele>
        <time>2016-03-13T08:26:18Z</time>
      </trkpt>
      <trkpt lat="46.522509260103106" lon="8.917635949328542">
        <ele>1217.1700000000001</ele>
        <time>2016-03-13T08:26:08Z</time>
      </trkpt>
      <trkpt lat="46.522541027516127" lon="8.917556740343571">
        <ele>1217.6500000000001</ele>
        <time>2016-03-13T08:25:57Z</time>
      </trkpt>
      <trkpt lat="46.522555612027645" lon="8.917416762560606">
        <ele>1219.0899999999999</ele>
        <time>2016-03-13T08:25:47Z</time>
      </trkpt>
      <trkpt lat="46.522590313106775" lon="8.917267229408026">
        <ele>1219.5699999999999</ele>
        <time>2016-03-13T08:25:36Z</time>
      </trkpt>
      <trkpt lat="46.522605316713452" lon="8.917101686820388">
        <ele>1218.6099999999999</ele>
        <time>2016-03-13T08:25:25Z</time>
      </trkpt>
      <trkpt lat="46.522595006972551" lon="8.917005797848105">
        <ele>1218.6099999999999</ele>
        <time>2016-03-13T08:25:18Z</time>
      </trkpt>
      <trkpt lat="46.522613866254687" lon="8.916920637711883">
        <ele>1218.1300000000001</ele>
        <time>2016-03-13T08:25:08Z</time>
      </trkpt>
      <trkpt lat="46.522587379440665" lon="8.916837153956294">
        <ele>1216.6900000000001</ele>
        <time>2016-03-13T08:25:00Z</time>
      </trkpt>
      <trkpt lat="46.522555528208613" lon="8.916755514219403">
        <ele>1214.76</ele>
        <time>2016-03-13T08:24:49Z</time>
      </trkpt>
      <trkpt lat="46.522518396377563" lon="8.916690051555634">
        <ele>1213.8</ele>
        <time>2016-03-13T08:24:38Z</time>
      </trkpt>
      <trkpt lat="46.522491239011288" lon="8.916591145098209">
        <ele>1211.8800000000001</ele>
        <time>2016-03-13T08:24:29Z</time>
      </trkpt>
      <trkpt lat="46.522475481033325" lon="8.91651495359838">
        <ele>1211.4000000000001</ele>
        <time>2016-03-13T08:24:23Z</time>
      </trkpt>
      <trkpt lat="46.522462321445346" lon="8.916482431814075">
        <ele>1210.9200000000001</ele>
        <time>2016-03-13T08:24:20Z</time>
      </trkpt>
      <trkpt lat="46.522454107180238" lon="8.916449155658484">
        <ele>1211.4000000000001</ele>
        <time>2016-03-13T08:24:17Z</time>
      </trkpt>
      <trkpt lat="46.522452849894762" lon="8.916360391303897">
        <ele>1211.8800000000001</ele>
        <time>2016-03-13T08:24:12Z</time>
      </trkpt>
      <trkpt lat="46.522475983947515" lon="8.916165512055159">
        <ele>1213.3199999999999</ele>
        <time>2016-03-13T08:24:01Z</time>
      </trkpt>
      <trkpt lat="46.522479085251689" lon="8.916053529828787">
        <ele>1213.3199999999999</ele>
        <time>2016-03-13T08:23:54Z</time>
      </trkpt>
      <trkpt lat="46.522499788552523" lon="8.915893100202084">
        <ele>1212.3599999999999</ele>
        <time>2016-03-13T08:23:42Z</time>
      </trkpt>
      <trkpt lat="46.522556114941835" lon="8.915760833770037">
        <ele>1211.4000000000001</ele>
        <time>2016-03-13T08:23:31Z</time>
      </trkpt>
      <trkpt lat="46.522590145468712" lon="8.915696544572711">
        <ele>1210.4400000000001</ele>
        <time>2016-03-13T08:23:23Z</time>
      </trkpt>
      <trkpt lat="46.52261302806437" lon="8.915565619245172">
        <ele>1210.4400000000001</ele>
        <time>2016-03-13T08:23:13Z</time>
      </trkpt>
      <trkpt lat="46.522612106055021" lon="8.915471155196428">
        <ele>1210.9200000000001</ele>
        <time>2016-03-13T08:23:07Z</time>
      </trkpt>
      <trkpt lat="46.522599114105105" lon="8.915434442460537">
        <ele>1210.9200000000001</ele>
        <time>2016-03-13T08:23:04Z</time>
      </trkpt>
      <trkpt lat="46.522584864869714" lon="8.915394293144345">
        <ele>1210.9200000000001</ele>
        <time>2016-03-13T08:23:01Z</time>
      </trkpt>
      <trkpt lat="46.522573968395591" lon="8.915352802723646">
        <ele>1209.96</ele>
        <time>2016-03-13T08:22:58Z</time>
      </trkpt>
      <trkpt lat="46.522507248446345" lon="8.915251046419144">
        <ele>1208.51</ele>
        <time>2016-03-13T08:22:50Z</time>
      </trkpt>
      <trkpt lat="46.522500542923808" lon="8.915236964821816">
        <ele>1208.51</ele>
        <time>2016-03-13T08:22:49Z</time>
      </trkpt>
      <trkpt lat="46.522490400820971" lon="8.915203604847193">
        <ele>1208.03</ele>
        <time>2016-03-13T08:22:47Z</time>
      </trkpt>
      <trkpt lat="46.522471876814961" lon="8.915160270407796">
        <ele>1208.03</ele>
        <time>2016-03-13T08:22:44Z</time>
      </trkpt>
      <trkpt lat="46.522471876814961" lon="8.915144763886929">
        <ele>1208.03</ele>
        <time>2016-03-13T08:22:43Z</time>
      </trkpt>
      <trkpt lat="46.522473972290754" lon="8.915128167718649">
        <ele>1208.03</ele>
        <time>2016-03-13T08:22:42Z</time>
      </trkpt>
      <trkpt lat="46.522474307566881" lon="8.915113750845194">
        <ele>1208.03</ele>
        <time>2016-03-13T08:22:41Z</time>
      </trkpt>
      <trkpt lat="46.522476486861706" lon="8.915062872692943">
        <ele>1208.51</ele>
        <time>2016-03-13T08:22:38Z</time>
      </trkpt>
      <trkpt lat="46.522473385557532" lon="8.915045773610473">
        <ele>1209</ele>
        <time>2016-03-13T08:22:37Z</time>
      </trkpt>
      <trkpt lat="46.5224439650774" lon="8.914911998435855">
        <ele>1209</ele>
        <time>2016-03-13T08:22:28Z</time>
      </trkpt>
      <trkpt lat="46.522438684478402" lon="8.914876962080598">
        <ele>1208.51</ele>
        <time>2016-03-13T08:22:26Z</time>
      </trkpt>
      <trkpt lat="46.522440109401941" lon="8.914860198274255">
        <ele>1208.51</ele>
        <time>2016-03-13T08:22:25Z</time>
      </trkpt>
      <trkpt lat="46.522428458556533" lon="8.914753329008818">
        <ele>1209</ele>
        <time>2016-03-13T08:22:18Z</time>
      </trkpt>
      <trkpt lat="46.522415466606617" lon="8.914688620716333">
        <ele>1208.51</ele>
        <time>2016-03-13T08:22:12Z</time>
      </trkpt>
      <trkpt lat="46.522424099966884" lon="8.914683004841209">
        <ele>1208.51</ele>
        <time>2016-03-13T08:22:03Z</time>
      </trkpt>
      <trkpt lat="46.52242636308074" lon="8.914670767262578">
        <ele>1208.51</ele>
        <time>2016-03-13T08:22:02Z</time>
      </trkpt>
      <trkpt lat="46.522436505183578" lon="8.914567166939378">
        <ele>1207.0699999999999</ele>
        <time>2016-03-13T08:21:54Z</time>
      </trkpt>
      <trkpt lat="46.522431811317801" lon="8.914525508880615">
        <ele>1206.5899999999999</ele>
        <time>2016-03-13T08:21:51Z</time>
      </trkpt>
      <trkpt lat="46.522426614537835" lon="8.914505979046226">
        <ele>1206.5899999999999</ele>
        <time>2016-03-13T08:21:50Z</time>
      </trkpt>
      <trkpt lat="46.522421669214964" lon="8.914489131420851">
        <ele>1206.5899999999999</ele>
        <time>2016-03-13T08:21:49Z</time>
      </trkpt>
      <trkpt lat="46.522417645901442" lon="8.914471529424191">
        <ele>1207.0699999999999</ele>
        <time>2016-03-13T08:21:48Z</time>
      </trkpt>
      <trkpt lat="46.52241856791079" lon="8.914452502503991">
        <ele>1207.0699999999999</ele>
        <time>2016-03-13T08:21:47Z</time>
      </trkpt>
      <trkpt lat="46.522411946207285" lon="8.914434732869268">
        <ele>1207.0699999999999</ele>
        <time>2016-03-13T08:21:46Z</time>
      </trkpt>
      <trkpt lat="46.522398367524147" lon="8.914418136700988">
        <ele>1207.55</ele>
        <time>2016-03-13T08:21:45Z</time>
      </trkpt>
      <trkpt lat="46.522361990064383" lon="8.914334317669272">
        <ele>1208.51</ele>
        <time>2016-03-13T08:21:40Z</time>
      </trkpt>
      <trkpt lat="46.522357212379575" lon="8.914240188896656">
        <ele>1209</ele>
        <time>2016-03-13T08:21:35Z</time>
      </trkpt>
      <trkpt lat="46.522356290370226" lon="8.914174307137728">
        <ele>1209</ele>
        <time>2016-03-13T08:21:31Z</time>
      </trkpt>
      <trkpt lat="46.522355619817972" lon="8.914164751768112">
        <ele>1209</ele>
        <time>2016-03-13T08:21:30Z</time>
      </trkpt>
      <trkpt lat="46.522397445514798" lon="8.914053859189153">
        <ele>1208.03</ele>
        <time>2016-03-13T08:21:21Z</time>
      </trkpt>
      <trkpt lat="46.522449161857367" lon="8.913880437612534">
        <ele>1206.1099999999999</ele>
        <time>2016-03-13T08:21:10Z</time>
      </trkpt>
      <trkpt lat="46.522443378344178" lon="8.913884796202183">
        <ele>1206.5899999999999</ele>
        <time>2016-03-13T08:20:59Z</time>
      </trkpt>
      <trkpt lat="46.52239166200161" lon="8.913875240832567">
        <ele>1206.1099999999999</ele>
        <time>2016-03-13T08:20:49Z</time>
      </trkpt>
      <trkpt lat="46.522362912073731" lon="8.91382897272706">
        <ele>1205.1500000000001</ele>
        <time>2016-03-13T08:20:36Z</time>
      </trkpt>
      <trkpt lat="46.522367941215634" lon="8.913825284689665">
        <ele>1205.1500000000001</ele>
        <time>2016-03-13T08:20:21Z</time>
      </trkpt>
      <trkpt lat="46.52236383408308" lon="8.913825955241919">
        <ele>1205.6300000000001</ele>
        <time>2016-03-13T08:20:08Z</time>
      </trkpt>
      <trkpt lat="46.52235503308475" lon="8.913936512544751">
        <ele>1206.5899999999999</ele>
        <time>2016-03-13T08:19:57Z</time>
      </trkpt>
      <trkpt lat="46.522334665060043" lon="8.914033574983478">
        <ele>1208.03</ele>
        <time>2016-03-13T08:19:50Z</time>
      </trkpt>
      <trkpt lat="46.522324355319142" lon="8.914054445922375">
        <ele>1208.51</ele>
        <time>2016-03-13T08:19:49Z</time>
      </trkpt>
      <trkpt lat="46.522316141054034" lon="8.914085710421205">
        <ele>1209</ele>
        <time>2016-03-13T08:19:47Z</time>
      </trkpt>
      <trkpt lat="46.52232033200562" lon="8.914179001003504">
        <ele>1209.96</ele>
        <time>2016-03-13T08:19:41Z</time>
      </trkpt>
      <trkpt lat="46.522331312298775" lon="8.914217725396156">
        <ele>1209.96</ele>
        <time>2016-03-13T08:19:38Z</time>
      </trkpt>
      <trkpt lat="46.522348495200276" lon="8.914258209988475">
        <ele>1209</ele>
        <time>2016-03-13T08:19:35Z</time>
      </trkpt>
      <trkpt lat="46.522400211542845" lon="8.914377735927701">
        <ele>1207.55</ele>
        <time>2016-03-13T08:19:25Z</time>
      </trkpt>
      <trkpt lat="46.522455280646682" lon="8.914546296000481">
        <ele>1207.55</ele>
        <time>2016-03-13T08:19:14Z</time>
      </trkpt>
      <trkpt lat="46.522506326436996" lon="8.914622571319342">
        <ele>1208.51</ele>
        <time>2016-03-13T08:19:10Z</time>
      </trkpt>
      <trkpt lat="46.522526945918798" lon="8.914640424773097">
        <ele>1208.51</ele>
        <time>2016-03-13T08:18:58Z</time>
      </trkpt>
      <trkpt lat="46.522548738867044" lon="8.914644783362746">
        <ele>1208.51</ele>
        <time>2016-03-13T08:18:42Z</time>
      </trkpt>
      <trkpt lat="46.522533399984241" lon="8.914666576310992">
        <ele>1208.51</ele>
        <time>2016-03-13T08:18:23Z</time>
      </trkpt>
      <trkpt lat="46.522516133263707" lon="8.914661798626185">
        <ele>1208.51</ele>
        <time>2016-03-13T08:18:10Z</time>
      </trkpt>
      <trkpt lat="46.52249182574451" lon="8.914672862738371">
        <ele>1208.03</ele>
        <time>2016-03-13T08:17:56Z</time>
      </trkpt>
      <trkpt lat="46.522443545982242" lon="8.914655596017838">
        <ele>1208.03</ele>
        <time>2016-03-13T08:17:41Z</time>
      </trkpt>
      <trkpt lat="46.522428290918469" lon="8.914665570482612">
        <ele>1208.03</ele>
        <time>2016-03-13T08:17:29Z</time>
      </trkpt>
      <trkpt lat="46.52241999283433" lon="8.914611507207155">
        <ele>1207.55</ele>
        <time>2016-03-13T08:17:20Z</time>
      </trkpt>
      <trkpt lat="46.522428374737501" lon="8.91453992575407">
        <ele>1206.5899999999999</ele>
        <time>2016-03-13T08:17:11Z</time>
      </trkpt>
      <trkpt lat="46.522415885701776" lon="8.914430709555745">
        <ele>1207.55</ele>
        <time>2016-03-13T08:17:01Z</time>
      </trkpt>
      <trkpt lat="46.522411946207285" lon="8.914390476420522">
        <ele>1208.03</ele>
        <time>2016-03-13T08:16:58Z</time>
      </trkpt>
      <trkpt lat="46.522406665608287" lon="8.914350578561425">
        <ele>1208.51</ele>
        <time>2016-03-13T08:16:55Z</time>
      </trkpt>
      <trkpt lat="46.522391913458705" lon="8.914232309907675">
        <ele>1209</ele>
        <time>2016-03-13T08:16:44Z</time>
      </trkpt>
      <trkpt lat="46.522385207936168" lon="8.914189478382468">
        <ele>1209</ele>
        <time>2016-03-13T08:16:40Z</time>
      </trkpt>
      <trkpt lat="46.522390991449356" lon="8.914158549159765">
        <ele>1208.51</ele>
        <time>2016-03-13T08:16:36Z</time>
      </trkpt>
      <trkpt lat="46.522392081096768" lon="8.914063582196832">
        <ele>1207.55</ele>
        <time>2016-03-13T08:16:26Z</time>
      </trkpt>
      <trkpt lat="46.522414879873395" lon="8.913972722366452">
        <ele>1206.5899999999999</ele>
        <time>2016-03-13T08:16:17Z</time>
      </trkpt>
      <trkpt lat="46.522391829639673" lon="8.913867697119713">
        <ele>1205.6300000000001</ele>
        <time>2016-03-13T08:16:06Z</time>
      </trkpt>
      <trkpt lat="46.52239996008575" lon="8.913772897794843">
        <ele>1205.1500000000001</ele>
        <time>2016-03-13T08:15:55Z</time>
      </trkpt>
      <trkpt lat="46.522416556254029" lon="8.913690419867635">
        <ele>1205.1500000000001</ele>
        <time>2016-03-13T08:15:44Z</time>
      </trkpt>
      <trkpt lat="46.522431056946516" lon="8.913622945547104">
        <ele>1203.71</ele>
        <time>2016-03-13T08:15:33Z</time>
      </trkpt>
      <trkpt lat="46.522438013926148" lon="8.913594614714384">
        <ele>1204.1900000000001</ele>
        <time>2016-03-13T08:15:19Z</time>
      </trkpt>
      <trkpt lat="46.522461399435997" lon="8.913562009111047">
        <ele>1204.1900000000001</ele>
        <time>2016-03-13T08:15:07Z</time>
      </trkpt>
      <trkpt lat="46.522469026967883" lon="8.913551531732082">
        <ele>1204.1900000000001</ele>
        <time>2016-03-13T08:14:44Z</time>
      </trkpt>
      <trkpt lat="46.522462740540504" lon="8.913561590015888">
        <ele>1204.1900000000001</ele>
        <time>2016-03-13T08:14:32Z</time>
      </trkpt>
      <trkpt lat="46.522441115230322" lon="8.913551364094019">
        <ele>1204.1900000000001</ele>
        <time>2016-03-13T08:14:17Z</time>
      </trkpt>
      <trkpt lat="46.522427620366216" lon="8.913557985797525">
        <ele>1204.1900000000001</ele>
        <time>2016-03-13T08:14:05Z</time>
      </trkpt>
      <trkpt lat="46.522437511011958" lon="8.91355337575078">
        <ele>1203.71</ele>
        <time>2016-03-13T08:13:50Z</time>
      </trkpt>
      <trkpt lat="46.522435834631324" lon="8.913534851744771">
        <ele>1204.1900000000001</ele>
        <time>2016-03-13T08:13:37Z</time>
      </trkpt>
      <trkpt lat="46.522442121058702" lon="8.913478944450617">
        <ele>1204.1900000000001</ele>
        <time>2016-03-13T08:13:24Z</time>
      </trkpt>
      <trkpt lat="46.522479169070721" lon="8.913442231714726">
        <ele>1203.71</ele>
        <time>2016-03-13T08:13:10Z</time>
      </trkpt>
      <trkpt lat="46.522503728047013" lon="8.913434017449617">
        <ele>1204.1900000000001</ele>
        <time>2016-03-13T08:12:48Z</time>
      </trkpt>
      <trkpt lat="46.522457962855697" lon="8.913417672738433">
        <ele>1203.71</ele>
        <time>2016-03-13T08:12:28Z</time>
      </trkpt>
      <trkpt lat="46.52246056124568" lon="8.913407446816564">
        <ele>1203.71</ele>
        <time>2016-03-13T08:12:09Z</time>
      </trkpt>
      <trkpt lat="46.522472463548183" lon="8.913453547284007">
        <ele>1203.23</ele>
        <time>2016-03-13T08:11:46Z</time>
      </trkpt>
      <trkpt lat="46.522468104958534" lon="8.913458241149783">
        <ele>1203.23</ele>
        <time>2016-03-13T08:11:33Z</time>
      </trkpt>
      <trkpt lat="46.522454526275396" lon="8.913457905873656">
        <ele>1203.71</ele>
        <time>2016-03-13T08:11:18Z</time>
      </trkpt>
      <trkpt lat="46.522422758862376" lon="8.913542311638594">
        <ele>1203.71</ele>
        <time>2016-03-13T08:11:07Z</time>
      </trkpt>
      <trkpt lat="46.522404402494431" lon="8.913620682433248">
        <ele>1203.71</ele>
        <time>2016-03-13T08:10:57Z</time>
      </trkpt>
      <trkpt lat="46.522486796602607" lon="8.913618503138423">
        <ele>1203.23</ele>
        <time>2016-03-13T08:10:49Z</time>
      </trkpt>
      <trkpt lat="46.522451844066381" lon="8.913568882271648">
        <ele>1202.27</ele>
        <time>2016-03-13T08:10:31Z</time>
      </trkpt>
      <trkpt lat="46.52241412550211" lon="8.913576761260629">
        <ele>1202.27</ele>
        <time>2016-03-13T08:10:08Z</time>
      </trkpt>
      <trkpt lat="46.522370623424649" lon="8.91361984424293">
        <ele>1202.27</ele>
        <time>2016-03-13T08:09:47Z</time>
      </trkpt>
      <trkpt lat="46.522413957864046" lon="8.913585813716054">
        <ele>1201.79</ele>
        <time>2016-03-13T08:09:24Z</time>
      </trkpt>
      <trkpt lat="46.522410437464714" lon="8.913599895313382">
        <ele>1201.79</ele>
        <time>2016-03-13T08:09:04Z</time>
      </trkpt>
      <trkpt lat="46.52243415825069" lon="8.913623197004199">
        <ele>1201.79</ele>
        <time>2016-03-13T08:08:48Z</time>
      </trkpt>
      <trkpt lat="46.522438349202275" lon="8.913628980517387">
        <ele>1202.75</ele>
        <time>2016-03-13T08:08:40Z</time>
      </trkpt>
      <trkpt lat="46.522466512396932" lon="8.913609618321061">
        <ele>1202.75</ele>
        <time>2016-03-13T08:08:25Z</time>
      </trkpt>
      <trkpt lat="46.522444970905781" lon="8.913609869778156">
        <ele>1202.75</ele>
        <time>2016-03-13T08:08:11Z</time>
      </trkpt>
      <trkpt lat="46.522448239848018" lon="8.91361397691071">
        <ele>1202.27</ele>
        <time>2016-03-13T08:08:01Z</time>
      </trkpt>
      <trkpt lat="46.522448994219303" lon="8.913557482883334">
        <ele>1202.27</ele>
        <time>2016-03-13T08:07:51Z</time>
      </trkpt>
      <trkpt lat="46.522442121058702" lon="8.913558572530747">
        <ele>1201.79</ele>
        <time>2016-03-13T08:07:40Z</time>
      </trkpt>
      <trkpt lat="46.522450838238001" lon="8.913507862016559">
        <ele>1202.75</ele>
        <time>2016-03-13T08:07:27Z</time>
      </trkpt>
      <trkpt lat="46.522480342537165" lon="8.913511047139764">
        <ele>1201.79</ele>
        <time>2016-03-13T08:07:14Z</time>
      </trkpt>
      <trkpt lat="46.522512445226312" lon="8.913464192301035">
        <ele>1201.79</ele>
        <time>2016-03-13T08:07:04Z</time>
      </trkpt>
      <trkpt lat="46.522558210417628" lon="8.913246933370829">
        <ele>1201.3</ele>
        <time>2016-03-13T08:06:52Z</time>
      </trkpt>
      <trkpt lat="46.522615710273385" lon="8.913147607818246">
        <ele>1203.23</ele>
        <time>2016-03-13T08:06:45Z</time>
      </trkpt>
      <trkpt lat="46.522622164338827" lon="8.913137884810567">
        <ele>1202.75</ele>
        <time>2016-03-13T08:06:44Z</time>
      </trkpt>
      <trkpt lat="46.52265066280961" lon="8.913004947826266">
        <ele>1203.71</ele>
        <time>2016-03-13T08:06:32Z</time>
      </trkpt>
      <trkpt lat="46.522695170715451" lon="8.912836471572518">
        <ele>1204.1900000000001</ele>
        <time>2016-03-13T08:06:20Z</time>
      </trkpt>
      <trkpt lat="46.522733811289072" lon="8.912663804367185">
        <ele>1204.6700000000001</ele>
        <time>2016-03-13T08:06:09Z</time>
      </trkpt>
      <trkpt lat="46.522774379700422" lon="8.91251158900559">
        <ele>1204.6700000000001</ele>
        <time>2016-03-13T08:05:58Z</time>
      </trkpt>
      <trkpt lat="46.522809164598584" lon="8.912355517968535">
        <ele>1206.1099999999999</ele>
        <time>2016-03-13T08:05:47Z</time>
      </trkpt>
      <trkpt lat="46.522853085771203" lon="8.912140605971217">
        <ele>1207.0699999999999</ele>
        <time>2016-03-13T08:05:31Z</time>
      </trkpt>
      <trkpt lat="46.522851912304759" lon="8.912118226289749">
        <ele>1207.0699999999999</ele>
        <time>2016-03-13T08:05:29Z</time>
      </trkpt>
      <trkpt lat="46.52291452512145" lon="8.912037257105112">
        <ele>1207.0699999999999</ele>
        <time>2016-03-13T08:05:17Z</time>
      </trkpt>
      <trkpt lat="46.523015527054667" lon="8.91196969896555">
        <ele>1207.55</ele>
        <time>2016-03-13T08:05:05Z</time>
      </trkpt>
      <trkpt lat="46.523063220083714" lon="8.91191253438592">
        <ele>1207.55</ele>
        <time>2016-03-13T08:04:54Z</time>
      </trkpt>
      <trkpt lat="46.523125162348151" lon="8.911854531615973">
        <ele>1208.03</ele>
        <time>2016-03-13T08:04:43Z</time>
      </trkpt>
      <trkpt lat="46.523136897012591" lon="8.911841455847025">
        <ele>1208.03</ele>
        <time>2016-03-13T08:04:33Z</time>
      </trkpt>
      <trkpt lat="46.523194815963507" lon="8.911694940179586">
        <ele>1208.03</ele>
        <time>2016-03-13T08:04:22Z</time>
      </trkpt>
      <trkpt lat="46.523205293342471" lon="8.911670129746199">
        <ele>1208.51</ele>
        <time>2016-03-13T08:04:17Z</time>
      </trkpt>
      <trkpt lat="46.523233121261001" lon="8.911673566326499">
        <ele>1209</ele>
        <time>2016-03-13T08:04:08Z</time>
      </trkpt>
      <trkpt lat="46.523232869803905" lon="8.91166577115655">
        <ele>1208.51</ele>
        <time>2016-03-13T08:03:54Z</time>
      </trkpt>
      <trkpt lat="46.523238150402904" lon="8.911625789478421">
        <ele>1209.96</ele>
        <time>2016-03-13T08:03:36Z</time>
      </trkpt>
      <trkpt lat="46.523260613903403" lon="8.911604750901461">
        <ele>1209</ele>
        <time>2016-03-13T08:03:14Z</time>
      </trkpt>
      <trkpt lat="46.523261787369847" lon="8.911601481959224">
        <ele>1209.48</ele>
        <time>2016-03-13T08:03:00Z</time>
      </trkpt>
      <trkpt lat="46.523272264748812" lon="8.911588909104466">
        <ele>1209.48</ele>
        <time>2016-03-13T08:02:50Z</time>
      </trkpt>
      <trkpt lat="46.523290872573853" lon="8.911531157791615">
        <ele>1209.96</ele>
        <time>2016-03-13T08:02:38Z</time>
      </trkpt>
      <trkpt lat="46.523283747956157" lon="8.911535516381264">
        <ele>1209.96</ele>
        <time>2016-03-13T08:02:23Z</time>
      </trkpt>
      <trkpt lat="46.523290285840631" lon="8.911553118377924">
        <ele>1210.4400000000001</ele>
        <time>2016-03-13T08:02:08Z</time>
      </trkpt>
      <trkpt lat="46.523297745734453" lon="8.911538533866406">
        <ele>1209.96</ele>
        <time>2016-03-13T08:01:50Z</time>
      </trkpt>
      <trkpt lat="46.523295063525438" lon="8.911549095064402">
        <ele>1209.96</ele>
        <time>2016-03-13T08:01:35Z</time>
      </trkpt>
      <trkpt lat="46.523289028555155" lon="8.91149721108377">
        <ele>1210.4400000000001</ele>
        <time>2016-03-13T08:01:26Z</time>
      </trkpt>
      <trkpt lat="46.5233005117625" lon="8.911483380943537">
        <ele>1209.96</ele>
        <time>2016-03-13T08:01:11Z</time>
      </trkpt>
      <trkpt lat="46.523297745734453" lon="8.91149377450347">
        <ele>1209.48</ele>
        <time>2016-03-13T08:00:55Z</time>
      </trkpt>
      <trkpt lat="46.523301685228944" lon="8.911472400650382">
        <ele>1209.48</ele>
        <time>2016-03-13T08:00:35Z</time>
      </trkpt>
      <trkpt lat="46.523321466520429" lon="8.911468544974923">
        <ele>1209.96</ele>
        <time>2016-03-13T08:00:20Z</time>
      </trkpt>
      <trkpt lat="46.523315515369177" lon="8.911488577723503">
        <ele>1209.96</ele>
        <time>2016-03-13T07:59:57Z</time>
      </trkpt>
      <trkpt lat="46.523311240598559" lon="8.911504000425339">
        <ele>1211.4000000000001</ele>
        <time>2016-03-13T07:59:38Z</time>
      </trkpt>
      <trkpt lat="46.523310653865337" lon="8.911502659320831">
        <ele>1210.9200000000001</ele>
        <time>2016-03-13T07:59:37Z</time>
      </trkpt>
      <trkpt lat="46.523286765441298" lon="8.91150307841599">
        <ele>1210.4400000000001</ele>
        <time>2016-03-13T07:59:21Z</time>
      </trkpt>
      <trkpt lat="46.523297242820263" lon="8.911490840837359">
        <ele>1210.4400000000001</ele>
        <time>2016-03-13T07:59:05Z</time>
      </trkpt>
      <trkpt lat="46.523296236991882" lon="8.911509700119495">
        <ele>1210.9200000000001</ele>
        <time>2016-03-13T07:58:50Z</time>
      </trkpt>
      <trkpt lat="46.523288358002901" lon="8.911507437005639">
        <ele>1209.96</ele>
        <time>2016-03-13T07:58:45Z</time>
      </trkpt>
      <trkpt lat="46.52332155033946" lon="8.911486985161901">
        <ele>1210.4400000000001</ele>
        <time>2016-03-13T07:58:32Z</time>
      </trkpt>
      <trkpt lat="46.523311156779528" lon="8.911487152799964">
        <ele>1210.4400000000001</ele>
        <time>2016-03-13T07:58:15Z</time>
      </trkpt>
      <trkpt lat="46.523336386308074" lon="8.911466365680099">
        <ele>1209.96</ele>
        <time>2016-03-13T07:57:50Z</time>
      </trkpt>
      <trkpt lat="46.523346360772848" lon="8.911472735926509">
        <ele>1209.96</ele>
        <time>2016-03-13T07:57:38Z</time>
      </trkpt>
      <trkpt lat="46.523347953334451" lon="8.911489332094789">
        <ele>1210.4400000000001</ele>
        <time>2016-03-13T07:57:28Z</time>
      </trkpt>
      <trkpt lat="46.523349797353148" lon="8.911477597430348">
        <ele>1209.96</ele>
        <time>2016-03-13T07:57:14Z</time>
      </trkpt>
      <trkpt lat="46.523334961384535" lon="8.911489499732852">
        <ele>1209.96</ele>
        <time>2016-03-13T07:57:04Z</time>
      </trkpt>
      <trkpt lat="46.523299170657992" lon="8.911512466147542">
        <ele>1209</ele>
        <time>2016-03-13T07:56:48Z</time>
      </trkpt>
      <trkpt lat="46.523302774876356" lon="8.911534594371915">
        <ele>1209</ele>
        <time>2016-03-13T07:56:31Z</time>
      </trkpt>
      <trkpt lat="46.523302523419261" lon="8.911549178883433">
        <ele>1209</ele>
        <time>2016-03-13T07:56:18Z</time>
      </trkpt>
      <trkpt lat="46.523300176486373" lon="8.911561751738191">
        <ele>1209.96</ele>
        <time>2016-03-13T07:56:16Z</time>
      </trkpt>
      <trkpt lat="46.523319873958826" lon="8.911578264087439">
        <ele>1210.9200000000001</ele>
        <time>2016-03-13T07:55:56Z</time>
      </trkpt>
      <trkpt lat="46.523324986919761" lon="8.911584466695786">
        <ele>1210.9200000000001</ele>
        <time>2016-03-13T07:55:55Z</time>
      </trkpt>
    </trkseg>
  </trk>

</gpx>